<?xml version="1.0" encoding="UTF-8" standalone="no" ?>
<gpx xmlns="http://www.topografix.com/GPX/1/1" xmlns:xsi="http://www.w3.org/2001/XMLSchema-instance" xsi:schemaLocation="http://www.topografix.com/GPX/1/1 http://www.topografix.com/GPX/1/1/gpx.xsd" version="1.1" creator="VisuGPX - https://www.visugpx.com">
  <metadata>
    <name>Edirne-Mostar</name>
  </metadata>
  <trk>
    <name><![CDATA[Tour d'Europe: étape 714]]></name>
    <extensions>
      <line xmlns="http://www.topografix.com/GPX/gpx_style/0/2">
        <color>0000FF</color>
        <width>4</width>
      </line>
    </extensions>
    <trkseg>
      <trkpt lat="43.10744" lon="17.70346">
        <ele>62.559761</ele>
        <time>2022-06-12T08:33:09.102Z</time>
      </trkpt>
      <trkpt lat="43.10754" lon="17.70348">
        <ele>62.559761</ele>
        <time>2022-06-12T08:33:16.085Z</time>
      </trkpt>
      <trkpt lat="43.10765" lon="17.70351">
        <ele>62.559761</ele>
        <time>2022-06-12T08:33:23.100Z</time>
      </trkpt>
      <trkpt lat="43.10773" lon="17.70362">
        <ele>62.559761</ele>
        <time>2022-06-12T08:33:27.100Z</time>
      </trkpt>
      <trkpt lat="43.10782" lon="17.70368">
        <ele>62.559761</ele>
        <time>2022-06-12T08:33:30.108Z</time>
      </trkpt>
      <trkpt lat="43.10794" lon="17.70366">
        <ele>62.559761</ele>
        <time>2022-06-12T08:33:33.103Z</time>
      </trkpt>
      <trkpt lat="43.10805" lon="17.70365">
        <ele>62.559761</ele>
        <time>2022-06-12T08:33:36.145Z</time>
      </trkpt>
      <trkpt lat="43.10815" lon="17.70366">
        <ele>62.559761</ele>
        <time>2022-06-12T08:33:39.104Z</time>
      </trkpt>
      <trkpt lat="43.10826" lon="17.70368">
        <ele>62.559761</ele>
        <time>2022-06-12T08:33:42.122Z</time>
      </trkpt>
      <trkpt lat="43.10837" lon="17.70372">
        <ele>62.428358</ele>
        <time>2022-06-12T08:33:46.100Z</time>
      </trkpt>
      <trkpt lat="43.10848" lon="17.70374">
        <ele>62.275687</ele>
        <time>2022-06-12T08:33:49.094Z</time>
      </trkpt>
      <trkpt lat="43.10858" lon="17.70376">
        <ele>62.123948</ele>
        <time>2022-06-12T08:33:52.099Z</time>
      </trkpt>
      <trkpt lat="43.10869" lon="17.70379">
        <ele>61.97238</ele>
        <time>2022-06-12T08:33:55.105Z</time>
      </trkpt>
      <trkpt lat="43.10879" lon="17.70382">
        <ele>61.825787</ele>
        <time>2022-06-12T08:33:58.092Z</time>
      </trkpt>
      <trkpt lat="43.10889" lon="17.70384">
        <ele>61.675287</ele>
        <time>2022-06-12T08:34:01.106Z</time>
      </trkpt>
      <trkpt lat="43.10899" lon="17.70386">
        <ele>61.522616</ele>
        <time>2022-06-12T08:34:04.109Z</time>
      </trkpt>
      <trkpt lat="43.1091" lon="17.7039">
        <ele>61.361777</ele>
        <time>2022-06-12T08:34:07.109Z</time>
      </trkpt>
      <trkpt lat="43.1092" lon="17.70396">
        <ele>61.205942</ele>
        <time>2022-06-12T08:34:10.139Z</time>
      </trkpt>
      <trkpt lat="43.10929" lon="17.70404">
        <ele>61.054932</ele>
        <time>2022-06-12T08:34:13.159Z</time>
      </trkpt>
      <trkpt lat="43.10938" lon="17.70406">
        <ele>60.914365</ele>
        <time>2022-06-12T08:34:16.106Z</time>
      </trkpt>
      <trkpt lat="43.10948" lon="17.70399">
        <ele>60.755954</ele>
        <time>2022-06-12T08:34:19.103Z</time>
      </trkpt>
      <trkpt lat="43.10958" lon="17.70397">
        <ele>60.616968</ele>
        <time>2022-06-12T08:34:22.081Z</time>
      </trkpt>
      <trkpt lat="43.10969" lon="17.70398">
        <ele>60.461072</ele>
        <time>2022-06-12T08:34:25.120Z</time>
      </trkpt>
      <trkpt lat="43.10979" lon="17.70402">
        <ele>60.307323</ele>
        <time>2022-06-12T08:34:28.099Z</time>
      </trkpt>
      <trkpt lat="43.10989" lon="17.70405">
        <ele>60.162375</ele>
        <time>2022-06-12T08:34:31.102Z</time>
      </trkpt>
      <trkpt lat="43.10999" lon="17.70408">
        <ele>60.017538</ele>
        <time>2022-06-12T08:34:34.094Z</time>
      </trkpt>
      <trkpt lat="43.11009" lon="17.7041">
        <ele>59.751085</ele>
        <time>2022-06-12T08:34:37.129Z</time>
      </trkpt>
      <trkpt lat="43.11021" lon="17.70413">
        <ele>59.382672</ele>
        <time>2022-06-12T08:34:40.100Z</time>
      </trkpt>
      <trkpt lat="43.11033" lon="17.70418">
        <ele>59.008572</ele>
        <time>2022-06-12T08:34:43.103Z</time>
      </trkpt>
      <trkpt lat="43.11044" lon="17.70424">
        <ele>58.651692</ele>
        <time>2022-06-12T08:34:46.091Z</time>
      </trkpt>
      <trkpt lat="43.11056" lon="17.70431">
        <ele>58.263783</ele>
        <time>2022-06-12T08:34:49.109Z</time>
      </trkpt>
      <trkpt lat="43.11068" lon="17.70436">
        <ele>57.875464</ele>
        <time>2022-06-12T08:34:52.101Z</time>
      </trkpt>
      <trkpt lat="43.11079" lon="17.70444">
        <ele>57.503653</ele>
        <time>2022-06-12T08:34:55.103Z</time>
      </trkpt>
      <trkpt lat="43.11089" lon="17.70451">
        <ele>57.144282</ele>
        <time>2022-06-12T08:34:58.102Z</time>
      </trkpt>
      <trkpt lat="43.111" lon="17.70458">
        <ele>56.797626</ele>
        <time>2022-06-12T08:35:01.096Z</time>
      </trkpt>
      <trkpt lat="43.1111" lon="17.70464">
        <ele>56.452918</ele>
        <time>2022-06-12T08:35:04.097Z</time>
      </trkpt>
      <trkpt lat="43.11122" lon="17.7047">
        <ele>56.077247</ele>
        <time>2022-06-12T08:35:07.099Z</time>
      </trkpt>
      <trkpt lat="43.11133" lon="17.70478">
        <ele>55.695837</ele>
        <time>2022-06-12T08:35:10.097Z</time>
      </trkpt>
      <trkpt lat="43.11145" lon="17.70485">
        <ele>55.306175</ele>
        <time>2022-06-12T08:35:13.101Z</time>
      </trkpt>
      <trkpt lat="43.11156" lon="17.70492">
        <ele>54.944055</ele>
        <time>2022-06-12T08:35:16.166Z</time>
      </trkpt>
      <trkpt lat="43.11166" lon="17.70501">
        <ele>54.572379</ele>
        <time>2022-06-12T08:35:19.095Z</time>
      </trkpt>
      <trkpt lat="43.11174" lon="17.70508">
        <ele>54.558495</ele>
        <time>2022-06-12T08:35:21.111Z</time>
      </trkpt>
      <trkpt lat="43.11182" lon="17.70514">
        <ele>54.588832</ele>
        <time>2022-06-12T08:35:23.107Z</time>
      </trkpt>
      <trkpt lat="43.11193" lon="17.70524">
        <ele>54.630205</ele>
        <time>2022-06-12T08:35:26.109Z</time>
      </trkpt>
      <trkpt lat="43.11204" lon="17.70533">
        <ele>54.669605</ele>
        <time>2022-06-12T08:35:29.097Z</time>
      </trkpt>
      <trkpt lat="43.11213" lon="17.70544">
        <ele>54.707124</ele>
        <time>2022-06-12T08:35:32.091Z</time>
      </trkpt>
      <trkpt lat="43.11221" lon="17.70555">
        <ele>54.745729</ele>
        <time>2022-06-12T08:35:35.102Z</time>
      </trkpt>
      <trkpt lat="43.11231" lon="17.70567">
        <ele>54.785569</ele>
        <time>2022-06-12T08:35:38.100Z</time>
      </trkpt>
      <trkpt lat="43.1124" lon="17.70576">
        <ele>54.823261</ele>
        <time>2022-06-12T08:35:41.095Z</time>
      </trkpt>
      <trkpt lat="43.1125" lon="17.70586">
        <ele>54.86147</ele>
        <time>2022-06-12T08:35:44.100Z</time>
      </trkpt>
      <trkpt lat="43.11261" lon="17.70596">
        <ele>54.902418</ele>
        <time>2022-06-12T08:35:47.101Z</time>
      </trkpt>
      <trkpt lat="43.11271" lon="17.70607">
        <ele>54.943633</ele>
        <time>2022-06-12T08:35:50.101Z</time>
      </trkpt>
      <trkpt lat="43.11282" lon="17.70616">
        <ele>54.984738</ele>
        <time>2022-06-12T08:35:53.104Z</time>
      </trkpt>
      <trkpt lat="43.11292" lon="17.70627">
        <ele>55.024153</ele>
        <time>2022-06-12T08:35:56.098Z</time>
      </trkpt>
      <trkpt lat="43.11301" lon="17.70636">
        <ele>55.060534</ele>
        <time>2022-06-12T08:35:59.130Z</time>
      </trkpt>
      <trkpt lat="43.11312" lon="17.70645">
        <ele>55.099523</ele>
        <time>2022-06-12T08:36:02.103Z</time>
      </trkpt>
      <trkpt lat="43.11322" lon="17.70656">
        <ele>55.479777</ele>
        <time>2022-06-12T08:36:05.113Z</time>
      </trkpt>
      <trkpt lat="43.11331" lon="17.70666">
        <ele>55.887545</ele>
        <time>2022-06-12T08:36:08.108Z</time>
      </trkpt>
      <trkpt lat="43.11341" lon="17.70676">
        <ele>56.284654</ele>
        <time>2022-06-12T08:36:11.123Z</time>
      </trkpt>
      <trkpt lat="43.1135" lon="17.70686">
        <ele>56.672594</ele>
        <time>2022-06-12T08:36:14.110Z</time>
      </trkpt>
      <trkpt lat="43.11359" lon="17.70695">
        <ele>57.026075</ele>
        <time>2022-06-12T08:36:17.102Z</time>
      </trkpt>
      <trkpt lat="43.11365" lon="17.70703">
        <ele>57.323909</ele>
        <time>2022-06-12T08:36:20.106Z</time>
      </trkpt>
      <trkpt lat="43.11367" lon="17.70717">
        <ele>57.665815</ele>
        <time>2022-06-12T08:36:25.103Z</time>
      </trkpt>
      <trkpt lat="43.11375" lon="17.70706">
        <ele>58.016309</ele>
        <time>2022-06-12T08:36:37.087Z</time>
      </trkpt>
      <trkpt lat="43.11382" lon="17.70697">
        <ele>58.350103</ele>
        <time>2022-06-12T08:36:41.099Z</time>
      </trkpt>
      <trkpt lat="43.11387" lon="17.70686">
        <ele>58.660932</ele>
        <time>2022-06-12T08:36:45.124Z</time>
      </trkpt>
      <trkpt lat="43.11393" lon="17.70676">
        <ele>58.975994</ele>
        <time>2022-06-12T08:36:48.106Z</time>
      </trkpt>
      <trkpt lat="43.11398" lon="17.70665">
        <ele>59.290045</ele>
        <time>2022-06-12T08:36:51.124Z</time>
      </trkpt>
      <trkpt lat="43.11402" lon="17.70651">
        <ele>59.644784</ele>
        <time>2022-06-12T08:36:55.106Z</time>
      </trkpt>
      <trkpt lat="43.11413" lon="17.70658">
        <ele>60.038408</ele>
        <time>2022-06-12T08:37:00.093Z</time>
      </trkpt>
      <trkpt lat="43.11422" lon="17.70667">
        <ele>60.402883</ele>
        <time>2022-06-12T08:37:04.089Z</time>
      </trkpt>
      <trkpt lat="43.1143" lon="17.70676">
        <ele>60.75014</ele>
        <time>2022-06-12T08:37:08.099Z</time>
      </trkpt>
      <trkpt lat="43.11438" lon="17.70685">
        <ele>60.907931</ele>
        <time>2022-06-12T08:37:11.100Z</time>
      </trkpt>
      <trkpt lat="43.11446" lon="17.70693">
        <ele>60.25474</ele>
        <time>2022-06-12T08:37:14.164Z</time>
      </trkpt>
      <trkpt lat="43.11454" lon="17.70703">
        <ele>59.6281</ele>
        <time>2022-06-12T08:37:17.094Z</time>
      </trkpt>
      <trkpt lat="43.11462" lon="17.70715">
        <ele>58.901131</ele>
        <time>2022-06-12T08:37:20.104Z</time>
      </trkpt>
      <trkpt lat="43.1147" lon="17.70727">
        <ele>58.151027</ele>
        <time>2022-06-12T08:37:23.128Z</time>
      </trkpt>
      <trkpt lat="43.1148" lon="17.70739">
        <ele>57.341355</ele>
        <time>2022-06-12T08:37:26.126Z</time>
      </trkpt>
      <trkpt lat="43.1149" lon="17.70749">
        <ele>56.599302</ele>
        <time>2022-06-12T08:37:29.102Z</time>
      </trkpt>
      <trkpt lat="43.11501" lon="17.70758">
        <ele>55.814783</ele>
        <time>2022-06-12T08:37:32.103Z</time>
      </trkpt>
      <trkpt lat="43.11512" lon="17.70764">
        <ele>55.107201</ele>
        <time>2022-06-12T08:37:35.094Z</time>
      </trkpt>
      <trkpt lat="43.11522" lon="17.70769">
        <ele>54.414972</ele>
        <time>2022-06-12T08:37:38.099Z</time>
      </trkpt>
      <trkpt lat="43.11534" lon="17.70772">
        <ele>53.697286</ele>
        <time>2022-06-12T08:37:41.111Z</time>
      </trkpt>
      <trkpt lat="43.11544" lon="17.70774">
        <ele>53.037454</ele>
        <time>2022-06-12T08:37:44.096Z</time>
      </trkpt>
      <trkpt lat="43.11555" lon="17.70774">
        <ele>52.374856</ele>
        <time>2022-06-12T08:37:47.110Z</time>
      </trkpt>
      <trkpt lat="43.11566" lon="17.70772">
        <ele>51.687451</ele>
        <time>2022-06-12T08:37:50.106Z</time>
      </trkpt>
      <trkpt lat="43.11577" lon="17.70767">
        <ele>50.976034</ele>
        <time>2022-06-12T08:37:53.094Z</time>
      </trkpt>
      <trkpt lat="43.11588" lon="17.70759">
        <ele>50.223691</ele>
        <time>2022-06-12T08:37:56.140Z</time>
      </trkpt>
      <trkpt lat="43.11598" lon="17.7075">
        <ele>50.217662</ele>
        <time>2022-06-12T08:37:59.092Z</time>
      </trkpt>
      <trkpt lat="43.11607" lon="17.7074">
        <ele>50.53202</ele>
        <time>2022-06-12T08:38:02.108Z</time>
      </trkpt>
      <trkpt lat="43.11615" lon="17.70729">
        <ele>50.830922</ele>
        <time>2022-06-12T08:38:05.113Z</time>
      </trkpt>
      <trkpt lat="43.11622" lon="17.70716">
        <ele>51.14322</ele>
        <time>2022-06-12T08:38:08.112Z</time>
      </trkpt>
      <trkpt lat="43.11629" lon="17.70703">
        <ele>51.461323</ele>
        <time>2022-06-12T08:38:11.101Z</time>
      </trkpt>
      <trkpt lat="43.11636" lon="17.70689">
        <ele>51.790801</ele>
        <time>2022-06-12T08:38:14.093Z</time>
      </trkpt>
      <trkpt lat="43.11642" lon="17.70673">
        <ele>52.144472</ele>
        <time>2022-06-12T08:38:17.106Z</time>
      </trkpt>
      <trkpt lat="43.11649" lon="17.70659">
        <ele>52.479976</ele>
        <time>2022-06-12T08:38:20.103Z</time>
      </trkpt>
      <trkpt lat="43.11656" lon="17.70645">
        <ele>52.810771</ele>
        <time>2022-06-12T08:38:23.125Z</time>
      </trkpt>
      <trkpt lat="43.11664" lon="17.70633">
        <ele>53.136486</ele>
        <time>2022-06-12T08:38:26.095Z</time>
      </trkpt>
      <trkpt lat="43.11673" lon="17.70621">
        <ele>53.453346</ele>
        <time>2022-06-12T08:38:29.099Z</time>
      </trkpt>
      <trkpt lat="43.11682" lon="17.70612">
        <ele>53.767083</ele>
        <time>2022-06-12T08:38:32.128Z</time>
      </trkpt>
      <trkpt lat="43.11692" lon="17.70605">
        <ele>54.069864</ele>
        <time>2022-06-12T08:38:35.105Z</time>
      </trkpt>
      <trkpt lat="43.11702" lon="17.70599">
        <ele>54.358105</ele>
        <time>2022-06-12T08:38:38.105Z</time>
      </trkpt>
      <trkpt lat="43.11712" lon="17.70594">
        <ele>54.652054</ele>
        <time>2022-06-12T08:38:42.101Z</time>
      </trkpt>
      <trkpt lat="43.11723" lon="17.7059">
        <ele>54.860525</ele>
        <time>2022-06-12T08:38:47.116Z</time>
      </trkpt>
      <trkpt lat="43.11732" lon="17.70586">
        <ele>54.941889</ele>
        <time>2022-06-12T08:38:53.101Z</time>
      </trkpt>
      <trkpt lat="43.11742" lon="17.7058">
        <ele>55.024725</ele>
        <time>2022-06-12T08:39:00.105Z</time>
      </trkpt>
      <trkpt lat="43.1175" lon="17.70575">
        <ele>55.099562</ele>
        <time>2022-06-12T08:39:06.102Z</time>
      </trkpt>
      <trkpt lat="43.11759" lon="17.7057">
        <ele>55.175902</ele>
        <time>2022-06-12T08:39:13.096Z</time>
      </trkpt>
      <trkpt lat="43.11768" lon="17.70567">
        <ele>55.253135</ele>
        <time>2022-06-12T08:39:19.097Z</time>
      </trkpt>
      <trkpt lat="43.11777" lon="17.70563">
        <ele>55.334158</ele>
        <time>2022-06-12T08:39:26.107Z</time>
      </trkpt>
      <trkpt lat="43.11787" lon="17.7056">
        <ele>55.415648</ele>
        <time>2022-06-12T08:39:33.092Z</time>
      </trkpt>
      <trkpt lat="43.11796" lon="17.70554">
        <ele>55.499464</ele>
        <time>2022-06-12T08:39:40.103Z</time>
      </trkpt>
      <trkpt lat="43.11806" lon="17.70552">
        <ele>55.576582</ele>
        <time>2022-06-12T08:39:46.104Z</time>
      </trkpt>
      <trkpt lat="43.11816" lon="17.7055">
        <ele>55.658187</ele>
        <time>2022-06-12T08:39:53.101Z</time>
      </trkpt>
      <trkpt lat="43.11825" lon="17.70549">
        <ele>55.736857</ele>
        <time>2022-06-12T08:39:59.105Z</time>
      </trkpt>
      <trkpt lat="43.11836" lon="17.70548">
        <ele>55.822862</ele>
        <time>2022-06-12T08:40:04.092Z</time>
      </trkpt>
      <trkpt lat="43.11847" lon="17.70548">
        <ele>55.911114</ele>
        <time>2022-06-12T08:40:08.112Z</time>
      </trkpt>
      <trkpt lat="43.11858" lon="17.70549">
        <ele>56.008418</ele>
        <time>2022-06-12T08:40:12.095Z</time>
      </trkpt>
      <trkpt lat="43.1187" lon="17.70551">
        <ele>56.101049</ele>
        <time>2022-06-12T08:40:15.112Z</time>
      </trkpt>
      <trkpt lat="43.11882" lon="17.70555">
        <ele>56.20278</ele>
        <time>2022-06-12T08:40:18.088Z</time>
      </trkpt>
      <trkpt lat="43.11894" lon="17.70557">
        <ele>56.272438</ele>
        <time>2022-06-12T08:40:21.135Z</time>
      </trkpt>
      <trkpt lat="43.11903" lon="17.70559">
        <ele>56.070783</ele>
        <time>2022-06-12T08:40:23.091Z</time>
      </trkpt>
      <trkpt lat="43.11912" lon="17.70562">
        <ele>55.868018</ele>
        <time>2022-06-12T08:40:25.073Z</time>
      </trkpt>
      <trkpt lat="43.11922" lon="17.70565">
        <ele>55.656636</ele>
        <time>2022-06-12T08:40:27.080Z</time>
      </trkpt>
      <trkpt lat="43.11932" lon="17.70569">
        <ele>55.430815</ele>
        <time>2022-06-12T08:40:29.071Z</time>
      </trkpt>
      <trkpt lat="43.11942" lon="17.70575">
        <ele>55.199088</ele>
        <time>2022-06-12T08:40:31.079Z</time>
      </trkpt>
      <trkpt lat="43.11951" lon="17.70582">
        <ele>54.964936</ele>
        <time>2022-06-12T08:40:33.080Z</time>
      </trkpt>
      <trkpt lat="43.11962" lon="17.7059">
        <ele>54.708244</ele>
        <time>2022-06-12T08:40:35.072Z</time>
      </trkpt>
      <trkpt lat="43.11973" lon="17.70598">
        <ele>54.451553</ele>
        <time>2022-06-12T08:40:37.074Z</time>
      </trkpt>
      <trkpt lat="43.11983" lon="17.70603">
        <ele>54.211601</ele>
        <time>2022-06-12T08:40:39.085Z</time>
      </trkpt>
      <trkpt lat="43.11993" lon="17.70607">
        <ele>53.98844</ele>
        <time>2022-06-12T08:40:41.073Z</time>
      </trkpt>
      <trkpt lat="43.12003" lon="17.70611">
        <ele>53.762694</ele>
        <time>2022-06-12T08:40:43.075Z</time>
      </trkpt>
      <trkpt lat="43.12013" lon="17.70614">
        <ele>53.547855</ele>
        <time>2022-06-12T08:40:45.078Z</time>
      </trkpt>
      <trkpt lat="43.12025" lon="17.70617">
        <ele>53.279231</ele>
        <time>2022-06-12T08:40:48.077Z</time>
      </trkpt>
      <trkpt lat="43.12037" lon="17.70619">
        <ele>53.02253</ele>
        <time>2022-06-12T08:40:51.072Z</time>
      </trkpt>
      <trkpt lat="43.12049" lon="17.70622">
        <ele>52.759987</ele>
        <time>2022-06-12T08:40:54.072Z</time>
      </trkpt>
      <trkpt lat="43.1206" lon="17.70622">
        <ele>52.526738</ele>
        <time>2022-06-12T08:40:57.081Z</time>
      </trkpt>
      <trkpt lat="43.12072" lon="17.70623">
        <ele>52.434295</ele>
        <time>2022-06-12T08:41:00.079Z</time>
      </trkpt>
      <trkpt lat="43.12083" lon="17.70625">
        <ele>52.420298</ele>
        <time>2022-06-12T08:41:03.069Z</time>
      </trkpt>
      <trkpt lat="43.12094" lon="17.70627">
        <ele>52.406756</ele>
        <time>2022-06-12T08:41:06.075Z</time>
      </trkpt>
      <trkpt lat="43.12104" lon="17.70629">
        <ele>52.393807</ele>
        <time>2022-06-12T08:41:09.079Z</time>
      </trkpt>
      <trkpt lat="43.12115" lon="17.70631">
        <ele>52.379618</ele>
        <time>2022-06-12T08:41:12.104Z</time>
      </trkpt>
      <trkpt lat="43.12126" lon="17.70636">
        <ele>52.364911</ele>
        <time>2022-06-12T08:41:15.088Z</time>
      </trkpt>
      <trkpt lat="43.12137" lon="17.7064">
        <ele>52.351314</ele>
        <time>2022-06-12T08:41:18.103Z</time>
      </trkpt>
      <trkpt lat="43.12147" lon="17.70644">
        <ele>52.337958</ele>
        <time>2022-06-12T08:41:21.076Z</time>
      </trkpt>
      <trkpt lat="43.12157" lon="17.70648">
        <ele>52.324695</ele>
        <time>2022-06-12T08:41:24.073Z</time>
      </trkpt>
      <trkpt lat="43.12168" lon="17.70651">
        <ele>52.311067</ele>
        <time>2022-06-12T08:41:27.073Z</time>
      </trkpt>
      <trkpt lat="43.12178" lon="17.70656">
        <ele>52.297704</ele>
        <time>2022-06-12T08:41:30.075Z</time>
      </trkpt>
      <trkpt lat="43.12187" lon="17.70664">
        <ele>52.283672</ele>
        <time>2022-06-12T08:41:33.080Z</time>
      </trkpt>
      <trkpt lat="43.12197" lon="17.70672">
        <ele>52.269837</ele>
        <time>2022-06-12T08:41:36.118Z</time>
      </trkpt>
      <trkpt lat="43.12205" lon="17.70679">
        <ele>52.258147</ele>
        <time>2022-06-12T08:41:40.106Z</time>
      </trkpt>
      <trkpt lat="43.12214" lon="17.70687">
        <ele>52.243592</ele>
        <time>2022-06-12T08:41:44.072Z</time>
      </trkpt>
      <trkpt lat="43.12223" lon="17.70694">
        <ele>52.231369</ele>
        <time>2022-06-12T08:41:47.079Z</time>
      </trkpt>
      <trkpt lat="43.12231" lon="17.70702">
        <ele>52.21854</ele>
        <time>2022-06-12T08:41:50.076Z</time>
      </trkpt>
      <trkpt lat="43.1224" lon="17.70711">
        <ele>52.306457</ele>
        <time>2022-06-12T08:41:53.084Z</time>
      </trkpt>
      <trkpt lat="43.12248" lon="17.7072">
        <ele>52.397747</ele>
        <time>2022-06-12T08:41:56.073Z</time>
      </trkpt>
      <trkpt lat="43.12256" lon="17.70729">
        <ele>52.486968</ele>
        <time>2022-06-12T08:41:59.079Z</time>
      </trkpt>
      <trkpt lat="43.12263" lon="17.70739">
        <ele>52.567681</ele>
        <time>2022-06-12T08:42:02.073Z</time>
      </trkpt>
      <trkpt lat="43.1227" lon="17.70749">
        <ele>52.658677</ele>
        <time>2022-06-12T08:42:05.072Z</time>
      </trkpt>
      <trkpt lat="43.12278" lon="17.70761">
        <ele>52.753455</ele>
        <time>2022-06-12T08:42:08.109Z</time>
      </trkpt>
      <trkpt lat="43.12286" lon="17.70771">
        <ele>52.843823</ele>
        <time>2022-06-12T08:42:11.070Z</time>
      </trkpt>
      <trkpt lat="43.12292" lon="17.70782">
        <ele>52.931479</ele>
        <time>2022-06-12T08:42:14.078Z</time>
      </trkpt>
      <trkpt lat="43.12299" lon="17.70793">
        <ele>53.022576</ele>
        <time>2022-06-12T08:42:17.071Z</time>
      </trkpt>
      <trkpt lat="43.12305" lon="17.70805">
        <ele>53.11162</ele>
        <time>2022-06-12T08:42:20.091Z</time>
      </trkpt>
      <trkpt lat="43.12311" lon="17.70817">
        <ele>53.202055</ele>
        <time>2022-06-12T08:42:23.077Z</time>
      </trkpt>
      <trkpt lat="43.12317" lon="17.7083">
        <ele>53.296146</ele>
        <time>2022-06-12T08:42:26.069Z</time>
      </trkpt>
      <trkpt lat="43.12322" lon="17.70843">
        <ele>53.385182</ele>
        <time>2022-06-12T08:42:29.095Z</time>
      </trkpt>
      <trkpt lat="43.12327" lon="17.70857">
        <ele>53.480502</ele>
        <time>2022-06-12T08:42:32.077Z</time>
      </trkpt>
      <trkpt lat="43.12332" lon="17.70871">
        <ele>53.574827</ele>
        <time>2022-06-12T08:42:35.076Z</time>
      </trkpt>
      <trkpt lat="43.12336" lon="17.70884">
        <ele>53.664088</ele>
        <time>2022-06-12T08:42:38.072Z</time>
      </trkpt>
      <trkpt lat="43.12341" lon="17.70897">
        <ele>53.7518</ele>
        <time>2022-06-12T08:42:41.080Z</time>
      </trkpt>
      <trkpt lat="43.12345" lon="17.70909">
        <ele>53.834664</ele>
        <time>2022-06-12T08:42:44.073Z</time>
      </trkpt>
      <trkpt lat="43.12348" lon="17.70921">
        <ele>53.916195</ele>
        <time>2022-06-12T08:42:47.074Z</time>
      </trkpt>
      <trkpt lat="43.12351" lon="17.70933">
        <ele>53.993027</ele>
        <time>2022-06-12T08:42:50.071Z</time>
      </trkpt>
      <trkpt lat="43.12355" lon="17.70945">
        <ele>54.077022</ele>
        <time>2022-06-12T08:42:54.069Z</time>
      </trkpt>
      <trkpt lat="43.1236" lon="17.70957">
        <ele>54.162214</ele>
        <time>2022-06-12T08:42:57.073Z</time>
      </trkpt>
      <trkpt lat="43.12366" lon="17.70971">
        <ele>54.25624</ele>
        <time>2022-06-12T08:43:00.072Z</time>
      </trkpt>
      <trkpt lat="43.1237" lon="17.70984">
        <ele>54.345691</ele>
        <time>2022-06-12T08:43:03.084Z</time>
      </trkpt>
      <trkpt lat="43.12374" lon="17.70997">
        <ele>54.435475</ele>
        <time>2022-06-12T08:43:06.078Z</time>
      </trkpt>
      <trkpt lat="43.12378" lon="17.71011">
        <ele>54.527782</ele>
        <time>2022-06-12T08:43:09.077Z</time>
      </trkpt>
      <trkpt lat="43.12383" lon="17.71025">
        <ele>54.620651</ele>
        <time>2022-06-12T08:43:12.085Z</time>
      </trkpt>
      <trkpt lat="43.12387" lon="17.71038">
        <ele>54.711181</ele>
        <time>2022-06-12T08:43:15.071Z</time>
      </trkpt>
      <trkpt lat="43.12391" lon="17.7105">
        <ele>54.791564</ele>
        <time>2022-06-12T08:43:18.073Z</time>
      </trkpt>
      <trkpt lat="43.12394" lon="17.71063">
        <ele>54.875136</ele>
        <time>2022-06-12T08:43:21.085Z</time>
      </trkpt>
      <trkpt lat="43.124" lon="17.71075">
        <ele>54.964166</ele>
        <time>2022-06-12T08:43:24.067Z</time>
      </trkpt>
      <trkpt lat="43.12404" lon="17.71088">
        <ele>55.055536</ele>
        <time>2022-06-12T08:43:27.097Z</time>
      </trkpt>
      <trkpt lat="43.12408" lon="17.71103">
        <ele>55.151859</ele>
        <time>2022-06-12T08:43:30.076Z</time>
      </trkpt>
      <trkpt lat="43.12412" lon="17.71116">
        <ele>55.242782</ele>
        <time>2022-06-12T08:43:33.074Z</time>
      </trkpt>
      <trkpt lat="43.12417" lon="17.71129">
        <ele>55.323879</ele>
        <time>2022-06-12T08:43:36.070Z</time>
      </trkpt>
      <trkpt lat="43.12421" lon="17.71143">
        <ele>55.406642</ele>
        <time>2022-06-12T08:43:39.086Z</time>
      </trkpt>
      <trkpt lat="43.12425" lon="17.71156">
        <ele>55.490964</ele>
        <time>2022-06-12T08:43:42.077Z</time>
      </trkpt>
      <trkpt lat="43.1243" lon="17.7117">
        <ele>55.57802</ele>
        <time>2022-06-12T08:43:45.080Z</time>
      </trkpt>
      <trkpt lat="43.12435" lon="17.71184">
        <ele>55.663261</ele>
        <time>2022-06-12T08:43:48.071Z</time>
      </trkpt>
      <trkpt lat="43.12439" lon="17.71197">
        <ele>55.745245</ele>
        <time>2022-06-12T08:43:51.087Z</time>
      </trkpt>
      <trkpt lat="43.12444" lon="17.7121">
        <ele>55.82537</ele>
        <time>2022-06-12T08:43:54.073Z</time>
      </trkpt>
      <trkpt lat="43.12448" lon="17.71223">
        <ele>55.904988</ele>
        <time>2022-06-12T08:43:57.071Z</time>
      </trkpt>
      <trkpt lat="43.12452" lon="17.71235">
        <ele>55.983304</ele>
        <time>2022-06-12T08:44:00.075Z</time>
      </trkpt>
      <trkpt lat="43.12457" lon="17.7125">
        <ele>56.07278</ele>
        <time>2022-06-12T08:44:04.090Z</time>
      </trkpt>
      <trkpt lat="43.12462" lon="17.71264">
        <ele>56.164938</ele>
        <time>2022-06-12T08:44:08.075Z</time>
      </trkpt>
      <trkpt lat="43.12466" lon="17.71276">
        <ele>56.236273</ele>
        <time>2022-06-12T08:44:11.086Z</time>
      </trkpt>
      <trkpt lat="43.12471" lon="17.71288">
        <ele>56.315222</ele>
        <time>2022-06-12T08:44:14.079Z</time>
      </trkpt>
      <trkpt lat="43.12476" lon="17.71301">
        <ele>56.397235</ele>
        <time>2022-06-12T08:44:17.080Z</time>
      </trkpt>
      <trkpt lat="43.1248" lon="17.71315">
        <ele>56.479587</ele>
        <time>2022-06-12T08:44:20.085Z</time>
      </trkpt>
      <trkpt lat="43.12485" lon="17.71328">
        <ele>56.565659</ele>
        <time>2022-06-12T08:44:23.083Z</time>
      </trkpt>
      <trkpt lat="43.12489" lon="17.71342">
        <ele>56.650782</ele>
        <time>2022-06-12T08:44:26.075Z</time>
      </trkpt>
      <trkpt lat="43.12494" lon="17.71356">
        <ele>56.654002</ele>
        <time>2022-06-12T08:44:29.077Z</time>
      </trkpt>
      <trkpt lat="43.12498" lon="17.7137">
        <ele>56.65713</ele>
        <time>2022-06-12T08:44:32.091Z</time>
      </trkpt>
      <trkpt lat="43.12502" lon="17.71384">
        <ele>56.660252</ele>
        <time>2022-06-12T08:44:35.085Z</time>
      </trkpt>
      <trkpt lat="43.12506" lon="17.71397">
        <ele>56.663375</ele>
        <time>2022-06-12T08:44:38.101Z</time>
      </trkpt>
      <trkpt lat="43.12511" lon="17.71411">
        <ele>56.666517</ele>
        <time>2022-06-12T08:44:41.072Z</time>
      </trkpt>
      <trkpt lat="43.12515" lon="17.71425">
        <ele>56.669771</ele>
        <time>2022-06-12T08:44:44.103Z</time>
      </trkpt>
      <trkpt lat="43.1252" lon="17.71438">
        <ele>56.672937</ele>
        <time>2022-06-12T08:44:47.092Z</time>
      </trkpt>
      <trkpt lat="43.12524" lon="17.71452">
        <ele>56.676102</ele>
        <time>2022-06-12T08:44:50.112Z</time>
      </trkpt>
      <trkpt lat="43.12529" lon="17.71466">
        <ele>56.679369</ele>
        <time>2022-06-12T08:44:53.075Z</time>
      </trkpt>
      <trkpt lat="43.12534" lon="17.7148">
        <ele>56.682636</ele>
        <time>2022-06-12T08:44:56.069Z</time>
      </trkpt>
      <trkpt lat="43.12538" lon="17.71494">
        <ele>56.685896</ele>
        <time>2022-06-12T08:44:59.077Z</time>
      </trkpt>
      <trkpt lat="43.12543" lon="17.71507">
        <ele>56.689035</ele>
        <time>2022-06-12T08:45:02.082Z</time>
      </trkpt>
      <trkpt lat="43.12548" lon="17.7152">
        <ele>56.692129</ele>
        <time>2022-06-12T08:45:05.078Z</time>
      </trkpt>
      <trkpt lat="43.12552" lon="17.71534">
        <ele>56.695268</ele>
        <time>2022-06-12T08:45:08.076Z</time>
      </trkpt>
      <trkpt lat="43.12557" lon="17.71547">
        <ele>56.698401</ele>
        <time>2022-06-12T08:45:11.076Z</time>
      </trkpt>
      <trkpt lat="43.12561" lon="17.7156">
        <ele>56.70131</ele>
        <time>2022-06-12T08:45:14.080Z</time>
      </trkpt>
      <trkpt lat="43.12565" lon="17.71573">
        <ele>56.854478</ele>
        <time>2022-06-12T08:45:17.092Z</time>
      </trkpt>
      <trkpt lat="43.1257" lon="17.71587">
        <ele>57.201941</ele>
        <time>2022-06-12T08:45:20.075Z</time>
      </trkpt>
      <trkpt lat="43.12575" lon="17.71601">
        <ele>57.570827</ele>
        <time>2022-06-12T08:45:23.093Z</time>
      </trkpt>
      <trkpt lat="43.1258" lon="17.71615">
        <ele>57.932135</ele>
        <time>2022-06-12T08:45:26.069Z</time>
      </trkpt>
      <trkpt lat="43.12585" lon="17.7163">
        <ele>58.301262</ele>
        <time>2022-06-12T08:45:29.078Z</time>
      </trkpt>
      <trkpt lat="43.12589" lon="17.71644">
        <ele>58.667906</ele>
        <time>2022-06-12T08:45:32.069Z</time>
      </trkpt>
      <trkpt lat="43.12594" lon="17.71658">
        <ele>59.026398</ele>
        <time>2022-06-12T08:45:35.074Z</time>
      </trkpt>
      <trkpt lat="43.12599" lon="17.71672">
        <ele>59.373637</ele>
        <time>2022-06-12T08:45:38.072Z</time>
      </trkpt>
      <trkpt lat="43.12603" lon="17.71686">
        <ele>59.714534</ele>
        <time>2022-06-12T08:45:41.088Z</time>
      </trkpt>
      <trkpt lat="43.12608" lon="17.71699">
        <ele>60.053105</ele>
        <time>2022-06-12T08:45:44.072Z</time>
      </trkpt>
      <trkpt lat="43.12612" lon="17.71712">
        <ele>60.391892</ele>
        <time>2022-06-12T08:45:47.087Z</time>
      </trkpt>
      <trkpt lat="43.12616" lon="17.71724">
        <ele>60.686268</ele>
        <time>2022-06-12T08:45:50.073Z</time>
      </trkpt>
      <trkpt lat="43.12621" lon="17.71738">
        <ele>61.028429</ele>
        <time>2022-06-12T08:45:54.070Z</time>
      </trkpt>
      <trkpt lat="43.12624" lon="17.7175">
        <ele>61.327685</ele>
        <time>2022-06-12T08:45:57.075Z</time>
      </trkpt>
      <trkpt lat="43.12628" lon="17.71763">
        <ele>61.649779</ele>
        <time>2022-06-12T08:46:00.072Z</time>
      </trkpt>
      <trkpt lat="43.12632" lon="17.71776">
        <ele>61.98487</ele>
        <time>2022-06-12T08:46:03.115Z</time>
      </trkpt>
      <trkpt lat="43.12637" lon="17.71789">
        <ele>62.313965</ele>
        <time>2022-06-12T08:46:06.084Z</time>
      </trkpt>
      <trkpt lat="43.12641" lon="17.71803">
        <ele>62.328085</ele>
        <time>2022-06-12T08:46:09.073Z</time>
      </trkpt>
      <trkpt lat="43.12645" lon="17.71816">
        <ele>62.276453</ele>
        <time>2022-06-12T08:46:12.071Z</time>
      </trkpt>
      <trkpt lat="43.1265" lon="17.71829">
        <ele>62.224408</ele>
        <time>2022-06-12T08:46:15.102Z</time>
      </trkpt>
      <trkpt lat="43.12653" lon="17.71843">
        <ele>62.17389</ele>
        <time>2022-06-12T08:46:18.069Z</time>
      </trkpt>
      <trkpt lat="43.12657" lon="17.71857">
        <ele>62.119613</ele>
        <time>2022-06-12T08:46:21.072Z</time>
      </trkpt>
      <trkpt lat="43.12661" lon="17.71871">
        <ele>62.066378</ele>
        <time>2022-06-12T08:46:24.082Z</time>
      </trkpt>
      <trkpt lat="43.12666" lon="17.71884">
        <ele>62.016174</ele>
        <time>2022-06-12T08:46:27.073Z</time>
      </trkpt>
      <trkpt lat="43.12671" lon="17.71896">
        <ele>61.967185</ele>
        <time>2022-06-12T08:46:30.071Z</time>
      </trkpt>
      <trkpt lat="43.12675" lon="17.71909">
        <ele>61.917307</ele>
        <time>2022-06-12T08:46:33.076Z</time>
      </trkpt>
      <trkpt lat="43.12679" lon="17.71923">
        <ele>61.863621</ele>
        <time>2022-06-12T08:46:36.073Z</time>
      </trkpt>
      <trkpt lat="43.12684" lon="17.71936">
        <ele>61.813264</ele>
        <time>2022-06-12T08:46:39.079Z</time>
      </trkpt>
      <trkpt lat="43.12689" lon="17.71951">
        <ele>61.756148</ele>
        <time>2022-06-12T08:46:42.074Z</time>
      </trkpt>
      <trkpt lat="43.12694" lon="17.71965">
        <ele>61.698614</ele>
        <time>2022-06-12T08:46:45.109Z</time>
      </trkpt>
      <trkpt lat="43.127" lon="17.71981">
        <ele>61.638112</ele>
        <time>2022-06-12T08:46:48.082Z</time>
      </trkpt>
      <trkpt lat="43.12704" lon="17.71995">
        <ele>61.585992</ele>
        <time>2022-06-12T08:46:51.071Z</time>
      </trkpt>
      <trkpt lat="43.12709" lon="17.72009">
        <ele>61.530252</ele>
        <time>2022-06-12T08:46:54.072Z</time>
      </trkpt>
      <trkpt lat="43.12715" lon="17.72023">
        <ele>61.615116</ele>
        <time>2022-06-12T08:46:57.084Z</time>
      </trkpt>
      <trkpt lat="43.12722" lon="17.72036">
        <ele>61.814135</ele>
        <time>2022-06-12T08:47:00.072Z</time>
      </trkpt>
      <trkpt lat="43.12729" lon="17.72051">
        <ele>62.036495</ele>
        <time>2022-06-12T08:47:03.080Z</time>
      </trkpt>
      <trkpt lat="43.12737" lon="17.72065">
        <ele>62.254624</ele>
        <time>2022-06-12T08:47:06.096Z</time>
      </trkpt>
      <trkpt lat="43.12743" lon="17.72078">
        <ele>62.446822</ele>
        <time>2022-06-12T08:47:09.089Z</time>
      </trkpt>
      <trkpt lat="43.12749" lon="17.72089">
        <ele>62.618727</ele>
        <time>2022-06-12T08:47:12.101Z</time>
      </trkpt>
      <trkpt lat="43.12757" lon="17.72101">
        <ele>62.820298</ele>
        <time>2022-06-12T08:47:16.076Z</time>
      </trkpt>
      <trkpt lat="43.12768" lon="17.72108">
        <ele>63.01785</ele>
        <time>2022-06-12T08:47:20.075Z</time>
      </trkpt>
      <trkpt lat="43.12774" lon="17.72116">
        <ele>63.173528</ele>
        <time>2022-06-12T08:47:26.083Z</time>
      </trkpt>
      <trkpt lat="43.12778" lon="17.72128">
        <ele>63.335485</ele>
        <time>2022-06-12T08:47:34.102Z</time>
      </trkpt>
      <trkpt lat="43.12783" lon="17.72139">
        <ele>63.498853</ele>
        <time>2022-06-12T08:47:43.079Z</time>
      </trkpt>
      <trkpt lat="43.1279" lon="17.72149">
        <ele>63.672151</ele>
        <time>2022-06-12T08:47:50.069Z</time>
      </trkpt>
      <trkpt lat="43.12799" lon="17.72155">
        <ele>63.842011</ele>
        <time>2022-06-12T08:47:58.075Z</time>
      </trkpt>
      <trkpt lat="43.12806" lon="17.72163">
        <ele>64.001951</ele>
        <time>2022-06-12T08:48:07.078Z</time>
      </trkpt>
      <trkpt lat="43.12809" lon="17.72178">
        <ele>64.189486</ele>
        <time>2022-06-12T08:48:27.111Z</time>
      </trkpt>
      <trkpt lat="43.12802" lon="17.72191">
        <ele>64.391511</ele>
        <time>2022-06-12T08:48:30.080Z</time>
      </trkpt>
      <trkpt lat="43.12792" lon="17.7219">
        <ele>64.568865</ele>
        <time>2022-06-12T08:48:34.082Z</time>
      </trkpt>
      <trkpt lat="43.12784" lon="17.72179">
        <ele>63.982174</ele>
        <time>2022-06-12T08:48:37.099Z</time>
      </trkpt>
      <trkpt lat="43.12776" lon="17.72167">
        <ele>63.379924</ele>
        <time>2022-06-12T08:48:40.076Z</time>
      </trkpt>
      <trkpt lat="43.12769" lon="17.72153">
        <ele>62.767861</ele>
        <time>2022-06-12T08:48:43.075Z</time>
      </trkpt>
      <trkpt lat="43.12763" lon="17.72138">
        <ele>62.11483</ele>
        <time>2022-06-12T08:48:46.069Z</time>
      </trkpt>
      <trkpt lat="43.12755" lon="17.7213">
        <ele>61.653965</ele>
        <time>2022-06-12T08:48:49.082Z</time>
      </trkpt>
      <trkpt lat="43.12756" lon="17.72145">
        <ele>61.119002</ele>
        <time>2022-06-12T08:48:53.073Z</time>
      </trkpt>
      <trkpt lat="43.12761" lon="17.72159">
        <ele>60.550679</ele>
        <time>2022-06-12T08:48:56.072Z</time>
      </trkpt>
      <trkpt lat="43.12766" lon="17.72174">
        <ele>59.912595</ele>
        <time>2022-06-12T08:48:59.072Z</time>
      </trkpt>
      <trkpt lat="43.1277" lon="17.72188">
        <ele>59.377301</ele>
        <time>2022-06-12T08:49:02.083Z</time>
      </trkpt>
      <trkpt lat="43.12776" lon="17.72198">
        <ele>58.900034</ele>
        <time>2022-06-12T08:49:05.099Z</time>
      </trkpt>
      <trkpt lat="43.12782" lon="17.72209">
        <ele>58.384253</ele>
        <time>2022-06-12T08:49:08.080Z</time>
      </trkpt>
      <trkpt lat="43.1279" lon="17.72219">
        <ele>57.844672</ele>
        <time>2022-06-12T08:49:11.091Z</time>
      </trkpt>
      <trkpt lat="43.12799" lon="17.72227">
        <ele>57.294237</ele>
        <time>2022-06-12T08:49:14.078Z</time>
      </trkpt>
      <trkpt lat="43.12809" lon="17.72234">
        <ele>56.724989</ele>
        <time>2022-06-12T08:49:17.088Z</time>
      </trkpt>
      <trkpt lat="43.12819" lon="17.72239">
        <ele>56.196451</ele>
        <time>2022-06-12T08:49:20.074Z</time>
      </trkpt>
      <trkpt lat="43.12828" lon="17.72242">
        <ele>55.713176</ele>
        <time>2022-06-12T08:49:23.073Z</time>
      </trkpt>
      <trkpt lat="43.12838" lon="17.72244">
        <ele>55.399001</ele>
        <time>2022-06-12T08:49:26.082Z</time>
      </trkpt>
      <trkpt lat="43.12851" lon="17.72252">
        <ele>55.177383</ele>
        <time>2022-06-12T08:49:29.071Z</time>
      </trkpt>
      <trkpt lat="43.1286" lon="17.7226">
        <ele>54.997345</ele>
        <time>2022-06-12T08:49:31.069Z</time>
      </trkpt>
      <trkpt lat="43.1287" lon="17.72269">
        <ele>54.820048</ele>
        <time>2022-06-12T08:49:33.079Z</time>
      </trkpt>
      <trkpt lat="43.12878" lon="17.72277">
        <ele>54.666136</ele>
        <time>2022-06-12T08:49:35.086Z</time>
      </trkpt>
      <trkpt lat="43.12886" lon="17.72283">
        <ele>54.514724</ele>
        <time>2022-06-12T08:49:37.085Z</time>
      </trkpt>
      <trkpt lat="43.12894" lon="17.72289">
        <ele>54.370592</ele>
        <time>2022-06-12T08:49:39.072Z</time>
      </trkpt>
      <trkpt lat="43.12906" lon="17.72295">
        <ele>54.176203</ele>
        <time>2022-06-12T08:49:42.077Z</time>
      </trkpt>
      <trkpt lat="43.12915" lon="17.72302">
        <ele>54.015694</ele>
        <time>2022-06-12T08:49:45.094Z</time>
      </trkpt>
      <trkpt lat="43.12925" lon="17.72307">
        <ele>53.848779</ele>
        <time>2022-06-12T08:49:48.076Z</time>
      </trkpt>
      <trkpt lat="43.12936" lon="17.72312">
        <ele>53.662162</ele>
        <time>2022-06-12T08:49:51.098Z</time>
      </trkpt>
      <trkpt lat="43.12946" lon="17.72318">
        <ele>53.488545</ele>
        <time>2022-06-12T08:49:54.106Z</time>
      </trkpt>
      <trkpt lat="43.12956" lon="17.72324">
        <ele>53.314688</ele>
        <time>2022-06-12T08:49:57.078Z</time>
      </trkpt>
      <trkpt lat="43.12967" lon="17.72329">
        <ele>53.129634</ele>
        <time>2022-06-12T08:50:00.066Z</time>
      </trkpt>
      <trkpt lat="43.12979" lon="17.72334">
        <ele>52.935636</ele>
        <time>2022-06-12T08:50:03.081Z</time>
      </trkpt>
      <trkpt lat="43.12991" lon="17.72338">
        <ele>52.735086</ele>
        <time>2022-06-12T08:50:06.077Z</time>
      </trkpt>
      <trkpt lat="43.13004" lon="17.72342">
        <ele>52.711014</ele>
        <time>2022-06-12T08:50:09.075Z</time>
      </trkpt>
      <trkpt lat="43.13015" lon="17.72344">
        <ele>52.81614</ele>
        <time>2022-06-12T08:50:12.084Z</time>
      </trkpt>
      <trkpt lat="43.13026" lon="17.72347">
        <ele>52.919852</ele>
        <time>2022-06-12T08:50:15.075Z</time>
      </trkpt>
      <trkpt lat="43.13037" lon="17.7235">
        <ele>53.018369</ele>
        <time>2022-06-12T08:50:18.073Z</time>
      </trkpt>
      <trkpt lat="43.13048" lon="17.72354">
        <ele>53.121135</ele>
        <time>2022-06-12T08:50:21.073Z</time>
      </trkpt>
      <trkpt lat="43.13059" lon="17.72357">
        <ele>53.226263</ele>
        <time>2022-06-12T08:50:24.071Z</time>
      </trkpt>
      <trkpt lat="43.1307" lon="17.72361">
        <ele>53.322854</ele>
        <time>2022-06-12T08:50:27.069Z</time>
      </trkpt>
      <trkpt lat="43.13079" lon="17.72365">
        <ele>53.412257</ele>
        <time>2022-06-12T08:50:30.075Z</time>
      </trkpt>
      <trkpt lat="43.13087" lon="17.72369">
        <ele>53.493502</ele>
        <time>2022-06-12T08:50:33.094Z</time>
      </trkpt>
      <trkpt lat="43.13096" lon="17.72372">
        <ele>53.578399</ele>
        <time>2022-06-12T08:50:36.084Z</time>
      </trkpt>
      <trkpt lat="43.13107" lon="17.72373">
        <ele>53.67052</ele>
        <time>2022-06-12T08:50:39.068Z</time>
      </trkpt>
      <trkpt lat="43.13119" lon="17.72374">
        <ele>53.781477</ele>
        <time>2022-06-12T08:50:42.096Z</time>
      </trkpt>
      <trkpt lat="43.13131" lon="17.72376">
        <ele>53.890589</ele>
        <time>2022-06-12T08:50:45.084Z</time>
      </trkpt>
      <trkpt lat="43.13142" lon="17.7238">
        <ele>53.996009</ele>
        <time>2022-06-12T08:50:48.095Z</time>
      </trkpt>
      <trkpt lat="43.13154" lon="17.72382">
        <ele>54.102421</ele>
        <time>2022-06-12T08:50:51.092Z</time>
      </trkpt>
      <trkpt lat="43.13165" lon="17.72383">
        <ele>54.202642</ele>
        <time>2022-06-12T08:50:54.091Z</time>
      </trkpt>
      <trkpt lat="43.13174" lon="17.72384">
        <ele>54.314886</ele>
        <time>2022-06-12T08:50:57.075Z</time>
      </trkpt>
      <trkpt lat="43.13186" lon="17.72388">
        <ele>54.652979</ele>
        <time>2022-06-12T08:51:01.078Z</time>
      </trkpt>
      <trkpt lat="43.13198" lon="17.72392">
        <ele>55.025731</ele>
        <time>2022-06-12T08:51:05.094Z</time>
      </trkpt>
      <trkpt lat="43.1321" lon="17.72395">
        <ele>55.378951</ele>
        <time>2022-06-12T08:51:08.082Z</time>
      </trkpt>
      <trkpt lat="43.13222" lon="17.72398">
        <ele>55.742353</ele>
        <time>2022-06-12T08:51:11.102Z</time>
      </trkpt>
      <trkpt lat="43.13234" lon="17.72401">
        <ele>56.077218</ele>
        <time>2022-06-12T08:51:14.071Z</time>
      </trkpt>
      <trkpt lat="43.13245" lon="17.72405">
        <ele>56.411018</ele>
        <time>2022-06-12T08:51:17.094Z</time>
      </trkpt>
      <trkpt lat="43.13256" lon="17.72408">
        <ele>56.742621</ele>
        <time>2022-06-12T08:51:20.074Z</time>
      </trkpt>
      <trkpt lat="43.13268" lon="17.7241">
        <ele>57.095317</ele>
        <time>2022-06-12T08:51:23.097Z</time>
      </trkpt>
      <trkpt lat="43.13279" lon="17.72413">
        <ele>57.418793</ele>
        <time>2022-06-12T08:51:26.082Z</time>
      </trkpt>
      <trkpt lat="43.13288" lon="17.72417">
        <ele>57.704179</ele>
        <time>2022-06-12T08:51:29.099Z</time>
      </trkpt>
      <trkpt lat="43.13298" lon="17.7242">
        <ele>57.992222</ele>
        <time>2022-06-12T08:51:32.074Z</time>
      </trkpt>
      <trkpt lat="43.13309" lon="17.72421">
        <ele>58.295675</ele>
        <time>2022-06-12T08:51:35.102Z</time>
      </trkpt>
      <trkpt lat="43.13319" lon="17.72423">
        <ele>58.605111</ele>
        <time>2022-06-12T08:51:38.080Z</time>
      </trkpt>
      <trkpt lat="43.1333" lon="17.72424">
        <ele>58.929429</ele>
        <time>2022-06-12T08:51:41.084Z</time>
      </trkpt>
      <trkpt lat="43.13342" lon="17.72426">
        <ele>59.271537</ele>
        <time>2022-06-12T08:51:44.069Z</time>
      </trkpt>
      <trkpt lat="43.13353" lon="17.72428">
        <ele>59.520235</ele>
        <time>2022-06-12T08:51:47.070Z</time>
      </trkpt>
      <trkpt lat="43.13365" lon="17.72431">
        <ele>59.56206</ele>
        <time>2022-06-12T08:51:50.075Z</time>
      </trkpt>
      <trkpt lat="43.13377" lon="17.72434">
        <ele>59.604523</ele>
        <time>2022-06-12T08:51:53.076Z</time>
      </trkpt>
      <trkpt lat="43.13388" lon="17.72439">
        <ele>59.643648</ele>
        <time>2022-06-12T08:51:56.091Z</time>
      </trkpt>
      <trkpt lat="43.134" lon="17.72442">
        <ele>59.687624</ele>
        <time>2022-06-12T08:51:59.107Z</time>
      </trkpt>
      <trkpt lat="43.13409" lon="17.72445">
        <ele>59.72074</ele>
        <time>2022-06-12T08:52:02.096Z</time>
      </trkpt>
      <trkpt lat="43.1342" lon="17.72448">
        <ele>59.757191</ele>
        <time>2022-06-12T08:52:07.118Z</time>
      </trkpt>
      <trkpt lat="43.13429" lon="17.7245">
        <ele>59.790699</ele>
        <time>2022-06-12T08:52:14.151Z</time>
      </trkpt>
      <trkpt lat="43.13439" lon="17.72452">
        <ele>59.824702</ele>
        <time>2022-06-12T08:52:19.108Z</time>
      </trkpt>
      <trkpt lat="43.13449" lon="17.72453">
        <ele>59.85882</ele>
        <time>2022-06-12T08:52:24.133Z</time>
      </trkpt>
      <trkpt lat="43.1346" lon="17.72455">
        <ele>59.898454</ele>
        <time>2022-06-12T08:52:29.106Z</time>
      </trkpt>
      <trkpt lat="43.13469" lon="17.72457">
        <ele>59.931949</ele>
        <time>2022-06-12T08:52:33.105Z</time>
      </trkpt>
      <trkpt lat="43.13479" lon="17.7246">
        <ele>59.967664</ele>
        <time>2022-06-12T08:52:37.107Z</time>
      </trkpt>
      <trkpt lat="43.1349" lon="17.72462">
        <ele>60.006565</ele>
        <time>2022-06-12T08:52:41.098Z</time>
      </trkpt>
      <trkpt lat="43.135" lon="17.72464">
        <ele>60.040594</ele>
        <time>2022-06-12T08:52:44.101Z</time>
      </trkpt>
      <trkpt lat="43.13511" lon="17.72466">
        <ele>60.079724</ele>
        <time>2022-06-12T08:52:47.135Z</time>
      </trkpt>
      <trkpt lat="43.13523" lon="17.72467">
        <ele>60.121069</ele>
        <time>2022-06-12T08:52:50.094Z</time>
      </trkpt>
      <trkpt lat="43.13536" lon="17.72472">
        <ele>60.27988</ele>
        <time>2022-06-12T08:52:53.106Z</time>
      </trkpt>
      <trkpt lat="43.13546" lon="17.72475">
        <ele>60.425797</ele>
        <time>2022-06-12T08:52:55.117Z</time>
      </trkpt>
      <trkpt lat="43.13556" lon="17.72478">
        <ele>60.587853</ele>
        <time>2022-06-12T08:52:57.121Z</time>
      </trkpt>
      <trkpt lat="43.13566" lon="17.72481">
        <ele>60.740941</ele>
        <time>2022-06-12T08:52:59.108Z</time>
      </trkpt>
      <trkpt lat="43.13578" lon="17.72485">
        <ele>60.93246</ele>
        <time>2022-06-12T08:53:02.111Z</time>
      </trkpt>
      <trkpt lat="43.13588" lon="17.72488">
        <ele>61.088058</ele>
        <time>2022-06-12T08:53:05.109Z</time>
      </trkpt>
      <trkpt lat="43.13597" lon="17.72492">
        <ele>61.233041</ele>
        <time>2022-06-12T08:53:08.103Z</time>
      </trkpt>
      <trkpt lat="43.13608" lon="17.72494">
        <ele>61.405697</ele>
        <time>2022-06-12T08:53:11.101Z</time>
      </trkpt>
      <trkpt lat="43.13619" lon="17.72496">
        <ele>61.568276</ele>
        <time>2022-06-12T08:53:14.107Z</time>
      </trkpt>
      <trkpt lat="43.13629" lon="17.72499">
        <ele>61.721779</ele>
        <time>2022-06-12T08:53:17.103Z</time>
      </trkpt>
      <trkpt lat="43.1364" lon="17.72503">
        <ele>61.898516</ele>
        <time>2022-06-12T08:53:20.099Z</time>
      </trkpt>
      <trkpt lat="43.1365" lon="17.72508">
        <ele>62.069817</ele>
        <time>2022-06-12T08:53:23.103Z</time>
      </trkpt>
      <trkpt lat="43.13661" lon="17.72511">
        <ele>62.228374</ele>
        <time>2022-06-12T08:53:26.101Z</time>
      </trkpt>
      <trkpt lat="43.13671" lon="17.72515">
        <ele>62.386002</ele>
        <time>2022-06-12T08:53:29.099Z</time>
      </trkpt>
      <trkpt lat="43.1368" lon="17.72519">
        <ele>62.543999</ele>
        <time>2022-06-12T08:53:32.094Z</time>
      </trkpt>
      <trkpt lat="43.13691" lon="17.72525">
        <ele>62.721081</ele>
        <time>2022-06-12T08:53:35.137Z</time>
      </trkpt>
      <trkpt lat="43.13703" lon="17.7253">
        <ele>62.850793</ele>
        <time>2022-06-12T08:53:38.091Z</time>
      </trkpt>
      <trkpt lat="43.13715" lon="17.72535">
        <ele>62.673372</ele>
        <time>2022-06-12T08:53:41.150Z</time>
      </trkpt>
      <trkpt lat="43.13728" lon="17.72539">
        <ele>62.485837</ele>
        <time>2022-06-12T08:53:44.103Z</time>
      </trkpt>
      <trkpt lat="43.1374" lon="17.72544">
        <ele>62.303631</ele>
        <time>2022-06-12T08:53:47.130Z</time>
      </trkpt>
      <trkpt lat="43.13752" lon="17.72549">
        <ele>62.12939</ele>
        <time>2022-06-12T08:53:50.104Z</time>
      </trkpt>
      <trkpt lat="43.13764" lon="17.72554">
        <ele>61.956873</ele>
        <time>2022-06-12T08:53:53.100Z</time>
      </trkpt>
      <trkpt lat="43.13775" lon="17.7256">
        <ele>61.788917</ele>
        <time>2022-06-12T08:53:56.093Z</time>
      </trkpt>
      <trkpt lat="43.13786" lon="17.72566">
        <ele>61.623588</ele>
        <time>2022-06-12T08:53:59.104Z</time>
      </trkpt>
      <trkpt lat="43.13796" lon="17.7257">
        <ele>61.46642</ele>
        <time>2022-06-12T08:54:02.099Z</time>
      </trkpt>
      <trkpt lat="43.13807" lon="17.72576">
        <ele>61.30502</ele>
        <time>2022-06-12T08:54:05.108Z</time>
      </trkpt>
      <trkpt lat="43.13817" lon="17.72582">
        <ele>61.150008</ele>
        <time>2022-06-12T08:54:08.100Z</time>
      </trkpt>
      <trkpt lat="43.13828" lon="17.72588">
        <ele>60.986123</ele>
        <time>2022-06-12T08:54:11.191Z</time>
      </trkpt>
      <trkpt lat="43.13838" lon="17.72595">
        <ele>60.819557</ele>
        <time>2022-06-12T08:54:14.152Z</time>
      </trkpt>
      <trkpt lat="43.13847" lon="17.72604">
        <ele>60.670013</ele>
        <time>2022-06-12T08:54:17.094Z</time>
      </trkpt>
      <trkpt lat="43.13855" lon="17.72611">
        <ele>60.539086</ele>
        <time>2022-06-12T08:54:20.092Z</time>
      </trkpt>
      <trkpt lat="43.13863" lon="17.72618">
        <ele>60.40051</ele>
        <time>2022-06-12T08:54:23.110Z</time>
      </trkpt>
      <trkpt lat="43.13873" lon="17.72627">
        <ele>60.364</ele>
        <time>2022-06-12T08:54:26.133Z</time>
      </trkpt>
      <trkpt lat="43.13882" lon="17.72635">
        <ele>60.40188</ele>
        <time>2022-06-12T08:54:29.092Z</time>
      </trkpt>
      <trkpt lat="43.13891" lon="17.72645">
        <ele>60.439808</ele>
        <time>2022-06-12T08:54:32.085Z</time>
      </trkpt>
      <trkpt lat="43.13899" lon="17.72652">
        <ele>60.472574</ele>
        <time>2022-06-12T08:54:35.114Z</time>
      </trkpt>
      <trkpt lat="43.13907" lon="17.72661">
        <ele>60.508258</ele>
        <time>2022-06-12T08:54:38.106Z</time>
      </trkpt>
      <trkpt lat="43.13918" lon="17.7267">
        <ele>60.549457</ele>
        <time>2022-06-12T08:54:41.103Z</time>
      </trkpt>
      <trkpt lat="43.13928" lon="17.72679">
        <ele>60.589843</ele>
        <time>2022-06-12T08:54:44.083Z</time>
      </trkpt>
      <trkpt lat="43.13937" lon="17.72687">
        <ele>60.626203</ele>
        <time>2022-06-12T08:54:47.090Z</time>
      </trkpt>
      <trkpt lat="43.13945" lon="17.72695">
        <ele>60.659541</ele>
        <time>2022-06-12T08:54:51.110Z</time>
      </trkpt>
      <trkpt lat="43.13966" lon="17.72711">
        <ele>60.738857</ele>
        <time>2022-06-12T09:16:07.105Z</time>
      </trkpt>
      <trkpt lat="43.13974" lon="17.72716">
        <ele>60.770513</ele>
        <time>2022-06-12T09:16:11.104Z</time>
      </trkpt>
      <trkpt lat="43.13985" lon="17.72723">
        <ele>60.809537</ele>
        <time>2022-06-12T09:16:15.085Z</time>
      </trkpt>
      <trkpt lat="43.13994" lon="17.7273">
        <ele>60.843601</ele>
        <time>2022-06-12T09:16:18.101Z</time>
      </trkpt>
      <trkpt lat="43.14004" lon="17.72737">
        <ele>60.882058</ele>
        <time>2022-06-12T09:16:21.109Z</time>
      </trkpt>
      <trkpt lat="43.14015" lon="17.72746">
        <ele>60.926277</ele>
        <time>2022-06-12T09:16:24.093Z</time>
      </trkpt>
      <trkpt lat="43.14023" lon="17.72752">
        <ele>60.980744</ele>
        <time>2022-06-12T09:16:26.107Z</time>
      </trkpt>
      <trkpt lat="43.14035" lon="17.72759">
        <ele>61.091214</ele>
        <time>2022-06-12T09:16:29.115Z</time>
      </trkpt>
      <trkpt lat="43.14045" lon="17.72764">
        <ele>61.191014</ele>
        <time>2022-06-12T09:16:32.105Z</time>
      </trkpt>
      <trkpt lat="43.14056" lon="17.72769">
        <ele>61.293322</ele>
        <time>2022-06-12T09:16:35.113Z</time>
      </trkpt>
      <trkpt lat="43.14067" lon="17.72774">
        <ele>61.392906</ele>
        <time>2022-06-12T09:16:38.104Z</time>
      </trkpt>
      <trkpt lat="43.14078" lon="17.72777">
        <ele>61.493072</ele>
        <time>2022-06-12T09:16:41.111Z</time>
      </trkpt>
      <trkpt lat="43.14088" lon="17.7278">
        <ele>61.579075</ele>
        <time>2022-06-12T09:16:44.092Z</time>
      </trkpt>
      <trkpt lat="43.14098" lon="17.72781">
        <ele>61.668058</ele>
        <time>2022-06-12T09:16:47.101Z</time>
      </trkpt>
      <trkpt lat="43.14107" lon="17.72783">
        <ele>61.752284</ele>
        <time>2022-06-12T09:16:50.100Z</time>
      </trkpt>
      <trkpt lat="43.14117" lon="17.72787">
        <ele>61.844475</ele>
        <time>2022-06-12T09:16:54.129Z</time>
      </trkpt>
      <trkpt lat="43.14127" lon="17.72791">
        <ele>61.932959</ele>
        <time>2022-06-12T09:16:58.100Z</time>
      </trkpt>
      <trkpt lat="43.14138" lon="17.72794">
        <ele>62.039227</ele>
        <time>2022-06-12T09:17:02.101Z</time>
      </trkpt>
      <trkpt lat="43.14148" lon="17.72794">
        <ele>62.128021</ele>
        <time>2022-06-12T09:17:05.137Z</time>
      </trkpt>
      <trkpt lat="43.14158" lon="17.72795">
        <ele>62.21248</ele>
        <time>2022-06-12T09:17:08.093Z</time>
      </trkpt>
      <trkpt lat="43.14169" lon="17.72796">
        <ele>62.309156</ele>
        <time>2022-06-12T09:17:11.103Z</time>
      </trkpt>
      <trkpt lat="43.1418" lon="17.72797">
        <ele>62.406142</ele>
        <time>2022-06-12T09:17:14.097Z</time>
      </trkpt>
      <trkpt lat="43.14189" lon="17.72798">
        <ele>62.49313</ele>
        <time>2022-06-12T09:17:17.103Z</time>
      </trkpt>
      <trkpt lat="43.14199" lon="17.72797">
        <ele>62.452753</ele>
        <time>2022-06-12T09:17:20.096Z</time>
      </trkpt>
      <trkpt lat="43.14208" lon="17.72794">
        <ele>62.266556</ele>
        <time>2022-06-12T09:17:23.109Z</time>
      </trkpt>
      <trkpt lat="43.14217" lon="17.7279">
        <ele>62.091953</ele>
        <time>2022-06-12T09:17:26.093Z</time>
      </trkpt>
      <trkpt lat="43.14229" lon="17.72786">
        <ele>61.858798</ele>
        <time>2022-06-12T09:17:30.113Z</time>
      </trkpt>
      <trkpt lat="43.14238" lon="17.72784">
        <ele>61.67689</ele>
        <time>2022-06-12T09:17:33.115Z</time>
      </trkpt>
      <trkpt lat="43.14247" lon="17.72779">
        <ele>61.486321</ele>
        <time>2022-06-12T09:17:36.097Z</time>
      </trkpt>
      <trkpt lat="43.14256" lon="17.72776">
        <ele>61.302658</ele>
        <time>2022-06-12T09:17:39.103Z</time>
      </trkpt>
      <trkpt lat="43.14266" lon="17.72772">
        <ele>61.118623</ele>
        <time>2022-06-12T09:17:42.097Z</time>
      </trkpt>
      <trkpt lat="43.14275" lon="17.72768">
        <ele>60.932155</ele>
        <time>2022-06-12T09:17:45.124Z</time>
      </trkpt>
      <trkpt lat="43.14284" lon="17.72764">
        <ele>60.744278</ele>
        <time>2022-06-12T09:17:48.126Z</time>
      </trkpt>
      <trkpt lat="43.14294" lon="17.72761">
        <ele>60.555377</ele>
        <time>2022-06-12T09:17:51.095Z</time>
      </trkpt>
      <trkpt lat="43.14303" lon="17.72756">
        <ele>60.351787</ele>
        <time>2022-06-12T09:17:54.097Z</time>
      </trkpt>
      <trkpt lat="43.14313" lon="17.72751">
        <ele>60.158922</ele>
        <time>2022-06-12T09:17:57.096Z</time>
      </trkpt>
      <trkpt lat="43.14323" lon="17.72749">
        <ele>59.960695</ele>
        <time>2022-06-12T09:18:00.136Z</time>
      </trkpt>
      <trkpt lat="43.14333" lon="17.72748">
        <ele>59.761448</ele>
        <time>2022-06-12T09:18:03.108Z</time>
      </trkpt>
      <trkpt lat="43.14345" lon="17.72746">
        <ele>59.540417</ele>
        <time>2022-06-12T09:18:06.103Z</time>
      </trkpt>
      <trkpt lat="43.14356" lon="17.72745">
        <ele>59.317617</ele>
        <time>2022-06-12T09:18:09.101Z</time>
      </trkpt>
      <trkpt lat="43.14367" lon="17.72745">
        <ele>59.10337</ele>
        <time>2022-06-12T09:18:12.100Z</time>
      </trkpt>
      <trkpt lat="43.14378" lon="17.72749">
        <ele>59.126963</ele>
        <time>2022-06-12T09:18:15.129Z</time>
      </trkpt>
      <trkpt lat="43.14389" lon="17.7275">
        <ele>59.189906</ele>
        <time>2022-06-12T09:18:18.093Z</time>
      </trkpt>
      <trkpt lat="43.14399" lon="17.72752">
        <ele>59.244984</ele>
        <time>2022-06-12T09:18:21.120Z</time>
      </trkpt>
      <trkpt lat="43.14408" lon="17.72754">
        <ele>59.299309</ele>
        <time>2022-06-12T09:18:24.105Z</time>
      </trkpt>
      <trkpt lat="43.14417" lon="17.72759">
        <ele>59.357037</ele>
        <time>2022-06-12T09:18:28.085Z</time>
      </trkpt>
      <trkpt lat="43.14427" lon="17.7276">
        <ele>59.416675</ele>
        <time>2022-06-12T09:18:35.107Z</time>
      </trkpt>
      <trkpt lat="43.14438" lon="17.72763">
        <ele>59.477871</ele>
        <time>2022-06-12T09:18:41.105Z</time>
      </trkpt>
      <trkpt lat="43.14448" lon="17.72767">
        <ele>59.540618</ele>
        <time>2022-06-12T09:18:45.111Z</time>
      </trkpt>
      <trkpt lat="43.14459" lon="17.72771">
        <ele>59.609467</ele>
        <time>2022-06-12T09:18:49.133Z</time>
      </trkpt>
      <trkpt lat="43.14468" lon="17.72775">
        <ele>59.664049</ele>
        <time>2022-06-12T09:18:52.103Z</time>
      </trkpt>
      <trkpt lat="43.14477" lon="17.72779">
        <ele>59.718458</ele>
        <time>2022-06-12T09:18:55.146Z</time>
      </trkpt>
      <trkpt lat="43.14486" lon="17.72784">
        <ele>59.774514</ele>
        <time>2022-06-12T09:18:58.102Z</time>
      </trkpt>
      <trkpt lat="43.14495" lon="17.72789">
        <ele>59.83158</ele>
        <time>2022-06-12T09:19:01.088Z</time>
      </trkpt>
      <trkpt lat="43.14504" lon="17.72795">
        <ele>59.890241</ele>
        <time>2022-06-12T09:19:04.097Z</time>
      </trkpt>
      <trkpt lat="43.14514" lon="17.72802">
        <ele>59.950449</ele>
        <time>2022-06-12T09:19:07.141Z</time>
      </trkpt>
      <trkpt lat="43.14523" lon="17.72809">
        <ele>60.011881</ele>
        <time>2022-06-12T09:19:10.101Z</time>
      </trkpt>
      <trkpt lat="43.14532" lon="17.72817">
        <ele>60.073288</ele>
        <time>2022-06-12T09:19:13.098Z</time>
      </trkpt>
      <trkpt lat="43.1454" lon="17.72825">
        <ele>60.181849</ele>
        <time>2022-06-12T09:19:16.115Z</time>
      </trkpt>
      <trkpt lat="43.14549" lon="17.72835">
        <ele>60.405642</ele>
        <time>2022-06-12T09:19:19.106Z</time>
      </trkpt>
      <trkpt lat="43.14558" lon="17.72843">
        <ele>60.614067</ele>
        <time>2022-06-12T09:19:22.109Z</time>
      </trkpt>
      <trkpt lat="43.14567" lon="17.72852">
        <ele>60.842471</ele>
        <time>2022-06-12T09:19:25.104Z</time>
      </trkpt>
      <trkpt lat="43.14576" lon="17.72862">
        <ele>61.064917</ele>
        <time>2022-06-12T09:19:28.090Z</time>
      </trkpt>
      <trkpt lat="43.14583" lon="17.72872">
        <ele>61.264008</ele>
        <time>2022-06-12T09:19:31.103Z</time>
      </trkpt>
      <trkpt lat="43.14592" lon="17.72881">
        <ele>61.481247</ele>
        <time>2022-06-12T09:19:34.103Z</time>
      </trkpt>
      <trkpt lat="43.146" lon="17.72891">
        <ele>61.695115</ele>
        <time>2022-06-12T09:19:37.100Z</time>
      </trkpt>
      <trkpt lat="43.14608" lon="17.72901">
        <ele>61.914223</ele>
        <time>2022-06-12T09:19:40.151Z</time>
      </trkpt>
      <trkpt lat="43.14617" lon="17.7291">
        <ele>62.131776</ele>
        <time>2022-06-12T09:19:43.111Z</time>
      </trkpt>
      <trkpt lat="43.14625" lon="17.7292">
        <ele>62.343564</ele>
        <time>2022-06-12T09:19:46.112Z</time>
      </trkpt>
      <trkpt lat="43.14633" lon="17.7293">
        <ele>62.557781</ele>
        <time>2022-06-12T09:19:49.115Z</time>
      </trkpt>
      <trkpt lat="43.1464" lon="17.7294">
        <ele>62.758469</ele>
        <time>2022-06-12T09:19:52.102Z</time>
      </trkpt>
      <trkpt lat="43.14649" lon="17.72949">
        <ele>62.972469</ele>
        <time>2022-06-12T09:19:55.109Z</time>
      </trkpt>
      <trkpt lat="43.14656" lon="17.72957">
        <ele>63.166797</ele>
        <time>2022-06-12T09:19:58.106Z</time>
      </trkpt>
      <trkpt lat="43.14665" lon="17.72966">
        <ele>63.376782</ele>
        <time>2022-06-12T09:20:01.104Z</time>
      </trkpt>
      <trkpt lat="43.14673" lon="17.72976">
        <ele>63.59744</ele>
        <time>2022-06-12T09:20:04.109Z</time>
      </trkpt>
      <trkpt lat="43.14681" lon="17.72985">
        <ele>63.782033</ele>
        <time>2022-06-12T09:20:07.108Z</time>
      </trkpt>
      <trkpt lat="43.14689" lon="17.72994">
        <ele>63.957057</ele>
        <time>2022-06-12T09:20:10.105Z</time>
      </trkpt>
      <trkpt lat="43.14695" lon="17.73003">
        <ele>64.11475</ele>
        <time>2022-06-12T09:20:13.095Z</time>
      </trkpt>
      <trkpt lat="43.14703" lon="17.73012">
        <ele>64.291891</ele>
        <time>2022-06-12T09:20:16.103Z</time>
      </trkpt>
      <trkpt lat="43.14711" lon="17.73022">
        <ele>64.47623</ele>
        <time>2022-06-12T09:20:19.128Z</time>
      </trkpt>
      <trkpt lat="43.14719" lon="17.73032">
        <ele>64.665248</ele>
        <time>2022-06-12T09:20:22.097Z</time>
      </trkpt>
      <trkpt lat="43.14728" lon="17.73042">
        <ele>64.860035</ele>
        <time>2022-06-12T09:20:25.137Z</time>
      </trkpt>
      <trkpt lat="43.14736" lon="17.73052">
        <ele>65.046039</ele>
        <time>2022-06-12T09:20:28.131Z</time>
      </trkpt>
      <trkpt lat="43.14744" lon="17.73062">
        <ele>65.22953</ele>
        <time>2022-06-12T09:20:31.145Z</time>
      </trkpt>
      <trkpt lat="43.14752" lon="17.73071">
        <ele>65.408788</ele>
        <time>2022-06-12T09:20:34.086Z</time>
      </trkpt>
      <trkpt lat="43.1476" lon="17.73081">
        <ele>65.604367</ele>
        <time>2022-06-12T09:20:37.140Z</time>
      </trkpt>
      <trkpt lat="43.14769" lon="17.73092">
        <ele>65.795875</ele>
        <time>2022-06-12T09:20:40.105Z</time>
      </trkpt>
      <trkpt lat="43.14777" lon="17.73102">
        <ele>65.986951</ele>
        <time>2022-06-12T09:20:43.100Z</time>
      </trkpt>
      <trkpt lat="43.14785" lon="17.73111">
        <ele>66.171401</ele>
        <time>2022-06-12T09:20:46.120Z</time>
      </trkpt>
      <trkpt lat="43.14793" lon="17.7312">
        <ele>66.351868</ele>
        <time>2022-06-12T09:20:49.106Z</time>
      </trkpt>
      <trkpt lat="43.14802" lon="17.7313">
        <ele>66.540886</ele>
        <time>2022-06-12T09:20:52.094Z</time>
      </trkpt>
      <trkpt lat="43.14809" lon="17.7314">
        <ele>66.713679</ele>
        <time>2022-06-12T09:20:55.093Z</time>
      </trkpt>
      <trkpt lat="43.14815" lon="17.7315">
        <ele>66.767382</ele>
        <time>2022-06-12T09:20:58.101Z</time>
      </trkpt>
      <trkpt lat="43.14821" lon="17.73161">
        <ele>66.773639</ele>
        <time>2022-06-12T09:21:01.116Z</time>
      </trkpt>
      <trkpt lat="43.14829" lon="17.73171">
        <ele>66.780362</ele>
        <time>2022-06-12T09:21:04.117Z</time>
      </trkpt>
      <trkpt lat="43.14835" lon="17.73181">
        <ele>66.786282</ele>
        <time>2022-06-12T09:21:07.110Z</time>
      </trkpt>
      <trkpt lat="43.14842" lon="17.7319">
        <ele>66.79251</ele>
        <time>2022-06-12T09:21:10.099Z</time>
      </trkpt>
      <trkpt lat="43.1485" lon="17.732">
        <ele>66.799272</ele>
        <time>2022-06-12T09:21:13.113Z</time>
      </trkpt>
      <trkpt lat="43.14862" lon="17.73205">
        <ele>66.807428</ele>
        <time>2022-06-12T09:21:17.104Z</time>
      </trkpt>
      <trkpt lat="43.14869" lon="17.73214">
        <ele>66.813673</ele>
        <time>2022-06-12T09:21:19.108Z</time>
      </trkpt>
      <trkpt lat="43.14879" lon="17.73225">
        <ele>66.821777</ele>
        <time>2022-06-12T09:21:22.105Z</time>
      </trkpt>
      <trkpt lat="43.14887" lon="17.73237">
        <ele>66.828968</ele>
        <time>2022-06-12T09:21:25.109Z</time>
      </trkpt>
      <trkpt lat="43.14893" lon="17.73247">
        <ele>66.835525</ele>
        <time>2022-06-12T09:21:28.114Z</time>
      </trkpt>
      <trkpt lat="43.14901" lon="17.73257">
        <ele>66.842458</ele>
        <time>2022-06-12T09:21:31.134Z</time>
      </trkpt>
      <trkpt lat="43.1491" lon="17.73268">
        <ele>66.849988</ele>
        <time>2022-06-12T09:21:34.112Z</time>
      </trkpt>
      <trkpt lat="43.14919" lon="17.73278">
        <ele>66.857166</ele>
        <time>2022-06-12T09:21:37.140Z</time>
      </trkpt>
      <trkpt lat="43.14927" lon="17.73287">
        <ele>66.863695</ele>
        <time>2022-06-12T09:21:40.085Z</time>
      </trkpt>
      <trkpt lat="43.14934" lon="17.73296">
        <ele>66.870007</ele>
        <time>2022-06-12T09:21:43.102Z</time>
      </trkpt>
      <trkpt lat="43.14941" lon="17.73305">
        <ele>66.876267</ele>
        <time>2022-06-12T09:21:46.102Z</time>
      </trkpt>
      <trkpt lat="43.14947" lon="17.73316">
        <ele>66.77179</ele>
        <time>2022-06-12T09:21:49.101Z</time>
      </trkpt>
      <trkpt lat="43.14954" lon="17.73325">
        <ele>66.640122</ele>
        <time>2022-06-12T09:21:52.110Z</time>
      </trkpt>
      <trkpt lat="43.14961" lon="17.73336">
        <ele>66.498716</ele>
        <time>2022-06-12T09:21:55.093Z</time>
      </trkpt>
      <trkpt lat="43.14968" lon="17.73346">
        <ele>66.354665</ele>
        <time>2022-06-12T09:21:58.104Z</time>
      </trkpt>
      <trkpt lat="43.14976" lon="17.73358">
        <ele>66.20061</ele>
        <time>2022-06-12T09:22:01.104Z</time>
      </trkpt>
      <trkpt lat="43.14981" lon="17.73371">
        <ele>66.051305</ele>
        <time>2022-06-12T09:22:05.117Z</time>
      </trkpt>
      <trkpt lat="43.14985" lon="17.73382">
        <ele>65.927137</ele>
        <time>2022-06-12T09:22:11.113Z</time>
      </trkpt>
      <trkpt lat="43.1499" lon="17.73393">
        <ele>65.797488</ele>
        <time>2022-06-12T09:22:17.100Z</time>
      </trkpt>
      <trkpt lat="43.14996" lon="17.73407">
        <ele>65.63488</ele>
        <time>2022-06-12T09:22:21.137Z</time>
      </trkpt>
      <trkpt lat="43.15001" lon="17.73421">
        <ele>65.485786</ele>
        <time>2022-06-12T09:22:25.111Z</time>
      </trkpt>
      <trkpt lat="43.15006" lon="17.73434">
        <ele>65.332575</ele>
        <time>2022-06-12T09:22:29.101Z</time>
      </trkpt>
      <trkpt lat="43.15011" lon="17.73445">
        <ele>65.209311</ele>
        <time>2022-06-12T09:22:32.148Z</time>
      </trkpt>
      <trkpt lat="43.15016" lon="17.73459">
        <ele>65.052615</ele>
        <time>2022-06-12T09:22:36.097Z</time>
      </trkpt>
      <trkpt lat="43.15021" lon="17.7347">
        <ele>64.917496</ele>
        <time>2022-06-12T09:22:40.102Z</time>
      </trkpt>
      <trkpt lat="43.15027" lon="17.73483">
        <ele>64.771018</ele>
        <time>2022-06-12T09:22:44.093Z</time>
      </trkpt>
      <trkpt lat="43.15032" lon="17.73497">
        <ele>64.612317</ele>
        <time>2022-06-12T09:22:48.106Z</time>
      </trkpt>
      <trkpt lat="43.15038" lon="17.73508">
        <ele>64.480283</ele>
        <time>2022-06-12T09:22:51.113Z</time>
      </trkpt>
      <trkpt lat="43.15046" lon="17.7352">
        <ele>64.340692</ele>
        <time>2022-06-12T09:22:55.092Z</time>
      </trkpt>
      <trkpt lat="43.1505" lon="17.73531">
        <ele>64.242128</ele>
        <time>2022-06-12T09:22:58.111Z</time>
      </trkpt>
      <trkpt lat="43.15054" lon="17.73543">
        <ele>64.139377</ele>
        <time>2022-06-12T09:23:01.099Z</time>
      </trkpt>
      <trkpt lat="43.15058" lon="17.73556">
        <ele>64.030121</ele>
        <time>2022-06-12T09:23:04.116Z</time>
      </trkpt>
      <trkpt lat="43.15063" lon="17.73573">
        <ele>63.887434</ele>
        <time>2022-06-12T09:23:07.106Z</time>
      </trkpt>
      <trkpt lat="43.15069" lon="17.73586">
        <ele>63.768697</ele>
        <time>2022-06-12T09:23:09.101Z</time>
      </trkpt>
      <trkpt lat="43.15076" lon="17.73597">
        <ele>63.65378</ele>
        <time>2022-06-12T09:23:12.112Z</time>
      </trkpt>
      <trkpt lat="43.15083" lon="17.73608">
        <ele>63.545644</ele>
        <time>2022-06-12T09:23:22.092Z</time>
      </trkpt>
      <trkpt lat="43.15091" lon="17.73619">
        <ele>63.423531</ele>
        <time>2022-06-12T09:23:26.096Z</time>
      </trkpt>
      <trkpt lat="43.151" lon="17.7363">
        <ele>63.291628</ele>
        <time>2022-06-12T09:23:30.106Z</time>
      </trkpt>
      <trkpt lat="43.15106" lon="17.73641">
        <ele>63.179985</ele>
        <time>2022-06-12T09:23:33.104Z</time>
      </trkpt>
      <trkpt lat="43.15113" lon="17.73651">
        <ele>63.075434</ele>
        <time>2022-06-12T09:23:36.126Z</time>
      </trkpt>
      <trkpt lat="43.1512" lon="17.73661">
        <ele>62.969743</ele>
        <time>2022-06-12T09:23:39.099Z</time>
      </trkpt>
      <trkpt lat="43.15127" lon="17.7367">
        <ele>62.869707</ele>
        <time>2022-06-12T09:23:42.106Z</time>
      </trkpt>
      <trkpt lat="43.15134" lon="17.73679">
        <ele>62.764146</ele>
        <time>2022-06-12T09:23:45.102Z</time>
      </trkpt>
      <trkpt lat="43.1514" lon="17.73689">
        <ele>62.664456</ele>
        <time>2022-06-12T09:23:48.110Z</time>
      </trkpt>
      <trkpt lat="43.15147" lon="17.73697">
        <ele>62.566501</ele>
        <time>2022-06-12T09:23:51.104Z</time>
      </trkpt>
      <trkpt lat="43.15154" lon="17.73705">
        <ele>62.526946</ele>
        <time>2022-06-12T09:23:54.104Z</time>
      </trkpt>
      <trkpt lat="43.15162" lon="17.73717">
        <ele>62.619218</ele>
        <time>2022-06-12T09:23:58.103Z</time>
      </trkpt>
      <trkpt lat="43.15168" lon="17.73726">
        <ele>62.695105</ele>
        <time>2022-06-12T09:24:01.131Z</time>
      </trkpt>
      <trkpt lat="43.15175" lon="17.73735">
        <ele>62.771554</ele>
        <time>2022-06-12T09:24:04.097Z</time>
      </trkpt>
      <trkpt lat="43.15182" lon="17.73744">
        <ele>62.845337</ele>
        <time>2022-06-12T09:24:07.138Z</time>
      </trkpt>
      <trkpt lat="43.15189" lon="17.73753">
        <ele>62.921689</ele>
        <time>2022-06-12T09:24:10.095Z</time>
      </trkpt>
      <trkpt lat="43.15197" lon="17.73761">
        <ele>63.000857</ele>
        <time>2022-06-12T09:24:13.093Z</time>
      </trkpt>
      <trkpt lat="43.15205" lon="17.7377">
        <ele>63.08148</ele>
        <time>2022-06-12T09:24:16.087Z</time>
      </trkpt>
      <trkpt lat="43.15212" lon="17.73777">
        <ele>63.155687</ele>
        <time>2022-06-12T09:24:19.108Z</time>
      </trkpt>
      <trkpt lat="43.15221" lon="17.73788">
        <ele>63.250677</ele>
        <time>2022-06-12T09:24:23.091Z</time>
      </trkpt>
      <trkpt lat="43.15228" lon="17.73797">
        <ele>63.328428</ele>
        <time>2022-06-12T09:24:26.103Z</time>
      </trkpt>
      <trkpt lat="43.15235" lon="17.73807">
        <ele>63.409366</ele>
        <time>2022-06-12T09:24:29.145Z</time>
      </trkpt>
      <trkpt lat="43.15243" lon="17.73817">
        <ele>63.492678</ele>
        <time>2022-06-12T09:24:32.094Z</time>
      </trkpt>
      <trkpt lat="43.1525" lon="17.73826">
        <ele>63.572635</ele>
        <time>2022-06-12T09:24:35.109Z</time>
      </trkpt>
      <trkpt lat="43.15258" lon="17.73835">
        <ele>63.654992</ele>
        <time>2022-06-12T09:24:38.095Z</time>
      </trkpt>
      <trkpt lat="43.15265" lon="17.73844">
        <ele>63.732331</ele>
        <time>2022-06-12T09:24:41.105Z</time>
      </trkpt>
      <trkpt lat="43.15273" lon="17.73856">
        <ele>63.827514</ele>
        <time>2022-06-12T09:24:45.116Z</time>
      </trkpt>
      <trkpt lat="43.15281" lon="17.73866">
        <ele>63.915006</ele>
        <time>2022-06-12T09:24:49.107Z</time>
      </trkpt>
      <trkpt lat="43.15289" lon="17.73875">
        <ele>63.932844</ele>
        <time>2022-06-12T09:24:52.117Z</time>
      </trkpt>
      <trkpt lat="43.15296" lon="17.73885">
        <ele>63.916587</ele>
        <time>2022-06-12T09:24:55.110Z</time>
      </trkpt>
      <trkpt lat="43.15303" lon="17.73894">
        <ele>63.900375</ele>
        <time>2022-06-12T09:24:58.109Z</time>
      </trkpt>
      <trkpt lat="43.15311" lon="17.73904">
        <ele>63.882622</ele>
        <time>2022-06-12T09:25:01.086Z</time>
      </trkpt>
      <trkpt lat="43.15319" lon="17.73915">
        <ele>63.865125</ele>
        <time>2022-06-12T09:25:04.104Z</time>
      </trkpt>
      <trkpt lat="43.15326" lon="17.73926">
        <ele>63.847457</ele>
        <time>2022-06-12T09:25:07.123Z</time>
      </trkpt>
      <trkpt lat="43.15335" lon="17.73936">
        <ele>63.828432</ele>
        <time>2022-06-12T09:25:10.097Z</time>
      </trkpt>
      <trkpt lat="43.15344" lon="17.73947">
        <ele>63.808858</ele>
        <time>2022-06-12T09:25:13.146Z</time>
      </trkpt>
      <trkpt lat="43.15352" lon="17.73958">
        <ele>63.790341</ele>
        <time>2022-06-12T09:25:16.096Z</time>
      </trkpt>
      <trkpt lat="43.1536" lon="17.73968">
        <ele>63.772086</ele>
        <time>2022-06-12T09:25:19.147Z</time>
      </trkpt>
      <trkpt lat="43.15368" lon="17.73978">
        <ele>63.755674</ele>
        <time>2022-06-12T09:25:22.099Z</time>
      </trkpt>
      <trkpt lat="43.15376" lon="17.73987">
        <ele>63.738533</ele>
        <time>2022-06-12T09:25:25.131Z</time>
      </trkpt>
      <trkpt lat="43.15384" lon="17.73996">
        <ele>63.721995</ele>
        <time>2022-06-12T09:25:28.091Z</time>
      </trkpt>
      <trkpt lat="43.15391" lon="17.74006">
        <ele>63.705855</ele>
        <time>2022-06-12T09:25:31.102Z</time>
      </trkpt>
      <trkpt lat="43.15398" lon="17.74015">
        <ele>63.689561</ele>
        <time>2022-06-12T09:25:34.108Z</time>
      </trkpt>
      <trkpt lat="43.15405" lon="17.74024">
        <ele>63.674311</ele>
        <time>2022-06-12T09:25:37.107Z</time>
      </trkpt>
      <trkpt lat="43.15413" lon="17.74035">
        <ele>63.655367</ele>
        <time>2022-06-12T09:25:41.127Z</time>
      </trkpt>
      <trkpt lat="43.1542" lon="17.74044">
        <ele>63.598646</ele>
        <time>2022-06-12T09:25:44.124Z</time>
      </trkpt>
      <trkpt lat="43.15427" lon="17.74053">
        <ele>63.524121</ele>
        <time>2022-06-12T09:25:47.093Z</time>
      </trkpt>
      <trkpt lat="43.15433" lon="17.74062">
        <ele>63.450413</ele>
        <time>2022-06-12T09:25:50.097Z</time>
      </trkpt>
      <trkpt lat="43.15441" lon="17.74072">
        <ele>63.375023</ele>
        <time>2022-06-12T09:25:53.122Z</time>
      </trkpt>
      <trkpt lat="43.15448" lon="17.74081">
        <ele>63.295629</ele>
        <time>2022-06-12T09:25:56.113Z</time>
      </trkpt>
      <trkpt lat="43.15455" lon="17.74091">
        <ele>63.215583</ele>
        <time>2022-06-12T09:25:59.113Z</time>
      </trkpt>
      <trkpt lat="43.15463" lon="17.74101">
        <ele>63.134189</ele>
        <time>2022-06-12T09:26:02.093Z</time>
      </trkpt>
      <trkpt lat="43.15469" lon="17.7411">
        <ele>63.062793</ele>
        <time>2022-06-12T09:26:05.104Z</time>
      </trkpt>
      <trkpt lat="43.15477" lon="17.7412">
        <ele>62.978042</ele>
        <time>2022-06-12T09:26:08.106Z</time>
      </trkpt>
      <trkpt lat="43.15486" lon="17.7413">
        <ele>62.891663</ele>
        <time>2022-06-12T09:26:11.104Z</time>
      </trkpt>
      <trkpt lat="43.15493" lon="17.74139">
        <ele>62.816416</ele>
        <time>2022-06-12T09:26:14.145Z</time>
      </trkpt>
      <trkpt lat="43.155" lon="17.74147">
        <ele>62.745216</ele>
        <time>2022-06-12T09:26:17.106Z</time>
      </trkpt>
      <trkpt lat="43.15507" lon="17.74156">
        <ele>62.673071</ele>
        <time>2022-06-12T09:26:20.137Z</time>
      </trkpt>
      <trkpt lat="43.15513" lon="17.74165">
        <ele>62.602908</ele>
        <time>2022-06-12T09:26:23.125Z</time>
      </trkpt>
      <trkpt lat="43.15519" lon="17.74175">
        <ele>62.532473</ele>
        <time>2022-06-12T09:26:26.136Z</time>
      </trkpt>
      <trkpt lat="43.15525" lon="17.74188">
        <ele>62.443784</ele>
        <time>2022-06-12T09:26:30.104Z</time>
      </trkpt>
      <trkpt lat="43.15532" lon="17.742">
        <ele>62.352816</ele>
        <time>2022-06-12T09:26:34.105Z</time>
      </trkpt>
      <trkpt lat="43.15539" lon="17.74211">
        <ele>62.271156</ele>
        <time>2022-06-12T09:26:37.156Z</time>
      </trkpt>
      <trkpt lat="43.15548" lon="17.74221">
        <ele>62.520571</ele>
        <time>2022-06-12T09:26:40.102Z</time>
      </trkpt>
      <trkpt lat="43.15558" lon="17.7423">
        <ele>62.845228</ele>
        <time>2022-06-12T09:26:43.166Z</time>
      </trkpt>
      <trkpt lat="43.15569" lon="17.74236">
        <ele>63.169966</ele>
        <time>2022-06-12T09:26:46.095Z</time>
      </trkpt>
      <trkpt lat="43.1558" lon="17.74243">
        <ele>63.496389</ele>
        <time>2022-06-12T09:26:49.094Z</time>
      </trkpt>
      <trkpt lat="43.1559" lon="17.74249">
        <ele>63.801422</ele>
        <time>2022-06-12T09:26:52.108Z</time>
      </trkpt>
      <trkpt lat="43.15599" lon="17.74256">
        <ele>64.084515</ele>
        <time>2022-06-12T09:26:55.103Z</time>
      </trkpt>
      <trkpt lat="43.15608" lon="17.74264">
        <ele>64.373887</ele>
        <time>2022-06-12T09:26:58.107Z</time>
      </trkpt>
      <trkpt lat="43.15617" lon="17.74273">
        <ele>64.674757</ele>
        <time>2022-06-12T09:27:01.087Z</time>
      </trkpt>
      <trkpt lat="43.15624" lon="17.74283">
        <ele>64.952703</ele>
        <time>2022-06-12T09:27:04.092Z</time>
      </trkpt>
      <trkpt lat="43.15632" lon="17.74292">
        <ele>65.237072</ele>
        <time>2022-06-12T09:27:07.111Z</time>
      </trkpt>
      <trkpt lat="43.15639" lon="17.74301">
        <ele>65.495298</ele>
        <time>2022-06-12T09:27:10.108Z</time>
      </trkpt>
      <trkpt lat="43.15649" lon="17.7431">
        <ele>65.820992</ele>
        <time>2022-06-12T09:27:14.099Z</time>
      </trkpt>
      <trkpt lat="43.15659" lon="17.74319">
        <ele>66.152408</ele>
        <time>2022-06-12T09:27:18.105Z</time>
      </trkpt>
      <trkpt lat="43.15668" lon="17.74327">
        <ele>66.451827</ele>
        <time>2022-06-12T09:27:21.100Z</time>
      </trkpt>
      <trkpt lat="43.15678" lon="17.74337">
        <ele>66.793123</ele>
        <time>2022-06-12T09:27:24.107Z</time>
      </trkpt>
      <trkpt lat="43.15687" lon="17.74348">
        <ele>67.121057</ele>
        <time>2022-06-12T09:27:27.104Z</time>
      </trkpt>
      <trkpt lat="43.15695" lon="17.74357">
        <ele>67.236902</ele>
        <time>2022-06-12T09:27:30.097Z</time>
      </trkpt>
      <trkpt lat="43.15704" lon="17.74369">
        <ele>67.317014</ele>
        <time>2022-06-12T09:27:33.156Z</time>
      </trkpt>
      <trkpt lat="43.15714" lon="17.7438">
        <ele>67.397836</ele>
        <time>2022-06-12T09:27:36.114Z</time>
      </trkpt>
      <trkpt lat="43.15722" lon="17.74392">
        <ele>67.475715</ele>
        <time>2022-06-12T09:27:39.093Z</time>
      </trkpt>
      <trkpt lat="43.15728" lon="17.74404">
        <ele>67.546286</ele>
        <time>2022-06-12T09:27:42.111Z</time>
      </trkpt>
      <trkpt lat="43.15734" lon="17.74418">
        <ele>67.623169</ele>
        <time>2022-06-12T09:27:45.129Z</time>
      </trkpt>
      <trkpt lat="43.15739" lon="17.74432">
        <ele>67.697287</ele>
        <time>2022-06-12T09:27:48.088Z</time>
      </trkpt>
      <trkpt lat="43.15742" lon="17.74446">
        <ele>67.76739</ele>
        <time>2022-06-12T09:27:51.109Z</time>
      </trkpt>
      <trkpt lat="43.15745" lon="17.74461">
        <ele>67.839225</ele>
        <time>2022-06-12T09:27:54.156Z</time>
      </trkpt>
      <trkpt lat="43.15747" lon="17.74475">
        <ele>67.911202</ele>
        <time>2022-06-12T09:27:57.164Z</time>
      </trkpt>
      <trkpt lat="43.15749" lon="17.74491">
        <ele>67.985989</ele>
        <time>2022-06-12T09:28:00.092Z</time>
      </trkpt>
      <trkpt lat="43.15751" lon="17.74506">
        <ele>68.059821</ele>
        <time>2022-06-12T09:28:03.104Z</time>
      </trkpt>
      <trkpt lat="43.15755" lon="17.7452">
        <ele>68.128117</ele>
        <time>2022-06-12T09:28:06.101Z</time>
      </trkpt>
      <trkpt lat="43.15761" lon="17.74533">
        <ele>68.19955</ele>
        <time>2022-06-12T09:28:09.105Z</time>
      </trkpt>
      <trkpt lat="43.15767" lon="17.74544">
        <ele>68.267822</ele>
        <time>2022-06-12T09:28:12.098Z</time>
      </trkpt>
      <trkpt lat="43.15773" lon="17.74555">
        <ele>68.332258</ele>
        <time>2022-06-12T09:28:15.108Z</time>
      </trkpt>
      <trkpt lat="43.15778" lon="17.7457">
        <ele>68.495282</ele>
        <time>2022-06-12T09:28:19.106Z</time>
      </trkpt>
      <trkpt lat="43.15782" lon="17.74585">
        <ele>68.678008</ele>
        <time>2022-06-12T09:28:22.087Z</time>
      </trkpt>
      <trkpt lat="43.15789" lon="17.74595">
        <ele>68.846265</ele>
        <time>2022-06-12T09:28:25.102Z</time>
      </trkpt>
      <trkpt lat="43.15799" lon="17.74596">
        <ele>69.010242</ele>
        <time>2022-06-12T09:28:28.096Z</time>
      </trkpt>
      <trkpt lat="43.15809" lon="17.7459">
        <ele>69.183163</ele>
        <time>2022-06-12T09:28:32.103Z</time>
      </trkpt>
      <trkpt lat="43.15817" lon="17.74598">
        <ele>69.333806</ele>
        <time>2022-06-12T09:28:38.099Z</time>
      </trkpt>
      <trkpt lat="43.1582" lon="17.74611">
        <ele>69.497292</ele>
        <time>2022-06-12T09:28:45.124Z</time>
      </trkpt>
      <trkpt lat="43.15825" lon="17.74624">
        <ele>69.66612</ele>
        <time>2022-06-12T09:28:51.098Z</time>
      </trkpt>
      <trkpt lat="43.15831" lon="17.74637">
        <ele>69.851924</ele>
        <time>2022-06-12T09:28:56.099Z</time>
      </trkpt>
      <trkpt lat="43.15836" lon="17.7465">
        <ele>70.023834</ele>
        <time>2022-06-12T09:29:00.096Z</time>
      </trkpt>
      <trkpt lat="43.1584" lon="17.74662">
        <ele>70.170684</ele>
        <time>2022-06-12T09:29:03.111Z</time>
      </trkpt>
      <trkpt lat="43.15843" lon="17.74673">
        <ele>70.317759</ele>
        <time>2022-06-12T09:29:06.095Z</time>
      </trkpt>
      <trkpt lat="43.15847" lon="17.74688">
        <ele>70.501587</ele>
        <time>2022-06-12T09:29:10.097Z</time>
      </trkpt>
      <trkpt lat="43.15851" lon="17.74701">
        <ele>70.666697</ele>
        <time>2022-06-12T09:29:14.110Z</time>
      </trkpt>
      <trkpt lat="43.15855" lon="17.74714">
        <ele>70.833876</ele>
        <time>2022-06-12T09:29:20.145Z</time>
      </trkpt>
      <trkpt lat="43.15861" lon="17.74725">
        <ele>70.984397</ele>
        <time>2022-06-12T09:29:24.108Z</time>
      </trkpt>
      <trkpt lat="43.15866" lon="17.74738">
        <ele>71.166085</ele>
        <time>2022-06-12T09:29:28.112Z</time>
      </trkpt>
      <trkpt lat="43.15871" lon="17.74751">
        <ele>71.186337</ele>
        <time>2022-06-12T09:29:32.097Z</time>
      </trkpt>
      <trkpt lat="43.15875" lon="17.74764">
        <ele>71.089874</ele>
        <time>2022-06-12T09:29:36.100Z</time>
      </trkpt>
      <trkpt lat="43.15879" lon="17.74779">
        <ele>70.978602</ele>
        <time>2022-06-12T09:29:40.102Z</time>
      </trkpt>
      <trkpt lat="43.15883" lon="17.74791">
        <ele>70.883066</ele>
        <time>2022-06-12T09:29:43.111Z</time>
      </trkpt>
      <trkpt lat="43.15887" lon="17.74804">
        <ele>70.789189</ele>
        <time>2022-06-12T09:29:46.109Z</time>
      </trkpt>
      <trkpt lat="43.1589" lon="17.74816">
        <ele>70.696375</ele>
        <time>2022-06-12T09:29:49.104Z</time>
      </trkpt>
      <trkpt lat="43.15894" lon="17.7483">
        <ele>70.594346</ele>
        <time>2022-06-12T09:29:52.110Z</time>
      </trkpt>
      <trkpt lat="43.15896" lon="17.74843">
        <ele>70.500794</ele>
        <time>2022-06-12T09:29:55.109Z</time>
      </trkpt>
      <trkpt lat="43.15899" lon="17.74855">
        <ele>70.411808</ele>
        <time>2022-06-12T09:29:58.095Z</time>
      </trkpt>
      <trkpt lat="43.15902" lon="17.74871">
        <ele>70.300795</ele>
        <time>2022-06-12T09:30:02.099Z</time>
      </trkpt>
      <trkpt lat="43.15904" lon="17.74884">
        <ele>70.208254</ele>
        <time>2022-06-12T09:30:05.109Z</time>
      </trkpt>
      <trkpt lat="43.15906" lon="17.74897">
        <ele>70.115382</ele>
        <time>2022-06-12T09:30:08.109Z</time>
      </trkpt>
      <trkpt lat="43.15908" lon="17.7491">
        <ele>70.017469</ele>
        <time>2022-06-12T09:30:11.093Z</time>
      </trkpt>
      <trkpt lat="43.1591" lon="17.74924">
        <ele>69.919447</ele>
        <time>2022-06-12T09:30:14.109Z</time>
      </trkpt>
      <trkpt lat="43.15911" lon="17.74937">
        <ele>69.829107</ele>
        <time>2022-06-12T09:30:17.096Z</time>
      </trkpt>
      <trkpt lat="43.15912" lon="17.74952">
        <ele>69.725752</ele>
        <time>2022-06-12T09:30:21.128Z</time>
      </trkpt>
      <trkpt lat="43.15913" lon="17.74967">
        <ele>69.616019</ele>
        <time>2022-06-12T09:30:27.104Z</time>
      </trkpt>
      <trkpt lat="43.15914" lon="17.7498">
        <ele>69.525366</ele>
        <time>2022-06-12T09:30:30.097Z</time>
      </trkpt>
      <trkpt lat="43.15916" lon="17.74996">
        <ele>69.327849</ele>
        <time>2022-06-12T09:30:34.104Z</time>
      </trkpt>
      <trkpt lat="43.15917" lon="17.75012">
        <ele>69.118215</ele>
        <time>2022-06-12T09:30:38.095Z</time>
      </trkpt>
      <trkpt lat="43.15919" lon="17.7503">
        <ele>68.884832</ele>
        <time>2022-06-12T09:30:45.122Z</time>
      </trkpt>
      <trkpt lat="43.15921" lon="17.75044">
        <ele>68.707655</ele>
        <time>2022-06-12T09:30:47.098Z</time>
      </trkpt>
      <trkpt lat="43.1592" lon="17.75059">
        <ele>68.516795</ele>
        <time>2022-06-12T09:30:50.105Z</time>
      </trkpt>
      <trkpt lat="43.15922" lon="17.75073">
        <ele>68.332025</ele>
        <time>2022-06-12T09:30:53.092Z</time>
      </trkpt>
      <trkpt lat="43.15922" lon="17.75086">
        <ele>68.166094</ele>
        <time>2022-06-12T09:30:56.110Z</time>
      </trkpt>
      <trkpt lat="43.15923" lon="17.75101">
        <ele>67.983807</ele>
        <time>2022-06-12T09:31:00.115Z</time>
      </trkpt>
      <trkpt lat="43.15924" lon="17.75116">
        <ele>67.782097</ele>
        <time>2022-06-12T09:31:05.155Z</time>
      </trkpt>
      <trkpt lat="43.15925" lon="17.75132">
        <ele>67.583065</ele>
        <time>2022-06-12T09:31:09.105Z</time>
      </trkpt>
      <trkpt lat="43.15925" lon="17.75144">
        <ele>67.426382</ele>
        <time>2022-06-12T09:31:12.111Z</time>
      </trkpt>
      <trkpt lat="43.15926" lon="17.7516">
        <ele>67.231403</ele>
        <time>2022-06-12T09:31:16.092Z</time>
      </trkpt>
      <trkpt lat="43.15927" lon="17.75174">
        <ele>67.046315</ele>
        <time>2022-06-12T09:31:20.104Z</time>
      </trkpt>
      <trkpt lat="43.15927" lon="17.7519">
        <ele>66.846623</ele>
        <time>2022-06-12T09:31:24.098Z</time>
      </trkpt>
      <trkpt lat="43.15928" lon="17.75202">
        <ele>66.68829</ele>
        <time>2022-06-12T09:31:28.104Z</time>
      </trkpt>
      <trkpt lat="43.15919" lon="17.75208">
        <ele>66.506381</ele>
        <time>2022-06-12T09:31:37.147Z</time>
      </trkpt>
      <trkpt lat="43.1591" lon="17.7521">
        <ele>66.368265</ele>
        <time>2022-06-12T09:31:44.102Z</time>
      </trkpt>
      <trkpt lat="43.1591" lon="17.75224">
        <ele>66.285955</ele>
        <time>2022-06-12T09:31:51.112Z</time>
      </trkpt>
      <trkpt lat="43.15909" lon="17.75236">
        <ele>66.214437</ele>
        <time>2022-06-12T09:31:53.108Z</time>
      </trkpt>
      <trkpt lat="43.15911" lon="17.7525">
        <ele>66.135029</ele>
        <time>2022-06-12T09:31:56.093Z</time>
      </trkpt>
      <trkpt lat="43.1591" lon="17.75265">
        <ele>66.046966</ele>
        <time>2022-06-12T09:31:59.182Z</time>
      </trkpt>
      <trkpt lat="43.15911" lon="17.7528">
        <ele>65.962645</ele>
        <time>2022-06-12T09:32:02.097Z</time>
      </trkpt>
      <trkpt lat="43.15913" lon="17.75295">
        <ele>65.873011</ele>
        <time>2022-06-12T09:32:05.111Z</time>
      </trkpt>
      <trkpt lat="43.15915" lon="17.75311">
        <ele>65.780855</ele>
        <time>2022-06-12T09:32:08.107Z</time>
      </trkpt>
      <trkpt lat="43.15916" lon="17.75328">
        <ele>65.685635</ele>
        <time>2022-06-12T09:32:11.105Z</time>
      </trkpt>
      <trkpt lat="43.15918" lon="17.7534">
        <ele>65.611328</ele>
        <time>2022-06-12T09:32:14.115Z</time>
      </trkpt>
      <trkpt lat="43.1592" lon="17.75355">
        <ele>65.526322</ele>
        <time>2022-06-12T09:32:17.114Z</time>
      </trkpt>
      <trkpt lat="43.15922" lon="17.75369">
        <ele>65.441248</ele>
        <time>2022-06-12T09:32:20.107Z</time>
      </trkpt>
      <trkpt lat="43.15925" lon="17.75384">
        <ele>65.353187</ele>
        <time>2022-06-12T09:32:23.114Z</time>
      </trkpt>
      <trkpt lat="43.1593" lon="17.754">
        <ele>65.256678</ele>
        <time>2022-06-12T09:32:26.125Z</time>
      </trkpt>
      <trkpt lat="43.15934" lon="17.75416">
        <ele>65.156387</ele>
        <time>2022-06-12T09:32:29.097Z</time>
      </trkpt>
      <trkpt lat="43.15937" lon="17.75432">
        <ele>65.061128</ele>
        <time>2022-06-12T09:32:32.083Z</time>
      </trkpt>
      <trkpt lat="43.1594" lon="17.75447">
        <ele>64.970335</ele>
        <time>2022-06-12T09:32:35.088Z</time>
      </trkpt>
      <trkpt lat="43.15942" lon="17.75463">
        <ele>64.946775</ele>
        <time>2022-06-12T09:32:38.121Z</time>
      </trkpt>
      <trkpt lat="43.15944" lon="17.7548">
        <ele>64.924726</ele>
        <time>2022-06-12T09:32:41.104Z</time>
      </trkpt>
      <trkpt lat="43.15945" lon="17.75496">
        <ele>64.903719</ele>
        <time>2022-06-12T09:32:44.097Z</time>
      </trkpt>
      <trkpt lat="43.15949" lon="17.75512">
        <ele>64.882452</ele>
        <time>2022-06-12T09:32:47.105Z</time>
      </trkpt>
      <trkpt lat="43.15954" lon="17.75528">
        <ele>64.860602</ele>
        <time>2022-06-12T09:32:50.127Z</time>
      </trkpt>
      <trkpt lat="43.15959" lon="17.75542">
        <ele>64.840079</ele>
        <time>2022-06-12T09:32:53.099Z</time>
      </trkpt>
      <trkpt lat="43.15965" lon="17.75556">
        <ele>64.819414</ele>
        <time>2022-06-12T09:32:56.105Z</time>
      </trkpt>
      <trkpt lat="43.15971" lon="17.7557">
        <ele>64.798082</ele>
        <time>2022-06-12T09:32:59.117Z</time>
      </trkpt>
      <trkpt lat="43.15977" lon="17.75583">
        <ele>64.777822</ele>
        <time>2022-06-12T09:33:02.093Z</time>
      </trkpt>
      <trkpt lat="43.15983" lon="17.75597">
        <ele>64.758062</ele>
        <time>2022-06-12T09:33:05.105Z</time>
      </trkpt>
      <trkpt lat="43.15989" lon="17.75609">
        <ele>64.738544</ele>
        <time>2022-06-12T09:33:08.111Z</time>
      </trkpt>
      <trkpt lat="43.15995" lon="17.75622">
        <ele>64.719787</ele>
        <time>2022-06-12T09:33:11.102Z</time>
      </trkpt>
      <trkpt lat="43.16001" lon="17.75635">
        <ele>64.700446</ele>
        <time>2022-06-12T09:33:14.095Z</time>
      </trkpt>
      <trkpt lat="43.16007" lon="17.75648">
        <ele>64.679955</ele>
        <time>2022-06-12T09:33:17.106Z</time>
      </trkpt>
      <trkpt lat="43.16013" lon="17.75662">
        <ele>64.658892</ele>
        <time>2022-06-12T09:33:20.107Z</time>
      </trkpt>
      <trkpt lat="43.16019" lon="17.75676">
        <ele>64.569383</ele>
        <time>2022-06-12T09:33:23.101Z</time>
      </trkpt>
      <trkpt lat="43.16024" lon="17.75688">
        <ele>64.434902</ele>
        <time>2022-06-12T09:33:26.102Z</time>
      </trkpt>
      <trkpt lat="43.1603" lon="17.75699">
        <ele>64.302809</ele>
        <time>2022-06-12T09:33:29.097Z</time>
      </trkpt>
      <trkpt lat="43.16037" lon="17.7571">
        <ele>64.168612</ele>
        <time>2022-06-12T09:33:32.092Z</time>
      </trkpt>
      <trkpt lat="43.16046" lon="17.75721">
        <ele>64.010118</ele>
        <time>2022-06-12T09:33:35.151Z</time>
      </trkpt>
      <trkpt lat="43.16054" lon="17.75729">
        <ele>63.886227</ele>
        <time>2022-06-12T09:33:38.108Z</time>
      </trkpt>
      <trkpt lat="43.16063" lon="17.75736">
        <ele>63.752748</ele>
        <time>2022-06-12T09:33:41.121Z</time>
      </trkpt>
      <trkpt lat="43.16072" lon="17.75744">
        <ele>63.620252</ele>
        <time>2022-06-12T09:33:44.109Z</time>
      </trkpt>
      <trkpt lat="43.16082" lon="17.7575">
        <ele>63.473404</ele>
        <time>2022-06-12T09:33:47.123Z</time>
      </trkpt>
      <trkpt lat="43.16093" lon="17.75756">
        <ele>63.324578</ele>
        <time>2022-06-12T09:33:50.123Z</time>
      </trkpt>
      <trkpt lat="43.16105" lon="17.75762">
        <ele>63.15793</ele>
        <time>2022-06-12T09:33:53.091Z</time>
      </trkpt>
      <trkpt lat="43.16116" lon="17.75771">
        <ele>62.998628</ele>
        <time>2022-06-12T09:33:56.095Z</time>
      </trkpt>
      <trkpt lat="43.16127" lon="17.7578">
        <ele>62.82693</ele>
        <time>2022-06-12T09:33:59.106Z</time>
      </trkpt>
      <trkpt lat="43.16135" lon="17.75785">
        <ele>62.709746</ele>
        <time>2022-06-12T09:34:01.101Z</time>
      </trkpt>
      <trkpt lat="43.16147" lon="17.75794">
        <ele>62.543921</ele>
        <time>2022-06-12T09:34:04.100Z</time>
      </trkpt>
      <trkpt lat="43.16159" lon="17.75802">
        <ele>62.372442</ele>
        <time>2022-06-12T09:34:07.111Z</time>
      </trkpt>
      <trkpt lat="43.16167" lon="17.75807">
        <ele>62.397943</ele>
        <time>2022-06-12T09:34:09.105Z</time>
      </trkpt>
      <trkpt lat="43.16176" lon="17.75812">
        <ele>62.488651</ele>
        <time>2022-06-12T09:34:11.102Z</time>
      </trkpt>
      <trkpt lat="43.16184" lon="17.75817">
        <ele>62.580648</ele>
        <time>2022-06-12T09:34:13.114Z</time>
      </trkpt>
      <trkpt lat="43.16193" lon="17.75822">
        <ele>62.674781</ele>
        <time>2022-06-12T09:34:15.110Z</time>
      </trkpt>
      <trkpt lat="43.16203" lon="17.75826">
        <ele>62.779705</ele>
        <time>2022-06-12T09:34:17.092Z</time>
      </trkpt>
      <trkpt lat="43.16213" lon="17.7583">
        <ele>62.882898</ele>
        <time>2022-06-12T09:34:19.111Z</time>
      </trkpt>
      <trkpt lat="43.16222" lon="17.75833">
        <ele>62.978631</ele>
        <time>2022-06-12T09:34:21.115Z</time>
      </trkpt>
      <trkpt lat="43.16231" lon="17.75835">
        <ele>63.071512</ele>
        <time>2022-06-12T09:34:23.096Z</time>
      </trkpt>
      <trkpt lat="43.1624" lon="17.75837">
        <ele>63.167677</ele>
        <time>2022-06-12T09:34:25.149Z</time>
      </trkpt>
      <trkpt lat="43.16253" lon="17.75838">
        <ele>63.29045</ele>
        <time>2022-06-12T09:34:28.096Z</time>
      </trkpt>
      <trkpt lat="43.16264" lon="17.7584">
        <ele>63.407896</ele>
        <time>2022-06-12T09:34:31.102Z</time>
      </trkpt>
      <trkpt lat="43.16276" lon="17.75843">
        <ele>63.523157</ele>
        <time>2022-06-12T09:34:34.091Z</time>
      </trkpt>
      <trkpt lat="43.16288" lon="17.75845">
        <ele>63.644107</ele>
        <time>2022-06-12T09:34:37.106Z</time>
      </trkpt>
      <trkpt lat="43.163" lon="17.75846">
        <ele>63.770752</ele>
        <time>2022-06-12T09:34:40.105Z</time>
      </trkpt>
      <trkpt lat="43.16312" lon="17.75845">
        <ele>63.889204</ele>
        <time>2022-06-12T09:34:43.108Z</time>
      </trkpt>
      <trkpt lat="43.16321" lon="17.75845">
        <ele>63.984585</ele>
        <time>2022-06-12T09:34:46.105Z</time>
      </trkpt>
      <trkpt lat="43.16334" lon="17.75844">
        <ele>64.106535</ele>
        <time>2022-06-12T09:34:50.109Z</time>
      </trkpt>
      <trkpt lat="43.16344" lon="17.75842">
        <ele>64.212003</ele>
        <time>2022-06-12T09:34:53.130Z</time>
      </trkpt>
      <trkpt lat="43.16356" lon="17.75842">
        <ele>64.328126</ele>
        <time>2022-06-12T09:34:56.106Z</time>
      </trkpt>
      <trkpt lat="43.16367" lon="17.7584">
        <ele>64.438451</ele>
        <time>2022-06-12T09:34:59.145Z</time>
      </trkpt>
      <trkpt lat="43.16377" lon="17.75839">
        <ele>64.545915</ele>
        <time>2022-06-12T09:35:02.112Z</time>
      </trkpt>
      <trkpt lat="43.16389" lon="17.75837">
        <ele>64.666864</ele>
        <time>2022-06-12T09:35:05.155Z</time>
      </trkpt>
      <trkpt lat="43.16401" lon="17.75835">
        <ele>64.783665</ele>
        <time>2022-06-12T09:35:08.105Z</time>
      </trkpt>
      <trkpt lat="43.16413" lon="17.75834">
        <ele>64.903696</ele>
        <time>2022-06-12T09:35:11.096Z</time>
      </trkpt>
      <trkpt lat="43.16425" lon="17.75834">
        <ele>65.023726</ele>
        <time>2022-06-12T09:35:14.096Z</time>
      </trkpt>
      <trkpt lat="43.16436" lon="17.75832">
        <ele>65.135315</ele>
        <time>2022-06-12T09:35:17.095Z</time>
      </trkpt>
      <trkpt lat="43.16448" lon="17.75831">
        <ele>65.254728</ele>
        <time>2022-06-12T09:35:20.107Z</time>
      </trkpt>
      <trkpt lat="43.16459" lon="17.75829">
        <ele>65.37072</ele>
        <time>2022-06-12T09:35:23.112Z</time>
      </trkpt>
      <trkpt lat="43.1647" lon="17.75828">
        <ele>65.474762</ele>
        <time>2022-06-12T09:35:26.107Z</time>
      </trkpt>
      <trkpt lat="43.1648" lon="17.75828">
        <ele>65.572745</ele>
        <time>2022-06-12T09:35:29.111Z</time>
      </trkpt>
      <trkpt lat="43.16491" lon="17.75829">
        <ele>65.685872</ele>
        <time>2022-06-12T09:35:32.121Z</time>
      </trkpt>
      <trkpt lat="43.16503" lon="17.75829">
        <ele>65.801857</ele>
        <time>2022-06-12T09:35:35.116Z</time>
      </trkpt>
      <trkpt lat="43.16513" lon="17.7583">
        <ele>65.906091</ele>
        <time>2022-06-12T09:35:38.130Z</time>
      </trkpt>
      <trkpt lat="43.16522" lon="17.75833">
        <ele>65.846201</ele>
        <time>2022-06-12T09:35:41.095Z</time>
      </trkpt>
      <trkpt lat="43.16532" lon="17.75835">
        <ele>65.708273</ele>
        <time>2022-06-12T09:35:44.145Z</time>
      </trkpt>
      <trkpt lat="43.16543" lon="17.75838">
        <ele>65.563248</ele>
        <time>2022-06-12T09:35:47.111Z</time>
      </trkpt>
      <trkpt lat="43.16553" lon="17.75842">
        <ele>65.410724</ele>
        <time>2022-06-12T09:35:50.112Z</time>
      </trkpt>
      <trkpt lat="43.16565" lon="17.75846">
        <ele>65.251037</ele>
        <time>2022-06-12T09:35:53.104Z</time>
      </trkpt>
      <trkpt lat="43.16576" lon="17.75851">
        <ele>65.086733</ele>
        <time>2022-06-12T09:35:56.108Z</time>
      </trkpt>
      <trkpt lat="43.16588" lon="17.75857">
        <ele>64.914346</ele>
        <time>2022-06-12T09:35:59.103Z</time>
      </trkpt>
      <trkpt lat="43.166" lon="17.75864">
        <ele>64.738384</ele>
        <time>2022-06-12T09:36:02.107Z</time>
      </trkpt>
      <trkpt lat="43.16611" lon="17.7587">
        <ele>64.563867</ele>
        <time>2022-06-12T09:36:05.136Z</time>
      </trkpt>
      <trkpt lat="43.16623" lon="17.75877">
        <ele>64.384775</ele>
        <time>2022-06-12T09:36:08.104Z</time>
      </trkpt>
      <trkpt lat="43.16635" lon="17.75883">
        <ele>64.217982</ele>
        <time>2022-06-12T09:36:11.104Z</time>
      </trkpt>
      <trkpt lat="43.16647" lon="17.7589">
        <ele>64.031906</ele>
        <time>2022-06-12T09:36:14.098Z</time>
      </trkpt>
      <trkpt lat="43.16659" lon="17.75897">
        <ele>63.848756</ele>
        <time>2022-06-12T09:36:17.133Z</time>
      </trkpt>
      <trkpt lat="43.16668" lon="17.75903">
        <ele>63.722004</ele>
        <time>2022-06-12T09:36:19.105Z</time>
      </trkpt>
      <trkpt lat="43.16676" lon="17.75908">
        <ele>63.595111</ele>
        <time>2022-06-12T09:36:21.092Z</time>
      </trkpt>
      <trkpt lat="43.16684" lon="17.75914">
        <ele>63.470909</ele>
        <time>2022-06-12T09:36:23.096Z</time>
      </trkpt>
      <trkpt lat="43.16692" lon="17.7592">
        <ele>63.494622</ele>
        <time>2022-06-12T09:36:25.109Z</time>
      </trkpt>
      <trkpt lat="43.167" lon="17.75925">
        <ele>63.528654</ele>
        <time>2022-06-12T09:36:27.121Z</time>
      </trkpt>
      <trkpt lat="43.16709" lon="17.75931">
        <ele>63.563127</ele>
        <time>2022-06-12T09:36:29.106Z</time>
      </trkpt>
      <trkpt lat="43.16718" lon="17.75936">
        <ele>63.597849</ele>
        <time>2022-06-12T09:36:31.094Z</time>
      </trkpt>
      <trkpt lat="43.16729" lon="17.75943">
        <ele>63.645665</ele>
        <time>2022-06-12T09:36:34.101Z</time>
      </trkpt>
      <trkpt lat="43.1674" lon="17.7595">
        <ele>63.690771</ele>
        <time>2022-06-12T09:36:37.100Z</time>
      </trkpt>
      <trkpt lat="43.16752" lon="17.75957">
        <ele>63.736455</ele>
        <time>2022-06-12T09:36:40.116Z</time>
      </trkpt>
      <trkpt lat="43.16763" lon="17.75963">
        <ele>63.780464</ele>
        <time>2022-06-12T09:36:43.108Z</time>
      </trkpt>
      <trkpt lat="43.16773" lon="17.7597">
        <ele>63.820645</ele>
        <time>2022-06-12T09:36:46.112Z</time>
      </trkpt>
      <trkpt lat="43.16782" lon="17.75976">
        <ele>63.859962</ele>
        <time>2022-06-12T09:36:49.103Z</time>
      </trkpt>
      <trkpt lat="43.16793" lon="17.75984">
        <ele>63.905538</ele>
        <time>2022-06-12T09:36:52.108Z</time>
      </trkpt>
      <trkpt lat="43.16803" lon="17.75993">
        <ele>63.948477</ele>
        <time>2022-06-12T09:36:55.104Z</time>
      </trkpt>
      <trkpt lat="43.16812" lon="17.76003">
        <ele>63.993713</ele>
        <time>2022-06-12T09:36:58.104Z</time>
      </trkpt>
      <trkpt lat="43.16823" lon="17.76014">
        <ele>64.042497</ele>
        <time>2022-06-12T09:37:01.133Z</time>
      </trkpt>
      <trkpt lat="43.1683" lon="17.76022">
        <ele>64.076424</ele>
        <time>2022-06-12T09:37:03.100Z</time>
      </trkpt>
      <trkpt lat="43.16841" lon="17.76034">
        <ele>64.12683</ele>
        <time>2022-06-12T09:37:06.089Z</time>
      </trkpt>
      <trkpt lat="43.16848" lon="17.76043">
        <ele>64.405451</ele>
        <time>2022-06-12T09:37:08.108Z</time>
      </trkpt>
      <trkpt lat="43.16855" lon="17.76051">
        <ele>64.689912</ele>
        <time>2022-06-12T09:37:10.104Z</time>
      </trkpt>
      <trkpt lat="43.16861" lon="17.76061">
        <ele>64.965509</ele>
        <time>2022-06-12T09:37:12.101Z</time>
      </trkpt>
      <trkpt lat="43.1687" lon="17.76073">
        <ele>65.347805</ele>
        <time>2022-06-12T09:37:15.108Z</time>
      </trkpt>
      <trkpt lat="43.16878" lon="17.76085">
        <ele>65.685147</ele>
        <time>2022-06-12T09:37:18.130Z</time>
      </trkpt>
      <trkpt lat="43.16884" lon="17.76097">
        <ele>66.010904</ele>
        <time>2022-06-12T09:37:21.097Z</time>
      </trkpt>
      <trkpt lat="43.16891" lon="17.76111">
        <ele>66.370124</ele>
        <time>2022-06-12T09:37:24.094Z</time>
      </trkpt>
      <trkpt lat="43.16897" lon="17.76125">
        <ele>66.729228</ele>
        <time>2022-06-12T09:37:27.106Z</time>
      </trkpt>
      <trkpt lat="43.16903" lon="17.76139">
        <ele>67.09137</ele>
        <time>2022-06-12T09:37:30.105Z</time>
      </trkpt>
      <trkpt lat="43.16909" lon="17.76154">
        <ele>67.453849</ele>
        <time>2022-06-12T09:37:33.109Z</time>
      </trkpt>
      <trkpt lat="43.16916" lon="17.76168">
        <ele>67.821572</ele>
        <time>2022-06-12T09:37:36.114Z</time>
      </trkpt>
      <trkpt lat="43.16922" lon="17.76184">
        <ele>68.21049</ele>
        <time>2022-06-12T09:37:39.113Z</time>
      </trkpt>
      <trkpt lat="43.16928" lon="17.76198">
        <ele>68.569593</ele>
        <time>2022-06-12T09:37:42.110Z</time>
      </trkpt>
      <trkpt lat="43.16935" lon="17.76212">
        <ele>68.937445</ele>
        <time>2022-06-12T09:37:45.117Z</time>
      </trkpt>
      <trkpt lat="43.16943" lon="17.76226">
        <ele>69.30525</ele>
        <time>2022-06-12T09:37:48.104Z</time>
      </trkpt>
      <trkpt lat="43.16948" lon="17.76239">
        <ele>69.446291</ele>
        <time>2022-06-12T09:37:51.091Z</time>
      </trkpt>
      <trkpt lat="43.16955" lon="17.76251">
        <ele>69.391346</ele>
        <time>2022-06-12T09:37:54.106Z</time>
      </trkpt>
      <trkpt lat="43.16961" lon="17.76263">
        <ele>69.336976</ele>
        <time>2022-06-12T09:37:57.143Z</time>
      </trkpt>
      <trkpt lat="43.16968" lon="17.76277">
        <ele>69.277848</ele>
        <time>2022-06-12T09:38:00.107Z</time>
      </trkpt>
      <trkpt lat="43.16975" lon="17.76292">
        <ele>69.212743</ele>
        <time>2022-06-12T09:38:03.097Z</time>
      </trkpt>
      <trkpt lat="43.16982" lon="17.76308">
        <ele>69.144524</ele>
        <time>2022-06-12T09:38:06.111Z</time>
      </trkpt>
      <trkpt lat="43.16987" lon="17.7632">
        <ele>69.094584</ele>
        <time>2022-06-12T09:38:08.134Z</time>
      </trkpt>
      <trkpt lat="43.16992" lon="17.76333">
        <ele>69.041126</ele>
        <time>2022-06-12T09:38:10.104Z</time>
      </trkpt>
      <trkpt lat="43.16997" lon="17.76345">
        <ele>68.988352</ele>
        <time>2022-06-12T09:38:12.092Z</time>
      </trkpt>
      <trkpt lat="43.17003" lon="17.76357">
        <ele>68.936607</ele>
        <time>2022-06-12T09:38:14.100Z</time>
      </trkpt>
      <trkpt lat="43.17009" lon="17.76368">
        <ele>68.886074</ele>
        <time>2022-06-12T09:38:16.098Z</time>
      </trkpt>
      <trkpt lat="43.17015" lon="17.76378">
        <ele>68.839445</ele>
        <time>2022-06-12T09:38:18.105Z</time>
      </trkpt>
      <trkpt lat="43.17023" lon="17.76391">
        <ele>68.778035</ele>
        <time>2022-06-12T09:38:21.108Z</time>
      </trkpt>
      <trkpt lat="43.17031" lon="17.76408">
        <ele>68.70543</ele>
        <time>2022-06-12T09:38:24.103Z</time>
      </trkpt>
      <trkpt lat="43.17036" lon="17.76419">
        <ele>68.656177</ele>
        <time>2022-06-12T09:38:26.106Z</time>
      </trkpt>
      <trkpt lat="43.17041" lon="17.76431">
        <ele>68.607995</ele>
        <time>2022-06-12T09:38:28.085Z</time>
      </trkpt>
      <trkpt lat="43.17046" lon="17.76442">
        <ele>68.569621</ele>
        <time>2022-06-12T09:38:30.100Z</time>
      </trkpt>
      <trkpt lat="43.1705" lon="17.76453">
        <ele>68.549902</ele>
        <time>2022-06-12T09:38:32.097Z</time>
      </trkpt>
      <trkpt lat="43.17057" lon="17.76468">
        <ele>68.523038</ele>
        <time>2022-06-12T09:38:35.121Z</time>
      </trkpt>
      <trkpt lat="43.17061" lon="17.7648">
        <ele>68.503268</ele>
        <time>2022-06-12T09:38:38.099Z</time>
      </trkpt>
      <trkpt lat="43.17066" lon="17.76494">
        <ele>68.479293</ele>
        <time>2022-06-12T09:38:42.100Z</time>
      </trkpt>
      <trkpt lat="43.17071" lon="17.76505">
        <ele>68.459362</ele>
        <time>2022-06-12T09:38:46.095Z</time>
      </trkpt>
      <trkpt lat="43.17076" lon="17.76521">
        <ele>68.433511</ele>
        <time>2022-06-12T09:38:50.112Z</time>
      </trkpt>
      <trkpt lat="43.17081" lon="17.76533">
        <ele>68.411867</ele>
        <time>2022-06-12T09:38:53.122Z</time>
      </trkpt>
      <trkpt lat="43.17084" lon="17.76547">
        <ele>68.389859</ele>
        <time>2022-06-12T09:38:56.145Z</time>
      </trkpt>
      <trkpt lat="43.17088" lon="17.76561">
        <ele>68.367197</ele>
        <time>2022-06-12T09:38:59.147Z</time>
      </trkpt>
      <trkpt lat="43.17091" lon="17.76575">
        <ele>68.345162</ele>
        <time>2022-06-12T09:39:02.096Z</time>
      </trkpt>
      <trkpt lat="43.17093" lon="17.76589">
        <ele>68.322768</ele>
        <time>2022-06-12T09:39:05.102Z</time>
      </trkpt>
      <trkpt lat="43.17096" lon="17.76605">
        <ele>68.298737</ele>
        <time>2022-06-12T09:39:08.095Z</time>
      </trkpt>
      <trkpt lat="43.17098" lon="17.76621">
        <ele>68.27366</ele>
        <time>2022-06-12T09:39:11.099Z</time>
      </trkpt>
      <trkpt lat="43.171" lon="17.76636">
        <ele>68.249709</ele>
        <time>2022-06-12T09:39:14.102Z</time>
      </trkpt>
      <trkpt lat="43.171" lon="17.76651">
        <ele>68.227719</ele>
        <time>2022-06-12T09:39:17.087Z</time>
      </trkpt>
      <trkpt lat="43.17101" lon="17.76667">
        <ele>68.203245</ele>
        <time>2022-06-12T09:39:20.100Z</time>
      </trkpt>
      <trkpt lat="43.17101" lon="17.76682">
        <ele>68.031621</ele>
        <time>2022-06-12T09:39:23.095Z</time>
      </trkpt>
      <trkpt lat="43.17102" lon="17.76697">
        <ele>67.834177</ele>
        <time>2022-06-12T09:39:26.112Z</time>
      </trkpt>
      <trkpt lat="43.17102" lon="17.76713">
        <ele>67.635443</ele>
        <time>2022-06-12T09:39:29.106Z</time>
      </trkpt>
      <trkpt lat="43.17102" lon="17.76728">
        <ele>67.436669</ele>
        <time>2022-06-12T09:39:32.148Z</time>
      </trkpt>
      <trkpt lat="43.17102" lon="17.76742">
        <ele>67.252151</ele>
        <time>2022-06-12T09:39:35.113Z</time>
      </trkpt>
      <trkpt lat="43.17103" lon="17.76756">
        <ele>67.076353</ele>
        <time>2022-06-12T09:39:38.101Z</time>
      </trkpt>
      <trkpt lat="43.17103" lon="17.7677">
        <ele>66.889129</ele>
        <time>2022-06-12T09:39:41.112Z</time>
      </trkpt>
      <trkpt lat="43.17103" lon="17.76786">
        <ele>66.692935</ele>
        <time>2022-06-12T09:39:44.109Z</time>
      </trkpt>
      <trkpt lat="43.17104" lon="17.76802">
        <ele>66.483843</ele>
        <time>2022-06-12T09:39:47.104Z</time>
      </trkpt>
      <trkpt lat="43.17104" lon="17.76818">
        <ele>66.274788</ele>
        <time>2022-06-12T09:39:50.103Z</time>
      </trkpt>
      <trkpt lat="43.17104" lon="17.76834">
        <ele>66.065695</ele>
        <time>2022-06-12T09:39:53.127Z</time>
      </trkpt>
      <trkpt lat="43.17105" lon="17.7685">
        <ele>65.861456</ele>
        <time>2022-06-12T09:39:56.108Z</time>
      </trkpt>
      <trkpt lat="43.17104" lon="17.76864">
        <ele>65.674157</ele>
        <time>2022-06-12T09:39:59.096Z</time>
      </trkpt>
      <trkpt lat="43.17104" lon="17.76879">
        <ele>65.480607</ele>
        <time>2022-06-12T09:40:02.097Z</time>
      </trkpt>
      <trkpt lat="43.17104" lon="17.76895">
        <ele>65.284286</ele>
        <time>2022-06-12T09:40:05.116Z</time>
      </trkpt>
      <trkpt lat="43.17104" lon="17.7691">
        <ele>65.083002</ele>
        <time>2022-06-12T09:40:08.104Z</time>
      </trkpt>
      <trkpt lat="43.17104" lon="17.76925">
        <ele>65.043812</ele>
        <time>2022-06-12T09:40:11.131Z</time>
      </trkpt>
      <trkpt lat="43.17104" lon="17.76941">
        <ele>65.082979</ele>
        <time>2022-06-12T09:40:14.111Z</time>
      </trkpt>
      <trkpt lat="43.17103" lon="17.76955">
        <ele>65.120862</ele>
        <time>2022-06-12T09:40:17.140Z</time>
      </trkpt>
      <trkpt lat="43.17103" lon="17.7697">
        <ele>65.158496</ele>
        <time>2022-06-12T09:40:20.105Z</time>
      </trkpt>
      <trkpt lat="43.17103" lon="17.76985">
        <ele>65.197428</ele>
        <time>2022-06-12T09:40:23.113Z</time>
      </trkpt>
      <trkpt lat="43.17102" lon="17.77">
        <ele>65.237134</ele>
        <time>2022-06-12T09:40:26.129Z</time>
      </trkpt>
      <trkpt lat="43.17102" lon="17.77016">
        <ele>65.2763</ele>
        <time>2022-06-12T09:40:29.135Z</time>
      </trkpt>
      <trkpt lat="43.17102" lon="17.77031">
        <ele>65.315209</ele>
        <time>2022-06-12T09:40:32.110Z</time>
      </trkpt>
      <trkpt lat="43.17102" lon="17.77046">
        <ele>65.35386</ele>
        <time>2022-06-12T09:40:35.112Z</time>
      </trkpt>
      <trkpt lat="43.17102" lon="17.77061">
        <ele>65.39408</ele>
        <time>2022-06-12T09:40:38.138Z</time>
      </trkpt>
      <trkpt lat="43.17102" lon="17.77077">
        <ele>65.434797</ele>
        <time>2022-06-12T09:40:41.091Z</time>
      </trkpt>
      <trkpt lat="43.17101" lon="17.77091">
        <ele>65.47117</ele>
        <time>2022-06-12T09:40:44.107Z</time>
      </trkpt>
      <trkpt lat="43.171" lon="17.77105">
        <ele>65.506534</ele>
        <time>2022-06-12T09:40:47.091Z</time>
      </trkpt>
      <trkpt lat="43.171" lon="17.77118">
        <ele>65.539583</ele>
        <time>2022-06-12T09:40:50.103Z</time>
      </trkpt>
      <trkpt lat="43.17099" lon="17.77131">
        <ele>65.574174</ele>
        <time>2022-06-12T09:40:53.102Z</time>
      </trkpt>
      <trkpt lat="43.17097" lon="17.77147">
        <ele>65.616256</ele>
        <time>2022-06-12T09:40:57.108Z</time>
      </trkpt>
      <trkpt lat="43.17096" lon="17.7716">
        <ele>65.649871</ele>
        <time>2022-06-12T09:41:00.106Z</time>
      </trkpt>
      <trkpt lat="43.17096" lon="17.77173">
        <ele>65.616552</ele>
        <time>2022-06-12T09:41:03.098Z</time>
      </trkpt>
      <trkpt lat="43.17096" lon="17.77186">
        <ele>65.574974</ele>
        <time>2022-06-12T09:41:07.129Z</time>
      </trkpt>
      <trkpt lat="43.17097" lon="17.772">
        <ele>65.528576</ele>
        <time>2022-06-12T09:41:11.114Z</time>
      </trkpt>
      <trkpt lat="43.17096" lon="17.77214">
        <ele>65.485399</ele>
        <time>2022-06-12T09:41:15.101Z</time>
      </trkpt>
      <trkpt lat="43.17097" lon="17.77227">
        <ele>65.442543</ele>
        <time>2022-06-12T09:41:18.153Z</time>
      </trkpt>
      <trkpt lat="43.17097" lon="17.77241">
        <ele>65.400012</ele>
        <time>2022-06-12T09:41:21.120Z</time>
      </trkpt>
      <trkpt lat="43.17097" lon="17.77255">
        <ele>65.354598</ele>
        <time>2022-06-12T09:41:24.132Z</time>
      </trkpt>
      <trkpt lat="43.17096" lon="17.77269">
        <ele>65.307839</ele>
        <time>2022-06-12T09:41:27.107Z</time>
      </trkpt>
      <trkpt lat="43.17095" lon="17.77285">
        <ele>65.259164</ele>
        <time>2022-06-12T09:41:30.104Z</time>
      </trkpt>
      <trkpt lat="43.17095" lon="17.77299">
        <ele>65.211789</ele>
        <time>2022-06-12T09:41:33.095Z</time>
      </trkpt>
      <trkpt lat="43.17095" lon="17.77315">
        <ele>65.163487</ele>
        <time>2022-06-12T09:41:36.115Z</time>
      </trkpt>
      <trkpt lat="43.17094" lon="17.7733">
        <ele>65.113917</ele>
        <time>2022-06-12T09:41:39.098Z</time>
      </trkpt>
      <trkpt lat="43.17094" lon="17.77345">
        <ele>65.064962</ele>
        <time>2022-06-12T09:41:42.095Z</time>
      </trkpt>
      <trkpt lat="43.17094" lon="17.77361">
        <ele>65.015719</ele>
        <time>2022-06-12T09:41:45.101Z</time>
      </trkpt>
      <trkpt lat="43.17094" lon="17.77375">
        <ele>64.969991</ele>
        <time>2022-06-12T09:41:48.121Z</time>
      </trkpt>
      <trkpt lat="43.17094" lon="17.7739">
        <ele>64.9217</ele>
        <time>2022-06-12T09:41:51.108Z</time>
      </trkpt>
      <trkpt lat="43.17094" lon="17.77405">
        <ele>64.874373</ele>
        <time>2022-06-12T09:41:54.116Z</time>
      </trkpt>
      <trkpt lat="43.17094" lon="17.7742">
        <ele>64.875368</ele>
        <time>2022-06-12T09:41:57.104Z</time>
      </trkpt>
      <trkpt lat="43.17094" lon="17.77436">
        <ele>64.889323</ele>
        <time>2022-06-12T09:42:00.095Z</time>
      </trkpt>
      <trkpt lat="43.17094" lon="17.77452">
        <ele>64.903019</ele>
        <time>2022-06-12T09:42:03.104Z</time>
      </trkpt>
      <trkpt lat="43.17093" lon="17.77468">
        <ele>64.917079</ele>
        <time>2022-06-12T09:42:06.107Z</time>
      </trkpt>
      <trkpt lat="43.17092" lon="17.77484">
        <ele>64.931621</ele>
        <time>2022-06-12T09:42:09.103Z</time>
      </trkpt>
      <trkpt lat="43.17091" lon="17.775">
        <ele>64.945663</ele>
        <time>2022-06-12T09:42:12.135Z</time>
      </trkpt>
      <trkpt lat="43.17089" lon="17.77516">
        <ele>64.959575</ele>
        <time>2022-06-12T09:42:15.135Z</time>
      </trkpt>
      <trkpt lat="43.17088" lon="17.77532">
        <ele>64.973457</ele>
        <time>2022-06-12T09:42:18.108Z</time>
      </trkpt>
      <trkpt lat="43.17086" lon="17.77547">
        <ele>64.986863</ele>
        <time>2022-06-12T09:42:21.104Z</time>
      </trkpt>
      <trkpt lat="43.17087" lon="17.77563">
        <ele>65.000742</ele>
        <time>2022-06-12T09:42:24.098Z</time>
      </trkpt>
      <trkpt lat="43.17088" lon="17.77579">
        <ele>65.015011</ele>
        <time>2022-06-12T09:42:27.108Z</time>
      </trkpt>
      <trkpt lat="43.17088" lon="17.77595">
        <ele>65.028886</ele>
        <time>2022-06-12T09:42:30.093Z</time>
      </trkpt>
      <trkpt lat="43.17089" lon="17.7761">
        <ele>65.04199</ele>
        <time>2022-06-12T09:42:33.101Z</time>
      </trkpt>
      <trkpt lat="43.17089" lon="17.77624">
        <ele>65.054628</ele>
        <time>2022-06-12T09:42:36.107Z</time>
      </trkpt>
      <trkpt lat="43.17089" lon="17.77638">
        <ele>65.067004</ele>
        <time>2022-06-12T09:42:39.099Z</time>
      </trkpt>
      <trkpt lat="43.17089" lon="17.77654">
        <ele>65.080873</ele>
        <time>2022-06-12T09:42:42.113Z</time>
      </trkpt>
      <trkpt lat="43.17089" lon="17.77669">
        <ele>64.983759</ele>
        <time>2022-06-12T09:42:45.112Z</time>
      </trkpt>
      <trkpt lat="43.17088" lon="17.77684">
        <ele>64.886352</ele>
        <time>2022-06-12T09:42:48.086Z</time>
      </trkpt>
      <trkpt lat="43.17088" lon="17.77698">
        <ele>64.795387</ele>
        <time>2022-06-12T09:42:51.092Z</time>
      </trkpt>
      <trkpt lat="43.17087" lon="17.77711">
        <ele>64.706128</ele>
        <time>2022-06-12T09:42:54.104Z</time>
      </trkpt>
      <trkpt lat="43.17087" lon="17.77726">
        <ele>64.611314</ele>
        <time>2022-06-12T09:42:57.124Z</time>
      </trkpt>
      <trkpt lat="43.17086" lon="17.77741">
        <ele>64.510619</ele>
        <time>2022-06-12T09:43:00.137Z</time>
      </trkpt>
      <trkpt lat="43.17086" lon="17.77757">
        <ele>64.409271</ele>
        <time>2022-06-12T09:43:03.108Z</time>
      </trkpt>
      <trkpt lat="43.17086" lon="17.77771">
        <ele>64.313836</ele>
        <time>2022-06-12T09:43:06.107Z</time>
      </trkpt>
      <trkpt lat="43.17086" lon="17.77786">
        <ele>64.219714</ele>
        <time>2022-06-12T09:43:09.109Z</time>
      </trkpt>
      <trkpt lat="43.17087" lon="17.778">
        <ele>64.122773</ele>
        <time>2022-06-12T09:43:12.128Z</time>
      </trkpt>
      <trkpt lat="43.17088" lon="17.77817">
        <ele>64.012347</ele>
        <time>2022-06-12T09:43:15.145Z</time>
      </trkpt>
      <trkpt lat="43.17089" lon="17.77833">
        <ele>63.907769</ele>
        <time>2022-06-12T09:43:18.101Z</time>
      </trkpt>
      <trkpt lat="43.17091" lon="17.77849">
        <ele>63.805568</ele>
        <time>2022-06-12T09:43:21.091Z</time>
      </trkpt>
      <trkpt lat="43.17092" lon="17.77864">
        <ele>63.705162</ele>
        <time>2022-06-12T09:43:24.096Z</time>
      </trkpt>
      <trkpt lat="43.17094" lon="17.77879">
        <ele>63.60485</ele>
        <time>2022-06-12T09:43:27.091Z</time>
      </trkpt>
      <trkpt lat="43.17096" lon="17.77895">
        <ele>63.501964</ele>
        <time>2022-06-12T09:43:30.093Z</time>
      </trkpt>
      <trkpt lat="43.17098" lon="17.77909">
        <ele>63.354525</ele>
        <time>2022-06-12T09:43:33.117Z</time>
      </trkpt>
      <trkpt lat="43.17101" lon="17.77924">
        <ele>63.185897</ele>
        <time>2022-06-12T09:43:36.097Z</time>
      </trkpt>
      <trkpt lat="43.17104" lon="17.77937">
        <ele>63.020499</ele>
        <time>2022-06-12T09:43:39.116Z</time>
      </trkpt>
      <trkpt lat="43.17108" lon="17.77951">
        <ele>62.860503</ele>
        <time>2022-06-12T09:43:42.096Z</time>
      </trkpt>
      <trkpt lat="43.17111" lon="17.77965">
        <ele>62.690289</ele>
        <time>2022-06-12T09:43:45.109Z</time>
      </trkpt>
      <trkpt lat="43.17115" lon="17.77978">
        <ele>62.531361</ele>
        <time>2022-06-12T09:43:48.105Z</time>
      </trkpt>
      <trkpt lat="43.17118" lon="17.77989">
        <ele>62.390925</ele>
        <time>2022-06-12T09:43:51.099Z</time>
      </trkpt>
      <trkpt lat="43.17124" lon="17.78004">
        <ele>62.20588</ele>
        <time>2022-06-12T09:43:55.116Z</time>
      </trkpt>
      <trkpt lat="43.17128" lon="17.78015">
        <ele>62.063442</ele>
        <time>2022-06-12T09:43:58.115Z</time>
      </trkpt>
      <trkpt lat="43.17133" lon="17.78026">
        <ele>61.907229</ele>
        <time>2022-06-12T09:44:01.099Z</time>
      </trkpt>
      <trkpt lat="43.17138" lon="17.78038">
        <ele>61.755337</ele>
        <time>2022-06-12T09:44:04.105Z</time>
      </trkpt>
      <trkpt lat="43.17143" lon="17.78049">
        <ele>61.604811</ele>
        <time>2022-06-12T09:44:07.141Z</time>
      </trkpt>
      <trkpt lat="43.17149" lon="17.78059">
        <ele>61.457211</ele>
        <time>2022-06-12T09:44:10.090Z</time>
      </trkpt>
      <trkpt lat="43.17157" lon="17.78068">
        <ele>61.304058</ele>
        <time>2022-06-12T09:44:13.155Z</time>
      </trkpt>
      <trkpt lat="43.17165" lon="17.78078">
        <ele>61.125789</ele>
        <time>2022-06-12T09:44:16.111Z</time>
      </trkpt>
      <trkpt lat="43.17173" lon="17.78088">
        <ele>60.957474</ele>
        <time>2022-06-12T09:44:19.100Z</time>
      </trkpt>
      <trkpt lat="43.1718" lon="17.78098">
        <ele>60.797608</ele>
        <time>2022-06-12T09:44:22.097Z</time>
      </trkpt>
      <trkpt lat="43.17188" lon="17.78108">
        <ele>60.643537</ele>
        <time>2022-06-12T09:44:25.137Z</time>
      </trkpt>
      <trkpt lat="43.17197" lon="17.78118">
        <ele>60.555471</ele>
        <time>2022-06-12T09:44:28.102Z</time>
      </trkpt>
      <trkpt lat="43.17208" lon="17.78128">
        <ele>60.451677</ele>
        <time>2022-06-12T09:44:32.089Z</time>
      </trkpt>
      <trkpt lat="43.17215" lon="17.78136">
        <ele>60.379952</ele>
        <time>2022-06-12T09:44:34.093Z</time>
      </trkpt>
      <trkpt lat="43.17225" lon="17.78144">
        <ele>60.29199</ele>
        <time>2022-06-12T09:44:37.107Z</time>
      </trkpt>
      <trkpt lat="43.17234" lon="17.78152">
        <ele>60.205397</ele>
        <time>2022-06-12T09:44:40.105Z</time>
      </trkpt>
      <trkpt lat="43.17243" lon="17.78161">
        <ele>60.121401</ele>
        <time>2022-06-12T09:44:43.091Z</time>
      </trkpt>
      <trkpt lat="43.17252" lon="17.78168">
        <ele>60.035206</ele>
        <time>2022-06-12T09:44:46.097Z</time>
      </trkpt>
      <trkpt lat="43.1726" lon="17.78174">
        <ele>59.96116</ele>
        <time>2022-06-12T09:44:49.117Z</time>
      </trkpt>
      <trkpt lat="43.17269" lon="17.7818">
        <ele>59.88721</ele>
        <time>2022-06-12T09:44:52.115Z</time>
      </trkpt>
      <trkpt lat="43.17278" lon="17.78185">
        <ele>59.811865</ele>
        <time>2022-06-12T09:44:55.113Z</time>
      </trkpt>
      <trkpt lat="43.17286" lon="17.7819">
        <ele>59.737183</ele>
        <time>2022-06-12T09:44:58.105Z</time>
      </trkpt>
      <trkpt lat="43.17295" lon="17.78195">
        <ele>59.662793</ele>
        <time>2022-06-12T09:45:01.093Z</time>
      </trkpt>
      <trkpt lat="43.17304" lon="17.78199">
        <ele>59.588577</ele>
        <time>2022-06-12T09:45:04.106Z</time>
      </trkpt>
      <trkpt lat="43.17313" lon="17.78202">
        <ele>59.516955</ele>
        <time>2022-06-12T09:45:07.102Z</time>
      </trkpt>
      <trkpt lat="43.17324" lon="17.78206">
        <ele>59.425046</ele>
        <time>2022-06-12T09:45:11.105Z</time>
      </trkpt>
      <trkpt lat="43.17333" lon="17.78209">
        <ele>59.353495</ele>
        <time>2022-06-12T09:45:14.090Z</time>
      </trkpt>
      <trkpt lat="43.17343" lon="17.78211">
        <ele>59.275993</ele>
        <time>2022-06-12T09:45:17.134Z</time>
      </trkpt>
      <trkpt lat="43.17352" lon="17.78213">
        <ele>59.388253</ele>
        <time>2022-06-12T09:45:20.092Z</time>
      </trkpt>
      <trkpt lat="43.17362" lon="17.78215">
        <ele>59.627357</ele>
        <time>2022-06-12T09:45:23.114Z</time>
      </trkpt>
      <trkpt lat="43.17372" lon="17.78217">
        <ele>59.873094</ele>
        <time>2022-06-12T09:45:26.103Z</time>
      </trkpt>
      <trkpt lat="43.17382" lon="17.78218">
        <ele>60.118831</ele>
        <time>2022-06-12T09:45:29.097Z</time>
      </trkpt>
      <trkpt lat="43.17392" lon="17.7822">
        <ele>60.367952</ele>
        <time>2022-06-12T09:45:32.097Z</time>
      </trkpt>
      <trkpt lat="43.17402" lon="17.78223">
        <ele>60.610931</ele>
        <time>2022-06-12T09:45:35.113Z</time>
      </trkpt>
      <trkpt lat="43.17411" lon="17.78225">
        <ele>60.842859</ele>
        <time>2022-06-12T09:45:38.149Z</time>
      </trkpt>
      <trkpt lat="43.1742" lon="17.78229">
        <ele>61.069672</ele>
        <time>2022-06-12T09:45:41.105Z</time>
      </trkpt>
      <trkpt lat="43.17428" lon="17.78232">
        <ele>61.293648</ele>
        <time>2022-06-12T09:45:44.141Z</time>
      </trkpt>
      <trkpt lat="43.17439" lon="17.78236">
        <ele>61.571384</ele>
        <time>2022-06-12T09:45:48.100Z</time>
      </trkpt>
      <trkpt lat="43.17451" lon="17.7824">
        <ele>61.868633</ele>
        <time>2022-06-12T09:45:52.097Z</time>
      </trkpt>
      <trkpt lat="43.17461" lon="17.78243">
        <ele>62.113052</ele>
        <time>2022-06-12T09:45:55.111Z</time>
      </trkpt>
      <trkpt lat="43.1747" lon="17.78247">
        <ele>62.362247</ele>
        <time>2022-06-12T09:45:58.096Z</time>
      </trkpt>
      <trkpt lat="43.1748" lon="17.7825">
        <ele>62.604573</ele>
        <time>2022-06-12T09:46:01.130Z</time>
      </trkpt>
      <trkpt lat="43.17489" lon="17.78253">
        <ele>62.842088</ele>
        <time>2022-06-12T09:46:04.111Z</time>
      </trkpt>
      <trkpt lat="43.17498" lon="17.78255">
        <ele>63.071993</ele>
        <time>2022-06-12T09:46:07.096Z</time>
      </trkpt>
      <trkpt lat="43.17508" lon="17.78258">
        <ele>63.315635</ele>
        <time>2022-06-12T09:46:10.098Z</time>
      </trkpt>
      <trkpt lat="43.17518" lon="17.7826">
        <ele>63.55134</ele>
        <time>2022-06-12T09:46:13.127Z</time>
      </trkpt>
      <trkpt lat="43.17527" lon="17.78262">
        <ele>63.632782</ele>
        <time>2022-06-12T09:46:16.103Z</time>
      </trkpt>
      <trkpt lat="43.17536" lon="17.78261">
        <ele>63.52032</ele>
        <time>2022-06-12T09:46:19.109Z</time>
      </trkpt>
      <trkpt lat="43.17548" lon="17.78258">
        <ele>63.378978</ele>
        <time>2022-06-12T09:46:23.174Z</time>
      </trkpt>
      <trkpt lat="43.17557" lon="17.78254">
        <ele>63.270915</ele>
        <time>2022-06-12T09:46:26.097Z</time>
      </trkpt>
      <trkpt lat="43.17566" lon="17.78247">
        <ele>63.14897</ele>
        <time>2022-06-12T09:46:30.105Z</time>
      </trkpt>
      <trkpt lat="43.17574" lon="17.7824">
        <ele>63.043243</ele>
        <time>2022-06-12T09:46:33.095Z</time>
      </trkpt>
      <trkpt lat="43.17582" lon="17.78232">
        <ele>62.921539</ele>
        <time>2022-06-12T09:46:36.092Z</time>
      </trkpt>
      <trkpt lat="43.17589" lon="17.78222">
        <ele>62.804033</ele>
        <time>2022-06-12T09:46:39.103Z</time>
      </trkpt>
      <trkpt lat="43.17596" lon="17.78212">
        <ele>62.685261</ele>
        <time>2022-06-12T09:46:43.112Z</time>
      </trkpt>
      <trkpt lat="43.17604" lon="17.782">
        <ele>62.548284</ele>
        <time>2022-06-12T09:46:47.102Z</time>
      </trkpt>
      <trkpt lat="43.17612" lon="17.7819">
        <ele>62.416088</ele>
        <time>2022-06-12T09:46:51.097Z</time>
      </trkpt>
      <trkpt lat="43.17619" lon="17.78181">
        <ele>62.310645</ele>
        <time>2022-06-12T09:46:54.117Z</time>
      </trkpt>
      <trkpt lat="43.17625" lon="17.78172">
        <ele>62.20433</ele>
        <time>2022-06-12T09:46:57.112Z</time>
      </trkpt>
      <trkpt lat="43.17631" lon="17.78161">
        <ele>62.080171</ele>
        <time>2022-06-12T09:47:00.101Z</time>
      </trkpt>
      <trkpt lat="43.17638" lon="17.78151">
        <ele>61.963447</ele>
        <time>2022-06-12T09:47:03.101Z</time>
      </trkpt>
      <trkpt lat="43.17646" lon="17.78143">
        <ele>61.851929</ele>
        <time>2022-06-12T09:47:06.099Z</time>
      </trkpt>
      <trkpt lat="43.17655" lon="17.78139">
        <ele>61.746448</ele>
        <time>2022-06-12T09:47:09.137Z</time>
      </trkpt>
      <trkpt lat="43.17664" lon="17.78136">
        <ele>61.635809</ele>
        <time>2022-06-12T09:47:12.089Z</time>
      </trkpt>
      <trkpt lat="43.17674" lon="17.78132">
        <ele>61.621956</ele>
        <time>2022-06-12T09:47:15.104Z</time>
      </trkpt>
      <trkpt lat="43.17685" lon="17.78128">
        <ele>61.709889</ele>
        <time>2022-06-12T09:47:18.140Z</time>
      </trkpt>
      <trkpt lat="43.17695" lon="17.78124">
        <ele>61.795569</ele>
        <time>2022-06-12T09:47:21.130Z</time>
      </trkpt>
      <trkpt lat="43.17704" lon="17.7812">
        <ele>61.874402</ele>
        <time>2022-06-12T09:47:24.098Z</time>
      </trkpt>
      <trkpt lat="43.17713" lon="17.78116">
        <ele>61.952197</ele>
        <time>2022-06-12T09:47:27.099Z</time>
      </trkpt>
      <trkpt lat="43.17722" lon="17.78112">
        <ele>62.028821</ele>
        <time>2022-06-12T09:47:30.095Z</time>
      </trkpt>
      <trkpt lat="43.17731" lon="17.78108">
        <ele>62.107214</ele>
        <time>2022-06-12T09:47:33.099Z</time>
      </trkpt>
      <trkpt lat="43.17741" lon="17.78104">
        <ele>62.186214</ele>
        <time>2022-06-12T09:47:36.086Z</time>
      </trkpt>
      <trkpt lat="43.17752" lon="17.78099">
        <ele>62.283124</ele>
        <time>2022-06-12T09:47:40.114Z</time>
      </trkpt>
      <trkpt lat="43.17763" lon="17.78094">
        <ele>62.380562</ele>
        <time>2022-06-12T09:47:44.109Z</time>
      </trkpt>
      <trkpt lat="43.17773" lon="17.78091">
        <ele>62.457665</ele>
        <time>2022-06-12T09:47:47.095Z</time>
      </trkpt>
      <trkpt lat="43.17782" lon="17.78086">
        <ele>62.538916</ele>
        <time>2022-06-12T09:47:50.095Z</time>
      </trkpt>
      <trkpt lat="43.17792" lon="17.78083">
        <ele>62.619784</ele>
        <time>2022-06-12T09:47:53.093Z</time>
      </trkpt>
      <trkpt lat="43.17801" lon="17.78079">
        <ele>62.700345</ele>
        <time>2022-06-12T09:47:56.111Z</time>
      </trkpt>
      <trkpt lat="43.1781" lon="17.78076">
        <ele>62.774956</ele>
        <time>2022-06-12T09:47:59.105Z</time>
      </trkpt>
      <trkpt lat="43.1782" lon="17.78073">
        <ele>62.855417</ele>
        <time>2022-06-12T09:48:02.103Z</time>
      </trkpt>
      <trkpt lat="43.17829" lon="17.78069">
        <ele>62.935367</ele>
        <time>2022-06-12T09:48:05.099Z</time>
      </trkpt>
      <trkpt lat="43.17838" lon="17.78066">
        <ele>63.01436</ele>
        <time>2022-06-12T09:48:08.103Z</time>
      </trkpt>
      <trkpt lat="43.17848" lon="17.78063">
        <ele>63.057996</ele>
        <time>2022-06-12T09:48:11.095Z</time>
      </trkpt>
      <trkpt lat="43.17857" lon="17.78059">
        <ele>63.084626</ele>
        <time>2022-06-12T09:48:14.129Z</time>
      </trkpt>
      <trkpt lat="43.17868" lon="17.78055">
        <ele>63.116744</ele>
        <time>2022-06-12T09:48:18.104Z</time>
      </trkpt>
      <trkpt lat="43.17878" lon="17.78051">
        <ele>63.14583</ele>
        <time>2022-06-12T09:48:21.126Z</time>
      </trkpt>
      <trkpt lat="43.17887" lon="17.78047">
        <ele>63.172735</ele>
        <time>2022-06-12T09:48:24.102Z</time>
      </trkpt>
      <trkpt lat="43.17896" lon="17.78044">
        <ele>63.198941</ele>
        <time>2022-06-12T09:48:27.098Z</time>
      </trkpt>
      <trkpt lat="43.17906" lon="17.78041">
        <ele>63.228139</ele>
        <time>2022-06-12T09:48:30.101Z</time>
      </trkpt>
      <trkpt lat="43.17916" lon="17.78037">
        <ele>63.257122</ele>
        <time>2022-06-12T09:48:33.115Z</time>
      </trkpt>
      <trkpt lat="43.17925" lon="17.78033">
        <ele>63.284514</ele>
        <time>2022-06-12T09:48:36.110Z</time>
      </trkpt>
      <trkpt lat="43.17934" lon="17.78029">
        <ele>63.311361</ele>
        <time>2022-06-12T09:48:39.101Z</time>
      </trkpt>
      <trkpt lat="43.17943" lon="17.78026">
        <ele>63.33734</ele>
        <time>2022-06-12T09:48:42.132Z</time>
      </trkpt>
      <trkpt lat="43.17951" lon="17.78023">
        <ele>63.362952</ele>
        <time>2022-06-12T09:48:45.112Z</time>
      </trkpt>
      <trkpt lat="43.17961" lon="17.78018">
        <ele>63.390772</ele>
        <time>2022-06-12T09:48:48.114Z</time>
      </trkpt>
      <trkpt lat="43.1797" lon="17.78015">
        <ele>63.418164</ele>
        <time>2022-06-12T09:48:51.108Z</time>
      </trkpt>
      <trkpt lat="43.1798" lon="17.78011">
        <ele>63.447044</ele>
        <time>2022-06-12T09:48:54.100Z</time>
      </trkpt>
      <trkpt lat="43.17989" lon="17.78007">
        <ele>63.474942</ele>
        <time>2022-06-12T09:48:57.105Z</time>
      </trkpt>
      <trkpt lat="43.17998" lon="17.78004">
        <ele>63.501847</ele>
        <time>2022-06-12T09:49:00.112Z</time>
      </trkpt>
      <trkpt lat="43.18007" lon="17.78001">
        <ele>63.527454</ele>
        <time>2022-06-12T09:49:03.100Z</time>
      </trkpt>
      <trkpt lat="43.18016" lon="17.77997">
        <ele>63.556326</ele>
        <time>2022-06-12T09:49:06.094Z</time>
      </trkpt>
      <trkpt lat="43.18026" lon="17.77993">
        <ele>63.594197</ele>
        <time>2022-06-12T09:49:09.094Z</time>
      </trkpt>
      <trkpt lat="43.18035" lon="17.77989">
        <ele>63.633143</ele>
        <time>2022-06-12T09:49:12.106Z</time>
      </trkpt>
      <trkpt lat="43.18044" lon="17.77986">
        <ele>63.670881</ele>
        <time>2022-06-12T09:49:15.100Z</time>
      </trkpt>
      <trkpt lat="43.18054" lon="17.77981">
        <ele>63.711119</ele>
        <time>2022-06-12T09:49:18.093Z</time>
      </trkpt>
      <trkpt lat="43.18063" lon="17.77977">
        <ele>63.748483</ele>
        <time>2022-06-12T09:49:21.096Z</time>
      </trkpt>
      <trkpt lat="43.18072" lon="17.77973">
        <ele>63.784906</ele>
        <time>2022-06-12T09:49:24.107Z</time>
      </trkpt>
      <trkpt lat="43.18082" lon="17.7797">
        <ele>63.823493</ele>
        <time>2022-06-12T09:49:27.093Z</time>
      </trkpt>
      <trkpt lat="43.18091" lon="17.77967">
        <ele>63.862875</ele>
        <time>2022-06-12T09:49:30.103Z</time>
      </trkpt>
      <trkpt lat="43.18101" lon="17.77963">
        <ele>63.903701</ele>
        <time>2022-06-12T09:49:33.102Z</time>
      </trkpt>
      <trkpt lat="43.18111" lon="17.77959">
        <ele>63.943772</ele>
        <time>2022-06-12T09:49:36.102Z</time>
      </trkpt>
      <trkpt lat="43.18122" lon="17.77955">
        <ele>63.986342</ele>
        <time>2022-06-12T09:49:39.125Z</time>
      </trkpt>
      <trkpt lat="43.18132" lon="17.7795">
        <ele>64.029627</ele>
        <time>2022-06-12T09:49:42.118Z</time>
      </trkpt>
      <trkpt lat="43.18142" lon="17.77944">
        <ele>64.072792</ele>
        <time>2022-06-12T09:49:45.145Z</time>
      </trkpt>
      <trkpt lat="43.18152" lon="17.77938">
        <ele>64.114495</ele>
        <time>2022-06-12T09:49:48.099Z</time>
      </trkpt>
      <trkpt lat="43.18161" lon="17.77933">
        <ele>64.15288</ele>
        <time>2022-06-12T09:49:51.104Z</time>
      </trkpt>
      <trkpt lat="43.1817" lon="17.77928">
        <ele>64.192091</ele>
        <time>2022-06-12T09:49:54.101Z</time>
      </trkpt>
      <trkpt lat="43.18182" lon="17.77924">
        <ele>64.238126</ele>
        <time>2022-06-12T09:49:57.104Z</time>
      </trkpt>
      <trkpt lat="43.18193" lon="17.7792">
        <ele>64.254189</ele>
        <time>2022-06-12T09:50:00.099Z</time>
      </trkpt>
      <trkpt lat="43.18203" lon="17.77916">
        <ele>64.255396</ele>
        <time>2022-06-12T09:50:03.102Z</time>
      </trkpt>
      <trkpt lat="43.18214" lon="17.77912">
        <ele>64.256578</ele>
        <time>2022-06-12T09:50:06.097Z</time>
      </trkpt>
      <trkpt lat="43.18223" lon="17.77907">
        <ele>64.257715</ele>
        <time>2022-06-12T09:50:09.095Z</time>
      </trkpt>
      <trkpt lat="43.18233" lon="17.77903">
        <ele>64.258814</ele>
        <time>2022-06-12T09:50:12.111Z</time>
      </trkpt>
      <trkpt lat="43.18242" lon="17.779">
        <ele>64.259868</ele>
        <time>2022-06-12T09:50:15.097Z</time>
      </trkpt>
      <trkpt lat="43.18252" lon="17.77895">
        <ele>64.260963</ele>
        <time>2022-06-12T09:50:18.095Z</time>
      </trkpt>
      <trkpt lat="43.1826" lon="17.77891">
        <ele>64.261962</ele>
        <time>2022-06-12T09:50:21.096Z</time>
      </trkpt>
      <trkpt lat="43.18269" lon="17.77886">
        <ele>64.263034</ele>
        <time>2022-06-12T09:50:24.094Z</time>
      </trkpt>
      <trkpt lat="43.18278" lon="17.77881">
        <ele>64.264115</ele>
        <time>2022-06-12T09:50:27.106Z</time>
      </trkpt>
      <trkpt lat="43.18288" lon="17.77876">
        <ele>64.265229</ele>
        <time>2022-06-12T09:50:30.140Z</time>
      </trkpt>
      <trkpt lat="43.18297" lon="17.77871">
        <ele>64.26632</ele>
        <time>2022-06-12T09:50:33.104Z</time>
      </trkpt>
      <trkpt lat="43.18307" lon="17.77865">
        <ele>64.26752</ele>
        <time>2022-06-12T09:50:36.091Z</time>
      </trkpt>
      <trkpt lat="43.18316" lon="17.77859">
        <ele>64.268614</ele>
        <time>2022-06-12T09:50:39.098Z</time>
      </trkpt>
      <trkpt lat="43.18326" lon="17.77852">
        <ele>64.269792</ele>
        <time>2022-06-12T09:50:42.105Z</time>
      </trkpt>
      <trkpt lat="43.18334" lon="17.77847">
        <ele>64.27087</ele>
        <time>2022-06-12T09:50:45.113Z</time>
      </trkpt>
      <trkpt lat="43.18344" lon="17.7784">
        <ele>64.272014</ele>
        <time>2022-06-12T09:50:48.083Z</time>
      </trkpt>
      <trkpt lat="43.18352" lon="17.77834">
        <ele>64.273079</ele>
        <time>2022-06-12T09:50:51.112Z</time>
      </trkpt>
      <trkpt lat="43.1836" lon="17.77827">
        <ele>63.93765</ele>
        <time>2022-06-12T09:50:54.114Z</time>
      </trkpt>
      <trkpt lat="43.1837" lon="17.7782">
        <ele>63.523519</ele>
        <time>2022-06-12T09:50:57.107Z</time>
      </trkpt>
      <trkpt lat="43.1838" lon="17.77812">
        <ele>63.115869</ele>
        <time>2022-06-12T09:51:00.095Z</time>
      </trkpt>
      <trkpt lat="43.1839" lon="17.77805">
        <ele>62.687654</ele>
        <time>2022-06-12T09:51:03.127Z</time>
      </trkpt>
      <trkpt lat="43.184" lon="17.77797">
        <ele>62.286184</ele>
        <time>2022-06-12T09:51:06.105Z</time>
      </trkpt>
      <trkpt lat="43.18409" lon="17.77789">
        <ele>61.871155</ele>
        <time>2022-06-12T09:51:09.123Z</time>
      </trkpt>
      <trkpt lat="43.18419" lon="17.77782">
        <ele>61.466733</ele>
        <time>2022-06-12T09:51:12.099Z</time>
      </trkpt>
      <trkpt lat="43.18429" lon="17.77774">
        <ele>61.060293</ele>
        <time>2022-06-12T09:51:15.103Z</time>
      </trkpt>
      <trkpt lat="43.18438" lon="17.77767">
        <ele>60.655872</ele>
        <time>2022-06-12T09:51:18.106Z</time>
      </trkpt>
      <trkpt lat="43.18448" lon="17.7776">
        <ele>60.250172</ele>
        <time>2022-06-12T09:51:21.103Z</time>
      </trkpt>
      <trkpt lat="43.18457" lon="17.77753">
        <ele>59.877207</ele>
        <time>2022-06-12T09:51:24.116Z</time>
      </trkpt>
      <trkpt lat="43.18466" lon="17.77747">
        <ele>59.497739</ele>
        <time>2022-06-12T09:51:27.106Z</time>
      </trkpt>
      <trkpt lat="43.18476" lon="17.7774">
        <ele>59.109301</ele>
        <time>2022-06-12T09:51:30.121Z</time>
      </trkpt>
      <trkpt lat="43.18485" lon="17.77733">
        <ele>58.706592</ele>
        <time>2022-06-12T09:51:33.097Z</time>
      </trkpt>
      <trkpt lat="43.18495" lon="17.77726">
        <ele>58.311632</ele>
        <time>2022-06-12T09:51:36.098Z</time>
      </trkpt>
      <trkpt lat="43.18504" lon="17.7772">
        <ele>57.925193</ele>
        <time>2022-06-12T09:51:39.107Z</time>
      </trkpt>
      <trkpt lat="43.18514" lon="17.77713">
        <ele>57.721713</ele>
        <time>2022-06-12T09:51:42.111Z</time>
      </trkpt>
      <trkpt lat="43.18524" lon="17.77706">
        <ele>57.833696</ele>
        <time>2022-06-12T09:51:45.090Z</time>
      </trkpt>
      <trkpt lat="43.18534" lon="17.77699">
        <ele>57.946681</ele>
        <time>2022-06-12T09:51:48.131Z</time>
      </trkpt>
      <trkpt lat="43.18544" lon="17.77691">
        <ele>58.055974</ele>
        <time>2022-06-12T09:51:51.105Z</time>
      </trkpt>
      <trkpt lat="43.18553" lon="17.77684">
        <ele>58.164037</ele>
        <time>2022-06-12T09:51:54.098Z</time>
      </trkpt>
      <trkpt lat="43.18563" lon="17.77676">
        <ele>58.278618</ele>
        <time>2022-06-12T09:51:57.103Z</time>
      </trkpt>
      <trkpt lat="43.18573" lon="17.77667">
        <ele>58.395005</ele>
        <time>2022-06-12T09:52:00.108Z</time>
      </trkpt>
      <trkpt lat="43.18582" lon="17.7766">
        <ele>58.502354</ele>
        <time>2022-06-12T09:52:03.104Z</time>
      </trkpt>
      <trkpt lat="43.1859" lon="17.77652">
        <ele>58.600532</ele>
        <time>2022-06-12T09:52:06.115Z</time>
      </trkpt>
      <trkpt lat="43.18601" lon="17.77642">
        <ele>58.730119</ele>
        <time>2022-06-12T09:52:09.098Z</time>
      </trkpt>
      <trkpt lat="43.18609" lon="17.77635">
        <ele>58.823347</ele>
        <time>2022-06-12T09:52:11.125Z</time>
      </trkpt>
      <trkpt lat="43.18619" lon="17.77626">
        <ele>58.951698</ele>
        <time>2022-06-12T09:52:14.105Z</time>
      </trkpt>
      <trkpt lat="43.1863" lon="17.77617">
        <ele>59.076995</ele>
        <time>2022-06-12T09:52:17.096Z</time>
      </trkpt>
      <trkpt lat="43.18641" lon="17.77609">
        <ele>59.197</ele>
        <time>2022-06-12T09:52:20.096Z</time>
      </trkpt>
      <trkpt lat="43.1865" lon="17.77602">
        <ele>59.303124</ele>
        <time>2022-06-12T09:52:23.093Z</time>
      </trkpt>
      <trkpt lat="43.18659" lon="17.77592">
        <ele>59.419885</ele>
        <time>2022-06-12T09:52:26.093Z</time>
      </trkpt>
      <trkpt lat="43.1867" lon="17.77585">
        <ele>59.616106</ele>
        <time>2022-06-12T09:52:29.098Z</time>
      </trkpt>
      <trkpt lat="43.1868" lon="17.77578">
        <ele>59.89001</ele>
        <time>2022-06-12T09:52:32.114Z</time>
      </trkpt>
      <trkpt lat="43.1869" lon="17.77571">
        <ele>60.169346</ele>
        <time>2022-06-12T09:52:35.102Z</time>
      </trkpt>
      <trkpt lat="43.187" lon="17.77565">
        <ele>60.43321</ele>
        <time>2022-06-12T09:52:38.131Z</time>
      </trkpt>
      <trkpt lat="43.18709" lon="17.77559">
        <ele>60.680698</ele>
        <time>2022-06-12T09:52:41.103Z</time>
      </trkpt>
      <trkpt lat="43.18718" lon="17.77552">
        <ele>60.940807</ele>
        <time>2022-06-12T09:52:44.131Z</time>
      </trkpt>
      <trkpt lat="43.18728" lon="17.77547">
        <ele>61.197964</ele>
        <time>2022-06-12T09:52:47.105Z</time>
      </trkpt>
      <trkpt lat="43.18737" lon="17.77542">
        <ele>61.443014</ele>
        <time>2022-06-12T09:52:50.108Z</time>
      </trkpt>
      <trkpt lat="43.18747" lon="17.77538">
        <ele>61.675878</ele>
        <time>2022-06-12T09:52:53.107Z</time>
      </trkpt>
      <trkpt lat="43.18757" lon="17.77533">
        <ele>61.933473</ele>
        <time>2022-06-12T09:52:56.105Z</time>
      </trkpt>
      <trkpt lat="43.18766" lon="17.77527">
        <ele>62.19357</ele>
        <time>2022-06-12T09:52:59.098Z</time>
      </trkpt>
      <trkpt lat="43.18777" lon="17.77523">
        <ele>62.467124</ele>
        <time>2022-06-12T09:53:02.094Z</time>
      </trkpt>
      <trkpt lat="43.18787" lon="17.77518">
        <ele>62.729335</ele>
        <time>2022-06-12T09:53:05.120Z</time>
      </trkpt>
      <trkpt lat="43.18797" lon="17.77514">
        <ele>62.977138</ele>
        <time>2022-06-12T09:53:08.108Z</time>
      </trkpt>
      <trkpt lat="43.18809" lon="17.77509">
        <ele>63.285939</ele>
        <time>2022-06-12T09:53:12.101Z</time>
      </trkpt>
      <trkpt lat="43.18819" lon="17.77504">
        <ele>63.552372</ele>
        <time>2022-06-12T09:53:15.121Z</time>
      </trkpt>
      <trkpt lat="43.1883" lon="17.775">
        <ele>63.82002</ele>
        <time>2022-06-12T09:53:18.167Z</time>
      </trkpt>
      <trkpt lat="43.18842" lon="17.77495">
        <ele>63.997153</ele>
        <time>2022-06-12T09:53:21.104Z</time>
      </trkpt>
      <trkpt lat="43.18853" lon="17.77489">
        <ele>64.131395</ele>
        <time>2022-06-12T09:53:24.097Z</time>
      </trkpt>
      <trkpt lat="43.18862" lon="17.77485">
        <ele>64.252597</ele>
        <time>2022-06-12T09:53:27.109Z</time>
      </trkpt>
      <trkpt lat="43.18872" lon="17.77481">
        <ele>64.386316</ele>
        <time>2022-06-12T09:53:31.101Z</time>
      </trkpt>
      <trkpt lat="43.18882" lon="17.77476">
        <ele>64.50529</ele>
        <time>2022-06-12T09:53:35.101Z</time>
      </trkpt>
      <trkpt lat="43.18893" lon="17.77471">
        <ele>64.651072</ele>
        <time>2022-06-12T09:53:38.105Z</time>
      </trkpt>
      <trkpt lat="43.18904" lon="17.77467">
        <ele>64.794887</ele>
        <time>2022-06-12T09:53:41.098Z</time>
      </trkpt>
      <trkpt lat="43.18915" lon="17.77462">
        <ele>64.93341</ele>
        <time>2022-06-12T09:53:44.095Z</time>
      </trkpt>
      <trkpt lat="43.18926" lon="17.77457">
        <ele>65.075704</ele>
        <time>2022-06-12T09:53:47.099Z</time>
      </trkpt>
      <trkpt lat="43.18936" lon="17.7745">
        <ele>65.21221</ele>
        <time>2022-06-12T09:53:50.093Z</time>
      </trkpt>
      <trkpt lat="43.18947" lon="17.77445">
        <ele>65.354879</ele>
        <time>2022-06-12T09:53:53.098Z</time>
      </trkpt>
      <trkpt lat="43.18958" lon="17.77439">
        <ele>65.489655</ele>
        <time>2022-06-12T09:53:56.097Z</time>
      </trkpt>
      <trkpt lat="43.18968" lon="17.77435">
        <ele>65.617206</ele>
        <time>2022-06-12T09:53:59.091Z</time>
      </trkpt>
      <trkpt lat="43.18977" lon="17.7743">
        <ele>65.741696</ele>
        <time>2022-06-12T09:54:02.083Z</time>
      </trkpt>
      <trkpt lat="43.18986" lon="17.77425">
        <ele>65.863589</ele>
        <time>2022-06-12T09:54:05.100Z</time>
      </trkpt>
      <trkpt lat="43.18996" lon="17.77421">
        <ele>65.98226</ele>
        <time>2022-06-12T09:54:08.108Z</time>
      </trkpt>
      <trkpt lat="43.19007" lon="17.77415">
        <ele>66.06079</ele>
        <time>2022-06-12T09:54:12.099Z</time>
      </trkpt>
      <trkpt lat="43.19016" lon="17.7741">
        <ele>66.069822</ele>
        <time>2022-06-12T09:54:15.105Z</time>
      </trkpt>
      <trkpt lat="43.19026" lon="17.77405">
        <ele>66.07911</ele>
        <time>2022-06-12T09:54:18.096Z</time>
      </trkpt>
      <trkpt lat="43.19036" lon="17.77401">
        <ele>66.088747</ele>
        <time>2022-06-12T09:54:21.095Z</time>
      </trkpt>
      <trkpt lat="43.19046" lon="17.77396">
        <ele>66.098876</ele>
        <time>2022-06-12T09:54:24.100Z</time>
      </trkpt>
      <trkpt lat="43.19057" lon="17.77393">
        <ele>66.108458</ele>
        <time>2022-06-12T09:54:27.095Z</time>
      </trkpt>
      <trkpt lat="43.19069" lon="17.77388">
        <ele>66.120167</ele>
        <time>2022-06-12T09:54:30.147Z</time>
      </trkpt>
      <trkpt lat="43.19081" lon="17.77384">
        <ele>66.131067</ele>
        <time>2022-06-12T09:54:33.104Z</time>
      </trkpt>
      <trkpt lat="43.19092" lon="17.7738">
        <ele>66.141342</ele>
        <time>2022-06-12T09:54:36.104Z</time>
      </trkpt>
      <trkpt lat="43.19102" lon="17.77377">
        <ele>66.151397</ele>
        <time>2022-06-12T09:54:39.099Z</time>
      </trkpt>
      <trkpt lat="43.19111" lon="17.77375">
        <ele>66.159882</ele>
        <time>2022-06-12T09:54:42.092Z</time>
      </trkpt>
      <trkpt lat="43.19122" lon="17.77373">
        <ele>66.169756</ele>
        <time>2022-06-12T09:54:45.096Z</time>
      </trkpt>
      <trkpt lat="43.19133" lon="17.77372">
        <ele>66.179859</ele>
        <time>2022-06-12T09:54:48.100Z</time>
      </trkpt>
      <trkpt lat="43.19144" lon="17.7737">
        <ele>66.190005</ele>
        <time>2022-06-12T09:54:51.096Z</time>
      </trkpt>
      <trkpt lat="43.19158" lon="17.7737">
        <ele>66.202036</ele>
        <time>2022-06-12T09:54:54.100Z</time>
      </trkpt>
      <trkpt lat="43.19167" lon="17.7737">
        <ele>66.210426</ele>
        <time>2022-06-12T09:54:56.106Z</time>
      </trkpt>
      <trkpt lat="43.19179" lon="17.7737">
        <ele>66.280867</ele>
        <time>2022-06-12T09:54:59.107Z</time>
      </trkpt>
      <trkpt lat="43.19191" lon="17.7737">
        <ele>66.512277</ele>
        <time>2022-06-12T09:55:02.092Z</time>
      </trkpt>
      <trkpt lat="43.19202" lon="17.77371">
        <ele>66.733542</ele>
        <time>2022-06-12T09:55:05.120Z</time>
      </trkpt>
      <trkpt lat="43.19212" lon="17.77373">
        <ele>66.946142</ele>
        <time>2022-06-12T09:55:08.109Z</time>
      </trkpt>
      <trkpt lat="43.19223" lon="17.77375">
        <ele>67.157967</ele>
        <time>2022-06-12T09:55:11.086Z</time>
      </trkpt>
      <trkpt lat="43.19233" lon="17.77378">
        <ele>67.375028</ele>
        <time>2022-06-12T09:55:14.135Z</time>
      </trkpt>
      <trkpt lat="43.19243" lon="17.7738">
        <ele>67.577714</ele>
        <time>2022-06-12T09:55:17.101Z</time>
      </trkpt>
      <trkpt lat="43.19253" lon="17.77383">
        <ele>67.786327</ele>
        <time>2022-06-12T09:55:20.139Z</time>
      </trkpt>
      <trkpt lat="43.19264" lon="17.77386">
        <ele>68.00261</ele>
        <time>2022-06-12T09:55:23.097Z</time>
      </trkpt>
      <trkpt lat="43.19274" lon="17.77391">
        <ele>68.221892</ele>
        <time>2022-06-12T09:55:26.096Z</time>
      </trkpt>
      <trkpt lat="43.19285" lon="17.77395">
        <ele>68.441018</ele>
        <time>2022-06-12T09:55:29.103Z</time>
      </trkpt>
      <trkpt lat="43.19295" lon="17.774">
        <ele>68.665493</ele>
        <time>2022-06-12T09:55:32.102Z</time>
      </trkpt>
      <trkpt lat="43.19306" lon="17.77405">
        <ele>68.894232</ele>
        <time>2022-06-12T09:55:35.117Z</time>
      </trkpt>
      <trkpt lat="43.19316" lon="17.77411">
        <ele>69.115552</ele>
        <time>2022-06-12T09:55:38.108Z</time>
      </trkpt>
      <trkpt lat="43.19326" lon="17.77416">
        <ele>69.33387</ele>
        <time>2022-06-12T09:55:41.103Z</time>
      </trkpt>
      <trkpt lat="43.19336" lon="17.77423">
        <ele>69.562559</ele>
        <time>2022-06-12T09:55:44.092Z</time>
      </trkpt>
      <trkpt lat="43.19346" lon="17.77431">
        <ele>69.78692</ele>
        <time>2022-06-12T09:55:47.108Z</time>
      </trkpt>
      <trkpt lat="43.19355" lon="17.77438">
        <ele>69.826061</ele>
        <time>2022-06-12T09:55:50.105Z</time>
      </trkpt>
      <trkpt lat="43.19365" lon="17.77446">
        <ele>69.812635</ele>
        <time>2022-06-12T09:55:53.113Z</time>
      </trkpt>
      <trkpt lat="43.19374" lon="17.77454">
        <ele>69.79978</ele>
        <time>2022-06-12T09:55:56.102Z</time>
      </trkpt>
      <trkpt lat="43.19382" lon="17.77462">
        <ele>69.787728</ele>
        <time>2022-06-12T09:55:59.105Z</time>
      </trkpt>
      <trkpt lat="43.1939" lon="17.7747">
        <ele>69.775061</ele>
        <time>2022-06-12T09:56:02.086Z</time>
      </trkpt>
      <trkpt lat="43.19399" lon="17.7748">
        <ele>69.761836</ele>
        <time>2022-06-12T09:56:05.132Z</time>
      </trkpt>
      <trkpt lat="43.19407" lon="17.77489">
        <ele>69.748091</ele>
        <time>2022-06-12T09:56:08.106Z</time>
      </trkpt>
      <trkpt lat="43.19416" lon="17.77499">
        <ele>69.734776</ele>
        <time>2022-06-12T09:56:11.086Z</time>
      </trkpt>
      <trkpt lat="43.19424" lon="17.77508">
        <ele>69.721724</ele>
        <time>2022-06-12T09:56:14.111Z</time>
      </trkpt>
      <trkpt lat="43.19432" lon="17.77518">
        <ele>69.709373</ele>
        <time>2022-06-12T09:56:17.139Z</time>
      </trkpt>
      <trkpt lat="43.19439" lon="17.77527">
        <ele>69.697083</ele>
        <time>2022-06-12T09:56:20.104Z</time>
      </trkpt>
      <trkpt lat="43.19447" lon="17.77536">
        <ele>69.685022</ele>
        <time>2022-06-12T09:56:23.109Z</time>
      </trkpt>
      <trkpt lat="43.19454" lon="17.77545">
        <ele>69.672847</ele>
        <time>2022-06-12T09:56:26.108Z</time>
      </trkpt>
      <trkpt lat="43.19462" lon="17.77554">
        <ele>69.660556</ele>
        <time>2022-06-12T09:56:29.104Z</time>
      </trkpt>
      <trkpt lat="43.1947" lon="17.77563">
        <ele>69.648402</ele>
        <time>2022-06-12T09:56:32.105Z</time>
      </trkpt>
      <trkpt lat="43.19478" lon="17.77572">
        <ele>69.635629</ele>
        <time>2022-06-12T09:56:35.128Z</time>
      </trkpt>
      <trkpt lat="43.19486" lon="17.77584">
        <ele>69.621249</ele>
        <time>2022-06-12T09:56:38.099Z</time>
      </trkpt>
      <trkpt lat="43.19496" lon="17.77594">
        <ele>69.388645</ele>
        <time>2022-06-12T09:56:41.109Z</time>
      </trkpt>
      <trkpt lat="43.19506" lon="17.77605">
        <ele>69.095673</ele>
        <time>2022-06-12T09:56:44.113Z</time>
      </trkpt>
      <trkpt lat="43.19512" lon="17.77613">
        <ele>68.877572</ele>
        <time>2022-06-12T09:56:46.104Z</time>
      </trkpt>
      <trkpt lat="43.19521" lon="17.77624">
        <ele>68.596785</ele>
        <time>2022-06-12T09:56:49.102Z</time>
      </trkpt>
      <trkpt lat="43.1953" lon="17.77634">
        <ele>68.335118</ele>
        <time>2022-06-12T09:56:52.111Z</time>
      </trkpt>
      <trkpt lat="43.19538" lon="17.77643">
        <ele>68.075512</ele>
        <time>2022-06-12T09:56:55.130Z</time>
      </trkpt>
      <trkpt lat="43.19547" lon="17.77653">
        <ele>67.796807</ele>
        <time>2022-06-12T09:56:58.117Z</time>
      </trkpt>
      <trkpt lat="43.19557" lon="17.77664">
        <ele>67.498571</ele>
        <time>2022-06-12T09:57:01.089Z</time>
      </trkpt>
      <trkpt lat="43.19567" lon="17.77673">
        <ele>67.218152</ele>
        <time>2022-06-12T09:57:04.132Z</time>
      </trkpt>
      <trkpt lat="43.19576" lon="17.77682">
        <ele>66.953462</ele>
        <time>2022-06-12T09:57:07.101Z</time>
      </trkpt>
      <trkpt lat="43.19585" lon="17.77691">
        <ele>66.688859</ele>
        <time>2022-06-12T09:57:10.103Z</time>
      </trkpt>
      <trkpt lat="43.19596" lon="17.77699">
        <ele>66.400497</ele>
        <time>2022-06-12T09:57:13.103Z</time>
      </trkpt>
      <trkpt lat="43.19607" lon="17.77708">
        <ele>66.101301</ele>
        <time>2022-06-12T09:57:16.103Z</time>
      </trkpt>
      <trkpt lat="43.19618" lon="17.77716">
        <ele>65.794865</ele>
        <time>2022-06-12T09:57:19.109Z</time>
      </trkpt>
      <trkpt lat="43.19629" lon="17.77723">
        <ele>65.510862</ele>
        <time>2022-06-12T09:57:22.112Z</time>
      </trkpt>
      <trkpt lat="43.19641" lon="17.77728">
        <ele>65.428801</ele>
        <time>2022-06-12T09:57:25.110Z</time>
      </trkpt>
      <trkpt lat="43.19652" lon="17.77734">
        <ele>65.632415</ele>
        <time>2022-06-12T09:57:28.134Z</time>
      </trkpt>
      <trkpt lat="43.19664" lon="17.77741">
        <ele>65.845584</ele>
        <time>2022-06-12T09:57:31.112Z</time>
      </trkpt>
      <trkpt lat="43.19676" lon="17.77747">
        <ele>66.05762</ele>
        <time>2022-06-12T09:57:34.110Z</time>
      </trkpt>
      <trkpt lat="43.19688" lon="17.77753">
        <ele>66.261519</ele>
        <time>2022-06-12T09:57:37.097Z</time>
      </trkpt>
      <trkpt lat="43.19699" lon="17.77758">
        <ele>66.456899</ele>
        <time>2022-06-12T09:57:40.096Z</time>
      </trkpt>
      <trkpt lat="43.19712" lon="17.77764">
        <ele>66.674351</ele>
        <time>2022-06-12T09:57:43.110Z</time>
      </trkpt>
      <trkpt lat="43.1972" lon="17.77771">
        <ele>66.828442</ele>
        <time>2022-06-12T09:57:45.149Z</time>
      </trkpt>
      <trkpt lat="43.19726" lon="17.77781">
        <ele>66.987632</ele>
        <time>2022-06-12T09:57:47.093Z</time>
      </trkpt>
      <trkpt lat="43.19731" lon="17.77795">
        <ele>67.16979</ele>
        <time>2022-06-12T09:57:50.112Z</time>
      </trkpt>
      <trkpt lat="43.19726" lon="17.77813">
        <ele>67.397673</ele>
        <time>2022-06-12T09:57:54.108Z</time>
      </trkpt>
      <trkpt lat="43.19722" lon="17.77825">
        <ele>67.560595</ele>
        <time>2022-06-12T09:57:56.124Z</time>
      </trkpt>
      <trkpt lat="43.19732" lon="17.77833">
        <ele>67.743682</ele>
        <time>2022-06-12T09:58:01.112Z</time>
      </trkpt>
      <trkpt lat="43.19741" lon="17.77843">
        <ele>67.94175</ele>
        <time>2022-06-12T09:58:05.120Z</time>
      </trkpt>
      <trkpt lat="43.19748" lon="17.77857">
        <ele>68.140543</ele>
        <time>2022-06-12T09:58:08.098Z</time>
      </trkpt>
      <trkpt lat="43.19754" lon="17.77868">
        <ele>68.300221</ele>
        <time>2022-06-12T09:58:10.111Z</time>
      </trkpt>
      <trkpt lat="43.19761" lon="17.77882">
        <ele>68.44786</ele>
        <time>2022-06-12T09:58:13.140Z</time>
      </trkpt>
      <trkpt lat="43.19768" lon="17.77896">
        <ele>68.59144</ele>
        <time>2022-06-12T09:58:16.095Z</time>
      </trkpt>
      <trkpt lat="43.19774" lon="17.77908">
        <ele>68.719704</ele>
        <time>2022-06-12T09:58:20.100Z</time>
      </trkpt>
      <trkpt lat="43.1978" lon="17.77918">
        <ele>68.833614</ele>
        <time>2022-06-12T09:58:23.092Z</time>
      </trkpt>
      <trkpt lat="43.19786" lon="17.7793">
        <ele>68.954089</ele>
        <time>2022-06-12T09:58:26.086Z</time>
      </trkpt>
      <trkpt lat="43.19791" lon="17.77943">
        <ele>69.080524</ele>
        <time>2022-06-12T09:58:29.107Z</time>
      </trkpt>
      <trkpt lat="43.19799" lon="17.77956">
        <ele>69.223528</ele>
        <time>2022-06-12T09:58:33.116Z</time>
      </trkpt>
      <trkpt lat="43.19806" lon="17.77968">
        <ele>69.357424</ele>
        <time>2022-06-12T09:58:36.104Z</time>
      </trkpt>
      <trkpt lat="43.19812" lon="17.77981">
        <ele>69.487102</ele>
        <time>2022-06-12T09:58:39.111Z</time>
      </trkpt>
      <trkpt lat="43.19819" lon="17.77992">
        <ele>69.610708</ele>
        <time>2022-06-12T09:58:42.114Z</time>
      </trkpt>
      <trkpt lat="43.19826" lon="17.78003">
        <ele>69.737245</ele>
        <time>2022-06-12T09:58:45.105Z</time>
      </trkpt>
      <trkpt lat="43.19831" lon="17.78013">
        <ele>69.845514</ele>
        <time>2022-06-12T09:58:48.104Z</time>
      </trkpt>
      <trkpt lat="43.19839" lon="17.78023">
        <ele>69.972019</ele>
        <time>2022-06-12T09:58:51.108Z</time>
      </trkpt>
      <trkpt lat="43.19846" lon="17.78033">
        <ele>70.089315</ele>
        <time>2022-06-12T09:58:54.104Z</time>
      </trkpt>
      <trkpt lat="43.19854" lon="17.78044">
        <ele>70.222586</ele>
        <time>2022-06-12T09:58:57.124Z</time>
      </trkpt>
      <trkpt lat="43.19863" lon="17.78057">
        <ele>70.37759</ele>
        <time>2022-06-12T09:59:00.105Z</time>
      </trkpt>
      <trkpt lat="43.19872" lon="17.7807">
        <ele>70.35644</ele>
        <time>2022-06-12T09:59:03.109Z</time>
      </trkpt>
      <trkpt lat="43.19881" lon="17.7808">
        <ele>70.294618</ele>
        <time>2022-06-12T09:59:06.106Z</time>
      </trkpt>
      <trkpt lat="43.1989" lon="17.7809">
        <ele>70.235234</ele>
        <time>2022-06-12T09:59:09.095Z</time>
      </trkpt>
      <trkpt lat="43.19898" lon="17.781">
        <ele>70.179765</ele>
        <time>2022-06-12T09:59:12.101Z</time>
      </trkpt>
      <trkpt lat="43.19907" lon="17.78109">
        <ele>70.122377</ele>
        <time>2022-06-12T09:59:15.147Z</time>
      </trkpt>
      <trkpt lat="43.19916" lon="17.78119">
        <ele>70.062527</ele>
        <time>2022-06-12T09:59:18.108Z</time>
      </trkpt>
      <trkpt lat="43.19924" lon="17.7813">
        <ele>70.006429</ele>
        <time>2022-06-12T09:59:21.103Z</time>
      </trkpt>
      <trkpt lat="43.19932" lon="17.78139">
        <ele>69.951208</ele>
        <time>2022-06-12T09:59:24.111Z</time>
      </trkpt>
      <trkpt lat="43.1994" lon="17.78149">
        <ele>69.89799</ele>
        <time>2022-06-12T09:59:27.109Z</time>
      </trkpt>
      <trkpt lat="43.19948" lon="17.78159">
        <ele>69.842522</ele>
        <time>2022-06-12T09:59:30.102Z</time>
      </trkpt>
      <trkpt lat="43.19955" lon="17.7817">
        <ele>69.786572</ele>
        <time>2022-06-12T09:59:33.104Z</time>
      </trkpt>
      <trkpt lat="43.19963" lon="17.7818">
        <ele>69.73276</ele>
        <time>2022-06-12T09:59:36.123Z</time>
      </trkpt>
      <trkpt lat="43.1997" lon="17.78191">
        <ele>69.677248</ele>
        <time>2022-06-12T09:59:39.103Z</time>
      </trkpt>
      <trkpt lat="43.19979" lon="17.78201">
        <ele>69.619294</ele>
        <time>2022-06-12T09:59:42.110Z</time>
      </trkpt>
      <trkpt lat="43.19988" lon="17.78211">
        <ele>69.562183</ele>
        <time>2022-06-12T09:59:45.176Z</time>
      </trkpt>
      <trkpt lat="43.19996" lon="17.78219">
        <ele>69.507571</ele>
        <time>2022-06-12T09:59:48.092Z</time>
      </trkpt>
      <trkpt lat="43.20004" lon="17.78229">
        <ele>69.434048</ele>
        <time>2022-06-12T09:59:51.143Z</time>
      </trkpt>
      <trkpt lat="43.20011" lon="17.78238">
        <ele>69.353155</ele>
        <time>2022-06-12T09:59:54.091Z</time>
      </trkpt>
      <trkpt lat="43.20017" lon="17.78248">
        <ele>69.272616</ele>
        <time>2022-06-12T09:59:57.106Z</time>
      </trkpt>
      <trkpt lat="43.20023" lon="17.78258">
        <ele>69.194643</ele>
        <time>2022-06-12T10:00:00.100Z</time>
      </trkpt>
      <trkpt lat="43.20031" lon="17.78265">
        <ele>69.118882</ele>
        <time>2022-06-12T10:00:04.135Z</time>
      </trkpt>
      <trkpt lat="43.2004" lon="17.7826">
        <ele>69.039471</ele>
        <time>2022-06-12T10:00:08.185Z</time>
      </trkpt>
      <trkpt lat="43.20046" lon="17.78251">
        <ele>68.9616</ele>
        <time>2022-06-12T10:00:10.150Z</time>
      </trkpt>
      <trkpt lat="43.20051" lon="17.7824">
        <ele>68.885565</ele>
        <time>2022-06-12T10:00:14.111Z</time>
      </trkpt>
      <trkpt lat="43.20058" lon="17.78231">
        <ele>68.806565</ele>
        <time>2022-06-12T10:00:17.119Z</time>
      </trkpt>
      <trkpt lat="43.20066" lon="17.78225">
        <ele>68.730275</ele>
        <time>2022-06-12T10:00:20.091Z</time>
      </trkpt>
      <trkpt lat="43.20074" lon="17.78238">
        <ele>68.627566</ele>
        <time>2022-06-12T10:00:25.129Z</time>
      </trkpt>
      <trkpt lat="43.20082" lon="17.7825">
        <ele>68.527885</ele>
        <time>2022-06-12T10:00:27.095Z</time>
      </trkpt>
      <trkpt lat="43.20089" lon="17.7826">
        <ele>68.447584</ele>
        <time>2022-06-12T10:00:30.110Z</time>
      </trkpt>
      <trkpt lat="43.20096" lon="17.7827">
        <ele>68.35709</ele>
        <time>2022-06-12T10:00:34.093Z</time>
      </trkpt>
      <trkpt lat="43.20107" lon="17.7828">
        <ele>68.253766</ele>
        <time>2022-06-12T10:00:38.093Z</time>
      </trkpt>
      <trkpt lat="43.20115" lon="17.78288">
        <ele>68.168984</ele>
        <time>2022-06-12T10:00:41.094Z</time>
      </trkpt>
      <trkpt lat="43.20123" lon="17.78296">
        <ele>68.081834</ele>
        <time>2022-06-12T10:00:44.110Z</time>
      </trkpt>
      <trkpt lat="43.20131" lon="17.78302">
        <ele>68.005996</ele>
        <time>2022-06-12T10:00:47.101Z</time>
      </trkpt>
      <trkpt lat="43.20145" lon="17.78302">
        <ele>68.037846</ele>
        <time>2022-06-12T10:00:51.103Z</time>
      </trkpt>
      <trkpt lat="43.20154" lon="17.78297">
        <ele>68.087251</ele>
        <time>2022-06-12T10:00:54.137Z</time>
      </trkpt>
      <trkpt lat="43.20164" lon="17.78294">
        <ele>68.136745</ele>
        <time>2022-06-12T10:00:57.099Z</time>
      </trkpt>
      <trkpt lat="43.20172" lon="17.78305">
        <ele>68.189559</ele>
        <time>2022-06-12T10:01:01.113Z</time>
      </trkpt>
      <trkpt lat="43.20182" lon="17.78314">
        <ele>68.245021</ele>
        <time>2022-06-12T10:01:03.107Z</time>
      </trkpt>
      <trkpt lat="43.20191" lon="17.78323">
        <ele>68.298509</ele>
        <time>2022-06-12T10:01:06.123Z</time>
      </trkpt>
      <trkpt lat="43.20199" lon="17.78331">
        <ele>68.347133</ele>
        <time>2022-06-12T10:01:09.094Z</time>
      </trkpt>
      <trkpt lat="43.20207" lon="17.78339">
        <ele>68.393177</ele>
        <time>2022-06-12T10:01:12.103Z</time>
      </trkpt>
      <trkpt lat="43.20215" lon="17.78347">
        <ele>68.44139</ele>
        <time>2022-06-12T10:01:15.109Z</time>
      </trkpt>
      <trkpt lat="43.20224" lon="17.78355">
        <ele>68.49135</ele>
        <time>2022-06-12T10:01:18.108Z</time>
      </trkpt>
      <trkpt lat="43.20233" lon="17.78365">
        <ele>68.54601</ele>
        <time>2022-06-12T10:01:21.100Z</time>
      </trkpt>
      <trkpt lat="43.20241" lon="17.78375">
        <ele>68.597991</ele>
        <time>2022-06-12T10:01:24.104Z</time>
      </trkpt>
      <trkpt lat="43.2025" lon="17.78385">
        <ele>68.652952</ele>
        <time>2022-06-12T10:01:27.136Z</time>
      </trkpt>
      <trkpt lat="43.20256" lon="17.78395">
        <ele>68.69952</ele>
        <time>2022-06-12T10:01:30.105Z</time>
      </trkpt>
      <trkpt lat="43.20264" lon="17.78406">
        <ele>68.749524</ele>
        <time>2022-06-12T10:01:33.107Z</time>
      </trkpt>
      <trkpt lat="43.2027" lon="17.78417">
        <ele>68.798504</ele>
        <time>2022-06-12T10:01:36.094Z</time>
      </trkpt>
      <trkpt lat="43.20276" lon="17.7843">
        <ele>68.863199</ele>
        <time>2022-06-12T10:01:39.134Z</time>
      </trkpt>
      <trkpt lat="43.20282" lon="17.78443">
        <ele>68.966695</ele>
        <time>2022-06-12T10:01:42.098Z</time>
      </trkpt>
      <trkpt lat="43.20287" lon="17.78457">
        <ele>69.072518</ele>
        <time>2022-06-12T10:01:45.110Z</time>
      </trkpt>
      <trkpt lat="43.20295" lon="17.78471">
        <ele>69.19019</ele>
        <time>2022-06-12T10:01:48.103Z</time>
      </trkpt>
      <trkpt lat="43.20302" lon="17.7848">
        <ele>69.280282</ele>
        <time>2022-06-12T10:01:50.100Z</time>
      </trkpt>
      <trkpt lat="43.2031" lon="17.78488">
        <ele>69.369505</ele>
        <time>2022-06-12T10:01:52.105Z</time>
      </trkpt>
      <trkpt lat="43.20317" lon="17.78495">
        <ele>69.453363</ele>
        <time>2022-06-12T10:01:54.092Z</time>
      </trkpt>
      <trkpt lat="43.20328" lon="17.78504">
        <ele>69.566521</ele>
        <time>2022-06-12T10:01:57.103Z</time>
      </trkpt>
      <trkpt lat="43.20337" lon="17.78513">
        <ele>69.672086</ele>
        <time>2022-06-12T10:02:00.141Z</time>
      </trkpt>
      <trkpt lat="43.20338" lon="17.78528">
        <ele>69.769311</ele>
        <time>2022-06-12T10:02:06.103Z</time>
      </trkpt>
      <trkpt lat="43.20332" lon="17.7854">
        <ele>69.869709</ele>
        <time>2022-06-12T10:02:09.097Z</time>
      </trkpt>
      <trkpt lat="43.20325" lon="17.78553">
        <ele>69.976629</ele>
        <time>2022-06-12T10:02:12.092Z</time>
      </trkpt>
      <trkpt lat="43.20318" lon="17.78563">
        <ele>70.067742</ele>
        <time>2022-06-12T10:02:15.104Z</time>
      </trkpt>
      <trkpt lat="43.20311" lon="17.78574">
        <ele>70.165693</ele>
        <time>2022-06-12T10:02:18.112Z</time>
      </trkpt>
      <trkpt lat="43.20303" lon="17.78586">
        <ele>70.27516</ele>
        <time>2022-06-12T10:02:21.106Z</time>
      </trkpt>
      <trkpt lat="43.20296" lon="17.78598">
        <ele>70.383324</ele>
        <time>2022-06-12T10:02:24.101Z</time>
      </trkpt>
      <trkpt lat="43.20289" lon="17.7861">
        <ele>70.48144</ele>
        <time>2022-06-12T10:02:27.164Z</time>
      </trkpt>
      <trkpt lat="43.20294" lon="17.78622">
        <ele>70.527754</ele>
        <time>2022-06-12T10:02:32.081Z</time>
      </trkpt>
      <trkpt lat="43.20301" lon="17.78633">
        <ele>70.569435</ele>
        <time>2022-06-12T10:02:34.100Z</time>
      </trkpt>
      <trkpt lat="43.2031" lon="17.78643">
        <ele>70.615105</ele>
        <time>2022-06-12T10:02:37.104Z</time>
      </trkpt>
      <trkpt lat="43.20319" lon="17.78651">
        <ele>70.655634</ele>
        <time>2022-06-12T10:02:40.106Z</time>
      </trkpt>
      <trkpt lat="43.20327" lon="17.78661">
        <ele>70.699562</ele>
        <time>2022-06-12T10:02:44.107Z</time>
      </trkpt>
      <trkpt lat="43.20336" lon="17.78672">
        <ele>70.745158</ele>
        <time>2022-06-12T10:02:47.100Z</time>
      </trkpt>
      <trkpt lat="43.20345" lon="17.78682">
        <ele>70.791783</ele>
        <time>2022-06-12T10:02:50.103Z</time>
      </trkpt>
      <trkpt lat="43.20353" lon="17.78689">
        <ele>70.827668</ele>
        <time>2022-06-12T10:02:53.099Z</time>
      </trkpt>
      <trkpt lat="43.20362" lon="17.78698">
        <ele>70.87063</ele>
        <time>2022-06-12T10:02:57.117Z</time>
      </trkpt>
      <trkpt lat="43.20373" lon="17.78705">
        <ele>70.91851</ele>
        <time>2022-06-12T10:03:01.149Z</time>
      </trkpt>
      <trkpt lat="43.20382" lon="17.78712">
        <ele>70.958554</ele>
        <time>2022-06-12T10:03:04.087Z</time>
      </trkpt>
      <trkpt lat="43.20391" lon="17.78719">
        <ele>71.001674</ele>
        <time>2022-06-12T10:03:07.098Z</time>
      </trkpt>
      <trkpt lat="43.204" lon="17.78724">
        <ele>71.038031</ele>
        <time>2022-06-12T10:03:10.127Z</time>
      </trkpt>
      <trkpt lat="43.2041" lon="17.7873">
        <ele>71.081839</ele>
        <time>2022-06-12T10:03:14.097Z</time>
      </trkpt>
      <trkpt lat="43.2042" lon="17.78741">
        <ele>71.129971</ele>
        <time>2022-06-12T10:03:18.103Z</time>
      </trkpt>
      <trkpt lat="43.20428" lon="17.78749">
        <ele>71.17131</ele>
        <time>2022-06-12T10:03:21.094Z</time>
      </trkpt>
      <trkpt lat="43.20439" lon="17.78757">
        <ele>71.126715</ele>
        <time>2022-06-12T10:03:24.104Z</time>
      </trkpt>
      <trkpt lat="43.20449" lon="17.78761">
        <ele>70.942194</ele>
        <time>2022-06-12T10:03:27.091Z</time>
      </trkpt>
      <trkpt lat="43.20459" lon="17.78765">
        <ele>70.773163</ele>
        <time>2022-06-12T10:03:30.115Z</time>
      </trkpt>
      <trkpt lat="43.2047" lon="17.78771">
        <ele>70.594097</ele>
        <time>2022-06-12T10:03:33.103Z</time>
      </trkpt>
      <trkpt lat="43.2048" lon="17.78776">
        <ele>70.417827</ele>
        <time>2022-06-12T10:03:36.110Z</time>
      </trkpt>
      <trkpt lat="43.2049" lon="17.78782">
        <ele>70.232105</ele>
        <time>2022-06-12T10:03:39.100Z</time>
      </trkpt>
      <trkpt lat="43.20501" lon="17.78789">
        <ele>70.029909</ele>
        <time>2022-06-12T10:03:42.098Z</time>
      </trkpt>
      <trkpt lat="43.20514" lon="17.78797">
        <ele>69.805482</ele>
        <time>2022-06-12T10:03:45.175Z</time>
      </trkpt>
      <trkpt lat="43.20522" lon="17.78802">
        <ele>69.652521</ele>
        <time>2022-06-12T10:03:47.120Z</time>
      </trkpt>
      <trkpt lat="43.20531" lon="17.78807">
        <ele>69.495454</ele>
        <time>2022-06-12T10:03:49.093Z</time>
      </trkpt>
      <trkpt lat="43.2054" lon="17.78811">
        <ele>69.346963</ele>
        <time>2022-06-12T10:03:51.101Z</time>
      </trkpt>
      <trkpt lat="43.20553" lon="17.78813">
        <ele>69.136655</ele>
        <time>2022-06-12T10:03:54.109Z</time>
      </trkpt>
      <trkpt lat="43.20563" lon="17.78814">
        <ele>68.972247</ele>
        <time>2022-06-12T10:03:57.105Z</time>
      </trkpt>
      <trkpt lat="43.20573" lon="17.78812">
        <ele>68.801697</ele>
        <time>2022-06-12T10:04:00.093Z</time>
      </trkpt>
      <trkpt lat="43.20582" lon="17.78804">
        <ele>68.626057</ele>
        <time>2022-06-12T10:04:05.124Z</time>
      </trkpt>
      <trkpt lat="43.20589" lon="17.78794">
        <ele>68.463023</ele>
        <time>2022-06-12T10:04:08.100Z</time>
      </trkpt>
      <trkpt lat="43.20596" lon="17.78784">
        <ele>68.28806</ele>
        <time>2022-06-12T10:04:12.104Z</time>
      </trkpt>
      <trkpt lat="43.20603" lon="17.78773">
        <ele>68.473663</ele>
        <time>2022-06-12T10:04:16.102Z</time>
      </trkpt>
      <trkpt lat="43.20609" lon="17.78763">
        <ele>68.736545</ele>
        <time>2022-06-12T10:04:20.089Z</time>
      </trkpt>
      <trkpt lat="43.20616" lon="17.78754">
        <ele>68.984291</ele>
        <time>2022-06-12T10:04:24.144Z</time>
      </trkpt>
      <trkpt lat="43.20627" lon="17.78754">
        <ele>69.282358</ele>
        <time>2022-06-12T10:04:31.104Z</time>
      </trkpt>
      <trkpt lat="43.20638" lon="17.78761">
        <ele>69.6229</ele>
        <time>2022-06-12T10:04:34.088Z</time>
      </trkpt>
      <trkpt lat="43.20648" lon="17.78767">
        <ele>69.919269</ele>
        <time>2022-06-12T10:04:38.097Z</time>
      </trkpt>
      <trkpt lat="43.20656" lon="17.78774">
        <ele>70.17165</ele>
        <time>2022-06-12T10:04:41.098Z</time>
      </trkpt>
      <trkpt lat="43.20665" lon="17.78783">
        <ele>70.475223</ele>
        <time>2022-06-12T10:04:45.103Z</time>
      </trkpt>
      <trkpt lat="43.20675" lon="17.78791">
        <ele>70.789269</ele>
        <time>2022-06-12T10:04:49.183Z</time>
      </trkpt>
      <trkpt lat="43.20684" lon="17.78801">
        <ele>71.089019</ele>
        <time>2022-06-12T10:04:53.107Z</time>
      </trkpt>
      <trkpt lat="43.20691" lon="17.78808">
        <ele>71.3347</ele>
        <time>2022-06-12T10:04:56.105Z</time>
      </trkpt>
      <trkpt lat="43.20699" lon="17.78815">
        <ele>71.592601</ele>
        <time>2022-06-12T10:04:59.096Z</time>
      </trkpt>
      <trkpt lat="43.20707" lon="17.78822">
        <ele>71.861966</ele>
        <time>2022-06-12T10:05:02.105Z</time>
      </trkpt>
      <trkpt lat="43.20716" lon="17.7883">
        <ele>72.14328</ele>
        <time>2022-06-12T10:05:05.101Z</time>
      </trkpt>
      <trkpt lat="43.20725" lon="17.78838">
        <ele>72.426863</ele>
        <time>2022-06-12T10:05:08.122Z</time>
      </trkpt>
      <trkpt lat="43.20732" lon="17.78845">
        <ele>72.679243</ele>
        <time>2022-06-12T10:05:11.106Z</time>
      </trkpt>
      <trkpt lat="43.20741" lon="17.78851">
        <ele>72.937987</ele>
        <time>2022-06-12T10:05:14.135Z</time>
      </trkpt>
      <trkpt lat="43.2075" lon="17.78857">
        <ele>73.028032</ele>
        <time>2022-06-12T10:05:17.107Z</time>
      </trkpt>
      <trkpt lat="43.20758" lon="17.78863">
        <ele>72.722776</ele>
        <time>2022-06-12T10:05:20.097Z</time>
      </trkpt>
      <trkpt lat="43.2077" lon="17.78867">
        <ele>72.340555</ele>
        <time>2022-06-12T10:05:24.105Z</time>
      </trkpt>
      <trkpt lat="43.2078" lon="17.7887">
        <ele>71.995494</ele>
        <time>2022-06-12T10:05:28.102Z</time>
      </trkpt>
      <trkpt lat="43.2079" lon="17.78873">
        <ele>71.652968</ele>
        <time>2022-06-12T10:05:32.109Z</time>
      </trkpt>
      <trkpt lat="43.208" lon="17.78876">
        <ele>71.351443</ele>
        <time>2022-06-12T10:05:35.128Z</time>
      </trkpt>
      <trkpt lat="43.20809" lon="17.78879">
        <ele>71.042846</ele>
        <time>2022-06-12T10:05:38.116Z</time>
      </trkpt>
      <trkpt lat="43.20818" lon="17.78881">
        <ele>70.745015</ele>
        <time>2022-06-12T10:05:41.111Z</time>
      </trkpt>
      <trkpt lat="43.20829" lon="17.78884">
        <ele>70.388406</ele>
        <time>2022-06-12T10:05:45.128Z</time>
      </trkpt>
      <trkpt lat="43.20838" lon="17.78886">
        <ele>70.087391</ele>
        <time>2022-06-12T10:05:48.104Z</time>
      </trkpt>
      <trkpt lat="43.20848" lon="17.78889">
        <ele>69.764779</ele>
        <time>2022-06-12T10:05:51.105Z</time>
      </trkpt>
      <trkpt lat="43.20858" lon="17.78891">
        <ele>69.430764</ele>
        <time>2022-06-12T10:05:54.100Z</time>
      </trkpt>
      <trkpt lat="43.20867" lon="17.78893">
        <ele>69.135712</ele>
        <time>2022-06-12T10:05:57.106Z</time>
      </trkpt>
      <trkpt lat="43.20878" lon="17.78896">
        <ele>68.768276</ele>
        <time>2022-06-12T10:06:01.108Z</time>
      </trkpt>
      <trkpt lat="43.20888" lon="17.78898">
        <ele>68.457324</ele>
        <time>2022-06-12T10:06:04.089Z</time>
      </trkpt>
      <trkpt lat="43.20898" lon="17.78901">
        <ele>68.132848</ele>
        <time>2022-06-12T10:06:07.095Z</time>
      </trkpt>
      <trkpt lat="43.20907" lon="17.78903">
        <ele>67.818317</ele>
        <time>2022-06-12T10:06:10.095Z</time>
      </trkpt>
      <trkpt lat="43.20917" lon="17.78905">
        <ele>67.515184</ele>
        <time>2022-06-12T10:06:13.093Z</time>
      </trkpt>
      <trkpt lat="43.20926" lon="17.78907">
        <ele>67.38329</ele>
        <time>2022-06-12T10:06:16.105Z</time>
      </trkpt>
      <trkpt lat="43.20938" lon="17.7891">
        <ele>67.61618</ele>
        <time>2022-06-12T10:06:20.106Z</time>
      </trkpt>
      <trkpt lat="43.20947" lon="17.78911">
        <ele>67.798941</ele>
        <time>2022-06-12T10:06:23.109Z</time>
      </trkpt>
      <trkpt lat="43.20959" lon="17.78915">
        <ele>68.024862</ele>
        <time>2022-06-12T10:06:27.096Z</time>
      </trkpt>
      <trkpt lat="43.2097" lon="17.78919">
        <ele>68.241159</ele>
        <time>2022-06-12T10:06:31.096Z</time>
      </trkpt>
      <trkpt lat="43.20979" lon="17.78922">
        <ele>68.421809</ele>
        <time>2022-06-12T10:06:34.107Z</time>
      </trkpt>
      <trkpt lat="43.2099" lon="17.78926">
        <ele>68.646984</ele>
        <time>2022-06-12T10:06:38.102Z</time>
      </trkpt>
      <trkpt lat="43.20999" lon="17.7893">
        <ele>68.824696</ele>
        <time>2022-06-12T10:06:41.117Z</time>
      </trkpt>
      <trkpt lat="43.21008" lon="17.78934">
        <ele>69.005578</ele>
        <time>2022-06-12T10:06:44.096Z</time>
      </trkpt>
      <trkpt lat="43.21017" lon="17.78939">
        <ele>69.182524</ele>
        <time>2022-06-12T10:06:47.094Z</time>
      </trkpt>
      <trkpt lat="43.21026" lon="17.78944">
        <ele>69.374797</ele>
        <time>2022-06-12T10:06:50.101Z</time>
      </trkpt>
      <trkpt lat="43.21035" lon="17.78948">
        <ele>69.560227</ele>
        <time>2022-06-12T10:06:53.096Z</time>
      </trkpt>
      <trkpt lat="43.21044" lon="17.78955">
        <ele>69.755623</ele>
        <time>2022-06-12T10:06:56.119Z</time>
      </trkpt>
      <trkpt lat="43.21053" lon="17.7896">
        <ele>69.935225</ele>
        <time>2022-06-12T10:06:59.127Z</time>
      </trkpt>
      <trkpt lat="43.21061" lon="17.78966">
        <ele>70.116767</ele>
        <time>2022-06-12T10:07:02.099Z</time>
      </trkpt>
      <trkpt lat="43.2107" lon="17.78972">
        <ele>70.301966</ele>
        <time>2022-06-12T10:07:05.149Z</time>
      </trkpt>
      <trkpt lat="43.21078" lon="17.78979">
        <ele>70.488732</ele>
        <time>2022-06-12T10:07:08.100Z</time>
      </trkpt>
      <trkpt lat="43.21086" lon="17.78986">
        <ele>70.665801</ele>
        <time>2022-06-12T10:07:11.105Z</time>
      </trkpt>
      <trkpt lat="43.21095" lon="17.78995">
        <ele>70.887757</ele>
        <time>2022-06-12T10:07:15.109Z</time>
      </trkpt>
      <trkpt lat="43.21102" lon="17.79002">
        <ele>71.073983</ele>
        <time>2022-06-12T10:07:18.096Z</time>
      </trkpt>
      <trkpt lat="43.2111" lon="17.7901">
        <ele>71.268291</ele>
        <time>2022-06-12T10:07:21.096Z</time>
      </trkpt>
      <trkpt lat="43.21118" lon="17.79019">
        <ele>71.47454</ele>
        <time>2022-06-12T10:07:24.091Z</time>
      </trkpt>
      <trkpt lat="43.21126" lon="17.79028">
        <ele>71.674891</ele>
        <time>2022-06-12T10:07:27.098Z</time>
      </trkpt>
      <trkpt lat="43.21135" lon="17.79039">
        <ele>71.913678</ele>
        <time>2022-06-12T10:07:31.108Z</time>
      </trkpt>
      <trkpt lat="43.21142" lon="17.79048">
        <ele>72.110503</ele>
        <time>2022-06-12T10:07:34.097Z</time>
      </trkpt>
      <trkpt lat="43.21149" lon="17.79058">
        <ele>72.311748</ele>
        <time>2022-06-12T10:07:37.107Z</time>
      </trkpt>
      <trkpt lat="43.21155" lon="17.79067">
        <ele>72.497301</ele>
        <time>2022-06-12T10:07:41.098Z</time>
      </trkpt>
      <trkpt lat="43.21162" lon="17.79079">
        <ele>72.717391</ele>
        <time>2022-06-12T10:07:44.105Z</time>
      </trkpt>
      <trkpt lat="43.21169" lon="17.79089">
        <ele>72.911036</ele>
        <time>2022-06-12T10:07:47.114Z</time>
      </trkpt>
      <trkpt lat="43.21176" lon="17.79101">
        <ele>73.143592</ele>
        <time>2022-06-12T10:07:51.104Z</time>
      </trkpt>
      <trkpt lat="43.21183" lon="17.79114">
        <ele>73.375125</ele>
        <time>2022-06-12T10:07:55.120Z</time>
      </trkpt>
      <trkpt lat="43.21188" lon="17.79127">
        <ele>73.596047</ele>
        <time>2022-06-12T10:07:59.095Z</time>
      </trkpt>
      <trkpt lat="43.21193" lon="17.79138">
        <ele>73.794625</ele>
        <time>2022-06-12T10:08:02.101Z</time>
      </trkpt>
      <trkpt lat="43.21199" lon="17.7915">
        <ele>73.999682</ele>
        <time>2022-06-12T10:08:05.108Z</time>
      </trkpt>
      <trkpt lat="43.21204" lon="17.79162">
        <ele>74.191624</ele>
        <time>2022-06-12T10:08:08.095Z</time>
      </trkpt>
      <trkpt lat="43.21208" lon="17.79172">
        <ele>74.374267</ele>
        <time>2022-06-12T10:08:11.104Z</time>
      </trkpt>
      <trkpt lat="43.21214" lon="17.79183">
        <ele>74.500992</ele>
        <time>2022-06-12T10:08:14.104Z</time>
      </trkpt>
      <trkpt lat="43.21219" lon="17.79195">
        <ele>74.623349</ele>
        <time>2022-06-12T10:08:17.107Z</time>
      </trkpt>
      <trkpt lat="43.21224" lon="17.79207">
        <ele>74.754301</ele>
        <time>2022-06-12T10:08:20.105Z</time>
      </trkpt>
      <trkpt lat="43.2123" lon="17.79219">
        <ele>74.892652</ele>
        <time>2022-06-12T10:08:23.112Z</time>
      </trkpt>
      <trkpt lat="43.21235" lon="17.79231">
        <ele>75.02428</ele>
        <time>2022-06-12T10:08:26.150Z</time>
      </trkpt>
      <trkpt lat="43.2124" lon="17.79243">
        <ele>75.155904</ele>
        <time>2022-06-12T10:08:29.108Z</time>
      </trkpt>
      <trkpt lat="43.21245" lon="17.79255">
        <ele>75.28553</ele>
        <time>2022-06-12T10:08:32.107Z</time>
      </trkpt>
      <trkpt lat="43.21251" lon="17.79266">
        <ele>75.415292</ele>
        <time>2022-06-12T10:08:35.116Z</time>
      </trkpt>
      <trkpt lat="43.21257" lon="17.79279">
        <ele>75.557617</ele>
        <time>2022-06-12T10:08:38.104Z</time>
      </trkpt>
      <trkpt lat="43.21263" lon="17.79292">
        <ele>75.693795</ele>
        <time>2022-06-12T10:08:41.103Z</time>
      </trkpt>
      <trkpt lat="43.21268" lon="17.79303">
        <ele>75.823422</ele>
        <time>2022-06-12T10:08:44.095Z</time>
      </trkpt>
      <trkpt lat="43.21273" lon="17.79315">
        <ele>75.951587</ele>
        <time>2022-06-12T10:08:47.095Z</time>
      </trkpt>
      <trkpt lat="43.21279" lon="17.79326">
        <ele>76.081349</ele>
        <time>2022-06-12T10:08:50.097Z</time>
      </trkpt>
      <trkpt lat="43.21286" lon="17.79338">
        <ele>76.218338</ele>
        <time>2022-06-12T10:08:53.108Z</time>
      </trkpt>
      <trkpt lat="43.21294" lon="17.79347">
        <ele>76.36336</ele>
        <time>2022-06-12T10:08:56.100Z</time>
      </trkpt>
      <trkpt lat="43.21305" lon="17.79355">
        <ele>76.515848</ele>
        <time>2022-06-12T10:08:59.134Z</time>
      </trkpt>
      <trkpt lat="43.21315" lon="17.79363">
        <ele>76.666354</ele>
        <time>2022-06-12T10:09:02.109Z</time>
      </trkpt>
      <trkpt lat="43.21326" lon="17.7937">
        <ele>76.404649</ele>
        <time>2022-06-12T10:09:05.136Z</time>
      </trkpt>
      <trkpt lat="43.21337" lon="17.79378">
        <ele>76.046976</ele>
        <time>2022-06-12T10:09:08.099Z</time>
      </trkpt>
      <trkpt lat="43.21347" lon="17.79387">
        <ele>75.709107</ele>
        <time>2022-06-12T10:09:11.095Z</time>
      </trkpt>
      <trkpt lat="43.21357" lon="17.79396">
        <ele>75.379213</ele>
        <time>2022-06-12T10:09:14.110Z</time>
      </trkpt>
      <trkpt lat="43.21365" lon="17.79406">
        <ele>75.078894</ele>
        <time>2022-06-12T10:09:17.101Z</time>
      </trkpt>
      <trkpt lat="43.21372" lon="17.79415">
        <ele>74.814251</ele>
        <time>2022-06-12T10:09:20.114Z</time>
      </trkpt>
      <trkpt lat="43.21379" lon="17.79424">
        <ele>74.542783</ele>
        <time>2022-06-12T10:09:23.093Z</time>
      </trkpt>
      <trkpt lat="43.21386" lon="17.79433">
        <ele>74.264485</ele>
        <time>2022-06-12T10:09:26.111Z</time>
      </trkpt>
      <trkpt lat="43.21394" lon="17.79444">
        <ele>73.972249</ele>
        <time>2022-06-12T10:09:29.092Z</time>
      </trkpt>
      <trkpt lat="43.21401" lon="17.79454">
        <ele>73.676056</ele>
        <time>2022-06-12T10:09:32.096Z</time>
      </trkpt>
      <trkpt lat="43.21409" lon="17.79465">
        <ele>73.361941</ele>
        <time>2022-06-12T10:09:35.111Z</time>
      </trkpt>
      <trkpt lat="43.21417" lon="17.79477">
        <ele>73.0347</ele>
        <time>2022-06-12T10:09:38.135Z</time>
      </trkpt>
      <trkpt lat="43.21425" lon="17.79489">
        <ele>72.709276</ele>
        <time>2022-06-12T10:09:41.099Z</time>
      </trkpt>
      <trkpt lat="43.21429" lon="17.795">
        <ele>72.455278</ele>
        <time>2022-06-12T10:09:44.130Z</time>
      </trkpt>
      <trkpt lat="43.21432" lon="17.79514">
        <ele>72.165148</ele>
        <time>2022-06-12T10:09:46.103Z</time>
      </trkpt>
      <trkpt lat="43.21439" lon="17.79526">
        <ele>71.846549</ele>
        <time>2022-06-12T10:09:48.104Z</time>
      </trkpt>
      <trkpt lat="43.21449" lon="17.79543">
        <ele>71.58161</ele>
        <time>2022-06-12T10:09:50.113Z</time>
      </trkpt>
      <trkpt lat="43.21459" lon="17.79553">
        <ele>71.457569</ele>
        <time>2022-06-12T10:09:52.105Z</time>
      </trkpt>
      <trkpt lat="43.21466" lon="17.79565">
        <ele>71.34612</ele>
        <time>2022-06-12T10:09:56.100Z</time>
      </trkpt>
      <trkpt lat="43.21469" lon="17.79577">
        <ele>71.254736</ele>
        <time>2022-06-12T10:09:59.099Z</time>
      </trkpt>
      <trkpt lat="43.21472" lon="17.79589">
        <ele>71.160831</ele>
        <time>2022-06-12T10:10:04.108Z</time>
      </trkpt>
      <trkpt lat="43.21476" lon="17.79603">
        <ele>71.056467</ele>
        <time>2022-06-12T10:10:09.107Z</time>
      </trkpt>
      <trkpt lat="43.2148" lon="17.79614">
        <ele>70.966761</ele>
        <time>2022-06-12T10:10:13.107Z</time>
      </trkpt>
      <trkpt lat="43.21483" lon="17.79627">
        <ele>70.868211</ele>
        <time>2022-06-12T10:10:17.091Z</time>
      </trkpt>
      <trkpt lat="43.21487" lon="17.7964">
        <ele>70.759944</ele>
        <time>2022-06-12T10:10:22.100Z</time>
      </trkpt>
      <trkpt lat="43.21491" lon="17.79653">
        <ele>70.665492</ele>
        <time>2022-06-12T10:10:27.092Z</time>
      </trkpt>
      <trkpt lat="43.21493" lon="17.79665">
        <ele>70.572949</ele>
        <time>2022-06-12T10:10:33.100Z</time>
      </trkpt>
      <trkpt lat="43.21496" lon="17.79679">
        <ele>70.466433</ele>
        <time>2022-06-12T10:10:38.091Z</time>
      </trkpt>
      <trkpt lat="43.21498" lon="17.79691">
        <ele>70.373562</ele>
        <time>2022-06-12T10:10:42.129Z</time>
      </trkpt>
      <trkpt lat="43.215" lon="17.79705">
        <ele>70.275006</ele>
        <time>2022-06-12T10:10:46.092Z</time>
      </trkpt>
      <trkpt lat="43.21501" lon="17.79719">
        <ele>70.170144</ele>
        <time>2022-06-12T10:10:50.106Z</time>
      </trkpt>
      <trkpt lat="43.21504" lon="17.79732">
        <ele>70.075162</ele>
        <time>2022-06-12T10:10:55.128Z</time>
      </trkpt>
      <trkpt lat="43.21502" lon="17.79747">
        <ele>69.965539</ele>
        <time>2022-06-12T10:10:59.109Z</time>
      </trkpt>
      <trkpt lat="43.21503" lon="17.79762">
        <ele>70.006349</ele>
        <time>2022-06-12T10:11:04.099Z</time>
      </trkpt>
      <trkpt lat="43.21504" lon="17.79774">
        <ele>70.362466</ele>
        <time>2022-06-12T10:11:08.088Z</time>
      </trkpt>
      <trkpt lat="43.21506" lon="17.79788">
        <ele>70.745943</ele>
        <time>2022-06-12T10:11:12.133Z</time>
      </trkpt>
      <trkpt lat="43.21511" lon="17.798">
        <ele>71.120297</ele>
        <time>2022-06-12T10:11:17.089Z</time>
      </trkpt>
      <trkpt lat="43.21512" lon="17.79813">
        <ele>71.480823</ele>
        <time>2022-06-12T10:11:21.093Z</time>
      </trkpt>
      <trkpt lat="43.21515" lon="17.79824">
        <ele>71.825716</ele>
        <time>2022-06-12T10:11:25.104Z</time>
      </trkpt>
      <trkpt lat="43.21517" lon="17.79837">
        <ele>72.174368</ele>
        <time>2022-06-12T10:11:29.104Z</time>
      </trkpt>
      <trkpt lat="43.2152" lon="17.79852">
        <ele>72.624217</ele>
        <time>2022-06-12T10:11:33.103Z</time>
      </trkpt>
      <trkpt lat="43.21525" lon="17.79864">
        <ele>73.017497</ele>
        <time>2022-06-12T10:11:37.089Z</time>
      </trkpt>
      <trkpt lat="43.21525" lon="17.79877">
        <ele>73.37322</ele>
        <time>2022-06-12T10:11:42.093Z</time>
      </trkpt>
      <trkpt lat="43.21527" lon="17.79892">
        <ele>73.802472</ele>
        <time>2022-06-12T10:11:47.099Z</time>
      </trkpt>
      <trkpt lat="43.2153" lon="17.79904">
        <ele>74.149769</ele>
        <time>2022-06-12T10:11:50.104Z</time>
      </trkpt>
      <trkpt lat="43.21532" lon="17.79919">
        <ele>74.557918</ele>
        <time>2022-06-12T10:11:54.099Z</time>
      </trkpt>
      <trkpt lat="43.21533" lon="17.79934">
        <ele>74.985574</ele>
        <time>2022-06-12T10:11:58.099Z</time>
      </trkpt>
      <trkpt lat="43.21535" lon="17.79948">
        <ele>75.392965</ele>
        <time>2022-06-12T10:12:02.097Z</time>
      </trkpt>
      <trkpt lat="43.21537" lon="17.79961">
        <ele>75.744429</ele>
        <time>2022-06-12T10:12:06.089Z</time>
      </trkpt>
      <trkpt lat="43.21537" lon="17.79977">
        <ele>76.187109</ele>
        <time>2022-06-12T10:12:11.125Z</time>
      </trkpt>
      <trkpt lat="43.21538" lon="17.7999">
        <ele>76.54487</ele>
        <time>2022-06-12T10:12:15.108Z</time>
      </trkpt>
      <trkpt lat="43.21538" lon="17.80004">
        <ele>76.943742</ele>
        <time>2022-06-12T10:12:21.092Z</time>
      </trkpt>
      <trkpt lat="43.21538" lon="17.80021">
        <ele>77.38625</ele>
        <time>2022-06-12T10:12:25.143Z</time>
      </trkpt>
      <trkpt lat="43.21537" lon="17.80034">
        <ele>77.732379</ele>
        <time>2022-06-12T10:12:29.093Z</time>
      </trkpt>
      <trkpt lat="43.21541" lon="17.80047">
        <ele>78.113611</ele>
        <time>2022-06-12T10:12:33.096Z</time>
      </trkpt>
      <trkpt lat="43.21543" lon="17.8006">
        <ele>78.466688</ele>
        <time>2022-06-12T10:12:38.104Z</time>
      </trkpt>
      <trkpt lat="43.21545" lon="17.80074">
        <ele>78.854739</ele>
        <time>2022-06-12T10:12:42.145Z</time>
      </trkpt>
      <trkpt lat="43.21547" lon="17.80087">
        <ele>79.210074</ele>
        <time>2022-06-12T10:12:45.116Z</time>
      </trkpt>
      <trkpt lat="43.21549" lon="17.80104">
        <ele>79.661174</ele>
        <time>2022-06-12T10:12:49.105Z</time>
      </trkpt>
      <trkpt lat="43.21551" lon="17.80117">
        <ele>80.003308</ele>
        <time>2022-06-12T10:12:52.098Z</time>
      </trkpt>
      <trkpt lat="43.2155" lon="17.80133">
        <ele>80.425872</ele>
        <time>2022-06-12T10:12:56.101Z</time>
      </trkpt>
      <trkpt lat="43.21551" lon="17.80148">
        <ele>80.840667</ele>
        <time>2022-06-12T10:13:00.112Z</time>
      </trkpt>
      <trkpt lat="43.21551" lon="17.80163">
        <ele>81.217356</ele>
        <time>2022-06-12T10:13:04.090Z</time>
      </trkpt>
      <trkpt lat="43.2155" lon="17.80176">
        <ele>81.571276</ele>
        <time>2022-06-12T10:13:08.099Z</time>
      </trkpt>
      <trkpt lat="43.21551" lon="17.80192">
        <ele>81.985404</ele>
        <time>2022-06-12T10:13:13.096Z</time>
      </trkpt>
      <trkpt lat="43.21549" lon="17.80208">
        <ele>82.41383</ele>
        <time>2022-06-12T10:13:17.134Z</time>
      </trkpt>
      <trkpt lat="43.21548" lon="17.80222">
        <ele>82.7922</ele>
        <time>2022-06-12T10:13:21.110Z</time>
      </trkpt>
      <trkpt lat="43.21545" lon="17.80237">
        <ele>83.207614</ele>
        <time>2022-06-12T10:13:25.100Z</time>
      </trkpt>
      <trkpt lat="43.21543" lon="17.8025">
        <ele>83.178297</ele>
        <time>2022-06-12T10:13:29.102Z</time>
      </trkpt>
      <trkpt lat="43.21544" lon="17.80264">
        <ele>83.031777</ele>
        <time>2022-06-12T10:13:34.111Z</time>
      </trkpt>
      <trkpt lat="43.21545" lon="17.80279">
        <ele>82.886454</ele>
        <time>2022-06-12T10:13:40.097Z</time>
      </trkpt>
      <trkpt lat="43.21544" lon="17.80294">
        <ele>82.735139</ele>
        <time>2022-06-12T10:13:45.105Z</time>
      </trkpt>
      <trkpt lat="43.21543" lon="17.80308">
        <ele>82.583189</ele>
        <time>2022-06-12T10:13:50.094Z</time>
      </trkpt>
      <trkpt lat="43.21543" lon="17.80322">
        <ele>82.441925</ele>
        <time>2022-06-12T10:13:56.091Z</time>
      </trkpt>
      <trkpt lat="43.21544" lon="17.80336">
        <ele>82.302635</ele>
        <time>2022-06-12T10:14:01.122Z</time>
      </trkpt>
      <trkpt lat="43.21544" lon="17.80348">
        <ele>82.176644</ele>
        <time>2022-06-12T10:14:05.172Z</time>
      </trkpt>
      <trkpt lat="43.21547" lon="17.80362">
        <ele>82.030119</ele>
        <time>2022-06-12T10:14:09.107Z</time>
      </trkpt>
      <trkpt lat="43.21552" lon="17.80375">
        <ele>81.889752</ele>
        <time>2022-06-12T10:14:13.104Z</time>
      </trkpt>
      <trkpt lat="43.21552" lon="17.80387">
        <ele>81.759761</ele>
        <time>2022-06-12T10:14:17.111Z</time>
      </trkpt>
      <trkpt lat="43.21554" lon="17.80402">
        <ele>81.604102</ele>
        <time>2022-06-12T10:14:21.099Z</time>
      </trkpt>
      <trkpt lat="43.21556" lon="17.80416">
        <ele>81.467731</ele>
        <time>2022-06-12T10:14:25.116Z</time>
      </trkpt>
      <trkpt lat="43.21557" lon="17.80428">
        <ele>81.342523</ele>
        <time>2022-06-12T10:14:29.123Z</time>
      </trkpt>
      <trkpt lat="43.21558" lon="17.80442">
        <ele>81.197993</ele>
        <time>2022-06-12T10:14:33.096Z</time>
      </trkpt>
      <trkpt lat="43.21559" lon="17.80455">
        <ele>81.065932</ele>
        <time>2022-06-12T10:14:37.099Z</time>
      </trkpt>
      <trkpt lat="43.2156" lon="17.80469">
        <ele>80.921402</ele>
        <time>2022-06-12T10:14:41.132Z</time>
      </trkpt>
      <trkpt lat="43.21559" lon="17.80482">
        <ele>80.789028</ele>
        <time>2022-06-12T10:14:45.108Z</time>
      </trkpt>
      <trkpt lat="43.2156" lon="17.80494">
        <ele>80.727906</ele>
        <time>2022-06-12T10:14:49.103Z</time>
      </trkpt>
      <trkpt lat="43.2156" lon="17.80507">
        <ele>80.671815</ele>
        <time>2022-06-12T10:14:53.107Z</time>
      </trkpt>
      <trkpt lat="43.21561" lon="17.8052">
        <ele>80.615692</ele>
        <time>2022-06-12T10:14:57.109Z</time>
      </trkpt>
      <trkpt lat="43.21562" lon="17.80533">
        <ele>80.555931</ele>
        <time>2022-06-12T10:15:01.098Z</time>
      </trkpt>
      <trkpt lat="43.21566" lon="17.80545">
        <ele>80.496787</ele>
        <time>2022-06-12T10:15:06.109Z</time>
      </trkpt>
      <trkpt lat="43.21568" lon="17.80561">
        <ele>80.424308</ele>
        <time>2022-06-12T10:15:10.108Z</time>
      </trkpt>
      <trkpt lat="43.21572" lon="17.80573">
        <ele>80.366633</ele>
        <time>2022-06-12T10:15:14.103Z</time>
      </trkpt>
      <trkpt lat="43.21573" lon="17.80585">
        <ele>80.311657</ele>
        <time>2022-06-12T10:15:18.100Z</time>
      </trkpt>
      <trkpt lat="43.21575" lon="17.80599">
        <ele>80.24951</ele>
        <time>2022-06-12T10:15:22.112Z</time>
      </trkpt>
      <trkpt lat="43.21577" lon="17.80611">
        <ele>80.192907</ele>
        <time>2022-06-12T10:15:26.104Z</time>
      </trkpt>
      <trkpt lat="43.21578" lon="17.80624">
        <ele>80.134718</ele>
        <time>2022-06-12T10:15:30.101Z</time>
      </trkpt>
      <trkpt lat="43.2158" lon="17.80639">
        <ele>80.068789</ele>
        <time>2022-06-12T10:15:36.106Z</time>
      </trkpt>
      <trkpt lat="43.21582" lon="17.80652">
        <ele>80.009997</ele>
        <time>2022-06-12T10:15:39.099Z</time>
      </trkpt>
      <trkpt lat="43.21583" lon="17.80664">
        <ele>79.955021</ele>
        <time>2022-06-12T10:15:42.088Z</time>
      </trkpt>
      <trkpt lat="43.21584" lon="17.80679">
        <ele>79.888415</ele>
        <time>2022-06-12T10:15:46.103Z</time>
      </trkpt>
      <trkpt lat="43.21584" lon="17.80693">
        <ele>79.826096</ele>
        <time>2022-06-12T10:15:50.182Z</time>
      </trkpt>
      <trkpt lat="43.21585" lon="17.80707">
        <ele>79.762415</ele>
        <time>2022-06-12T10:15:54.097Z</time>
      </trkpt>
      <trkpt lat="43.21586" lon="17.8072">
        <ele>79.703275</ele>
        <time>2022-06-12T10:15:58.089Z</time>
      </trkpt>
      <trkpt lat="43.21587" lon="17.80735">
        <ele>79.666517</ele>
        <time>2022-06-12T10:16:02.115Z</time>
      </trkpt>
      <trkpt lat="43.21587" lon="17.80751">
        <ele>79.644816</ele>
        <time>2022-06-12T10:16:06.092Z</time>
      </trkpt>
      <trkpt lat="43.21588" lon="17.80765">
        <ele>79.624086</ele>
        <time>2022-06-12T10:16:10.104Z</time>
      </trkpt>
      <trkpt lat="43.21588" lon="17.80779">
        <ele>79.605741</ele>
        <time>2022-06-12T10:16:14.103Z</time>
      </trkpt>
      <trkpt lat="43.21587" lon="17.80791">
        <ele>79.588445</ele>
        <time>2022-06-12T10:16:18.103Z</time>
      </trkpt>
      <trkpt lat="43.21586" lon="17.80806">
        <ele>79.566968</ele>
        <time>2022-06-12T10:16:23.107Z</time>
      </trkpt>
      <trkpt lat="43.21585" lon="17.8082">
        <ele>79.546868</ele>
        <time>2022-06-12T10:16:29.100Z</time>
      </trkpt>
      <trkpt lat="43.21586" lon="17.80835">
        <ele>79.526572</ele>
        <time>2022-06-12T10:16:34.097Z</time>
      </trkpt>
      <trkpt lat="43.21587" lon="17.80848">
        <ele>79.50849</ele>
        <time>2022-06-12T10:16:39.092Z</time>
      </trkpt>
      <trkpt lat="43.21591" lon="17.80863">
        <ele>79.486207</ele>
        <time>2022-06-12T10:16:45.107Z</time>
      </trkpt>
      <trkpt lat="43.21592" lon="17.80877">
        <ele>79.465854</ele>
        <time>2022-06-12T10:16:50.103Z</time>
      </trkpt>
      <trkpt lat="43.21594" lon="17.80891">
        <ele>79.446747</ele>
        <time>2022-06-12T10:16:54.107Z</time>
      </trkpt>
      <trkpt lat="43.21597" lon="17.80902">
        <ele>79.428922</ele>
        <time>2022-06-12T10:16:58.110Z</time>
      </trkpt>
      <trkpt lat="43.21601" lon="17.80917">
        <ele>79.407357</ele>
        <time>2022-06-12T10:17:03.095Z</time>
      </trkpt>
      <trkpt lat="43.21605" lon="17.80928">
        <ele>79.390049</ele>
        <time>2022-06-12T10:17:07.091Z</time>
      </trkpt>
      <trkpt lat="43.21607" lon="17.80943">
        <ele>79.368875</ele>
        <time>2022-06-12T10:17:12.105Z</time>
      </trkpt>
      <trkpt lat="43.2161" lon="17.80955">
        <ele>79.351438</ele>
        <time>2022-06-12T10:17:16.109Z</time>
      </trkpt>
      <trkpt lat="43.21611" lon="17.80968">
        <ele>79.328714</ele>
        <time>2022-06-12T10:17:20.113Z</time>
      </trkpt>
      <trkpt lat="43.21614" lon="17.8098">
        <ele>79.268176</ele>
        <time>2022-06-12T10:17:24.112Z</time>
      </trkpt>
      <trkpt lat="43.21619" lon="17.80992">
        <ele>79.202611</ele>
        <time>2022-06-12T10:17:29.101Z</time>
      </trkpt>
      <trkpt lat="43.2162" lon="17.81008">
        <ele>79.124993</ele>
        <time>2022-06-12T10:17:36.126Z</time>
      </trkpt>
      <trkpt lat="43.21625" lon="17.81022">
        <ele>79.055379</ele>
        <time>2022-06-12T10:17:39.097Z</time>
      </trkpt>
      <trkpt lat="43.21628" lon="17.81037">
        <ele>78.979803</ele>
        <time>2022-06-12T10:17:45.141Z</time>
      </trkpt>
      <trkpt lat="43.21633" lon="17.81051">
        <ele>78.905933</ele>
        <time>2022-06-12T10:17:49.099Z</time>
      </trkpt>
      <trkpt lat="43.21633" lon="17.81064">
        <ele>78.843855</ele>
        <time>2022-06-12T10:17:53.114Z</time>
      </trkpt>
      <trkpt lat="43.21639" lon="17.81075">
        <ele>78.780623</ele>
        <time>2022-06-12T10:17:57.096Z</time>
      </trkpt>
      <trkpt lat="43.21639" lon="17.81088">
        <ele>78.719398</ele>
        <time>2022-06-12T10:18:01.107Z</time>
      </trkpt>
      <trkpt lat="43.2164" lon="17.81102">
        <ele>78.649936</ele>
        <time>2022-06-12T10:18:05.101Z</time>
      </trkpt>
      <trkpt lat="43.21643" lon="17.81117">
        <ele>78.578591</ele>
        <time>2022-06-12T10:18:10.099Z</time>
      </trkpt>
      <trkpt lat="43.21643" lon="17.8113">
        <ele>78.516069</ele>
        <time>2022-06-12T10:18:14.102Z</time>
      </trkpt>
      <trkpt lat="43.21645" lon="17.81142">
        <ele>78.455916</ele>
        <time>2022-06-12T10:18:17.092Z</time>
      </trkpt>
      <trkpt lat="43.21645" lon="17.81159">
        <ele>78.376792</ele>
        <time>2022-06-12T10:18:22.106Z</time>
      </trkpt>
      <trkpt lat="43.21645" lon="17.81172">
        <ele>78.313294</ele>
        <time>2022-06-12T10:18:26.107Z</time>
      </trkpt>
      <trkpt lat="43.21649" lon="17.81187">
        <ele>78.240079</ele>
        <time>2022-06-12T10:18:31.100Z</time>
      </trkpt>
      <trkpt lat="43.2165" lon="17.812">
        <ele>78.178286</ele>
        <time>2022-06-12T10:18:35.128Z</time>
      </trkpt>
      <trkpt lat="43.21652" lon="17.81212">
        <ele>78.18017</ele>
        <time>2022-06-12T10:18:38.096Z</time>
      </trkpt>
      <trkpt lat="43.21653" lon="17.81226">
        <ele>78.200845</ele>
        <time>2022-06-12T10:18:42.105Z</time>
      </trkpt>
      <trkpt lat="43.21654" lon="17.81239">
        <ele>78.220233</ele>
        <time>2022-06-12T10:18:46.103Z</time>
      </trkpt>
      <trkpt lat="43.21657" lon="17.81254">
        <ele>78.243073</ele>
        <time>2022-06-12T10:18:51.110Z</time>
      </trkpt>
      <trkpt lat="43.21658" lon="17.81268">
        <ele>78.263602</ele>
        <time>2022-06-12T10:18:55.108Z</time>
      </trkpt>
      <trkpt lat="43.2166" lon="17.81283">
        <ele>78.285439</ele>
        <time>2022-06-12T10:18:59.093Z</time>
      </trkpt>
      <trkpt lat="43.21663" lon="17.81296">
        <ele>78.305199</ele>
        <time>2022-06-12T10:19:03.101Z</time>
      </trkpt>
      <trkpt lat="43.21664" lon="17.81309">
        <ele>78.324769</ele>
        <time>2022-06-12T10:19:07.095Z</time>
      </trkpt>
      <trkpt lat="43.21665" lon="17.81323">
        <ele>78.345649</ele>
        <time>2022-06-12T10:19:11.094Z</time>
      </trkpt>
      <trkpt lat="43.21666" lon="17.81338">
        <ele>78.367196</ele>
        <time>2022-06-12T10:19:15.106Z</time>
      </trkpt>
      <trkpt lat="43.21668" lon="17.81351">
        <ele>78.38705</ele>
        <time>2022-06-12T10:19:19.097Z</time>
      </trkpt>
      <trkpt lat="43.21669" lon="17.81365">
        <ele>78.406998</ele>
        <time>2022-06-12T10:19:23.092Z</time>
      </trkpt>
      <trkpt lat="43.21672" lon="17.81377">
        <ele>78.426416</ele>
        <time>2022-06-12T10:19:27.093Z</time>
      </trkpt>
      <trkpt lat="43.21674" lon="17.81393">
        <ele>78.450196</ele>
        <time>2022-06-12T10:19:32.093Z</time>
      </trkpt>
      <trkpt lat="43.21677" lon="17.81405">
        <ele>78.468454</ele>
        <time>2022-06-12T10:19:36.136Z</time>
      </trkpt>
      <trkpt lat="43.21678" lon="17.81419">
        <ele>78.489541</ele>
        <time>2022-06-12T10:19:41.094Z</time>
      </trkpt>
      <trkpt lat="43.21678" lon="17.81434">
        <ele>78.511518</ele>
        <time>2022-06-12T10:19:46.109Z</time>
      </trkpt>
      <trkpt lat="43.21679" lon="17.81447">
        <ele>78.552019</ele>
        <time>2022-06-12T10:19:50.103Z</time>
      </trkpt>
      <trkpt lat="43.21681" lon="17.81462">
        <ele>78.779762</ele>
        <time>2022-06-12T10:19:54.102Z</time>
      </trkpt>
      <trkpt lat="43.21682" lon="17.81477">
        <ele>79.002451</ele>
        <time>2022-06-12T10:19:58.095Z</time>
      </trkpt>
      <trkpt lat="43.21684" lon="17.81491">
        <ele>79.214616</ele>
        <time>2022-06-12T10:20:02.092Z</time>
      </trkpt>
      <trkpt lat="43.21683" lon="17.81504">
        <ele>79.421128</ele>
        <time>2022-06-12T10:20:07.099Z</time>
      </trkpt>
      <trkpt lat="43.21686" lon="17.81518">
        <ele>79.624189</ele>
        <time>2022-06-12T10:20:11.128Z</time>
      </trkpt>
      <trkpt lat="43.21688" lon="17.8153">
        <ele>79.810368</ele>
        <time>2022-06-12T10:20:15.117Z</time>
      </trkpt>
      <trkpt lat="43.2169" lon="17.81542">
        <ele>80.004767</ele>
        <time>2022-06-12T10:20:19.095Z</time>
      </trkpt>
      <trkpt lat="43.21691" lon="17.81556">
        <ele>80.204138</ele>
        <time>2022-06-12T10:20:23.125Z</time>
      </trkpt>
      <trkpt lat="43.21692" lon="17.81569">
        <ele>80.409473</ele>
        <time>2022-06-12T10:20:27.141Z</time>
      </trkpt>
      <trkpt lat="43.21693" lon="17.81584">
        <ele>80.626505</ele>
        <time>2022-06-12T10:20:31.128Z</time>
      </trkpt>
      <trkpt lat="43.21694" lon="17.81598">
        <ele>80.841808</ele>
        <time>2022-06-12T10:20:35.111Z</time>
      </trkpt>
      <trkpt lat="43.21695" lon="17.81614">
        <ele>81.086236</ele>
        <time>2022-06-12T10:20:41.117Z</time>
      </trkpt>
      <trkpt lat="43.21699" lon="17.81627">
        <ele>81.296443</ele>
        <time>2022-06-12T10:20:45.144Z</time>
      </trkpt>
      <trkpt lat="43.21699" lon="17.81642">
        <ele>81.51941</ele>
        <time>2022-06-12T10:20:51.130Z</time>
      </trkpt>
      <trkpt lat="43.21702" lon="17.81654">
        <ele>81.709255</ele>
        <time>2022-06-12T10:20:54.089Z</time>
      </trkpt>
      <trkpt lat="43.21702" lon="17.81669">
        <ele>81.930726</ele>
        <time>2022-06-12T10:20:59.101Z</time>
      </trkpt>
      <trkpt lat="43.21703" lon="17.81682">
        <ele>82.123775</ele>
        <time>2022-06-12T10:21:04.101Z</time>
      </trkpt>
      <trkpt lat="43.21706" lon="17.81696">
        <ele>81.989468</ele>
        <time>2022-06-12T10:21:12.102Z</time>
      </trkpt>
      <trkpt lat="43.21706" lon="17.81713">
        <ele>81.554247</ele>
        <time>2022-06-12T10:21:17.088Z</time>
      </trkpt>
      <trkpt lat="43.21708" lon="17.81726">
        <ele>81.209282</ele>
        <time>2022-06-12T10:21:21.093Z</time>
      </trkpt>
      <trkpt lat="43.21713" lon="17.81756">
        <ele>80.383538</ele>
        <time>2022-06-12T10:21:28.111Z</time>
      </trkpt>
      <trkpt lat="43.21716" lon="17.81772">
        <ele>79.942871</ele>
        <time>2022-06-12T10:21:30.139Z</time>
      </trkpt>
      <trkpt lat="43.21719" lon="17.81784">
        <ele>79.612837</ele>
        <time>2022-06-12T10:21:34.104Z</time>
      </trkpt>
      <trkpt lat="43.21721" lon="17.81797">
        <ele>79.2798</ele>
        <time>2022-06-12T10:21:38.100Z</time>
      </trkpt>
      <trkpt lat="43.21723" lon="17.81809">
        <ele>78.950144</ele>
        <time>2022-06-12T10:21:42.104Z</time>
      </trkpt>
      <trkpt lat="43.21726" lon="17.81821">
        <ele>78.608326</ele>
        <time>2022-06-12T10:21:46.108Z</time>
      </trkpt>
      <trkpt lat="43.21728" lon="17.81834">
        <ele>78.258062</ele>
        <time>2022-06-12T10:21:50.102Z</time>
      </trkpt>
      <trkpt lat="43.21731" lon="17.81847">
        <ele>77.903225</ele>
        <time>2022-06-12T10:21:54.107Z</time>
      </trkpt>
      <trkpt lat="43.21734" lon="17.81859">
        <ele>77.564929</ele>
        <time>2022-06-12T10:21:59.093Z</time>
      </trkpt>
      <trkpt lat="43.21736" lon="17.81872">
        <ele>77.211393</ele>
        <time>2022-06-12T10:22:03.090Z</time>
      </trkpt>
      <trkpt lat="43.21739" lon="17.81886">
        <ele>76.834278</ele>
        <time>2022-06-12T10:22:07.092Z</time>
      </trkpt>
      <trkpt lat="43.21743" lon="17.81899">
        <ele>76.468097</ele>
        <time>2022-06-12T10:22:11.101Z</time>
      </trkpt>
      <trkpt lat="43.21747" lon="17.81911">
        <ele>76.110167</ele>
        <time>2022-06-12T10:22:15.109Z</time>
      </trkpt>
      <trkpt lat="43.21749" lon="17.81924">
        <ele>75.766844</ele>
        <time>2022-06-12T10:22:20.136Z</time>
      </trkpt>
      <trkpt lat="43.21753" lon="17.81938">
        <ele>75.793366</ele>
        <time>2022-06-12T10:22:24.097Z</time>
      </trkpt>
      <trkpt lat="43.21758" lon="17.81949">
        <ele>75.867352</ele>
        <time>2022-06-12T10:22:28.106Z</time>
      </trkpt>
      <trkpt lat="43.21761" lon="17.8196">
        <ele>75.941364</ele>
        <time>2022-06-12T10:22:32.098Z</time>
      </trkpt>
      <trkpt lat="43.21766" lon="17.81974">
        <ele>76.03149</ele>
        <time>2022-06-12T10:22:37.128Z</time>
      </trkpt>
      <trkpt lat="43.2177" lon="17.81989">
        <ele>76.123488</ele>
        <time>2022-06-12T10:22:42.114Z</time>
      </trkpt>
      <trkpt lat="43.21774" lon="17.82003">
        <ele>76.215179</ele>
        <time>2022-06-12T10:22:47.109Z</time>
      </trkpt>
      <trkpt lat="43.21777" lon="17.82015">
        <ele>76.291574</ele>
        <time>2022-06-12T10:22:51.101Z</time>
      </trkpt>
      <trkpt lat="43.21782" lon="17.8203">
        <ele>76.389223</ele>
        <time>2022-06-12T10:22:57.093Z</time>
      </trkpt>
      <trkpt lat="43.21783" lon="17.82046">
        <ele>76.482323</ele>
        <time>2022-06-12T10:23:00.108Z</time>
      </trkpt>
      <trkpt lat="43.21787" lon="17.82057">
        <ele>76.558105</ele>
        <time>2022-06-12T10:23:03.093Z</time>
      </trkpt>
      <trkpt lat="43.21792" lon="17.8207">
        <ele>76.643344</ele>
        <time>2022-06-12T10:23:07.104Z</time>
      </trkpt>
      <trkpt lat="43.21797" lon="17.82084">
        <ele>76.736434</ele>
        <time>2022-06-12T10:23:11.109Z</time>
      </trkpt>
      <trkpt lat="43.218" lon="17.82099">
        <ele>76.824136</ele>
        <time>2022-06-12T10:23:15.121Z</time>
      </trkpt>
      <trkpt lat="43.21803" lon="17.82112">
        <ele>76.905895</ele>
        <time>2022-06-12T10:23:19.118Z</time>
      </trkpt>
      <trkpt lat="43.21806" lon="17.82126">
        <ele>76.995029</ele>
        <time>2022-06-12T10:23:23.109Z</time>
      </trkpt>
      <trkpt lat="43.21812" lon="17.82136">
        <ele>77.07485</ele>
        <time>2022-06-12T10:23:27.121Z</time>
      </trkpt>
      <trkpt lat="43.21818" lon="17.82148">
        <ele>77.15839</ele>
        <time>2022-06-12T10:23:31.099Z</time>
      </trkpt>
      <trkpt lat="43.21822" lon="17.82163">
        <ele>77.166487</ele>
        <time>2022-06-12T10:23:35.110Z</time>
      </trkpt>
      <trkpt lat="43.21826" lon="17.82176">
        <ele>77.148197</ele>
        <time>2022-06-12T10:23:39.145Z</time>
      </trkpt>
      <trkpt lat="43.21831" lon="17.82187">
        <ele>77.131723</ele>
        <time>2022-06-12T10:23:42.096Z</time>
      </trkpt>
      <trkpt lat="43.2184" lon="17.82199">
        <ele>77.109809</ele>
        <time>2022-06-12T10:23:47.115Z</time>
      </trkpt>
      <trkpt lat="43.21846" lon="17.82212">
        <ele>77.090028</ele>
        <time>2022-06-12T10:23:51.100Z</time>
      </trkpt>
      <trkpt lat="43.21854" lon="17.82224">
        <ele>77.070185</ele>
        <time>2022-06-12T10:23:55.153Z</time>
      </trkpt>
      <trkpt lat="43.21861" lon="17.82233">
        <ele>77.053302</ele>
        <time>2022-06-12T10:23:58.112Z</time>
      </trkpt>
      <trkpt lat="43.21867" lon="17.82246">
        <ele>77.033317</ele>
        <time>2022-06-12T10:24:02.104Z</time>
      </trkpt>
      <trkpt lat="43.21876" lon="17.82258">
        <ele>77.012413</ele>
        <time>2022-06-12T10:24:06.104Z</time>
      </trkpt>
      <trkpt lat="43.21884" lon="17.82267">
        <ele>76.994074</ele>
        <time>2022-06-12T10:24:09.108Z</time>
      </trkpt>
      <trkpt lat="43.21893" lon="17.82277">
        <ele>76.974136</ele>
        <time>2022-06-12T10:24:12.143Z</time>
      </trkpt>
      <trkpt lat="43.21901" lon="17.82286">
        <ele>76.954905</ele>
        <time>2022-06-12T10:24:15.113Z</time>
      </trkpt>
      <trkpt lat="43.2191" lon="17.82294">
        <ele>76.936138</ele>
        <time>2022-06-12T10:24:18.100Z</time>
      </trkpt>
      <trkpt lat="43.21919" lon="17.82301">
        <ele>76.918258</ele>
        <time>2022-06-12T10:24:21.105Z</time>
      </trkpt>
      <trkpt lat="43.21928" lon="17.82308">
        <ele>76.90073</ele>
        <time>2022-06-12T10:24:24.116Z</time>
      </trkpt>
      <trkpt lat="43.21936" lon="17.82316">
        <ele>76.882336</ele>
        <time>2022-06-12T10:24:27.100Z</time>
      </trkpt>
      <trkpt lat="43.21947" lon="17.82323">
        <ele>76.860126</ele>
        <time>2022-06-12T10:24:30.099Z</time>
      </trkpt>
      <trkpt lat="43.21957" lon="17.82329">
        <ele>76.831229</ele>
        <time>2022-06-12T10:24:33.104Z</time>
      </trkpt>
      <trkpt lat="43.21967" lon="17.82334">
        <ele>76.804018</ele>
        <time>2022-06-12T10:24:36.160Z</time>
      </trkpt>
      <trkpt lat="43.21977" lon="17.82338">
        <ele>76.77671</ele>
        <time>2022-06-12T10:24:39.095Z</time>
      </trkpt>
      <trkpt lat="43.21987" lon="17.82342">
        <ele>76.748353</ele>
        <time>2022-06-12T10:24:42.088Z</time>
      </trkpt>
      <trkpt lat="43.21997" lon="17.82345">
        <ele>76.72236</ele>
        <time>2022-06-12T10:24:45.112Z</time>
      </trkpt>
      <trkpt lat="43.22007" lon="17.82349">
        <ele>76.695246</ele>
        <time>2022-06-12T10:24:48.099Z</time>
      </trkpt>
      <trkpt lat="43.22017" lon="17.82352">
        <ele>76.668603</ele>
        <time>2022-06-12T10:24:51.114Z</time>
      </trkpt>
      <trkpt lat="43.22028" lon="17.82355">
        <ele>76.640796</ele>
        <time>2022-06-12T10:24:54.093Z</time>
      </trkpt>
      <trkpt lat="43.22037" lon="17.82358">
        <ele>76.614694</ele>
        <time>2022-06-12T10:24:57.094Z</time>
      </trkpt>
      <trkpt lat="43.22047" lon="17.82363">
        <ele>76.589242</ele>
        <time>2022-06-12T10:25:00.112Z</time>
      </trkpt>
      <trkpt lat="43.22057" lon="17.82367">
        <ele>76.562288</ele>
        <time>2022-06-12T10:25:03.132Z</time>
      </trkpt>
      <trkpt lat="43.22066" lon="17.8237">
        <ele>76.538086</ele>
        <time>2022-06-12T10:25:06.088Z</time>
      </trkpt>
      <trkpt lat="43.22075" lon="17.82375">
        <ele>76.511352</ele>
        <time>2022-06-12T10:25:09.093Z</time>
      </trkpt>
      <trkpt lat="43.22085" lon="17.82379">
        <ele>76.48519</ele>
        <time>2022-06-12T10:25:12.113Z</time>
      </trkpt>
      <trkpt lat="43.22094" lon="17.82382">
        <ele>76.46108</ele>
        <time>2022-06-12T10:25:15.112Z</time>
      </trkpt>
      <trkpt lat="43.22103" lon="17.82385">
        <ele>76.437526</ele>
        <time>2022-06-12T10:25:18.111Z</time>
      </trkpt>
      <trkpt lat="43.22113" lon="17.82389">
        <ele>76.4111</ele>
        <time>2022-06-12T10:25:21.102Z</time>
      </trkpt>
      <trkpt lat="43.22122" lon="17.82393">
        <ele>76.413837</ele>
        <time>2022-06-12T10:25:24.108Z</time>
      </trkpt>
      <trkpt lat="43.22131" lon="17.82397">
        <ele>76.438385</ele>
        <time>2022-06-12T10:25:27.092Z</time>
      </trkpt>
      <trkpt lat="43.22141" lon="17.82402">
        <ele>76.46382</ele>
        <time>2022-06-12T10:25:30.096Z</time>
      </trkpt>
      <trkpt lat="43.22151" lon="17.82405">
        <ele>76.487468</ele>
        <time>2022-06-12T10:25:33.092Z</time>
      </trkpt>
      <trkpt lat="43.2216" lon="17.82408">
        <ele>76.51075</ele>
        <time>2022-06-12T10:25:36.095Z</time>
      </trkpt>
      <trkpt lat="43.22172" lon="17.82412">
        <ele>76.539722</ele>
        <time>2022-06-12T10:25:40.094Z</time>
      </trkpt>
      <trkpt lat="43.22181" lon="17.82413">
        <ele>76.562261</ele>
        <time>2022-06-12T10:25:43.132Z</time>
      </trkpt>
      <trkpt lat="43.2219" lon="17.82415">
        <ele>76.58476</ele>
        <time>2022-06-12T10:25:46.112Z</time>
      </trkpt>
      <trkpt lat="43.22199" lon="17.82415">
        <ele>76.607895</ele>
        <time>2022-06-12T10:25:49.100Z</time>
      </trkpt>
      <trkpt lat="43.22209" lon="17.82415">
        <ele>76.630766</ele>
        <time>2022-06-12T10:25:52.106Z</time>
      </trkpt>
      <trkpt lat="43.2222" lon="17.82414">
        <ele>76.658367</ele>
        <time>2022-06-12T10:25:56.094Z</time>
      </trkpt>
      <trkpt lat="43.22229" lon="17.82413">
        <ele>76.68055</ele>
        <time>2022-06-12T10:25:59.101Z</time>
      </trkpt>
      <trkpt lat="43.2224" lon="17.82412">
        <ele>76.707395</ele>
        <time>2022-06-12T10:26:03.093Z</time>
      </trkpt>
      <trkpt lat="43.2225" lon="17.8241">
        <ele>76.730345</ele>
        <time>2022-06-12T10:26:06.115Z</time>
      </trkpt>
      <trkpt lat="43.22259" lon="17.82409">
        <ele>76.753675</ele>
        <time>2022-06-12T10:26:09.107Z</time>
      </trkpt>
      <trkpt lat="43.22269" lon="17.82406">
        <ele>76.778073</ele>
        <time>2022-06-12T10:26:12.113Z</time>
      </trkpt>
      <trkpt lat="43.22279" lon="17.82405">
        <ele>76.801979</ele>
        <time>2022-06-12T10:26:15.107Z</time>
      </trkpt>
      <trkpt lat="43.22288" lon="17.82404">
        <ele>76.825044</ele>
        <time>2022-06-12T10:26:18.085Z</time>
      </trkpt>
      <trkpt lat="43.22298" lon="17.82403">
        <ele>76.912812</ele>
        <time>2022-06-12T10:26:21.109Z</time>
      </trkpt>
      <trkpt lat="43.22308" lon="17.82401">
        <ele>77.087507</ele>
        <time>2022-06-12T10:26:24.104Z</time>
      </trkpt>
      <trkpt lat="43.22319" lon="17.82399">
        <ele>77.260541</ele>
        <time>2022-06-12T10:26:27.110Z</time>
      </trkpt>
      <trkpt lat="43.22329" lon="17.824">
        <ele>77.44392</ele>
        <time>2022-06-12T10:26:31.104Z</time>
      </trkpt>
      <trkpt lat="43.22339" lon="17.82402">
        <ele>77.609443</ele>
        <time>2022-06-12T10:26:34.107Z</time>
      </trkpt>
      <trkpt lat="43.22349" lon="17.82404">
        <ele>77.772329</ele>
        <time>2022-06-12T10:26:37.095Z</time>
      </trkpt>
      <trkpt lat="43.22359" lon="17.82406">
        <ele>77.953517</ele>
        <time>2022-06-12T10:26:40.114Z</time>
      </trkpt>
      <trkpt lat="43.22371" lon="17.82406">
        <ele>78.144966</ele>
        <time>2022-06-12T10:26:43.107Z</time>
      </trkpt>
      <trkpt lat="43.22383" lon="17.82405">
        <ele>78.345183</ele>
        <time>2022-06-12T10:26:46.143Z</time>
      </trkpt>
      <trkpt lat="43.22395" lon="17.82402">
        <ele>78.547172</ele>
        <time>2022-06-12T10:26:49.093Z</time>
      </trkpt>
      <trkpt lat="43.22406" lon="17.82401">
        <ele>78.73593</ele>
        <time>2022-06-12T10:26:52.115Z</time>
      </trkpt>
      <trkpt lat="43.22417" lon="17.824">
        <ele>78.926173</ele>
        <time>2022-06-12T10:26:55.110Z</time>
      </trkpt>
      <trkpt lat="43.22427" lon="17.824">
        <ele>79.090863</ele>
        <time>2022-06-12T10:26:58.095Z</time>
      </trkpt>
      <trkpt lat="43.22437" lon="17.824">
        <ele>79.255807</ele>
        <time>2022-06-12T10:27:00.112Z</time>
      </trkpt>
      <trkpt lat="43.22446" lon="17.82398">
        <ele>79.413532</ele>
        <time>2022-06-12T10:27:02.098Z</time>
      </trkpt>
      <trkpt lat="43.22458" lon="17.82396">
        <ele>79.619727</ele>
        <time>2022-06-12T10:27:05.110Z</time>
      </trkpt>
      <trkpt lat="43.2247" lon="17.82395">
        <ele>79.82355</ele>
        <time>2022-06-12T10:27:08.103Z</time>
      </trkpt>
      <trkpt lat="43.22482" lon="17.82392">
        <ele>79.672982</ele>
        <time>2022-06-12T10:27:11.086Z</time>
      </trkpt>
      <trkpt lat="43.22494" lon="17.8239">
        <ele>79.44134</ele>
        <time>2022-06-12T10:27:14.107Z</time>
      </trkpt>
      <trkpt lat="43.22506" lon="17.82386">
        <ele>79.209602</ele>
        <time>2022-06-12T10:27:17.107Z</time>
      </trkpt>
      <trkpt lat="43.22518" lon="17.82386">
        <ele>78.98745</ele>
        <time>2022-06-12T10:27:20.101Z</time>
      </trkpt>
      <trkpt lat="43.22531" lon="17.82383">
        <ele>78.734371</ele>
        <time>2022-06-12T10:27:23.103Z</time>
      </trkpt>
      <trkpt lat="43.22543" lon="17.8238">
        <ele>78.505258</ele>
        <time>2022-06-12T10:27:26.102Z</time>
      </trkpt>
      <trkpt lat="43.22555" lon="17.82377">
        <ele>78.270276</ele>
        <time>2022-06-12T10:27:29.147Z</time>
      </trkpt>
      <trkpt lat="43.22567" lon="17.82373">
        <ele>78.043018</ele>
        <time>2022-06-12T10:27:32.101Z</time>
      </trkpt>
      <trkpt lat="43.22579" lon="17.82371">
        <ele>77.815984</ele>
        <time>2022-06-12T10:27:35.112Z</time>
      </trkpt>
      <trkpt lat="43.2259" lon="17.82367">
        <ele>77.582795</ele>
        <time>2022-06-12T10:27:38.090Z</time>
      </trkpt>
      <trkpt lat="43.22599" lon="17.82364">
        <ele>77.412246</ele>
        <time>2022-06-12T10:27:40.144Z</time>
      </trkpt>
      <trkpt lat="43.22612" lon="17.82361">
        <ele>77.172266</ele>
        <time>2022-06-12T10:27:43.088Z</time>
      </trkpt>
      <trkpt lat="43.22623" lon="17.82358">
        <ele>76.960433</ele>
        <time>2022-06-12T10:27:46.106Z</time>
      </trkpt>
      <trkpt lat="43.22633" lon="17.82355">
        <ele>76.76541</ele>
        <time>2022-06-12T10:27:49.094Z</time>
      </trkpt>
      <trkpt lat="43.22643" lon="17.82352">
        <ele>76.561867</ele>
        <time>2022-06-12T10:27:52.104Z</time>
      </trkpt>
      <trkpt lat="43.22654" lon="17.82351">
        <ele>76.454772</ele>
        <time>2022-06-12T10:27:55.115Z</time>
      </trkpt>
      <trkpt lat="43.22665" lon="17.82348">
        <ele>76.475744</ele>
        <time>2022-06-12T10:27:58.110Z</time>
      </trkpt>
      <trkpt lat="43.22676" lon="17.82345">
        <ele>76.49593</ele>
        <time>2022-06-12T10:28:01.105Z</time>
      </trkpt>
      <trkpt lat="43.22687" lon="17.82341">
        <ele>76.517607</ele>
        <time>2022-06-12T10:28:04.100Z</time>
      </trkpt>
      <trkpt lat="43.22698" lon="17.82336">
        <ele>76.538097</ele>
        <time>2022-06-12T10:28:07.130Z</time>
      </trkpt>
      <trkpt lat="43.22708" lon="17.82334">
        <ele>76.558418</ele>
        <time>2022-06-12T10:28:10.099Z</time>
      </trkpt>
      <trkpt lat="43.22719" lon="17.82332">
        <ele>76.57743</ele>
        <time>2022-06-12T10:28:13.148Z</time>
      </trkpt>
      <trkpt lat="43.22729" lon="17.82332">
        <ele>76.596696</ele>
        <time>2022-06-12T10:28:16.076Z</time>
      </trkpt>
      <trkpt lat="43.2274" lon="17.82332">
        <ele>76.618015</ele>
        <time>2022-06-12T10:28:19.104Z</time>
      </trkpt>
      <trkpt lat="43.22753" lon="17.82331">
        <ele>76.641031</ele>
        <time>2022-06-12T10:28:22.098Z</time>
      </trkpt>
      <trkpt lat="43.22765" lon="17.82329">
        <ele>76.664059</ele>
        <time>2022-06-12T10:28:25.115Z</time>
      </trkpt>
      <trkpt lat="43.22775" lon="17.82328">
        <ele>76.684085</ele>
        <time>2022-06-12T10:28:28.105Z</time>
      </trkpt>
      <trkpt lat="43.22786" lon="17.82327">
        <ele>76.703602</ele>
        <time>2022-06-12T10:28:31.101Z</time>
      </trkpt>
      <trkpt lat="43.22796" lon="17.82325">
        <ele>76.722315</ele>
        <time>2022-06-12T10:28:34.107Z</time>
      </trkpt>
      <trkpt lat="43.22808" lon="17.82326">
        <ele>76.744578</ele>
        <time>2022-06-12T10:28:37.110Z</time>
      </trkpt>
      <trkpt lat="43.22818" lon="17.82328">
        <ele>76.765132</ele>
        <time>2022-06-12T10:28:40.110Z</time>
      </trkpt>
      <trkpt lat="43.2283" lon="17.82329">
        <ele>76.810836</ele>
        <time>2022-06-12T10:28:43.113Z</time>
      </trkpt>
      <trkpt lat="43.2284" lon="17.82332">
        <ele>76.9487</ele>
        <time>2022-06-12T10:28:46.128Z</time>
      </trkpt>
      <trkpt lat="43.2285" lon="17.82336">
        <ele>77.077381</ele>
        <time>2022-06-12T10:28:49.103Z</time>
      </trkpt>
      <trkpt lat="43.22861" lon="17.82339">
        <ele>77.215299</ele>
        <time>2022-06-12T10:28:52.130Z</time>
      </trkpt>
      <trkpt lat="43.22871" lon="17.82343">
        <ele>77.3435</ele>
        <time>2022-06-12T10:28:55.108Z</time>
      </trkpt>
      <trkpt lat="43.22881" lon="17.82347">
        <ele>77.477243</ele>
        <time>2022-06-12T10:28:58.128Z</time>
      </trkpt>
      <trkpt lat="43.22892" lon="17.82352">
        <ele>77.611458</ele>
        <time>2022-06-12T10:29:01.110Z</time>
      </trkpt>
      <trkpt lat="43.22901" lon="17.82357">
        <ele>77.7391</ele>
        <time>2022-06-12T10:29:04.116Z</time>
      </trkpt>
      <trkpt lat="43.22911" lon="17.82363">
        <ele>77.867897</ele>
        <time>2022-06-12T10:29:07.097Z</time>
      </trkpt>
      <trkpt lat="43.2292" lon="17.82368">
        <ele>77.993912</ele>
        <time>2022-06-12T10:29:10.087Z</time>
      </trkpt>
      <trkpt lat="43.22929" lon="17.82374">
        <ele>78.121821</ele>
        <time>2022-06-12T10:29:13.101Z</time>
      </trkpt>
      <trkpt lat="43.22937" lon="17.82381">
        <ele>78.239071</ele>
        <time>2022-06-12T10:29:16.111Z</time>
      </trkpt>
      <trkpt lat="43.22944" lon="17.82388">
        <ele>78.350589</ele>
        <time>2022-06-12T10:29:19.103Z</time>
      </trkpt>
      <trkpt lat="43.22953" lon="17.82397">
        <ele>78.48103</ele>
        <time>2022-06-12T10:29:22.105Z</time>
      </trkpt>
      <trkpt lat="43.22961" lon="17.82406">
        <ele>78.614795</ele>
        <time>2022-06-12T10:29:25.116Z</time>
      </trkpt>
      <trkpt lat="43.22968" lon="17.82415">
        <ele>78.733565</ele>
        <time>2022-06-12T10:29:28.118Z</time>
      </trkpt>
      <trkpt lat="43.22976" lon="17.82424">
        <ele>78.856312</ele>
        <time>2022-06-12T10:29:31.125Z</time>
      </trkpt>
      <trkpt lat="43.22983" lon="17.82433">
        <ele>78.978452</ele>
        <time>2022-06-12T10:29:34.122Z</time>
      </trkpt>
      <trkpt lat="43.2299" lon="17.82443">
        <ele>79.036818</ele>
        <time>2022-06-12T10:29:37.107Z</time>
      </trkpt>
      <trkpt lat="43.22998" lon="17.82453">
        <ele>79.060839</ele>
        <time>2022-06-12T10:29:40.104Z</time>
      </trkpt>
      <trkpt lat="43.23005" lon="17.82464">
        <ele>79.086781</ele>
        <time>2022-06-12T10:29:43.104Z</time>
      </trkpt>
      <trkpt lat="43.23014" lon="17.82475">
        <ele>79.114282</ele>
        <time>2022-06-12T10:29:46.104Z</time>
      </trkpt>
      <trkpt lat="43.23021" lon="17.82486">
        <ele>79.138516</ele>
        <time>2022-06-12T10:29:49.109Z</time>
      </trkpt>
      <trkpt lat="43.23026" lon="17.82498">
        <ele>79.162959</ele>
        <time>2022-06-12T10:29:52.098Z</time>
      </trkpt>
      <trkpt lat="43.23031" lon="17.82511">
        <ele>79.188603</ele>
        <time>2022-06-12T10:29:55.103Z</time>
      </trkpt>
      <trkpt lat="43.23034" lon="17.82524">
        <ele>79.211958</ele>
        <time>2022-06-12T10:29:58.091Z</time>
      </trkpt>
      <trkpt lat="43.23037" lon="17.82538">
        <ele>79.237298</ele>
        <time>2022-06-12T10:30:01.116Z</time>
      </trkpt>
      <trkpt lat="43.23038" lon="17.82553">
        <ele>79.262221</ele>
        <time>2022-06-12T10:30:04.085Z</time>
      </trkpt>
      <trkpt lat="43.23037" lon="17.82567">
        <ele>79.287091</ele>
        <time>2022-06-12T10:30:07.103Z</time>
      </trkpt>
      <trkpt lat="43.23037" lon="17.82581">
        <ele>79.311298</ele>
        <time>2022-06-12T10:30:10.140Z</time>
      </trkpt>
      <trkpt lat="43.23035" lon="17.82595">
        <ele>79.335874</ele>
        <time>2022-06-12T10:30:13.092Z</time>
      </trkpt>
      <trkpt lat="43.23033" lon="17.82612">
        <ele>79.363949</ele>
        <time>2022-06-12T10:30:16.095Z</time>
      </trkpt>
      <trkpt lat="43.2303" lon="17.82627">
        <ele>79.391519</ele>
        <time>2022-06-12T10:30:19.093Z</time>
      </trkpt>
      <trkpt lat="43.23028" lon="17.82642">
        <ele>79.416785</ele>
        <time>2022-06-12T10:30:22.096Z</time>
      </trkpt>
      <trkpt lat="43.23026" lon="17.82659">
        <ele>79.433917</ele>
        <time>2022-06-12T10:30:25.103Z</time>
      </trkpt>
      <trkpt lat="43.23025" lon="17.82675">
        <ele>79.365235</ele>
        <time>2022-06-12T10:30:28.100Z</time>
      </trkpt>
      <trkpt lat="43.23024" lon="17.82691">
        <ele>79.295944</ele>
        <time>2022-06-12T10:30:31.103Z</time>
      </trkpt>
      <trkpt lat="43.23024" lon="17.82706">
        <ele>79.23241</ele>
        <time>2022-06-12T10:30:34.106Z</time>
      </trkpt>
      <trkpt lat="43.23025" lon="17.82722">
        <ele>79.163873</ele>
        <time>2022-06-12T10:30:37.112Z</time>
      </trkpt>
      <trkpt lat="43.23026" lon="17.82738">
        <ele>79.095278</ele>
        <time>2022-06-12T10:30:40.097Z</time>
      </trkpt>
      <trkpt lat="43.23028" lon="17.82752">
        <ele>79.032586</ele>
        <time>2022-06-12T10:30:43.159Z</time>
      </trkpt>
      <trkpt lat="43.23029" lon="17.82766">
        <ele>78.971864</ele>
        <time>2022-06-12T10:30:46.102Z</time>
      </trkpt>
      <trkpt lat="43.23031" lon="17.82781">
        <ele>78.906849</ele>
        <time>2022-06-12T10:30:49.110Z</time>
      </trkpt>
      <trkpt lat="43.23034" lon="17.82795">
        <ele>78.845264</ele>
        <time>2022-06-12T10:30:52.096Z</time>
      </trkpt>
      <trkpt lat="43.23037" lon="17.82811">
        <ele>78.776858</ele>
        <time>2022-06-12T10:30:55.148Z</time>
      </trkpt>
      <trkpt lat="43.23039" lon="17.82826">
        <ele>78.709164</ele>
        <time>2022-06-12T10:30:58.091Z</time>
      </trkpt>
      <trkpt lat="43.23042" lon="17.82841">
        <ele>78.643812</ele>
        <time>2022-06-12T10:31:01.133Z</time>
      </trkpt>
      <trkpt lat="43.23045" lon="17.82856">
        <ele>78.577782</ele>
        <time>2022-06-12T10:31:04.102Z</time>
      </trkpt>
      <trkpt lat="43.23047" lon="17.8287">
        <ele>78.514102</ele>
        <time>2022-06-12T10:31:07.095Z</time>
      </trkpt>
      <trkpt lat="43.2305" lon="17.82885">
        <ele>78.44988</ele>
        <time>2022-06-12T10:31:10.103Z</time>
      </trkpt>
      <trkpt lat="43.23052" lon="17.829">
        <ele>78.383991</ele>
        <time>2022-06-12T10:31:13.107Z</time>
      </trkpt>
      <trkpt lat="43.23055" lon="17.82914">
        <ele>78.319686</ele>
        <time>2022-06-12T10:31:16.105Z</time>
      </trkpt>
      <trkpt lat="43.23057" lon="17.82929">
        <ele>78.252526</ele>
        <time>2022-06-12T10:31:19.105Z</time>
      </trkpt>
      <trkpt lat="43.2306" lon="17.82945">
        <ele>78.179778</ele>
        <time>2022-06-12T10:31:22.100Z</time>
      </trkpt>
      <trkpt lat="43.23062" lon="17.82959">
        <ele>78.112483</ele>
        <time>2022-06-12T10:31:25.104Z</time>
      </trkpt>
      <trkpt lat="43.23065" lon="17.82974">
        <ele>78.045332</ele>
        <time>2022-06-12T10:31:28.097Z</time>
      </trkpt>
      <trkpt lat="43.23068" lon="17.82989">
        <ele>77.97683</ele>
        <time>2022-06-12T10:31:31.137Z</time>
      </trkpt>
      <trkpt lat="43.23072" lon="17.83005">
        <ele>77.90274</ele>
        <time>2022-06-12T10:31:34.129Z</time>
      </trkpt>
      <trkpt lat="43.23077" lon="17.83018">
        <ele>77.838845</ele>
        <time>2022-06-12T10:31:37.105Z</time>
      </trkpt>
      <trkpt lat="43.23082" lon="17.83031">
        <ele>77.771094</ele>
        <time>2022-06-12T10:31:40.147Z</time>
      </trkpt>
      <trkpt lat="43.23087" lon="17.83045">
        <ele>77.700251</ele>
        <time>2022-06-12T10:31:43.092Z</time>
      </trkpt>
      <trkpt lat="43.23092" lon="17.83057">
        <ele>77.641017</ele>
        <time>2022-06-12T10:31:46.102Z</time>
      </trkpt>
      <trkpt lat="43.23098" lon="17.83071">
        <ele>77.568761</ele>
        <time>2022-06-12T10:31:50.104Z</time>
      </trkpt>
      <trkpt lat="43.23103" lon="17.83084">
        <ele>77.505153</ele>
        <time>2022-06-12T10:31:54.104Z</time>
      </trkpt>
      <trkpt lat="43.23108" lon="17.83095">
        <ele>77.444992</ele>
        <time>2022-06-12T10:31:58.112Z</time>
      </trkpt>
      <trkpt lat="43.23119" lon="17.83113">
        <ele>77.343236</ele>
        <time>2022-06-12T10:38:59.112Z</time>
      </trkpt>
      <trkpt lat="43.23126" lon="17.83123">
        <ele>77.263828</ele>
        <time>2022-06-12T10:39:03.105Z</time>
      </trkpt>
      <trkpt lat="43.23133" lon="17.83135">
        <ele>77.051804</ele>
        <time>2022-06-12T10:39:07.095Z</time>
      </trkpt>
      <trkpt lat="43.23141" lon="17.83146">
        <ele>76.84433</ele>
        <time>2022-06-12T10:39:11.100Z</time>
      </trkpt>
      <trkpt lat="43.23148" lon="17.83154">
        <ele>76.671593</ele>
        <time>2022-06-12T10:39:14.096Z</time>
      </trkpt>
      <trkpt lat="43.23156" lon="17.83162">
        <ele>76.499413</ele>
        <time>2022-06-12T10:39:17.101Z</time>
      </trkpt>
      <trkpt lat="43.23164" lon="17.83173">
        <ele>76.280325</ele>
        <time>2022-06-12T10:39:21.110Z</time>
      </trkpt>
      <trkpt lat="43.23174" lon="17.83181">
        <ele>76.072311</ele>
        <time>2022-06-12T10:39:25.139Z</time>
      </trkpt>
      <trkpt lat="43.23181" lon="17.83188">
        <ele>75.902732</ele>
        <time>2022-06-12T10:39:28.140Z</time>
      </trkpt>
      <trkpt lat="43.23189" lon="17.83195">
        <ele>75.72757</ele>
        <time>2022-06-12T10:39:31.145Z</time>
      </trkpt>
      <trkpt lat="43.23197" lon="17.83201">
        <ele>75.560342</ele>
        <time>2022-06-12T10:39:34.097Z</time>
      </trkpt>
      <trkpt lat="43.23208" lon="17.83208">
        <ele>75.34414</ele>
        <time>2022-06-12T10:39:38.095Z</time>
      </trkpt>
      <trkpt lat="43.23218" lon="17.83215">
        <ele>75.13473</ele>
        <time>2022-06-12T10:39:42.089Z</time>
      </trkpt>
      <trkpt lat="43.23229" lon="17.83221">
        <ele>74.920134</ele>
        <time>2022-06-12T10:39:46.089Z</time>
      </trkpt>
      <trkpt lat="43.23237" lon="17.83225">
        <ele>74.751396</ele>
        <time>2022-06-12T10:39:49.135Z</time>
      </trkpt>
      <trkpt lat="43.23246" lon="17.83229">
        <ele>74.580583</ele>
        <time>2022-06-12T10:39:52.113Z</time>
      </trkpt>
      <trkpt lat="43.23255" lon="17.83233">
        <ele>74.402637</ele>
        <time>2022-06-12T10:39:55.149Z</time>
      </trkpt>
      <trkpt lat="43.23264" lon="17.83237">
        <ele>74.227422</ele>
        <time>2022-06-12T10:39:58.126Z</time>
      </trkpt>
      <trkpt lat="43.23273" lon="17.83241">
        <ele>74.05302</ele>
        <time>2022-06-12T10:40:01.120Z</time>
      </trkpt>
      <trkpt lat="43.23283" lon="17.83245">
        <ele>73.95812</ele>
        <time>2022-06-12T10:40:04.109Z</time>
      </trkpt>
      <trkpt lat="43.23292" lon="17.83249">
        <ele>73.955713</ele>
        <time>2022-06-12T10:40:07.112Z</time>
      </trkpt>
      <trkpt lat="43.23302" lon="17.83253">
        <ele>73.953352</ele>
        <time>2022-06-12T10:40:10.098Z</time>
      </trkpt>
      <trkpt lat="43.23311" lon="17.83257">
        <ele>73.951194</ele>
        <time>2022-06-12T10:40:13.106Z</time>
      </trkpt>
      <trkpt lat="43.2332" lon="17.8326">
        <ele>73.949046</ele>
        <time>2022-06-12T10:40:16.093Z</time>
      </trkpt>
      <trkpt lat="43.23329" lon="17.83265">
        <ele>73.946708</ele>
        <time>2022-06-12T10:40:19.091Z</time>
      </trkpt>
      <trkpt lat="43.23338" lon="17.83269">
        <ele>73.944385</ele>
        <time>2022-06-12T10:40:22.103Z</time>
      </trkpt>
      <trkpt lat="43.23348" lon="17.83273">
        <ele>73.942013</ele>
        <time>2022-06-12T10:40:25.112Z</time>
      </trkpt>
      <trkpt lat="43.2336" lon="17.83278">
        <ele>73.939089</ele>
        <time>2022-06-12T10:40:29.106Z</time>
      </trkpt>
      <trkpt lat="43.23369" lon="17.83281">
        <ele>73.936904</ele>
        <time>2022-06-12T10:40:32.104Z</time>
      </trkpt>
      <trkpt lat="43.2338" lon="17.83287">
        <ele>73.934092</ele>
        <time>2022-06-12T10:40:36.101Z</time>
      </trkpt>
      <trkpt lat="43.2339" lon="17.83291">
        <ele>73.93172</ele>
        <time>2022-06-12T10:40:39.090Z</time>
      </trkpt>
      <trkpt lat="43.23399" lon="17.83294">
        <ele>73.929385</ele>
        <time>2022-06-12T10:40:42.097Z</time>
      </trkpt>
      <trkpt lat="43.23409" lon="17.83298">
        <ele>73.927087</ele>
        <time>2022-06-12T10:40:45.136Z</time>
      </trkpt>
      <trkpt lat="43.23419" lon="17.83302">
        <ele>73.924594</ele>
        <time>2022-06-12T10:40:48.092Z</time>
      </trkpt>
      <trkpt lat="43.23429" lon="17.83306">
        <ele>73.922037</ele>
        <time>2022-06-12T10:40:51.098Z</time>
      </trkpt>
      <trkpt lat="43.23439" lon="17.8331">
        <ele>73.91967</ele>
        <time>2022-06-12T10:40:54.103Z</time>
      </trkpt>
      <trkpt lat="43.2345" lon="17.83316">
        <ele>73.920644</ele>
        <time>2022-06-12T10:40:58.112Z</time>
      </trkpt>
      <trkpt lat="43.23462" lon="17.83318">
        <ele>74.101338</ele>
        <time>2022-06-12T10:41:02.093Z</time>
      </trkpt>
      <trkpt lat="43.23473" lon="17.83319">
        <ele>74.273948</ele>
        <time>2022-06-12T10:41:06.090Z</time>
      </trkpt>
      <trkpt lat="43.23482" lon="17.8332">
        <ele>74.415597</ele>
        <time>2022-06-12T10:41:09.100Z</time>
      </trkpt>
      <trkpt lat="43.23493" lon="17.83316">
        <ele>74.596595</ele>
        <time>2022-06-12T10:41:13.104Z</time>
      </trkpt>
      <trkpt lat="43.23502" lon="17.83311">
        <ele>74.741678</ele>
        <time>2022-06-12T10:41:16.101Z</time>
      </trkpt>
      <trkpt lat="43.23511" lon="17.83306">
        <ele>74.890471</ele>
        <time>2022-06-12T10:41:19.105Z</time>
      </trkpt>
      <trkpt lat="43.2352" lon="17.83301">
        <ele>75.049575</ele>
        <time>2022-06-12T10:41:22.133Z</time>
      </trkpt>
      <trkpt lat="43.23529" lon="17.83296">
        <ele>75.196036</ele>
        <time>2022-06-12T10:41:25.111Z</time>
      </trkpt>
      <trkpt lat="43.23538" lon="17.83291">
        <ele>75.344578</ele>
        <time>2022-06-12T10:41:28.097Z</time>
      </trkpt>
      <trkpt lat="43.23547" lon="17.83285">
        <ele>75.501845</ele>
        <time>2022-06-12T10:41:31.133Z</time>
      </trkpt>
      <trkpt lat="43.23559" lon="17.83279">
        <ele>75.697632</ele>
        <time>2022-06-12T10:41:35.113Z</time>
      </trkpt>
      <trkpt lat="43.23569" lon="17.83274">
        <ele>75.861256</ele>
        <time>2022-06-12T10:41:38.086Z</time>
      </trkpt>
      <trkpt lat="43.23578" lon="17.8327">
        <ele>76.009289</ele>
        <time>2022-06-12T10:41:41.133Z</time>
      </trkpt>
      <trkpt lat="43.23589" lon="17.83265">
        <ele>76.194069</ele>
        <time>2022-06-12T10:41:45.114Z</time>
      </trkpt>
      <trkpt lat="43.23599" lon="17.83259">
        <ele>76.367609</ele>
        <time>2022-06-12T10:41:49.104Z</time>
      </trkpt>
      <trkpt lat="43.2361" lon="17.83254">
        <ele>76.543934</ele>
        <time>2022-06-12T10:41:53.094Z</time>
      </trkpt>
      <trkpt lat="43.23621" lon="17.83249">
        <ele>76.705026</ele>
        <time>2022-06-12T10:41:57.134Z</time>
      </trkpt>
      <trkpt lat="43.2363" lon="17.83245">
        <ele>76.578974</ele>
        <time>2022-06-12T10:42:00.130Z</time>
      </trkpt>
      <trkpt lat="43.23639" lon="17.83242">
        <ele>76.448602</ele>
        <time>2022-06-12T10:42:03.137Z</time>
      </trkpt>
      <trkpt lat="43.23649" lon="17.83238">
        <ele>76.309905</ele>
        <time>2022-06-12T10:42:06.099Z</time>
      </trkpt>
      <trkpt lat="43.23658" lon="17.83234">
        <ele>76.178114</ele>
        <time>2022-06-12T10:42:09.099Z</time>
      </trkpt>
      <trkpt lat="43.23667" lon="17.8323">
        <ele>76.048488</ele>
        <time>2022-06-12T10:42:12.091Z</time>
      </trkpt>
      <trkpt lat="43.23677" lon="17.83226">
        <ele>75.913684</ele>
        <time>2022-06-12T10:42:15.101Z</time>
      </trkpt>
      <trkpt lat="43.23686" lon="17.83222">
        <ele>75.784057</ele>
        <time>2022-06-12T10:42:18.103Z</time>
      </trkpt>
      <trkpt lat="43.23697" lon="17.83218">
        <ele>75.634925</ele>
        <time>2022-06-12T10:42:22.100Z</time>
      </trkpt>
      <trkpt lat="43.23708" lon="17.83214">
        <ele>75.474464</ele>
        <time>2022-06-12T10:42:26.102Z</time>
      </trkpt>
      <trkpt lat="43.2372" lon="17.83215">
        <ele>75.320399</ele>
        <time>2022-06-12T10:42:30.108Z</time>
      </trkpt>
      <trkpt lat="43.23729" lon="17.83216">
        <ele>75.19461</ele>
        <time>2022-06-12T10:42:33.098Z</time>
      </trkpt>
      <trkpt lat="43.23738" lon="17.83218">
        <ele>75.068612</ele>
        <time>2022-06-12T10:42:36.095Z</time>
      </trkpt>
      <trkpt lat="43.23749" lon="17.83226">
        <ele>74.908713</ele>
        <time>2022-06-12T10:42:40.093Z</time>
      </trkpt>
      <trkpt lat="43.23757" lon="17.83234">
        <ele>74.771305</ele>
        <time>2022-06-12T10:42:43.133Z</time>
      </trkpt>
      <trkpt lat="43.23765" lon="17.83242">
        <ele>74.638849</ele>
        <time>2022-06-12T10:42:46.099Z</time>
      </trkpt>
      <trkpt lat="43.23772" lon="17.83251">
        <ele>74.507238</ele>
        <time>2022-06-12T10:42:52.084Z</time>
      </trkpt>
      <trkpt lat="43.23785" lon="17.83259">
        <ele>74.309659</ele>
        <time>2022-06-12T10:50:49.107Z</time>
      </trkpt>
      <trkpt lat="43.23796" lon="17.83255">
        <ele>74.372092</ele>
        <time>2022-06-12T10:50:54.111Z</time>
      </trkpt>
      <trkpt lat="43.23807" lon="17.83255">
        <ele>74.494639</ele>
        <time>2022-06-12T10:50:58.087Z</time>
      </trkpt>
      <trkpt lat="43.23818" lon="17.83256">
        <ele>74.605447</ele>
        <time>2022-06-12T10:51:02.134Z</time>
      </trkpt>
      <trkpt lat="43.23829" lon="17.83256">
        <ele>74.714574</ele>
        <time>2022-06-12T10:51:07.093Z</time>
      </trkpt>
      <trkpt lat="43.23839" lon="17.83259">
        <ele>74.818789</ele>
        <time>2022-06-12T10:51:11.121Z</time>
      </trkpt>
      <trkpt lat="43.23849" lon="17.8326">
        <ele>74.925951</ele>
        <time>2022-06-12T10:51:15.113Z</time>
      </trkpt>
      <trkpt lat="43.23859" lon="17.83261">
        <ele>75.026153</ele>
        <time>2022-06-12T10:51:19.150Z</time>
      </trkpt>
      <trkpt lat="43.23868" lon="17.8326">
        <ele>75.126115</ele>
        <time>2022-06-12T10:51:23.107Z</time>
      </trkpt>
      <trkpt lat="43.23878" lon="17.8326">
        <ele>75.224959</ele>
        <time>2022-06-12T10:51:29.112Z</time>
      </trkpt>
      <trkpt lat="43.23888" lon="17.83259">
        <ele>75.329394</ele>
        <time>2022-06-12T10:51:34.089Z</time>
      </trkpt>
      <trkpt lat="43.23898" lon="17.83255">
        <ele>75.438114</ele>
        <time>2022-06-12T10:51:39.095Z</time>
      </trkpt>
      <trkpt lat="43.2391" lon="17.83254">
        <ele>75.553895</ele>
        <time>2022-06-12T10:51:44.131Z</time>
      </trkpt>
      <trkpt lat="43.23919" lon="17.83253">
        <ele>75.650212</ele>
        <time>2022-06-12T10:51:48.114Z</time>
      </trkpt>
      <trkpt lat="43.23928" lon="17.83255">
        <ele>75.745755</ele>
        <time>2022-06-12T10:51:52.098Z</time>
      </trkpt>
      <trkpt lat="43.23939" lon="17.83258">
        <ele>75.863711</ele>
        <time>2022-06-12T10:51:56.095Z</time>
      </trkpt>
      <trkpt lat="43.23949" lon="17.8326">
        <ele>75.965501</ele>
        <time>2022-06-12T10:52:00.095Z</time>
      </trkpt>
      <trkpt lat="43.23958" lon="17.83262">
        <ele>76.061515</ele>
        <time>2022-06-12T10:52:04.134Z</time>
      </trkpt>
      <trkpt lat="43.23968" lon="17.83263">
        <ele>76.122708</ele>
        <time>2022-06-12T10:52:08.088Z</time>
      </trkpt>
      <trkpt lat="43.23979" lon="17.83263">
        <ele>76.074292</ele>
        <time>2022-06-12T10:52:12.098Z</time>
      </trkpt>
      <trkpt lat="43.23991" lon="17.83263">
        <ele>76.021805</ele>
        <time>2022-06-12T10:52:16.148Z</time>
      </trkpt>
      <trkpt lat="43.24002" lon="17.83262">
        <ele>75.970147</ele>
        <time>2022-06-12T10:52:20.104Z</time>
      </trkpt>
      <trkpt lat="43.24014" lon="17.83259">
        <ele>75.917027</ele>
        <time>2022-06-12T10:52:24.098Z</time>
      </trkpt>
      <trkpt lat="43.24025" lon="17.83256">
        <ele>75.863626</ele>
        <time>2022-06-12T10:52:28.109Z</time>
      </trkpt>
      <trkpt lat="43.24034" lon="17.83254">
        <ele>75.822827</ele>
        <time>2022-06-12T10:52:31.095Z</time>
      </trkpt>
      <trkpt lat="43.24044" lon="17.83251">
        <ele>75.778052</ele>
        <time>2022-06-12T10:52:34.085Z</time>
      </trkpt>
      <trkpt lat="43.24053" lon="17.83249">
        <ele>75.734606</ele>
        <time>2022-06-12T10:52:37.091Z</time>
      </trkpt>
      <trkpt lat="43.24063" lon="17.83246">
        <ele>75.690506</ele>
        <time>2022-06-12T10:52:40.112Z</time>
      </trkpt>
      <trkpt lat="43.24072" lon="17.83244">
        <ele>75.646921</ele>
        <time>2022-06-12T10:52:43.097Z</time>
      </trkpt>
      <trkpt lat="43.24082" lon="17.83241">
        <ele>75.602944</ele>
        <time>2022-06-12T10:52:46.104Z</time>
      </trkpt>
      <trkpt lat="43.24094" lon="17.83238">
        <ele>75.547319</ele>
        <time>2022-06-12T10:52:50.109Z</time>
      </trkpt>
      <trkpt lat="43.24104" lon="17.83236">
        <ele>75.502</ele>
        <time>2022-06-12T10:52:53.087Z</time>
      </trkpt>
      <trkpt lat="43.24114" lon="17.83235">
        <ele>75.45821</ele>
        <time>2022-06-12T10:52:56.100Z</time>
      </trkpt>
      <trkpt lat="43.24123" lon="17.83233">
        <ele>75.415178</ele>
        <time>2022-06-12T10:52:59.089Z</time>
      </trkpt>
      <trkpt lat="43.24133" lon="17.83231">
        <ele>75.368246</ele>
        <time>2022-06-12T10:53:02.105Z</time>
      </trkpt>
      <trkpt lat="43.24143" lon="17.8323">
        <ele>75.324736</ele>
        <time>2022-06-12T10:53:05.116Z</time>
      </trkpt>
      <trkpt lat="43.24153" lon="17.83229">
        <ele>75.498003</ele>
        <time>2022-06-12T10:53:08.092Z</time>
      </trkpt>
      <trkpt lat="43.24165" lon="17.83228">
        <ele>75.695906</ele>
        <time>2022-06-12T10:53:11.109Z</time>
      </trkpt>
      <trkpt lat="43.24177" lon="17.83227">
        <ele>75.910104</ele>
        <time>2022-06-12T10:53:14.128Z</time>
      </trkpt>
      <trkpt lat="43.24188" lon="17.83225">
        <ele>76.10673</ele>
        <time>2022-06-12T10:53:17.091Z</time>
      </trkpt>
      <trkpt lat="43.24198" lon="17.83224">
        <ele>76.281665</ele>
        <time>2022-06-12T10:53:20.101Z</time>
      </trkpt>
      <trkpt lat="43.24208" lon="17.83223">
        <ele>76.465878</ele>
        <time>2022-06-12T10:53:23.097Z</time>
      </trkpt>
      <trkpt lat="43.24219" lon="17.83222">
        <ele>76.655478</ele>
        <time>2022-06-12T10:53:26.095Z</time>
      </trkpt>
      <trkpt lat="43.24229" lon="17.83219">
        <ele>76.835507</ele>
        <time>2022-06-12T10:53:29.112Z</time>
      </trkpt>
      <trkpt lat="43.24238" lon="17.83215">
        <ele>77.013096</ele>
        <time>2022-06-12T10:53:32.094Z</time>
      </trkpt>
      <trkpt lat="43.24248" lon="17.8321">
        <ele>77.189751</ele>
        <time>2022-06-12T10:53:35.084Z</time>
      </trkpt>
      <trkpt lat="43.24256" lon="17.83203">
        <ele>77.357233</ele>
        <time>2022-06-12T10:53:38.093Z</time>
      </trkpt>
      <trkpt lat="43.24265" lon="17.83195">
        <ele>77.553007</ele>
        <time>2022-06-12T10:53:41.096Z</time>
      </trkpt>
      <trkpt lat="43.24275" lon="17.83186">
        <ele>77.755889</ele>
        <time>2022-06-12T10:53:44.126Z</time>
      </trkpt>
      <trkpt lat="43.24284" lon="17.83178">
        <ele>77.954443</ele>
        <time>2022-06-12T10:53:47.106Z</time>
      </trkpt>
      <trkpt lat="43.24294" lon="17.83169">
        <ele>78.153707</ele>
        <time>2022-06-12T10:53:50.148Z</time>
      </trkpt>
      <trkpt lat="43.24302" lon="17.83161">
        <ele>78.342783</ele>
        <time>2022-06-12T10:53:53.097Z</time>
      </trkpt>
      <trkpt lat="43.24312" lon="17.83153">
        <ele>78.572526</ele>
        <time>2022-06-12T10:53:56.145Z</time>
      </trkpt>
      <trkpt lat="43.24321" lon="17.83145">
        <ele>78.942182</ele>
        <time>2022-06-12T10:53:59.102Z</time>
      </trkpt>
      <trkpt lat="43.2433" lon="17.83136">
        <ele>79.331425</ele>
        <time>2022-06-12T10:54:02.104Z</time>
      </trkpt>
      <trkpt lat="43.2434" lon="17.83127">
        <ele>79.732209</ele>
        <time>2022-06-12T10:54:05.091Z</time>
      </trkpt>
      <trkpt lat="43.2435" lon="17.83119">
        <ele>80.125801</ele>
        <time>2022-06-12T10:54:08.099Z</time>
      </trkpt>
      <trkpt lat="43.2436" lon="17.83111">
        <ele>80.509596</ele>
        <time>2022-06-12T10:54:11.101Z</time>
      </trkpt>
      <trkpt lat="43.2437" lon="17.83103">
        <ele>80.914496</ele>
        <time>2022-06-12T10:54:14.112Z</time>
      </trkpt>
      <trkpt lat="43.24379" lon="17.83097">
        <ele>81.264563</ele>
        <time>2022-06-12T10:54:17.096Z</time>
      </trkpt>
      <trkpt lat="43.2439" lon="17.83092">
        <ele>81.631807</ele>
        <time>2022-06-12T10:54:20.095Z</time>
      </trkpt>
      <trkpt lat="43.244" lon="17.83086">
        <ele>82.021624</ele>
        <time>2022-06-12T10:54:23.115Z</time>
      </trkpt>
      <trkpt lat="43.2441" lon="17.83081">
        <ele>82.391174</ele>
        <time>2022-06-12T10:54:26.103Z</time>
      </trkpt>
      <trkpt lat="43.24421" lon="17.83076">
        <ele>82.764624</ele>
        <time>2022-06-12T10:54:29.098Z</time>
      </trkpt>
      <trkpt lat="43.2443" lon="17.83071">
        <ele>83.107595</ele>
        <time>2022-06-12T10:54:32.088Z</time>
      </trkpt>
      <trkpt lat="43.2444" lon="17.83068">
        <ele>83.440422</ele>
        <time>2022-06-12T10:54:35.134Z</time>
      </trkpt>
      <trkpt lat="43.2445" lon="17.83064">
        <ele>83.80683</ele>
        <time>2022-06-12T10:54:38.093Z</time>
      </trkpt>
      <trkpt lat="43.2446" lon="17.8306">
        <ele>84.142576</ele>
        <time>2022-06-12T10:54:41.132Z</time>
      </trkpt>
      <trkpt lat="43.2447" lon="17.83055">
        <ele>84.504784</ele>
        <time>2022-06-12T10:54:44.101Z</time>
      </trkpt>
      <trkpt lat="43.24481" lon="17.8305">
        <ele>84.329507</ele>
        <time>2022-06-12T10:54:48.092Z</time>
      </trkpt>
      <trkpt lat="43.24492" lon="17.83044">
        <ele>84.006929</ele>
        <time>2022-06-12T10:54:51.090Z</time>
      </trkpt>
      <trkpt lat="43.24502" lon="17.83038">
        <ele>83.673635</ele>
        <time>2022-06-12T10:54:54.109Z</time>
      </trkpt>
      <trkpt lat="43.24512" lon="17.83032">
        <ele>83.363796</ele>
        <time>2022-06-12T10:54:57.102Z</time>
      </trkpt>
      <trkpt lat="43.24522" lon="17.83027">
        <ele>83.051589</ele>
        <time>2022-06-12T10:55:00.101Z</time>
      </trkpt>
      <trkpt lat="43.24533" lon="17.83021">
        <ele>82.729407</ele>
        <time>2022-06-12T10:55:03.131Z</time>
      </trkpt>
      <trkpt lat="43.24542" lon="17.83016">
        <ele>82.430294</ele>
        <time>2022-06-12T10:55:06.103Z</time>
      </trkpt>
      <trkpt lat="43.24551" lon="17.83012">
        <ele>82.15586</ele>
        <time>2022-06-12T10:55:09.104Z</time>
      </trkpt>
      <trkpt lat="43.24561" lon="17.83006">
        <ele>81.851052</ele>
        <time>2022-06-12T10:55:12.101Z</time>
      </trkpt>
      <trkpt lat="43.2457" lon="17.83001">
        <ele>81.55512</ele>
        <time>2022-06-12T10:55:15.169Z</time>
      </trkpt>
      <trkpt lat="43.2458" lon="17.82997">
        <ele>81.26489</ele>
        <time>2022-06-12T10:55:18.101Z</time>
      </trkpt>
      <trkpt lat="43.2459" lon="17.82991">
        <ele>80.949665</ele>
        <time>2022-06-12T10:55:21.092Z</time>
      </trkpt>
      <trkpt lat="43.24601" lon="17.82985">
        <ele>80.613222</ele>
        <time>2022-06-12T10:55:24.103Z</time>
      </trkpt>
      <trkpt lat="43.2461" lon="17.8298">
        <ele>80.323465</ele>
        <time>2022-06-12T10:55:27.103Z</time>
      </trkpt>
      <trkpt lat="43.24619" lon="17.82975">
        <ele>80.040181</ele>
        <time>2022-06-12T10:55:30.088Z</time>
      </trkpt>
      <trkpt lat="43.24628" lon="17.8297">
        <ele>79.741883</ele>
        <time>2022-06-12T10:55:33.117Z</time>
      </trkpt>
      <trkpt lat="43.24638" lon="17.82965">
        <ele>79.446809</ele>
        <time>2022-06-12T10:55:36.109Z</time>
      </trkpt>
      <trkpt lat="43.24649" lon="17.82959">
        <ele>79.275222</ele>
        <time>2022-06-12T10:55:39.101Z</time>
      </trkpt>
      <trkpt lat="43.24661" lon="17.82952">
        <ele>79.129881</ele>
        <time>2022-06-12T10:55:42.104Z</time>
      </trkpt>
      <trkpt lat="43.24671" lon="17.82946">
        <ele>78.998982</ele>
        <time>2022-06-12T10:55:45.115Z</time>
      </trkpt>
      <trkpt lat="43.24681" lon="17.82941">
        <ele>78.875547</ele>
        <time>2022-06-12T10:55:48.093Z</time>
      </trkpt>
      <trkpt lat="43.24691" lon="17.82934">
        <ele>78.74918</ele>
        <time>2022-06-12T10:55:51.101Z</time>
      </trkpt>
      <trkpt lat="43.247" lon="17.82927">
        <ele>78.624009</ele>
        <time>2022-06-12T10:55:54.137Z</time>
      </trkpt>
      <trkpt lat="43.2471" lon="17.8292">
        <ele>78.494561</ele>
        <time>2022-06-12T10:55:57.117Z</time>
      </trkpt>
      <trkpt lat="43.2472" lon="17.82913">
        <ele>78.374109</ele>
        <time>2022-06-12T10:56:00.143Z</time>
      </trkpt>
      <trkpt lat="43.2473" lon="17.82906">
        <ele>78.244572</ele>
        <time>2022-06-12T10:56:03.108Z</time>
      </trkpt>
      <trkpt lat="43.24739" lon="17.829">
        <ele>78.122221</ele>
        <time>2022-06-12T10:56:06.110Z</time>
      </trkpt>
      <trkpt lat="43.24748" lon="17.82892">
        <ele>78.00355</ele>
        <time>2022-06-12T10:56:09.108Z</time>
      </trkpt>
      <trkpt lat="43.24756" lon="17.82883">
        <ele>77.879164</ele>
        <time>2022-06-12T10:56:12.097Z</time>
      </trkpt>
      <trkpt lat="43.24765" lon="17.82874">
        <ele>77.758795</ele>
        <time>2022-06-12T10:56:15.126Z</time>
      </trkpt>
      <trkpt lat="43.24774" lon="17.82864">
        <ele>77.626518</ele>
        <time>2022-06-12T10:56:18.077Z</time>
      </trkpt>
      <trkpt lat="43.24783" lon="17.82855">
        <ele>77.494365</ele>
        <time>2022-06-12T10:56:21.089Z</time>
      </trkpt>
      <trkpt lat="43.24791" lon="17.82846">
        <ele>77.37242</ele>
        <time>2022-06-12T10:56:24.105Z</time>
      </trkpt>
      <trkpt lat="43.24799" lon="17.82836">
        <ele>77.369241</ele>
        <time>2022-06-12T10:56:27.100Z</time>
      </trkpt>
      <trkpt lat="43.24808" lon="17.82827">
        <ele>77.475005</ele>
        <time>2022-06-12T10:56:30.112Z</time>
      </trkpt>
      <trkpt lat="43.24816" lon="17.82817">
        <ele>77.580904</ele>
        <time>2022-06-12T10:56:33.095Z</time>
      </trkpt>
      <trkpt lat="43.24825" lon="17.82808">
        <ele>77.687107</ele>
        <time>2022-06-12T10:56:36.095Z</time>
      </trkpt>
      <trkpt lat="43.24834" lon="17.82798">
        <ele>77.796128</ele>
        <time>2022-06-12T10:56:39.102Z</time>
      </trkpt>
      <trkpt lat="43.24842" lon="17.82789">
        <ele>77.899746</ele>
        <time>2022-06-12T10:56:42.085Z</time>
      </trkpt>
      <trkpt lat="43.24851" lon="17.8278">
        <ele>78.005833</ele>
        <time>2022-06-12T10:56:45.151Z</time>
      </trkpt>
      <trkpt lat="43.24859" lon="17.82771">
        <ele>78.106731</ele>
        <time>2022-06-12T10:56:48.108Z</time>
      </trkpt>
      <trkpt lat="43.24867" lon="17.82763">
        <ele>78.203209</ele>
        <time>2022-06-12T10:56:51.093Z</time>
      </trkpt>
      <trkpt lat="43.24876" lon="17.82754">
        <ele>78.304107</ele>
        <time>2022-06-12T10:56:54.124Z</time>
      </trkpt>
      <trkpt lat="43.24884" lon="17.82744">
        <ele>78.410626</ele>
        <time>2022-06-12T10:56:57.103Z</time>
      </trkpt>
      <trkpt lat="43.24893" lon="17.82735">
        <ele>78.519723</ele>
        <time>2022-06-12T10:57:00.096Z</time>
      </trkpt>
      <trkpt lat="43.24902" lon="17.82727">
        <ele>78.626031</ele>
        <time>2022-06-12T10:57:03.097Z</time>
      </trkpt>
      <trkpt lat="43.24914" lon="17.82717">
        <ele>78.752698</ele>
        <time>2022-06-12T10:57:06.119Z</time>
      </trkpt>
      <trkpt lat="43.24923" lon="17.82709">
        <ele>78.858841</ele>
        <time>2022-06-12T10:57:08.143Z</time>
      </trkpt>
      <trkpt lat="43.24932" lon="17.82701">
        <ele>78.961966</ele>
        <time>2022-06-12T10:57:10.094Z</time>
      </trkpt>
      <trkpt lat="43.24942" lon="17.82691">
        <ele>79.046625</ele>
        <time>2022-06-12T10:57:12.090Z</time>
      </trkpt>
      <trkpt lat="43.2495" lon="17.82683">
        <ele>79.051537</ele>
        <time>2022-06-12T10:57:14.133Z</time>
      </trkpt>
      <trkpt lat="43.2496" lon="17.82674">
        <ele>79.057772</ele>
        <time>2022-06-12T10:57:17.111Z</time>
      </trkpt>
      <trkpt lat="43.24968" lon="17.82667">
        <ele>79.062257</ele>
        <time>2022-06-12T10:57:20.144Z</time>
      </trkpt>
      <trkpt lat="43.24979" lon="17.82661">
        <ele>79.067858</ele>
        <time>2022-06-12T10:57:24.109Z</time>
      </trkpt>
      <trkpt lat="43.2499" lon="17.82654">
        <ele>79.073578</ele>
        <time>2022-06-12T10:57:28.102Z</time>
      </trkpt>
      <trkpt lat="43.25" lon="17.82647">
        <ele>79.079238</ele>
        <time>2022-06-12T10:57:32.108Z</time>
      </trkpt>
      <trkpt lat="43.25009" lon="17.8264">
        <ele>79.084107</ele>
        <time>2022-06-12T10:57:35.121Z</time>
      </trkpt>
      <trkpt lat="43.25018" lon="17.82634">
        <ele>79.08896</ele>
        <time>2022-06-12T10:57:38.107Z</time>
      </trkpt>
      <trkpt lat="43.25026" lon="17.82626">
        <ele>79.093912</ele>
        <time>2022-06-12T10:57:41.113Z</time>
      </trkpt>
      <trkpt lat="43.25035" lon="17.82619">
        <ele>79.098696</ele>
        <time>2022-06-12T10:57:44.105Z</time>
      </trkpt>
      <trkpt lat="43.25043" lon="17.82612">
        <ele>79.10335</ele>
        <time>2022-06-12T10:57:47.106Z</time>
      </trkpt>
      <trkpt lat="43.2505" lon="17.82604">
        <ele>79.107947</ele>
        <time>2022-06-12T10:57:50.098Z</time>
      </trkpt>
      <trkpt lat="43.25058" lon="17.82597">
        <ele>79.112497</ele>
        <time>2022-06-12T10:57:53.116Z</time>
      </trkpt>
      <trkpt lat="43.25065" lon="17.8259">
        <ele>79.117048</ele>
        <time>2022-06-12T10:57:56.104Z</time>
      </trkpt>
      <trkpt lat="43.25074" lon="17.82582">
        <ele>79.121859</ele>
        <time>2022-06-12T10:57:59.144Z</time>
      </trkpt>
      <trkpt lat="43.25082" lon="17.82575">
        <ele>79.126541</ele>
        <time>2022-06-12T10:58:02.096Z</time>
      </trkpt>
      <trkpt lat="43.25091" lon="17.82568">
        <ele>79.131638</ele>
        <time>2022-06-12T10:58:05.151Z</time>
      </trkpt>
      <trkpt lat="43.251" lon="17.8256">
        <ele>79.302221</ele>
        <time>2022-06-12T10:58:08.105Z</time>
      </trkpt>
      <trkpt lat="43.25109" lon="17.82553">
        <ele>79.494677</ele>
        <time>2022-06-12T10:58:11.133Z</time>
      </trkpt>
      <trkpt lat="43.25117" lon="17.82546">
        <ele>79.679569</ele>
        <time>2022-06-12T10:58:14.094Z</time>
      </trkpt>
      <trkpt lat="43.25125" lon="17.8254">
        <ele>79.858277</ele>
        <time>2022-06-12T10:58:17.103Z</time>
      </trkpt>
      <trkpt lat="43.25135" lon="17.82532">
        <ele>80.082413</ele>
        <time>2022-06-12T10:58:21.093Z</time>
      </trkpt>
      <trkpt lat="43.25144" lon="17.82526">
        <ele>80.277232</ele>
        <time>2022-06-12T10:58:25.101Z</time>
      </trkpt>
      <trkpt lat="43.25154" lon="17.82517">
        <ele>80.502603</ele>
        <time>2022-06-12T10:58:29.099Z</time>
      </trkpt>
      <trkpt lat="43.25163" lon="17.8251">
        <ele>80.706183</ele>
        <time>2022-06-12T10:58:32.094Z</time>
      </trkpt>
      <trkpt lat="43.25174" lon="17.82502">
        <ele>80.944807</ele>
        <time>2022-06-12T10:58:35.107Z</time>
      </trkpt>
      <trkpt lat="43.25183" lon="17.82494">
        <ele>81.147697</ele>
        <time>2022-06-12T10:58:37.083Z</time>
      </trkpt>
      <trkpt lat="43.25194" lon="17.82487">
        <ele>81.379562</ele>
        <time>2022-06-12T10:58:39.105Z</time>
      </trkpt>
      <trkpt lat="43.25203" lon="17.8248">
        <ele>81.586592</ele>
        <time>2022-06-12T10:58:41.100Z</time>
      </trkpt>
      <trkpt lat="43.25212" lon="17.82473">
        <ele>81.770286</ele>
        <time>2022-06-12T10:58:43.104Z</time>
      </trkpt>
      <trkpt lat="43.25221" lon="17.82467">
        <ele>81.965493</ele>
        <time>2022-06-12T10:58:47.094Z</time>
      </trkpt>
      <trkpt lat="43.2523" lon="17.8246">
        <ele>82.169534</ele>
        <time>2022-06-12T10:58:51.081Z</time>
      </trkpt>
      <trkpt lat="43.2524" lon="17.82452">
        <ele>82.394329</ele>
        <time>2022-06-12T10:58:55.117Z</time>
      </trkpt>
      <trkpt lat="43.2525" lon="17.82445">
        <ele>82.611073</ele>
        <time>2022-06-12T10:58:59.097Z</time>
      </trkpt>
      <trkpt lat="43.25258" lon="17.82439">
        <ele>82.913173</ele>
        <time>2022-06-12T10:59:02.136Z</time>
      </trkpt>
      <trkpt lat="43.25267" lon="17.82433">
        <ele>83.254336</ele>
        <time>2022-06-12T10:59:05.103Z</time>
      </trkpt>
      <trkpt lat="43.25276" lon="17.82427">
        <ele>83.580543</ele>
        <time>2022-06-12T10:59:08.096Z</time>
      </trkpt>
      <trkpt lat="43.25285" lon="17.82422">
        <ele>83.910501</ele>
        <time>2022-06-12T10:59:11.096Z</time>
      </trkpt>
      <trkpt lat="43.25293" lon="17.82417">
        <ele>84.217411</ele>
        <time>2022-06-12T10:59:14.105Z</time>
      </trkpt>
      <trkpt lat="43.25302" lon="17.82411">
        <ele>84.533196</ele>
        <time>2022-06-12T10:59:17.101Z</time>
      </trkpt>
      <trkpt lat="43.25311" lon="17.82406">
        <ele>84.881501</ele>
        <time>2022-06-12T10:59:20.104Z</time>
      </trkpt>
      <trkpt lat="43.25321" lon="17.824">
        <ele>85.244003</ele>
        <time>2022-06-12T10:59:23.101Z</time>
      </trkpt>
      <trkpt lat="43.25332" lon="17.82394">
        <ele>85.620702</ele>
        <time>2022-06-12T10:59:26.131Z</time>
      </trkpt>
      <trkpt lat="43.25342" lon="17.82388">
        <ele>85.97803</ele>
        <time>2022-06-12T10:59:29.105Z</time>
      </trkpt>
      <trkpt lat="43.25352" lon="17.82382">
        <ele>86.351514</ele>
        <time>2022-06-12T10:59:32.120Z</time>
      </trkpt>
      <trkpt lat="43.25362" lon="17.82377">
        <ele>86.719476</ele>
        <time>2022-06-12T10:59:35.138Z</time>
      </trkpt>
      <trkpt lat="43.25372" lon="17.82371">
        <ele>87.073748</ele>
        <time>2022-06-12T10:59:38.125Z</time>
      </trkpt>
      <trkpt lat="43.25381" lon="17.82365">
        <ele>87.407838</ele>
        <time>2022-06-12T10:59:41.094Z</time>
      </trkpt>
      <trkpt lat="43.2539" lon="17.82359">
        <ele>87.727672</ele>
        <time>2022-06-12T10:59:44.113Z</time>
      </trkpt>
      <trkpt lat="43.25398" lon="17.82354">
        <ele>88.048557</ele>
        <time>2022-06-12T10:59:47.096Z</time>
      </trkpt>
      <trkpt lat="43.25408" lon="17.82349">
        <ele>88.390725</ele>
        <time>2022-06-12T10:59:50.105Z</time>
      </trkpt>
      <trkpt lat="43.25416" lon="17.82343">
        <ele>88.48358</ele>
        <time>2022-06-12T10:59:53.096Z</time>
      </trkpt>
      <trkpt lat="43.25425" lon="17.82339">
        <ele>88.163678</ele>
        <time>2022-06-12T10:59:56.103Z</time>
      </trkpt>
      <trkpt lat="43.25434" lon="17.82334">
        <ele>87.820272</ele>
        <time>2022-06-12T10:59:59.106Z</time>
      </trkpt>
      <trkpt lat="43.25444" lon="17.8233">
        <ele>87.451855</ele>
        <time>2022-06-12T11:00:02.100Z</time>
      </trkpt>
      <trkpt lat="43.25454" lon="17.82327">
        <ele>87.112646</ele>
        <time>2022-06-12T11:00:05.114Z</time>
      </trkpt>
      <trkpt lat="43.25463" lon="17.82324">
        <ele>86.76893</ele>
        <time>2022-06-12T11:00:08.112Z</time>
      </trkpt>
      <trkpt lat="43.25473" lon="17.82322">
        <ele>86.417966</ele>
        <time>2022-06-12T11:00:11.133Z</time>
      </trkpt>
      <trkpt lat="43.25484" lon="17.8232">
        <ele>86.026794</ele>
        <time>2022-06-12T11:00:14.101Z</time>
      </trkpt>
      <trkpt lat="43.25497" lon="17.82318">
        <ele>85.592437</ele>
        <time>2022-06-12T11:00:17.105Z</time>
      </trkpt>
      <trkpt lat="43.25507" lon="17.8232">
        <ele>85.233732</ele>
        <time>2022-06-12T11:00:20.109Z</time>
      </trkpt>
      <trkpt lat="43.25518" lon="17.82323">
        <ele>84.825541</ele>
        <time>2022-06-12T11:00:23.096Z</time>
      </trkpt>
      <trkpt lat="43.25529" lon="17.82327">
        <ele>84.435682</ele>
        <time>2022-06-12T11:00:27.089Z</time>
      </trkpt>
      <trkpt lat="43.25539" lon="17.82329">
        <ele>84.088155</ele>
        <time>2022-06-12T11:00:30.103Z</time>
      </trkpt>
      <trkpt lat="43.2555" lon="17.82333">
        <ele>83.708707</ele>
        <time>2022-06-12T11:00:33.111Z</time>
      </trkpt>
      <trkpt lat="43.25564" lon="17.82336">
        <ele>83.186024</ele>
        <time>2022-06-12T11:00:36.103Z</time>
      </trkpt>
      <trkpt lat="43.25574" lon="17.82338">
        <ele>82.845778</ele>
        <time>2022-06-12T11:00:38.098Z</time>
      </trkpt>
      <trkpt lat="43.25584" lon="17.8234">
        <ele>82.484917</ele>
        <time>2022-06-12T11:00:40.102Z</time>
      </trkpt>
      <trkpt lat="43.25594" lon="17.82344">
        <ele>82.269465</ele>
        <time>2022-06-12T11:00:42.098Z</time>
      </trkpt>
      <trkpt lat="43.25603" lon="17.82348">
        <ele>82.17992</ele>
        <time>2022-06-12T11:00:44.106Z</time>
      </trkpt>
      <trkpt lat="43.25616" lon="17.82351">
        <ele>82.064074</ele>
        <time>2022-06-12T11:00:47.113Z</time>
      </trkpt>
      <trkpt lat="43.25627" lon="17.82354">
        <ele>81.965585</ele>
        <time>2022-06-12T11:00:50.101Z</time>
      </trkpt>
      <trkpt lat="43.25638" lon="17.82355">
        <ele>81.865903</ele>
        <time>2022-06-12T11:00:53.106Z</time>
      </trkpt>
      <trkpt lat="43.25649" lon="17.82357">
        <ele>81.765391</ele>
        <time>2022-06-12T11:00:56.153Z</time>
      </trkpt>
      <trkpt lat="43.25661" lon="17.82358">
        <ele>81.659662</ele>
        <time>2022-06-12T11:00:59.098Z</time>
      </trkpt>
      <trkpt lat="43.25671" lon="17.82359">
        <ele>81.569078</ele>
        <time>2022-06-12T11:01:02.103Z</time>
      </trkpt>
      <trkpt lat="43.25681" lon="17.82361">
        <ele>81.473231</ele>
        <time>2022-06-12T11:01:05.110Z</time>
      </trkpt>
      <trkpt lat="43.25692" lon="17.82361">
        <ele>81.380354</ele>
        <time>2022-06-12T11:01:08.118Z</time>
      </trkpt>
      <trkpt lat="43.25702" lon="17.82361">
        <ele>81.283009</ele>
        <time>2022-06-12T11:01:11.105Z</time>
      </trkpt>
      <trkpt lat="43.25713" lon="17.82361">
        <ele>81.189286</ele>
        <time>2022-06-12T11:01:14.105Z</time>
      </trkpt>
      <trkpt lat="43.25723" lon="17.82361">
        <ele>81.100062</ele>
        <time>2022-06-12T11:01:17.097Z</time>
      </trkpt>
      <trkpt lat="43.25732" lon="17.82361">
        <ele>81.014411</ele>
        <time>2022-06-12T11:01:20.097Z</time>
      </trkpt>
      <trkpt lat="43.25742" lon="17.8236">
        <ele>80.925078</ele>
        <time>2022-06-12T11:01:23.099Z</time>
      </trkpt>
      <trkpt lat="43.25752" lon="17.8236">
        <ele>80.832259</ele>
        <time>2022-06-12T11:01:26.097Z</time>
      </trkpt>
      <trkpt lat="43.25763" lon="17.82359">
        <ele>80.738456</ele>
        <time>2022-06-12T11:01:29.105Z</time>
      </trkpt>
      <trkpt lat="43.25772" lon="17.82359">
        <ele>80.718028</ele>
        <time>2022-06-12T11:01:32.105Z</time>
      </trkpt>
      <trkpt lat="43.25784" lon="17.82358">
        <ele>80.768801</ele>
        <time>2022-06-12T11:01:35.149Z</time>
      </trkpt>
      <trkpt lat="43.25795" lon="17.82358">
        <ele>80.819138</ele>
        <time>2022-06-12T11:01:38.094Z</time>
      </trkpt>
      <trkpt lat="43.25806" lon="17.82357">
        <ele>80.864665</ele>
        <time>2022-06-12T11:01:41.095Z</time>
      </trkpt>
      <trkpt lat="43.25816" lon="17.82357">
        <ele>80.909766</ele>
        <time>2022-06-12T11:01:44.112Z</time>
      </trkpt>
      <trkpt lat="43.25826" lon="17.82357">
        <ele>80.953083</ele>
        <time>2022-06-12T11:01:47.108Z</time>
      </trkpt>
      <trkpt lat="43.25836" lon="17.82357">
        <ele>80.996413</ele>
        <time>2022-06-12T11:01:50.096Z</time>
      </trkpt>
      <trkpt lat="43.25847" lon="17.82358">
        <ele>81.042919</ele>
        <time>2022-06-12T11:01:53.107Z</time>
      </trkpt>
      <trkpt lat="43.25858" lon="17.82361">
        <ele>81.095106</ele>
        <time>2022-06-12T11:01:56.097Z</time>
      </trkpt>
      <trkpt lat="43.2587" lon="17.82364">
        <ele>81.147854</ele>
        <time>2022-06-12T11:01:59.099Z</time>
      </trkpt>
      <trkpt lat="43.25882" lon="17.82367">
        <ele>81.200355</ele>
        <time>2022-06-12T11:02:02.095Z</time>
      </trkpt>
      <trkpt lat="43.25893" lon="17.8237">
        <ele>81.250469</ele>
        <time>2022-06-12T11:02:05.133Z</time>
      </trkpt>
      <trkpt lat="43.25904" lon="17.82374">
        <ele>81.299166</ele>
        <time>2022-06-12T11:02:08.148Z</time>
      </trkpt>
      <trkpt lat="43.25915" lon="17.82379">
        <ele>81.349566</ele>
        <time>2022-06-12T11:02:11.108Z</time>
      </trkpt>
      <trkpt lat="43.25926" lon="17.82381">
        <ele>81.400408</ele>
        <time>2022-06-12T11:02:14.130Z</time>
      </trkpt>
      <trkpt lat="43.25938" lon="17.82382">
        <ele>81.45051</ele>
        <time>2022-06-12T11:02:17.098Z</time>
      </trkpt>
      <trkpt lat="43.25949" lon="17.82384">
        <ele>81.464341</ele>
        <time>2022-06-12T11:02:20.100Z</time>
      </trkpt>
      <trkpt lat="43.25959" lon="17.82385">
        <ele>81.407849</ele>
        <time>2022-06-12T11:02:23.104Z</time>
      </trkpt>
      <trkpt lat="43.25969" lon="17.82387">
        <ele>81.350584</ele>
        <time>2022-06-12T11:02:26.093Z</time>
      </trkpt>
      <trkpt lat="43.25979" lon="17.82389">
        <ele>81.293156</ele>
        <time>2022-06-12T11:02:29.108Z</time>
      </trkpt>
      <trkpt lat="43.2599" lon="17.82392">
        <ele>81.232004</ele>
        <time>2022-06-12T11:02:32.103Z</time>
      </trkpt>
      <trkpt lat="43.26" lon="17.82395">
        <ele>81.172527</ele>
        <time>2022-06-12T11:02:35.106Z</time>
      </trkpt>
      <trkpt lat="43.2601" lon="17.82399">
        <ele>81.114451</ele>
        <time>2022-06-12T11:02:38.096Z</time>
      </trkpt>
      <trkpt lat="43.26019" lon="17.82404">
        <ele>81.056522</ele>
        <time>2022-06-12T11:02:41.093Z</time>
      </trkpt>
      <trkpt lat="43.26029" lon="17.8241">
        <ele>80.997771</ele>
        <time>2022-06-12T11:02:44.106Z</time>
      </trkpt>
      <trkpt lat="43.26037" lon="17.82414">
        <ele>80.947028</ele>
        <time>2022-06-12T11:02:47.124Z</time>
      </trkpt>
      <trkpt lat="43.26047" lon="17.82418">
        <ele>80.889066</ele>
        <time>2022-06-12T11:02:50.094Z</time>
      </trkpt>
      <trkpt lat="43.26056" lon="17.82421">
        <ele>80.837939</ele>
        <time>2022-06-12T11:02:53.124Z</time>
      </trkpt>
      <trkpt lat="43.26065" lon="17.82424">
        <ele>80.785272</ele>
        <time>2022-06-12T11:02:56.111Z</time>
      </trkpt>
      <trkpt lat="43.26076" lon="17.82427">
        <ele>80.72538</ele>
        <time>2022-06-12T11:02:59.101Z</time>
      </trkpt>
      <trkpt lat="43.26086" lon="17.8243">
        <ele>80.664633</ele>
        <time>2022-06-12T11:03:02.112Z</time>
      </trkpt>
      <trkpt lat="43.26097" lon="17.82432">
        <ele>80.603127</ele>
        <time>2022-06-12T11:03:05.103Z</time>
      </trkpt>
      <trkpt lat="43.26108" lon="17.82434">
        <ele>80.539238</ele>
        <time>2022-06-12T11:03:08.102Z</time>
      </trkpt>
      <trkpt lat="43.26119" lon="17.82435">
        <ele>80.477284</ele>
        <time>2022-06-12T11:03:11.102Z</time>
      </trkpt>
      <trkpt lat="43.2613" lon="17.82436">
        <ele>80.518503</ele>
        <time>2022-06-12T11:03:14.112Z</time>
      </trkpt>
      <trkpt lat="43.2614" lon="17.82437">
        <ele>80.57484</ele>
        <time>2022-06-12T11:03:17.102Z</time>
      </trkpt>
      <trkpt lat="43.26152" lon="17.82438">
        <ele>80.632562</ele>
        <time>2022-06-12T11:03:20.081Z</time>
      </trkpt>
      <trkpt lat="43.26163" lon="17.82439">
        <ele>80.690367</ele>
        <time>2022-06-12T11:03:23.111Z</time>
      </trkpt>
      <trkpt lat="43.26173" lon="17.8244">
        <ele>80.744985</ele>
        <time>2022-06-12T11:03:26.099Z</time>
      </trkpt>
      <trkpt lat="43.26184" lon="17.82441">
        <ele>80.798629</ele>
        <time>2022-06-12T11:03:29.104Z</time>
      </trkpt>
      <trkpt lat="43.26194" lon="17.82443">
        <ele>80.852449</ele>
        <time>2022-06-12T11:03:32.116Z</time>
      </trkpt>
      <trkpt lat="43.26205" lon="17.82444">
        <ele>80.907631</ele>
        <time>2022-06-12T11:03:35.105Z</time>
      </trkpt>
      <trkpt lat="43.26215" lon="17.82445">
        <ele>80.961373</ele>
        <time>2022-06-12T11:03:38.096Z</time>
      </trkpt>
      <trkpt lat="43.26226" lon="17.82446">
        <ele>81.013963</ele>
        <time>2022-06-12T11:03:41.102Z</time>
      </trkpt>
      <trkpt lat="43.26236" lon="17.82448">
        <ele>81.067783</ele>
        <time>2022-06-12T11:03:44.108Z</time>
      </trkpt>
      <trkpt lat="43.26246" lon="17.82449">
        <ele>81.119835</ele>
        <time>2022-06-12T11:03:47.095Z</time>
      </trkpt>
      <trkpt lat="43.26257" lon="17.8245">
        <ele>81.173899</ele>
        <time>2022-06-12T11:03:50.097Z</time>
      </trkpt>
      <trkpt lat="43.26267" lon="17.8245">
        <ele>81.226441</ele>
        <time>2022-06-12T11:03:53.145Z</time>
      </trkpt>
      <trkpt lat="43.26276" lon="17.82451">
        <ele>81.275441</ele>
        <time>2022-06-12T11:03:56.087Z</time>
      </trkpt>
      <trkpt lat="43.26286" lon="17.82452">
        <ele>81.326957</ele>
        <time>2022-06-12T11:03:59.098Z</time>
      </trkpt>
      <trkpt lat="43.26296" lon="17.82453">
        <ele>81.379009</ele>
        <time>2022-06-12T11:04:02.097Z</time>
      </trkpt>
      <trkpt lat="43.26306" lon="17.82455">
        <ele>81.415564</ele>
        <time>2022-06-12T11:04:05.115Z</time>
      </trkpt>
      <trkpt lat="43.26316" lon="17.82456">
        <ele>81.44657</ele>
        <time>2022-06-12T11:04:08.106Z</time>
      </trkpt>
      <trkpt lat="43.26326" lon="17.82457">
        <ele>81.478137</ele>
        <time>2022-06-12T11:04:11.095Z</time>
      </trkpt>
      <trkpt lat="43.26335" lon="17.82459">
        <ele>81.508329</ele>
        <time>2022-06-12T11:04:14.113Z</time>
      </trkpt>
      <trkpt lat="43.26345" lon="17.82459">
        <ele>81.540828</ele>
        <time>2022-06-12T11:04:17.108Z</time>
      </trkpt>
      <trkpt lat="43.26356" lon="17.82461">
        <ele>81.575307</ele>
        <time>2022-06-12T11:04:20.096Z</time>
      </trkpt>
      <trkpt lat="43.26367" lon="17.82462">
        <ele>81.608239</ele>
        <time>2022-06-12T11:04:23.110Z</time>
      </trkpt>
      <trkpt lat="43.26376" lon="17.82463">
        <ele>81.637322</ele>
        <time>2022-06-12T11:04:26.148Z</time>
      </trkpt>
      <trkpt lat="43.26385" lon="17.82464">
        <ele>81.667597</ele>
        <time>2022-06-12T11:04:29.092Z</time>
      </trkpt>
      <trkpt lat="43.26395" lon="17.82464">
        <ele>81.698536</ele>
        <time>2022-06-12T11:04:32.084Z</time>
      </trkpt>
      <trkpt lat="43.26405" lon="17.82466">
        <ele>81.730465</ele>
        <time>2022-06-12T11:04:35.122Z</time>
      </trkpt>
      <trkpt lat="43.26415" lon="17.82466">
        <ele>81.762361</ele>
        <time>2022-06-12T11:04:38.131Z</time>
      </trkpt>
      <trkpt lat="43.26426" lon="17.82467">
        <ele>81.794872</ele>
        <time>2022-06-12T11:04:41.097Z</time>
      </trkpt>
      <trkpt lat="43.26436" lon="17.82469">
        <ele>81.827782</ele>
        <time>2022-06-12T11:04:44.131Z</time>
      </trkpt>
      <trkpt lat="43.26447" lon="17.82469">
        <ele>81.863096</ele>
        <time>2022-06-12T11:04:47.103Z</time>
      </trkpt>
      <trkpt lat="43.26458" lon="17.82469">
        <ele>81.897143</ele>
        <time>2022-06-12T11:04:50.104Z</time>
      </trkpt>
      <trkpt lat="43.26469" lon="17.82465">
        <ele>81.93227</ele>
        <time>2022-06-12T11:04:53.104Z</time>
      </trkpt>
      <trkpt lat="43.26478" lon="17.82459">
        <ele>81.966323</ele>
        <time>2022-06-12T11:04:56.090Z</time>
      </trkpt>
      <trkpt lat="43.26486" lon="17.82449">
        <ele>82.031991</ele>
        <time>2022-06-12T11:04:59.094Z</time>
      </trkpt>
      <trkpt lat="43.2649" lon="17.82436">
        <ele>82.093998</ele>
        <time>2022-06-12T11:05:02.110Z</time>
      </trkpt>
      <trkpt lat="43.26492" lon="17.82424">
        <ele>82.151424</ele>
        <time>2022-06-12T11:05:05.111Z</time>
      </trkpt>
      <trkpt lat="43.26493" lon="17.8241">
        <ele>82.213931</ele>
        <time>2022-06-12T11:05:09.092Z</time>
      </trkpt>
      <trkpt lat="43.26494" lon="17.82398">
        <ele>82.271023</ele>
        <time>2022-06-12T11:05:13.166Z</time>
      </trkpt>
      <trkpt lat="43.26495" lon="17.82385">
        <ele>82.329403</ele>
        <time>2022-06-12T11:05:17.097Z</time>
      </trkpt>
      <trkpt lat="43.26495" lon="17.8237">
        <ele>82.396819</ele>
        <time>2022-06-12T11:05:21.105Z</time>
      </trkpt>
      <trkpt lat="43.26495" lon="17.82354">
        <ele>82.469618</ele>
        <time>2022-06-12T11:05:25.156Z</time>
      </trkpt>
      <trkpt lat="43.26497" lon="17.82341">
        <ele>82.526558</ele>
        <time>2022-06-12T11:05:28.110Z</time>
      </trkpt>
      <trkpt lat="43.26506" lon="17.82334">
        <ele>82.59216</ele>
        <time>2022-06-12T11:05:33.092Z</time>
      </trkpt>
      <trkpt lat="43.26516" lon="17.82333">
        <ele>82.655766</ele>
        <time>2022-06-12T11:05:35.114Z</time>
      </trkpt>
      <trkpt lat="43.26527" lon="17.82331">
        <ele>82.727584</ele>
        <time>2022-06-12T11:05:38.089Z</time>
      </trkpt>
      <trkpt lat="43.26537" lon="17.8233">
        <ele>82.786657</ele>
        <time>2022-06-12T11:05:41.097Z</time>
      </trkpt>
      <trkpt lat="43.26547" lon="17.82329">
        <ele>82.847883</ele>
        <time>2022-06-12T11:05:44.112Z</time>
      </trkpt>
      <trkpt lat="43.26556" lon="17.82328">
        <ele>82.90708</ele>
        <time>2022-06-12T11:05:47.136Z</time>
      </trkpt>
      <trkpt lat="43.26566" lon="17.82326">
        <ele>82.968924</ele>
        <time>2022-06-12T11:05:50.109Z</time>
      </trkpt>
      <trkpt lat="43.26578" lon="17.82325">
        <ele>83.039801</ele>
        <time>2022-06-12T11:05:54.107Z</time>
      </trkpt>
      <trkpt lat="43.26587" lon="17.82325">
        <ele>83.098172</ele>
        <time>2022-06-12T11:05:57.108Z</time>
      </trkpt>
      <trkpt lat="43.26597" lon="17.82324">
        <ele>83.15268</ele>
        <time>2022-06-12T11:06:00.098Z</time>
      </trkpt>
      <trkpt lat="43.26607" lon="17.82324">
        <ele>83.211177</ele>
        <time>2022-06-12T11:06:03.097Z</time>
      </trkpt>
      <trkpt lat="43.26617" lon="17.82324">
        <ele>83.266795</ele>
        <time>2022-06-12T11:06:06.110Z</time>
      </trkpt>
      <trkpt lat="43.26629" lon="17.82323">
        <ele>83.330887</ele>
        <time>2022-06-12T11:06:10.108Z</time>
      </trkpt>
      <trkpt lat="43.26639" lon="17.82322">
        <ele>83.390551</ele>
        <time>2022-06-12T11:06:14.121Z</time>
      </trkpt>
      <trkpt lat="43.2665" lon="17.82321">
        <ele>83.451924</ele>
        <time>2022-06-12T11:06:18.124Z</time>
      </trkpt>
      <trkpt lat="43.2666" lon="17.82321">
        <ele>83.50698</ele>
        <time>2022-06-12T11:06:21.098Z</time>
      </trkpt>
      <trkpt lat="43.2667" lon="17.82321">
        <ele>83.562042</ele>
        <time>2022-06-12T11:06:24.089Z</time>
      </trkpt>
      <trkpt lat="43.26681" lon="17.82319">
        <ele>83.62828</ele>
        <time>2022-06-12T11:06:28.099Z</time>
      </trkpt>
      <trkpt lat="43.26691" lon="17.82319">
        <ele>83.682268</ele>
        <time>2022-06-12T11:06:33.101Z</time>
      </trkpt>
      <trkpt lat="43.26701" lon="17.82321">
        <ele>83.736854</ele>
        <time>2022-06-12T11:06:37.134Z</time>
      </trkpt>
      <trkpt lat="43.26711" lon="17.82321">
        <ele>83.796417</ele>
        <time>2022-06-12T11:06:41.107Z</time>
      </trkpt>
      <trkpt lat="43.2672" lon="17.82321">
        <ele>83.848722</ele>
        <time>2022-06-12T11:06:44.093Z</time>
      </trkpt>
      <trkpt lat="43.26731" lon="17.8232">
        <ele>83.908903</ele>
        <time>2022-06-12T11:06:47.095Z</time>
      </trkpt>
      <trkpt lat="43.26741" lon="17.8232">
        <ele>83.966212</ele>
        <time>2022-06-12T11:06:50.105Z</time>
      </trkpt>
      <trkpt lat="43.26751" lon="17.82319">
        <ele>84.020745</ele>
        <time>2022-06-12T11:06:53.122Z</time>
      </trkpt>
      <trkpt lat="43.2676" lon="17.82319">
        <ele>84.073032</ele>
        <time>2022-06-12T11:06:56.099Z</time>
      </trkpt>
      <trkpt lat="43.2677" lon="17.82318">
        <ele>84.08474</ele>
        <time>2022-06-12T11:06:59.137Z</time>
      </trkpt>
      <trkpt lat="43.26779" lon="17.82318">
        <ele>84.076859</ele>
        <time>2022-06-12T11:07:02.097Z</time>
      </trkpt>
      <trkpt lat="43.26789" lon="17.82317">
        <ele>84.068797</ele>
        <time>2022-06-12T11:07:05.105Z</time>
      </trkpt>
      <trkpt lat="43.26798" lon="17.82316">
        <ele>84.061004</ele>
        <time>2022-06-12T11:07:08.103Z</time>
      </trkpt>
      <trkpt lat="43.26807" lon="17.82316">
        <ele>84.053133</ele>
        <time>2022-06-12T11:07:11.094Z</time>
      </trkpt>
      <trkpt lat="43.26816" lon="17.82316">
        <ele>84.045433</ele>
        <time>2022-06-12T11:07:14.106Z</time>
      </trkpt>
      <trkpt lat="43.26826" lon="17.82315">
        <ele>84.037475</ele>
        <time>2022-06-12T11:07:17.093Z</time>
      </trkpt>
      <trkpt lat="43.26835" lon="17.82315">
        <ele>84.029513</ele>
        <time>2022-06-12T11:07:20.097Z</time>
      </trkpt>
      <trkpt lat="43.26845" lon="17.82314">
        <ele>84.020796</ele>
        <time>2022-06-12T11:07:23.137Z</time>
      </trkpt>
      <trkpt lat="43.26856" lon="17.82314">
        <ele>84.01216</ele>
        <time>2022-06-12T11:07:26.099Z</time>
      </trkpt>
      <trkpt lat="43.26866" lon="17.82313">
        <ele>84.003695</ele>
        <time>2022-06-12T11:07:29.105Z</time>
      </trkpt>
      <trkpt lat="43.26875" lon="17.82313">
        <ele>83.995651</ele>
        <time>2022-06-12T11:07:32.104Z</time>
      </trkpt>
      <trkpt lat="43.26884" lon="17.82313">
        <ele>83.98795</ele>
        <time>2022-06-12T11:07:35.163Z</time>
      </trkpt>
      <trkpt lat="43.26896" lon="17.82312">
        <ele>83.978218</ele>
        <time>2022-06-12T11:07:39.095Z</time>
      </trkpt>
      <trkpt lat="43.26906" lon="17.82312">
        <ele>83.969499</ele>
        <time>2022-06-12T11:07:42.090Z</time>
      </trkpt>
      <trkpt lat="43.26916" lon="17.82311">
        <ele>83.961199</ele>
        <time>2022-06-12T11:07:45.120Z</time>
      </trkpt>
      <trkpt lat="43.26926" lon="17.82311">
        <ele>83.952566</ele>
        <time>2022-06-12T11:07:48.099Z</time>
      </trkpt>
      <trkpt lat="43.26936" lon="17.82311">
        <ele>83.94393</ele>
        <time>2022-06-12T11:07:51.131Z</time>
      </trkpt>
      <trkpt lat="43.26947" lon="17.8231">
        <ele>83.93809</ele>
        <time>2022-06-12T11:07:54.087Z</time>
      </trkpt>
      <trkpt lat="43.26957" lon="17.8231">
        <ele>83.938333</ele>
        <time>2022-06-12T11:07:57.146Z</time>
      </trkpt>
      <trkpt lat="43.26966" lon="17.82309">
        <ele>83.938568</ele>
        <time>2022-06-12T11:08:00.107Z</time>
      </trkpt>
      <trkpt lat="43.26976" lon="17.82308">
        <ele>83.938805</ele>
        <time>2022-06-12T11:08:03.102Z</time>
      </trkpt>
      <trkpt lat="43.26986" lon="17.82308">
        <ele>83.939048</ele>
        <time>2022-06-12T11:08:06.106Z</time>
      </trkpt>
      <trkpt lat="43.26996" lon="17.82307">
        <ele>83.939288</ele>
        <time>2022-06-12T11:08:09.105Z</time>
      </trkpt>
      <trkpt lat="43.27005" lon="17.82307">
        <ele>83.939527</ele>
        <time>2022-06-12T11:08:12.093Z</time>
      </trkpt>
      <trkpt lat="43.27015" lon="17.82307">
        <ele>83.939763</ele>
        <time>2022-06-12T11:08:15.104Z</time>
      </trkpt>
      <trkpt lat="43.27025" lon="17.82306">
        <ele>83.939997</ele>
        <time>2022-06-12T11:08:18.098Z</time>
      </trkpt>
      <trkpt lat="43.27034" lon="17.82306">
        <ele>83.940232</ele>
        <time>2022-06-12T11:08:21.104Z</time>
      </trkpt>
      <trkpt lat="43.27045" lon="17.82305">
        <ele>83.94048</ele>
        <time>2022-06-12T11:08:24.095Z</time>
      </trkpt>
      <trkpt lat="43.27054" lon="17.82305">
        <ele>83.940717</ele>
        <time>2022-06-12T11:08:27.104Z</time>
      </trkpt>
      <trkpt lat="43.27064" lon="17.82305">
        <ele>83.940954</ele>
        <time>2022-06-12T11:08:30.136Z</time>
      </trkpt>
      <trkpt lat="43.27074" lon="17.82304">
        <ele>83.94119</ele>
        <time>2022-06-12T11:08:33.117Z</time>
      </trkpt>
      <trkpt lat="43.27083" lon="17.82304">
        <ele>83.941419</ele>
        <time>2022-06-12T11:08:36.114Z</time>
      </trkpt>
      <trkpt lat="43.27092" lon="17.82304">
        <ele>83.941644</ele>
        <time>2022-06-12T11:08:39.112Z</time>
      </trkpt>
      <trkpt lat="43.27101" lon="17.82303">
        <ele>83.941866</ele>
        <time>2022-06-12T11:08:42.103Z</time>
      </trkpt>
      <trkpt lat="43.27113" lon="17.82305">
        <ele>83.942151</ele>
        <time>2022-06-12T11:08:46.087Z</time>
      </trkpt>
      <trkpt lat="43.27121" lon="17.82316">
        <ele>83.947785</ele>
        <time>2022-06-12T11:08:50.164Z</time>
      </trkpt>
      <trkpt lat="43.27126" lon="17.82328">
        <ele>83.986004</ele>
        <time>2022-06-12T11:08:53.103Z</time>
      </trkpt>
      <trkpt lat="43.27129" lon="17.82343">
        <ele>84.031506</ele>
        <time>2022-06-12T11:08:57.097Z</time>
      </trkpt>
      <trkpt lat="43.27133" lon="17.82355">
        <ele>84.068134</ele>
        <time>2022-06-12T11:09:00.105Z</time>
      </trkpt>
      <trkpt lat="43.27137" lon="17.82367">
        <ele>84.10536</ele>
        <time>2022-06-12T11:09:03.111Z</time>
      </trkpt>
      <trkpt lat="43.2714" lon="17.8238">
        <ele>84.143467</ele>
        <time>2022-06-12T11:09:06.100Z</time>
      </trkpt>
      <trkpt lat="43.27145" lon="17.82395">
        <ele>84.190747</ele>
        <time>2022-06-12T11:09:10.098Z</time>
      </trkpt>
      <trkpt lat="43.2715" lon="17.8241">
        <ele>84.236049</ele>
        <time>2022-06-12T11:09:13.100Z</time>
      </trkpt>
      <trkpt lat="43.27155" lon="17.82423">
        <ele>84.278158</ele>
        <time>2022-06-12T11:09:16.108Z</time>
      </trkpt>
      <trkpt lat="43.27161" lon="17.82437">
        <ele>84.321432</ele>
        <time>2022-06-12T11:09:19.094Z</time>
      </trkpt>
      <trkpt lat="43.27166" lon="17.82449">
        <ele>84.363201</ele>
        <time>2022-06-12T11:09:22.097Z</time>
      </trkpt>
      <trkpt lat="43.27171" lon="17.82461">
        <ele>84.400323</ele>
        <time>2022-06-12T11:09:25.101Z</time>
      </trkpt>
      <trkpt lat="43.27175" lon="17.82473">
        <ele>84.437482</ele>
        <time>2022-06-12T11:09:28.097Z</time>
      </trkpt>
      <trkpt lat="43.2718" lon="17.82484">
        <ele>84.475136</ele>
        <time>2022-06-12T11:09:31.107Z</time>
      </trkpt>
      <trkpt lat="43.27185" lon="17.82495">
        <ele>84.511414</ele>
        <time>2022-06-12T11:09:34.085Z</time>
      </trkpt>
      <trkpt lat="43.2719" lon="17.82506">
        <ele>84.546945</ele>
        <time>2022-06-12T11:09:37.108Z</time>
      </trkpt>
      <trkpt lat="43.27195" lon="17.82518">
        <ele>84.58503</ele>
        <time>2022-06-12T11:09:40.132Z</time>
      </trkpt>
      <trkpt lat="43.272" lon="17.8253">
        <ele>84.625152</ele>
        <time>2022-06-12T11:09:43.092Z</time>
      </trkpt>
      <trkpt lat="43.27204" lon="17.82542">
        <ele>84.607196</ele>
        <time>2022-06-12T11:09:46.104Z</time>
      </trkpt>
      <trkpt lat="43.27209" lon="17.82557">
        <ele>84.55271</ele>
        <time>2022-06-12T11:09:50.097Z</time>
      </trkpt>
      <trkpt lat="43.27213" lon="17.82568">
        <ele>84.50944</ele>
        <time>2022-06-12T11:09:53.088Z</time>
      </trkpt>
      <trkpt lat="43.27218" lon="17.8258">
        <ele>84.461964</ele>
        <time>2022-06-12T11:09:56.127Z</time>
      </trkpt>
      <trkpt lat="43.27223" lon="17.82593">
        <ele>84.415062</ele>
        <time>2022-06-12T11:09:59.099Z</time>
      </trkpt>
      <trkpt lat="43.27228" lon="17.82606">
        <ele>84.366653</ele>
        <time>2022-06-12T11:10:02.133Z</time>
      </trkpt>
      <trkpt lat="43.27232" lon="17.82619">
        <ele>84.319029</ele>
        <time>2022-06-12T11:10:05.102Z</time>
      </trkpt>
      <trkpt lat="43.27237" lon="17.82631">
        <ele>84.271095</ele>
        <time>2022-06-12T11:10:08.142Z</time>
      </trkpt>
      <trkpt lat="43.27242" lon="17.82643">
        <ele>84.225664</ele>
        <time>2022-06-12T11:10:11.107Z</time>
      </trkpt>
      <trkpt lat="43.27247" lon="17.82655">
        <ele>84.179445</ele>
        <time>2022-06-12T11:10:14.108Z</time>
      </trkpt>
      <trkpt lat="43.27252" lon="17.82667">
        <ele>84.131219</ele>
        <time>2022-06-12T11:10:17.096Z</time>
      </trkpt>
      <trkpt lat="43.27257" lon="17.82679">
        <ele>84.083808</ele>
        <time>2022-06-12T11:10:20.106Z</time>
      </trkpt>
      <trkpt lat="43.27262" lon="17.82692">
        <ele>84.036695</ele>
        <time>2022-06-12T11:10:23.089Z</time>
      </trkpt>
      <trkpt lat="43.27266" lon="17.82703">
        <ele>83.992179</ele>
        <time>2022-06-12T11:10:26.096Z</time>
      </trkpt>
      <trkpt lat="43.27271" lon="17.82716">
        <ele>83.943225</ele>
        <time>2022-06-12T11:10:29.103Z</time>
      </trkpt>
      <trkpt lat="43.27277" lon="17.82728">
        <ele>83.897356</ele>
        <time>2022-06-12T11:10:32.121Z</time>
      </trkpt>
      <trkpt lat="43.27282" lon="17.82739">
        <ele>83.853609</ele>
        <time>2022-06-12T11:10:35.099Z</time>
      </trkpt>
      <trkpt lat="43.27288" lon="17.82752">
        <ele>83.82328</ele>
        <time>2022-06-12T11:10:39.092Z</time>
      </trkpt>
      <trkpt lat="43.27295" lon="17.82763">
        <ele>83.968794</ele>
        <time>2022-06-12T11:10:42.096Z</time>
      </trkpt>
      <trkpt lat="43.27302" lon="17.82774">
        <ele>84.125782</ele>
        <time>2022-06-12T11:10:45.099Z</time>
      </trkpt>
      <trkpt lat="43.2731" lon="17.82785">
        <ele>84.287218</ele>
        <time>2022-06-12T11:10:48.086Z</time>
      </trkpt>
      <trkpt lat="43.27319" lon="17.82796">
        <ele>84.455354</ele>
        <time>2022-06-12T11:10:51.104Z</time>
      </trkpt>
      <trkpt lat="43.27328" lon="17.82806">
        <ele>84.621344</ele>
        <time>2022-06-12T11:10:54.107Z</time>
      </trkpt>
      <trkpt lat="43.27336" lon="17.82817">
        <ele>84.78591</ele>
        <time>2022-06-12T11:10:57.106Z</time>
      </trkpt>
      <trkpt lat="43.27345" lon="17.82827">
        <ele>84.947829</ele>
        <time>2022-06-12T11:11:00.100Z</time>
      </trkpt>
      <trkpt lat="43.27353" lon="17.82836">
        <ele>85.101372</ele>
        <time>2022-06-12T11:11:03.101Z</time>
      </trkpt>
      <trkpt lat="43.27362" lon="17.82845">
        <ele>85.251992</ele>
        <time>2022-06-12T11:11:06.112Z</time>
      </trkpt>
      <trkpt lat="43.27371" lon="17.82852">
        <ele>85.408205</ele>
        <time>2022-06-12T11:11:09.096Z</time>
      </trkpt>
      <trkpt lat="43.27381" lon="17.8286">
        <ele>85.563069</ele>
        <time>2022-06-12T11:11:12.095Z</time>
      </trkpt>
      <trkpt lat="43.27389" lon="17.82866">
        <ele>85.703931</ele>
        <time>2022-06-12T11:11:15.093Z</time>
      </trkpt>
      <trkpt lat="43.27399" lon="17.82872">
        <ele>85.85144</ele>
        <time>2022-06-12T11:11:18.108Z</time>
      </trkpt>
      <trkpt lat="43.27408" lon="17.82878">
        <ele>86.001183</ele>
        <time>2022-06-12T11:11:21.138Z</time>
      </trkpt>
      <trkpt lat="43.27418" lon="17.82885">
        <ele>86.159987</ele>
        <time>2022-06-12T11:11:24.097Z</time>
      </trkpt>
      <trkpt lat="43.27428" lon="17.82892">
        <ele>86.312409</ele>
        <time>2022-06-12T11:11:27.132Z</time>
      </trkpt>
      <trkpt lat="43.27437" lon="17.82899">
        <ele>86.419307</ele>
        <time>2022-06-12T11:11:30.093Z</time>
      </trkpt>
      <trkpt lat="43.27447" lon="17.82905">
        <ele>86.495826</ele>
        <time>2022-06-12T11:11:33.139Z</time>
      </trkpt>
      <trkpt lat="43.27456" lon="17.82912">
        <ele>86.573615</ele>
        <time>2022-06-12T11:11:36.088Z</time>
      </trkpt>
      <trkpt lat="43.27467" lon="17.82919">
        <ele>86.653715</ele>
        <time>2022-06-12T11:11:39.098Z</time>
      </trkpt>
      <trkpt lat="43.27477" lon="17.82925">
        <ele>86.731219</ele>
        <time>2022-06-12T11:11:42.098Z</time>
      </trkpt>
      <trkpt lat="43.27486" lon="17.8293">
        <ele>86.806744</ele>
        <time>2022-06-12T11:11:45.144Z</time>
      </trkpt>
      <trkpt lat="43.27495" lon="17.82935">
        <ele>86.876689</ele>
        <time>2022-06-12T11:11:48.098Z</time>
      </trkpt>
      <trkpt lat="43.27505" lon="17.8294">
        <ele>86.948026</ele>
        <time>2022-06-12T11:11:51.098Z</time>
      </trkpt>
      <trkpt lat="43.27514" lon="17.82945">
        <ele>87.016618</ele>
        <time>2022-06-12T11:11:54.101Z</time>
      </trkpt>
      <trkpt lat="43.27522" lon="17.82949">
        <ele>87.081815</ele>
        <time>2022-06-12T11:11:57.096Z</time>
      </trkpt>
      <trkpt lat="43.27531" lon="17.82953">
        <ele>87.148887</ele>
        <time>2022-06-12T11:12:00.101Z</time>
      </trkpt>
      <trkpt lat="43.2754" lon="17.82958">
        <ele>87.215431</ele>
        <time>2022-06-12T11:12:03.110Z</time>
      </trkpt>
      <trkpt lat="43.27549" lon="17.82961">
        <ele>87.284887</ele>
        <time>2022-06-12T11:12:06.144Z</time>
      </trkpt>
      <trkpt lat="43.27558" lon="17.82965">
        <ele>87.34964</ele>
        <time>2022-06-12T11:12:09.099Z</time>
      </trkpt>
      <trkpt lat="43.27569" lon="17.82969">
        <ele>87.42984</ele>
        <time>2022-06-12T11:12:13.105Z</time>
      </trkpt>
      <trkpt lat="43.2758" lon="17.82973">
        <ele>87.511138</ele>
        <time>2022-06-12T11:12:17.101Z</time>
      </trkpt>
      <trkpt lat="43.27588" lon="17.82977">
        <ele>87.576507</ele>
        <time>2022-06-12T11:12:20.084Z</time>
      </trkpt>
      <trkpt lat="43.27599" lon="17.82982">
        <ele>87.657394</ele>
        <time>2022-06-12T11:12:24.148Z</time>
      </trkpt>
      <trkpt lat="43.2761" lon="17.82987">
        <ele>87.67863</ele>
        <time>2022-06-12T11:12:28.097Z</time>
      </trkpt>
      <trkpt lat="43.27621" lon="17.82992">
        <ele>87.700911</ele>
        <time>2022-06-12T11:12:32.091Z</time>
      </trkpt>
      <trkpt lat="43.27632" lon="17.82998">
        <ele>87.72342</ele>
        <time>2022-06-12T11:12:36.099Z</time>
      </trkpt>
      <trkpt lat="43.2764" lon="17.83002">
        <ele>87.741098</ele>
        <time>2022-06-12T11:12:39.102Z</time>
      </trkpt>
      <trkpt lat="43.27649" lon="17.83006">
        <ele>87.759278</ele>
        <time>2022-06-12T11:12:42.100Z</time>
      </trkpt>
      <trkpt lat="43.27659" lon="17.8301">
        <ele>87.778414</ele>
        <time>2022-06-12T11:12:45.133Z</time>
      </trkpt>
      <trkpt lat="43.27669" lon="17.83015">
        <ele>87.798421</ele>
        <time>2022-06-12T11:12:48.094Z</time>
      </trkpt>
      <trkpt lat="43.27678" lon="17.83019">
        <ele>87.818061</ele>
        <time>2022-06-12T11:12:51.109Z</time>
      </trkpt>
      <trkpt lat="43.27688" lon="17.83023">
        <ele>87.837659</ele>
        <time>2022-06-12T11:12:54.106Z</time>
      </trkpt>
      <trkpt lat="43.27698" lon="17.83027">
        <ele>87.856765</ele>
        <time>2022-06-12T11:12:57.098Z</time>
      </trkpt>
      <trkpt lat="43.27706" lon="17.83031">
        <ele>87.874683</ele>
        <time>2022-06-12T11:13:00.097Z</time>
      </trkpt>
      <trkpt lat="43.27716" lon="17.83035">
        <ele>87.893093</ele>
        <time>2022-06-12T11:13:03.131Z</time>
      </trkpt>
      <trkpt lat="43.27725" lon="17.83039">
        <ele>87.912367</ele>
        <time>2022-06-12T11:13:06.094Z</time>
      </trkpt>
      <trkpt lat="43.27735" lon="17.83043">
        <ele>87.931824</ele>
        <time>2022-06-12T11:13:09.100Z</time>
      </trkpt>
      <trkpt lat="43.27744" lon="17.83048">
        <ele>87.951422</ele>
        <time>2022-06-12T11:13:12.103Z</time>
      </trkpt>
      <trkpt lat="43.27754" lon="17.83052">
        <ele>87.971204</ele>
        <time>2022-06-12T11:13:15.111Z</time>
      </trkpt>
      <trkpt lat="43.27764" lon="17.83056">
        <ele>87.991211</ele>
        <time>2022-06-12T11:13:18.102Z</time>
      </trkpt>
      <trkpt lat="43.27774" lon="17.83059">
        <ele>87.998286</ele>
        <time>2022-06-12T11:13:21.100Z</time>
      </trkpt>
      <trkpt lat="43.27784" lon="17.83063">
        <ele>87.985022</ele>
        <time>2022-06-12T11:13:24.118Z</time>
      </trkpt>
      <trkpt lat="43.27794" lon="17.83067">
        <ele>87.971229</ele>
        <time>2022-06-12T11:13:27.106Z</time>
      </trkpt>
      <trkpt lat="43.27803" lon="17.8307">
        <ele>87.959222</ele>
        <time>2022-06-12T11:13:30.093Z</time>
      </trkpt>
      <trkpt lat="43.27813" lon="17.83074">
        <ele>87.945225</ele>
        <time>2022-06-12T11:13:33.087Z</time>
      </trkpt>
      <trkpt lat="43.27823" lon="17.83077">
        <ele>87.931757</ele>
        <time>2022-06-12T11:13:36.105Z</time>
      </trkpt>
      <trkpt lat="43.27833" lon="17.8308">
        <ele>87.918398</ele>
        <time>2022-06-12T11:13:39.110Z</time>
      </trkpt>
      <trkpt lat="43.27843" lon="17.83083">
        <ele>87.904932</ele>
        <time>2022-06-12T11:13:42.093Z</time>
      </trkpt>
      <trkpt lat="43.27853" lon="17.83087">
        <ele>87.891233</ele>
        <time>2022-06-12T11:13:45.119Z</time>
      </trkpt>
      <trkpt lat="43.27864" lon="17.8309">
        <ele>87.877109</ele>
        <time>2022-06-12T11:13:48.091Z</time>
      </trkpt>
      <trkpt lat="43.27874" lon="17.83093">
        <ele>87.863093</ele>
        <time>2022-06-12T11:13:51.100Z</time>
      </trkpt>
      <trkpt lat="43.27886" lon="17.83097">
        <ele>87.847954</ele>
        <time>2022-06-12T11:13:54.090Z</time>
      </trkpt>
      <trkpt lat="43.27897" lon="17.831">
        <ele>87.83309</ele>
        <time>2022-06-12T11:13:57.101Z</time>
      </trkpt>
      <trkpt lat="43.27908" lon="17.83104">
        <ele>87.818671</ele>
        <time>2022-06-12T11:14:00.119Z</time>
      </trkpt>
      <trkpt lat="43.27919" lon="17.83107">
        <ele>87.804016</ele>
        <time>2022-06-12T11:14:03.109Z</time>
      </trkpt>
      <trkpt lat="43.27929" lon="17.8311">
        <ele>87.789636</ele>
        <time>2022-06-12T11:14:06.097Z</time>
      </trkpt>
      <trkpt lat="43.27939" lon="17.83113">
        <ele>87.776213</ele>
        <time>2022-06-12T11:14:09.118Z</time>
      </trkpt>
      <trkpt lat="43.2795" lon="17.83116">
        <ele>87.756312</ele>
        <time>2022-06-12T11:14:12.098Z</time>
      </trkpt>
      <trkpt lat="43.2796" lon="17.8312">
        <ele>87.728524</ele>
        <time>2022-06-12T11:14:15.134Z</time>
      </trkpt>
      <trkpt lat="43.27971" lon="17.83124">
        <ele>87.700886</ele>
        <time>2022-06-12T11:14:18.103Z</time>
      </trkpt>
      <trkpt lat="43.27982" lon="17.83127">
        <ele>87.672321</ele>
        <time>2022-06-12T11:14:21.106Z</time>
      </trkpt>
      <trkpt lat="43.27993" lon="17.83129">
        <ele>87.643621</ele>
        <time>2022-06-12T11:14:24.097Z</time>
      </trkpt>
      <trkpt lat="43.28004" lon="17.83132">
        <ele>87.615494</ele>
        <time>2022-06-12T11:14:27.107Z</time>
      </trkpt>
      <trkpt lat="43.28015" lon="17.83134">
        <ele>87.58589</ele>
        <time>2022-06-12T11:14:30.092Z</time>
      </trkpt>
      <trkpt lat="43.28026" lon="17.83137">
        <ele>87.557073</ele>
        <time>2022-06-12T11:14:33.098Z</time>
      </trkpt>
      <trkpt lat="43.28037" lon="17.83139">
        <ele>87.528004</ele>
        <time>2022-06-12T11:14:36.088Z</time>
      </trkpt>
      <trkpt lat="43.28048" lon="17.83142">
        <ele>87.499626</ele>
        <time>2022-06-12T11:14:39.098Z</time>
      </trkpt>
      <trkpt lat="43.28059" lon="17.83145">
        <ele>87.470526</ele>
        <time>2022-06-12T11:14:42.092Z</time>
      </trkpt>
      <trkpt lat="43.28071" lon="17.83148">
        <ele>87.441359</ele>
        <time>2022-06-12T11:14:45.143Z</time>
      </trkpt>
      <trkpt lat="43.28081" lon="17.8315">
        <ele>87.413924</ele>
        <time>2022-06-12T11:14:48.092Z</time>
      </trkpt>
      <trkpt lat="43.28092" lon="17.83151">
        <ele>87.385954</ele>
        <time>2022-06-12T11:14:51.090Z</time>
      </trkpt>
      <trkpt lat="43.28103" lon="17.83152">
        <ele>87.35805</ele>
        <time>2022-06-12T11:14:54.094Z</time>
      </trkpt>
      <trkpt lat="43.28114" lon="17.83151">
        <ele>87.3309</ele>
        <time>2022-06-12T11:14:57.105Z</time>
      </trkpt>
      <trkpt lat="43.28124" lon="17.8315">
        <ele>87.285788</ele>
        <time>2022-06-12T11:15:00.133Z</time>
      </trkpt>
      <trkpt lat="43.28135" lon="17.83146">
        <ele>87.158785</ele>
        <time>2022-06-12T11:15:03.097Z</time>
      </trkpt>
      <trkpt lat="43.28146" lon="17.83143">
        <ele>87.038221</ele>
        <time>2022-06-12T11:15:06.139Z</time>
      </trkpt>
      <trkpt lat="43.28156" lon="17.83139">
        <ele>86.918288</ele>
        <time>2022-06-12T11:15:09.106Z</time>
      </trkpt>
      <trkpt lat="43.28166" lon="17.83133">
        <ele>86.798713</ele>
        <time>2022-06-12T11:15:12.098Z</time>
      </trkpt>
      <trkpt lat="43.28175" lon="17.83126">
        <ele>86.682693</ele>
        <time>2022-06-12T11:15:15.112Z</time>
      </trkpt>
      <trkpt lat="43.28184" lon="17.8312">
        <ele>86.568598</ele>
        <time>2022-06-12T11:15:18.098Z</time>
      </trkpt>
      <trkpt lat="43.28193" lon="17.83114">
        <ele>86.448425</ele>
        <time>2022-06-12T11:15:21.096Z</time>
      </trkpt>
      <trkpt lat="43.28202" lon="17.83107">
        <ele>86.337338</ele>
        <time>2022-06-12T11:15:24.102Z</time>
      </trkpt>
      <trkpt lat="43.28211" lon="17.83101">
        <ele>86.224481</ele>
        <time>2022-06-12T11:15:27.103Z</time>
      </trkpt>
      <trkpt lat="43.2822" lon="17.83095">
        <ele>86.11001</ele>
        <time>2022-06-12T11:15:30.100Z</time>
      </trkpt>
      <trkpt lat="43.28228" lon="17.83088">
        <ele>85.999922</ele>
        <time>2022-06-12T11:15:33.107Z</time>
      </trkpt>
      <trkpt lat="43.28237" lon="17.83081">
        <ele>85.891305</ele>
        <time>2022-06-12T11:15:36.107Z</time>
      </trkpt>
      <trkpt lat="43.28245" lon="17.83075">
        <ele>85.781175</ele>
        <time>2022-06-12T11:15:39.092Z</time>
      </trkpt>
      <trkpt lat="43.28253" lon="17.83068">
        <ele>85.674912</ele>
        <time>2022-06-12T11:15:42.095Z</time>
      </trkpt>
      <trkpt lat="43.28261" lon="17.83061">
        <ele>85.568954</ele>
        <time>2022-06-12T11:15:45.130Z</time>
      </trkpt>
      <trkpt lat="43.28271" lon="17.83052">
        <ele>85.438593</ele>
        <time>2022-06-12T11:15:49.112Z</time>
      </trkpt>
      <trkpt lat="43.2828" lon="17.83042">
        <ele>85.305192</ele>
        <time>2022-06-12T11:15:53.101Z</time>
      </trkpt>
      <trkpt lat="43.28287" lon="17.83034">
        <ele>85.368037</ele>
        <time>2022-06-12T11:15:56.102Z</time>
      </trkpt>
      <trkpt lat="43.28294" lon="17.83026">
        <ele>85.494932</ele>
        <time>2022-06-12T11:15:59.098Z</time>
      </trkpt>
      <trkpt lat="43.28301" lon="17.83017">
        <ele>85.618746</ele>
        <time>2022-06-12T11:16:02.104Z</time>
      </trkpt>
      <trkpt lat="43.28308" lon="17.83007">
        <ele>85.75837</ele>
        <time>2022-06-12T11:16:05.109Z</time>
      </trkpt>
      <trkpt lat="43.28315" lon="17.82997">
        <ele>85.89285</ele>
        <time>2022-06-12T11:16:08.112Z</time>
      </trkpt>
      <trkpt lat="43.28321" lon="17.82987">
        <ele>86.025185</ele>
        <time>2022-06-12T11:16:11.111Z</time>
      </trkpt>
      <trkpt lat="43.28328" lon="17.82976">
        <ele>86.166819</ele>
        <time>2022-06-12T11:16:14.079Z</time>
      </trkpt>
      <trkpt lat="43.28334" lon="17.82966">
        <ele>86.296091</ele>
        <time>2022-06-12T11:16:17.104Z</time>
      </trkpt>
      <trkpt lat="43.2834" lon="17.82956">
        <ele>86.423555</ele>
        <time>2022-06-12T11:16:20.095Z</time>
      </trkpt>
      <trkpt lat="43.28346" lon="17.82945">
        <ele>86.558286</ele>
        <time>2022-06-12T11:16:23.109Z</time>
      </trkpt>
      <trkpt lat="43.28352" lon="17.82935">
        <ele>86.688995</ele>
        <time>2022-06-12T11:16:26.118Z</time>
      </trkpt>
      <trkpt lat="43.28358" lon="17.82925">
        <ele>86.819704</ele>
        <time>2022-06-12T11:16:29.101Z</time>
      </trkpt>
      <trkpt lat="43.28363" lon="17.82915">
        <ele>86.943149</ele>
        <time>2022-06-12T11:16:32.112Z</time>
      </trkpt>
      <trkpt lat="43.28369" lon="17.82904">
        <ele>87.079342</ele>
        <time>2022-06-12T11:16:35.107Z</time>
      </trkpt>
      <trkpt lat="43.28375" lon="17.82893">
        <ele>87.214723</ele>
        <time>2022-06-12T11:16:38.095Z</time>
      </trkpt>
      <trkpt lat="43.28382" lon="17.82882">
        <ele>87.359822</ele>
        <time>2022-06-12T11:16:41.096Z</time>
      </trkpt>
      <trkpt lat="43.28388" lon="17.82871">
        <ele>87.49388</ele>
        <time>2022-06-12T11:16:44.100Z</time>
      </trkpt>
      <trkpt lat="43.28395" lon="17.82859">
        <ele>87.645396</ele>
        <time>2022-06-12T11:16:47.104Z</time>
      </trkpt>
      <trkpt lat="43.28401" lon="17.82849">
        <ele>87.738812</ele>
        <time>2022-06-12T11:16:50.103Z</time>
      </trkpt>
      <trkpt lat="43.28406" lon="17.82838">
        <ele>87.777382</ele>
        <time>2022-06-12T11:16:53.101Z</time>
      </trkpt>
      <trkpt lat="43.28412" lon="17.82828">
        <ele>87.815241</ele>
        <time>2022-06-12T11:16:56.088Z</time>
      </trkpt>
      <trkpt lat="43.28418" lon="17.82818">
        <ele>87.854827</ele>
        <time>2022-06-12T11:16:59.101Z</time>
      </trkpt>
      <trkpt lat="43.28424" lon="17.82807">
        <ele>87.89459</ele>
        <time>2022-06-12T11:17:02.106Z</time>
      </trkpt>
      <trkpt lat="43.28429" lon="17.82796">
        <ele>87.932457</ele>
        <time>2022-06-12T11:17:05.174Z</time>
      </trkpt>
      <trkpt lat="43.28435" lon="17.82786">
        <ele>87.970551</ele>
        <time>2022-06-12T11:17:08.092Z</time>
      </trkpt>
      <trkpt lat="43.28441" lon="17.82775">
        <ele>88.00936</ele>
        <time>2022-06-12T11:17:11.100Z</time>
      </trkpt>
      <trkpt lat="43.28446" lon="17.82764">
        <ele>88.04966</ele>
        <time>2022-06-12T11:17:14.109Z</time>
      </trkpt>
      <trkpt lat="43.28452" lon="17.82753">
        <ele>88.089451</ele>
        <time>2022-06-12T11:17:17.113Z</time>
      </trkpt>
      <trkpt lat="43.28458" lon="17.82742">
        <ele>88.131381</ele>
        <time>2022-06-12T11:17:20.100Z</time>
      </trkpt>
      <trkpt lat="43.28465" lon="17.82731">
        <ele>88.173046</ele>
        <time>2022-06-12T11:17:23.099Z</time>
      </trkpt>
      <trkpt lat="43.2847" lon="17.8272">
        <ele>88.211382</ele>
        <time>2022-06-12T11:17:26.096Z</time>
      </trkpt>
      <trkpt lat="43.28476" lon="17.8271">
        <ele>88.249482</ele>
        <time>2022-06-12T11:17:29.113Z</time>
      </trkpt>
      <trkpt lat="43.28482" lon="17.82699">
        <ele>88.288079</ele>
        <time>2022-06-12T11:17:32.105Z</time>
      </trkpt>
      <trkpt lat="43.28487" lon="17.82687">
        <ele>88.331301</ele>
        <time>2022-06-12T11:17:35.111Z</time>
      </trkpt>
      <trkpt lat="43.28493" lon="17.82676">
        <ele>88.369875</ele>
        <time>2022-06-12T11:17:38.096Z</time>
      </trkpt>
      <trkpt lat="43.28498" lon="17.82666">
        <ele>88.407497</ele>
        <time>2022-06-12T11:17:41.109Z</time>
      </trkpt>
      <trkpt lat="43.28504" lon="17.82655">
        <ele>88.447499</ele>
        <time>2022-06-12T11:17:44.097Z</time>
      </trkpt>
      <trkpt lat="43.28509" lon="17.82645">
        <ele>88.547476</ele>
        <time>2022-06-12T11:17:47.107Z</time>
      </trkpt>
      <trkpt lat="43.28515" lon="17.82634">
        <ele>88.661483</ele>
        <time>2022-06-12T11:17:50.106Z</time>
      </trkpt>
      <trkpt lat="43.2852" lon="17.82623">
        <ele>88.77828</ele>
        <time>2022-06-12T11:17:53.091Z</time>
      </trkpt>
      <trkpt lat="43.28526" lon="17.82612">
        <ele>88.900158</ele>
        <time>2022-06-12T11:17:56.103Z</time>
      </trkpt>
      <trkpt lat="43.28531" lon="17.82602">
        <ele>89.011971</ele>
        <time>2022-06-12T11:17:59.140Z</time>
      </trkpt>
      <trkpt lat="43.28537" lon="17.8259">
        <ele>89.131044</ele>
        <time>2022-06-12T11:18:02.094Z</time>
      </trkpt>
      <trkpt lat="43.28541" lon="17.82578">
        <ele>89.255466</ele>
        <time>2022-06-12T11:18:05.133Z</time>
      </trkpt>
      <trkpt lat="43.28546" lon="17.82565">
        <ele>89.380181</ele>
        <time>2022-06-12T11:18:08.096Z</time>
      </trkpt>
      <trkpt lat="43.2855" lon="17.82552">
        <ele>89.502561</ele>
        <time>2022-06-12T11:18:11.080Z</time>
      </trkpt>
      <trkpt lat="43.28554" lon="17.8254">
        <ele>89.622243</ele>
        <time>2022-06-12T11:18:14.096Z</time>
      </trkpt>
      <trkpt lat="43.28557" lon="17.82527">
        <ele>89.740237</ele>
        <time>2022-06-12T11:18:17.108Z</time>
      </trkpt>
      <trkpt lat="43.2856" lon="17.82514">
        <ele>89.864409</ele>
        <time>2022-06-12T11:18:20.102Z</time>
      </trkpt>
      <trkpt lat="43.28563" lon="17.82501">
        <ele>89.983695</ele>
        <time>2022-06-12T11:18:23.096Z</time>
      </trkpt>
      <trkpt lat="43.28565" lon="17.82487">
        <ele>90.10841</ele>
        <time>2022-06-12T11:18:26.105Z</time>
      </trkpt>
      <trkpt lat="43.28568" lon="17.82473">
        <ele>90.235389</ele>
        <time>2022-06-12T11:18:29.096Z</time>
      </trkpt>
      <trkpt lat="43.2857" lon="17.82458">
        <ele>90.367535</ele>
        <time>2022-06-12T11:18:32.126Z</time>
      </trkpt>
      <trkpt lat="43.28573" lon="17.82446">
        <ele>90.484081</ele>
        <time>2022-06-12T11:18:35.111Z</time>
      </trkpt>
      <trkpt lat="43.28576" lon="17.82433">
        <ele>90.600821</ele>
        <time>2022-06-12T11:18:38.126Z</time>
      </trkpt>
      <trkpt lat="43.28578" lon="17.82421">
        <ele>90.642986</ele>
        <time>2022-06-12T11:18:41.106Z</time>
      </trkpt>
      <trkpt lat="43.28581" lon="17.82405">
        <ele>90.667232</ele>
        <time>2022-06-12T11:18:45.135Z</time>
      </trkpt>
      <trkpt lat="43.28584" lon="17.82393">
        <ele>90.68753</ele>
        <time>2022-06-12T11:18:48.109Z</time>
      </trkpt>
      <trkpt lat="43.28588" lon="17.8238">
        <ele>90.707757</ele>
        <time>2022-06-12T11:18:51.088Z</time>
      </trkpt>
      <trkpt lat="43.28593" lon="17.82366">
        <ele>90.731519</ele>
        <time>2022-06-12T11:18:55.118Z</time>
      </trkpt>
      <trkpt lat="43.286" lon="17.82353">
        <ele>90.755697</ele>
        <time>2022-06-12T11:18:59.095Z</time>
      </trkpt>
      <trkpt lat="43.28607" lon="17.82344">
        <ele>90.77575</ele>
        <time>2022-06-12T11:19:02.096Z</time>
      </trkpt>
      <trkpt lat="43.28615" lon="17.82334">
        <ele>90.797886</ele>
        <time>2022-06-12T11:19:05.111Z</time>
      </trkpt>
      <trkpt lat="43.28623" lon="17.82324">
        <ele>90.820109</ele>
        <time>2022-06-12T11:19:08.096Z</time>
      </trkpt>
      <trkpt lat="43.28632" lon="17.82317">
        <ele>90.841932</ele>
        <time>2022-06-12T11:19:11.081Z</time>
      </trkpt>
      <trkpt lat="43.28641" lon="17.82311">
        <ele>90.861809</ele>
        <time>2022-06-12T11:19:14.091Z</time>
      </trkpt>
      <trkpt lat="43.28649" lon="17.82305">
        <ele>90.880929</ele>
        <time>2022-06-12T11:19:17.090Z</time>
      </trkpt>
      <trkpt lat="43.28659" lon="17.82299">
        <ele>90.903</ele>
        <time>2022-06-12T11:19:20.101Z</time>
      </trkpt>
      <trkpt lat="43.28667" lon="17.82294">
        <ele>90.923008</ele>
        <time>2022-06-12T11:19:23.095Z</time>
      </trkpt>
      <trkpt lat="43.28676" lon="17.8229">
        <ele>90.94239</ele>
        <time>2022-06-12T11:19:26.104Z</time>
      </trkpt>
      <trkpt lat="43.28686" lon="17.82287">
        <ele>90.963053</ele>
        <time>2022-06-12T11:19:29.095Z</time>
      </trkpt>
      <trkpt lat="43.28696" lon="17.82285">
        <ele>90.983938</ele>
        <time>2022-06-12T11:19:32.109Z</time>
      </trkpt>
      <trkpt lat="43.28705" lon="17.82284">
        <ele>91.004824</ele>
        <time>2022-06-12T11:19:35.101Z</time>
      </trkpt>
      <trkpt lat="43.28715" lon="17.82284">
        <ele>91.042033</ele>
        <time>2022-06-12T11:19:38.148Z</time>
      </trkpt>
      <trkpt lat="43.28726" lon="17.82287">
        <ele>91.088955</ele>
        <time>2022-06-12T11:19:42.094Z</time>
      </trkpt>
      <trkpt lat="43.28738" lon="17.82294">
        <ele>91.138358</ele>
        <time>2022-06-12T11:19:46.095Z</time>
      </trkpt>
      <trkpt lat="43.28747" lon="17.82298">
        <ele>91.17819</ele>
        <time>2022-06-12T11:19:49.105Z</time>
      </trkpt>
      <trkpt lat="43.28757" lon="17.82303">
        <ele>91.21989</ele>
        <time>2022-06-12T11:19:52.143Z</time>
      </trkpt>
      <trkpt lat="43.28766" lon="17.82307">
        <ele>91.259982</ele>
        <time>2022-06-12T11:19:55.112Z</time>
      </trkpt>
      <trkpt lat="43.28775" lon="17.82311">
        <ele>91.296784</ele>
        <time>2022-06-12T11:19:58.137Z</time>
      </trkpt>
      <trkpt lat="43.28784" lon="17.82314">
        <ele>91.332842</ele>
        <time>2022-06-12T11:20:01.105Z</time>
      </trkpt>
      <trkpt lat="43.28793" lon="17.82316">
        <ele>91.369169</ele>
        <time>2022-06-12T11:20:04.119Z</time>
      </trkpt>
      <trkpt lat="43.28805" lon="17.82319">
        <ele>91.417706</ele>
        <time>2022-06-12T11:20:08.107Z</time>
      </trkpt>
      <trkpt lat="43.28814" lon="17.8232">
        <ele>91.456017</ele>
        <time>2022-06-12T11:20:11.103Z</time>
      </trkpt>
      <trkpt lat="43.28824" lon="17.82322">
        <ele>91.493932</ele>
        <time>2022-06-12T11:20:14.125Z</time>
      </trkpt>
      <trkpt lat="43.28833" lon="17.82324">
        <ele>91.531743</ele>
        <time>2022-06-12T11:20:17.102Z</time>
      </trkpt>
      <trkpt lat="43.28843" lon="17.82325">
        <ele>91.571063</ele>
        <time>2022-06-12T11:20:20.104Z</time>
      </trkpt>
      <trkpt lat="43.28853" lon="17.82325">
        <ele>91.611105</ele>
        <time>2022-06-12T11:20:23.092Z</time>
      </trkpt>
      <trkpt lat="43.28863" lon="17.82326">
        <ele>91.650322</ele>
        <time>2022-06-12T11:20:26.125Z</time>
      </trkpt>
      <trkpt lat="43.28872" lon="17.82327">
        <ele>91.68765</ele>
        <time>2022-06-12T11:20:29.109Z</time>
      </trkpt>
      <trkpt lat="43.28882" lon="17.82328">
        <ele>91.73577</ele>
        <time>2022-06-12T11:20:32.138Z</time>
      </trkpt>
      <trkpt lat="43.28891" lon="17.82328">
        <ele>91.841208</ele>
        <time>2022-06-12T11:20:35.105Z</time>
      </trkpt>
      <trkpt lat="43.28901" lon="17.82329">
        <ele>91.949905</ele>
        <time>2022-06-12T11:20:38.130Z</time>
      </trkpt>
      <trkpt lat="43.2891" lon="17.82329">
        <ele>92.053146</ele>
        <time>2022-06-12T11:20:41.106Z</time>
      </trkpt>
      <trkpt lat="43.28922" lon="17.8233">
        <ele>92.187802</ele>
        <time>2022-06-12T11:20:45.146Z</time>
      </trkpt>
      <trkpt lat="43.28932" lon="17.8233">
        <ele>92.294259</ele>
        <time>2022-06-12T11:20:48.091Z</time>
      </trkpt>
      <trkpt lat="43.28941" lon="17.82331">
        <ele>92.402972</ele>
        <time>2022-06-12T11:20:51.098Z</time>
      </trkpt>
      <trkpt lat="43.2895" lon="17.82331">
        <ele>92.506212</ele>
        <time>2022-06-12T11:20:54.104Z</time>
      </trkpt>
      <trkpt lat="43.28959" lon="17.82332">
        <ele>92.607137</ele>
        <time>2022-06-12T11:20:57.095Z</time>
      </trkpt>
      <trkpt lat="43.28969" lon="17.82333">
        <ele>92.710378</ele>
        <time>2022-06-12T11:21:00.111Z</time>
      </trkpt>
      <trkpt lat="43.28981" lon="17.82333">
        <ele>92.844895</ele>
        <time>2022-06-12T11:21:04.104Z</time>
      </trkpt>
      <trkpt lat="43.2899" lon="17.82333">
        <ele>92.947991</ele>
        <time>2022-06-12T11:21:07.091Z</time>
      </trkpt>
      <trkpt lat="43.28999" lon="17.82333">
        <ele>93.055556</ele>
        <time>2022-06-12T11:21:10.098Z</time>
      </trkpt>
      <trkpt lat="43.29009" lon="17.82333">
        <ele>93.15757</ele>
        <time>2022-06-12T11:21:13.098Z</time>
      </trkpt>
      <trkpt lat="43.29018" lon="17.82334">
        <ele>93.260769</ele>
        <time>2022-06-12T11:21:16.101Z</time>
      </trkpt>
      <trkpt lat="43.29029" lon="17.82335">
        <ele>93.389935</ele>
        <time>2022-06-12T11:21:20.108Z</time>
      </trkpt>
      <trkpt lat="43.29039" lon="17.82335">
        <ele>93.49974</ele>
        <time>2022-06-12T11:21:23.132Z</time>
      </trkpt>
      <trkpt lat="43.29051" lon="17.82336">
        <ele>93.63238</ele>
        <time>2022-06-12T11:21:27.104Z</time>
      </trkpt>
      <trkpt lat="43.2906" lon="17.82336">
        <ele>93.734345</ele>
        <time>2022-06-12T11:21:30.096Z</time>
      </trkpt>
      <trkpt lat="43.29072" lon="17.82337">
        <ele>93.553473</ele>
        <time>2022-06-12T11:21:34.109Z</time>
      </trkpt>
      <trkpt lat="43.29084" lon="17.82336">
        <ele>93.371695</ele>
        <time>2022-06-12T11:21:38.092Z</time>
      </trkpt>
      <trkpt lat="43.29096" lon="17.82336">
        <ele>93.191228</ele>
        <time>2022-06-12T11:21:42.099Z</time>
      </trkpt>
      <trkpt lat="43.29105" lon="17.82335">
        <ele>93.050625</ele>
        <time>2022-06-12T11:21:45.113Z</time>
      </trkpt>
      <trkpt lat="43.29117" lon="17.82334">
        <ele>92.868633</ele>
        <time>2022-06-12T11:21:49.105Z</time>
      </trkpt>
      <trkpt lat="43.29126" lon="17.82334">
        <ele>92.729468</ele>
        <time>2022-06-12T11:21:52.089Z</time>
      </trkpt>
      <trkpt lat="43.29135" lon="17.82333">
        <ele>92.589927</ele>
        <time>2022-06-12T11:21:55.100Z</time>
      </trkpt>
      <trkpt lat="43.29144" lon="17.82331">
        <ele>92.453211</ele>
        <time>2022-06-12T11:21:58.110Z</time>
      </trkpt>
      <trkpt lat="43.29154" lon="17.8233">
        <ele>92.304537</ele>
        <time>2022-06-12T11:22:01.089Z</time>
      </trkpt>
      <trkpt lat="43.29163" lon="17.82329">
        <ele>92.158811</ele>
        <time>2022-06-12T11:22:04.109Z</time>
      </trkpt>
      <trkpt lat="43.29173" lon="17.82328">
        <ele>92.013182</ele>
        <time>2022-06-12T11:22:07.107Z</time>
      </trkpt>
      <trkpt lat="43.29182" lon="17.82326">
        <ele>91.873918</ele>
        <time>2022-06-12T11:22:10.096Z</time>
      </trkpt>
      <trkpt lat="43.29194" lon="17.82324">
        <ele>91.685814</ele>
        <time>2022-06-12T11:22:14.136Z</time>
      </trkpt>
      <trkpt lat="43.29204" lon="17.82322">
        <ele>91.538348</ele>
        <time>2022-06-12T11:22:17.096Z</time>
      </trkpt>
      <trkpt lat="43.29213" lon="17.82321">
        <ele>91.39683</ele>
        <time>2022-06-12T11:22:20.100Z</time>
      </trkpt>
      <trkpt lat="43.29222" lon="17.82319">
        <ele>91.251174</ele>
        <time>2022-06-12T11:22:23.116Z</time>
      </trkpt>
      <trkpt lat="43.29231" lon="17.82317">
        <ele>91.10952</ele>
        <time>2022-06-12T11:22:26.095Z</time>
      </trkpt>
      <trkpt lat="43.29241" lon="17.82315">
        <ele>90.998501</ele>
        <time>2022-06-12T11:22:29.107Z</time>
      </trkpt>
      <trkpt lat="43.2925" lon="17.82313">
        <ele>91.05571</ele>
        <time>2022-06-12T11:22:32.092Z</time>
      </trkpt>
      <trkpt lat="43.2926" lon="17.82312">
        <ele>91.114714</ele>
        <time>2022-06-12T11:22:35.122Z</time>
      </trkpt>
      <trkpt lat="43.29269" lon="17.8231">
        <ele>91.173614</ele>
        <time>2022-06-12T11:22:38.105Z</time>
      </trkpt>
      <trkpt lat="43.29279" lon="17.82308">
        <ele>91.230225</ele>
        <time>2022-06-12T11:22:41.130Z</time>
      </trkpt>
      <trkpt lat="43.29288" lon="17.82307">
        <ele>91.286298</ele>
        <time>2022-06-12T11:22:44.121Z</time>
      </trkpt>
      <trkpt lat="43.29297" lon="17.82305">
        <ele>91.343998</ele>
        <time>2022-06-12T11:22:47.135Z</time>
      </trkpt>
      <trkpt lat="43.29307" lon="17.82304">
        <ele>91.401151</ele>
        <time>2022-06-12T11:22:50.104Z</time>
      </trkpt>
      <trkpt lat="43.29316" lon="17.82302">
        <ele>91.457054</ele>
        <time>2022-06-12T11:22:53.110Z</time>
      </trkpt>
      <trkpt lat="43.29325" lon="17.82301">
        <ele>91.51406</ele>
        <time>2022-06-12T11:22:56.130Z</time>
      </trkpt>
      <trkpt lat="43.29335" lon="17.82299">
        <ele>91.570513</ele>
        <time>2022-06-12T11:22:59.108Z</time>
      </trkpt>
      <trkpt lat="43.29344" lon="17.82298">
        <ele>91.626415</ele>
        <time>2022-06-12T11:23:02.113Z</time>
      </trkpt>
      <trkpt lat="43.29356" lon="17.82296">
        <ele>91.696905</ele>
        <time>2022-06-12T11:23:06.100Z</time>
      </trkpt>
      <trkpt lat="43.29365" lon="17.82295">
        <ele>91.755541</ele>
        <time>2022-06-12T11:23:09.143Z</time>
      </trkpt>
      <trkpt lat="43.29374" lon="17.82294">
        <ele>91.810024</ele>
        <time>2022-06-12T11:23:12.094Z</time>
      </trkpt>
      <trkpt lat="43.29383" lon="17.82293">
        <ele>91.864585</ele>
        <time>2022-06-12T11:23:15.108Z</time>
      </trkpt>
      <trkpt lat="43.29393" lon="17.82292">
        <ele>91.920909</ele>
        <time>2022-06-12T11:23:18.093Z</time>
      </trkpt>
      <trkpt lat="43.29402" lon="17.8229">
        <ele>91.978063</ele>
        <time>2022-06-12T11:23:21.095Z</time>
      </trkpt>
      <trkpt lat="43.29414" lon="17.82289">
        <ele>92.04829</ele>
        <time>2022-06-12T11:23:25.099Z</time>
      </trkpt>
      <trkpt lat="43.29423" lon="17.82287">
        <ele>92.117517</ele>
        <time>2022-06-12T11:23:28.105Z</time>
      </trkpt>
      <trkpt lat="43.29434" lon="17.82286">
        <ele>92.2211</ele>
        <time>2022-06-12T11:23:32.125Z</time>
      </trkpt>
      <trkpt lat="43.29446" lon="17.82283">
        <ele>92.328817</ele>
        <time>2022-06-12T11:23:36.096Z</time>
      </trkpt>
      <trkpt lat="43.29455" lon="17.82282">
        <ele>92.408457</ele>
        <time>2022-06-12T11:23:39.102Z</time>
      </trkpt>
      <trkpt lat="43.29467" lon="17.8228">
        <ele>92.517688</ele>
        <time>2022-06-12T11:23:43.096Z</time>
      </trkpt>
      <trkpt lat="43.29477" lon="17.82278">
        <ele>92.605676</ele>
        <time>2022-06-12T11:23:46.089Z</time>
      </trkpt>
      <trkpt lat="43.29487" lon="17.82276">
        <ele>92.691904</ele>
        <time>2022-06-12T11:23:49.113Z</time>
      </trkpt>
      <trkpt lat="43.29496" lon="17.82274">
        <ele>92.776788</ele>
        <time>2022-06-12T11:23:52.090Z</time>
      </trkpt>
      <trkpt lat="43.29508" lon="17.82271">
        <ele>92.884691</ele>
        <time>2022-06-12T11:23:56.099Z</time>
      </trkpt>
      <trkpt lat="43.29518" lon="17.82269">
        <ele>92.969574</ele>
        <time>2022-06-12T11:23:59.104Z</time>
      </trkpt>
      <trkpt lat="43.29527" lon="17.82267">
        <ele>93.051609</ele>
        <time>2022-06-12T11:24:02.103Z</time>
      </trkpt>
      <trkpt lat="43.29536" lon="17.82265">
        <ele>93.135506</ele>
        <time>2022-06-12T11:24:05.107Z</time>
      </trkpt>
      <trkpt lat="43.29545" lon="17.82263">
        <ele>93.219192</ele>
        <time>2022-06-12T11:24:08.092Z</time>
      </trkpt>
      <trkpt lat="43.29555" lon="17.8226">
        <ele>93.30412</ele>
        <time>2022-06-12T11:24:11.096Z</time>
      </trkpt>
      <trkpt lat="43.29566" lon="17.82256">
        <ele>93.409274</ele>
        <time>2022-06-12T11:24:15.109Z</time>
      </trkpt>
      <trkpt lat="43.29575" lon="17.82253">
        <ele>93.490445</ele>
        <time>2022-06-12T11:24:18.155Z</time>
      </trkpt>
      <trkpt lat="43.29584" lon="17.8225">
        <ele>93.574633</ele>
        <time>2022-06-12T11:24:21.111Z</time>
      </trkpt>
      <trkpt lat="43.29593" lon="17.82246">
        <ele>93.657282</ele>
        <time>2022-06-12T11:24:24.094Z</time>
      </trkpt>
      <trkpt lat="43.29602" lon="17.82243">
        <ele>93.725295</ele>
        <time>2022-06-12T11:24:27.092Z</time>
      </trkpt>
      <trkpt lat="43.29612" lon="17.82238">
        <ele>93.78824</ele>
        <time>2022-06-12T11:24:30.109Z</time>
      </trkpt>
      <trkpt lat="43.29622" lon="17.82235">
        <ele>93.856984</ele>
        <time>2022-06-12T11:24:33.104Z</time>
      </trkpt>
      <trkpt lat="43.29632" lon="17.8223">
        <ele>93.923766</ele>
        <time>2022-06-12T11:24:36.078Z</time>
      </trkpt>
      <trkpt lat="43.29641" lon="17.82226">
        <ele>93.986711</ele>
        <time>2022-06-12T11:24:39.100Z</time>
      </trkpt>
      <trkpt lat="43.2965" lon="17.82222">
        <ele>94.051225</ele>
        <time>2022-06-12T11:24:42.108Z</time>
      </trkpt>
      <trkpt lat="43.2966" lon="17.82218">
        <ele>94.114641</ele>
        <time>2022-06-12T11:24:45.157Z</time>
      </trkpt>
      <trkpt lat="43.29669" lon="17.82214">
        <ele>94.175502</ele>
        <time>2022-06-12T11:24:48.101Z</time>
      </trkpt>
      <trkpt lat="43.29678" lon="17.82211">
        <ele>94.239125</ele>
        <time>2022-06-12T11:24:51.082Z</time>
      </trkpt>
      <trkpt lat="43.29688" lon="17.82206">
        <ele>94.30654</ele>
        <time>2022-06-12T11:24:54.097Z</time>
      </trkpt>
      <trkpt lat="43.29698" lon="17.82202">
        <ele>94.373409</ele>
        <time>2022-06-12T11:24:57.104Z</time>
      </trkpt>
      <trkpt lat="43.29708" lon="17.82199">
        <ele>94.438291</ele>
        <time>2022-06-12T11:25:00.131Z</time>
      </trkpt>
      <trkpt lat="43.29717" lon="17.82196">
        <ele>94.500656</ele>
        <time>2022-06-12T11:25:03.096Z</time>
      </trkpt>
      <trkpt lat="43.29726" lon="17.82193">
        <ele>94.563372</ele>
        <time>2022-06-12T11:25:06.104Z</time>
      </trkpt>
      <trkpt lat="43.29738" lon="17.82192">
        <ele>94.63718</ele>
        <time>2022-06-12T11:25:10.096Z</time>
      </trkpt>
      <trkpt lat="43.29748" lon="17.82191">
        <ele>94.704905</ele>
        <time>2022-06-12T11:25:16.099Z</time>
      </trkpt>
      <trkpt lat="43.29757" lon="17.82182">
        <ele>94.777157</ele>
        <time>2022-06-12T11:28:07.068Z</time>
      </trkpt>
      <trkpt lat="43.29765" lon="17.82174">
        <ele>94.837637</ele>
        <time>2022-06-12T11:28:47.081Z</time>
      </trkpt>
      <trkpt lat="43.29776" lon="17.8216">
        <ele>94.452725</ele>
        <time>2022-06-12T11:29:55.094Z</time>
      </trkpt>
      <trkpt lat="43.29787" lon="17.82144">
        <ele>94.039767</ele>
        <time>2022-06-12T11:30:48.117Z</time>
      </trkpt>
      <trkpt lat="43.298" lon="17.8213">
        <ele>93.597055</ele>
        <time>2022-06-12T11:38:33.103Z</time>
      </trkpt>
      <trkpt lat="43.29795" lon="17.82143">
        <ele>93.320285</ele>
        <time>2022-06-12T11:51:49.095Z</time>
      </trkpt>
      <trkpt lat="43.29787" lon="17.8215">
        <ele>93.079311</ele>
        <time>2022-06-12T11:51:59.088Z</time>
      </trkpt>
      <trkpt lat="43.2978" lon="17.82157">
        <ele>92.836145</ele>
        <time>2022-06-12T11:52:11.094Z</time>
      </trkpt>
      <trkpt lat="43.29774" lon="17.82171">
        <ele>92.52637</ele>
        <time>2022-06-12T11:59:56.113Z</time>
      </trkpt>
      <trkpt lat="43.2977" lon="17.82157">
        <ele>92.246115</ele>
        <time>2022-06-12T12:15:27.089Z</time>
      </trkpt>
      <trkpt lat="43.29781" lon="17.82164">
        <ele>91.929756</ele>
        <time>2022-06-12T12:24:45.104Z</time>
      </trkpt>
      <trkpt lat="43.29789" lon="17.82173">
        <ele>91.669924</ele>
        <time>2022-06-12T12:24:53.121Z</time>
      </trkpt>
      <trkpt lat="43.29806" lon="17.8218">
        <ele>91.198492</ele>
        <time>2022-06-12T12:25:56.097Z</time>
      </trkpt>
      <trkpt lat="43.29816" lon="17.82183">
        <ele>90.936649</ele>
        <time>2022-06-12T12:26:03.084Z</time>
      </trkpt>
      <trkpt lat="43.29825" lon="17.82184">
        <ele>90.677154</ele>
        <time>2022-06-12T12:26:08.087Z</time>
      </trkpt>
      <trkpt lat="43.29836" lon="17.82184">
        <ele>90.408508</ele>
        <time>2022-06-12T12:26:14.084Z</time>
      </trkpt>
      <trkpt lat="43.29845" lon="17.82183">
        <ele>90.147066</ele>
        <time>2022-06-12T12:26:21.095Z</time>
      </trkpt>
      <trkpt lat="43.29855" lon="17.82182">
        <ele>90.054342</ele>
        <time>2022-06-12T12:26:29.110Z</time>
      </trkpt>
      <trkpt lat="43.29865" lon="17.82181">
        <ele>89.996485</ele>
        <time>2022-06-12T12:26:37.095Z</time>
      </trkpt>
      <trkpt lat="43.29875" lon="17.8218">
        <ele>89.937406</ele>
        <time>2022-06-12T12:26:45.105Z</time>
      </trkpt>
      <trkpt lat="43.29884" lon="17.82178">
        <ele>89.881102</ele>
        <time>2022-06-12T12:26:52.163Z</time>
      </trkpt>
      <trkpt lat="43.29894" lon="17.82175">
        <ele>89.82352</ele>
        <time>2022-06-12T12:26:59.090Z</time>
      </trkpt>
      <trkpt lat="43.29903" lon="17.82173">
        <ele>89.768594</ele>
        <time>2022-06-12T12:27:06.084Z</time>
      </trkpt>
      <trkpt lat="43.29913" lon="17.82171">
        <ele>89.707737</ele>
        <time>2022-06-12T12:27:14.084Z</time>
      </trkpt>
      <trkpt lat="43.29923" lon="17.82167">
        <ele>89.648349</ele>
        <time>2022-06-12T12:27:21.126Z</time>
      </trkpt>
      <trkpt lat="43.29932" lon="17.82163">
        <ele>89.590855</ele>
        <time>2022-06-12T12:27:28.096Z</time>
      </trkpt>
      <trkpt lat="43.29941" lon="17.82159">
        <ele>89.535581</ele>
        <time>2022-06-12T12:27:35.098Z</time>
      </trkpt>
      <trkpt lat="43.29951" lon="17.82155">
        <ele>89.473905</ele>
        <time>2022-06-12T12:27:43.086Z</time>
      </trkpt>
      <trkpt lat="43.29961" lon="17.82152">
        <ele>89.413946</ele>
        <time>2022-06-12T12:27:51.097Z</time>
      </trkpt>
      <trkpt lat="43.29968" lon="17.82144">
        <ele>89.356854</ele>
        <time>2022-06-12T12:27:59.089Z</time>
      </trkpt>
      <trkpt lat="43.29978" lon="17.82139">
        <ele>89.29733</ele>
        <time>2022-06-12T12:28:08.076Z</time>
      </trkpt>
      <trkpt lat="43.29987" lon="17.82138">
        <ele>89.239611</ele>
        <time>2022-06-12T12:28:15.129Z</time>
      </trkpt>
      <trkpt lat="43.29997" lon="17.82137">
        <ele>89.181585</ele>
        <time>2022-06-12T12:28:22.091Z</time>
      </trkpt>
      <trkpt lat="43.30007" lon="17.82134">
        <ele>89.121314</ele>
        <time>2022-06-12T12:28:30.093Z</time>
      </trkpt>
      <trkpt lat="43.30017" lon="17.82132">
        <ele>89.063231</ele>
        <time>2022-06-12T12:28:38.079Z</time>
      </trkpt>
      <trkpt lat="43.30025" lon="17.82128">
        <ele>89.016349</ele>
        <time>2022-06-12T12:28:48.092Z</time>
      </trkpt>
      <trkpt lat="43.30041" lon="17.8212">
        <ele>88.945227</ele>
        <time>2022-06-12T12:30:11.090Z</time>
      </trkpt>
      <trkpt lat="43.30051" lon="17.82118">
        <ele>88.905699</ele>
        <time>2022-06-12T12:30:22.082Z</time>
      </trkpt>
      <trkpt lat="43.3006" lon="17.82116">
        <ele>88.867412</ele>
        <time>2022-06-12T12:30:28.060Z</time>
      </trkpt>
      <trkpt lat="43.30068" lon="17.82112">
        <ele>88.82834</ele>
        <time>2022-06-12T12:30:37.077Z</time>
      </trkpt>
      <trkpt lat="43.30078" lon="17.82109">
        <ele>88.787714</ele>
        <time>2022-06-12T12:30:46.089Z</time>
      </trkpt>
      <trkpt lat="43.30087" lon="17.82106">
        <ele>88.747783</ele>
        <time>2022-06-12T12:30:55.099Z</time>
      </trkpt>
      <trkpt lat="43.30096" lon="17.82112">
        <ele>88.707992</ele>
        <time>2022-06-12T12:33:33.070Z</time>
      </trkpt>
      <trkpt lat="43.30106" lon="17.82111">
        <ele>88.667718</ele>
        <time>2022-06-12T12:33:41.083Z</time>
      </trkpt>
      <trkpt lat="43.30115" lon="17.82113">
        <ele>88.629431</ele>
        <time>2022-06-12T12:33:48.070Z</time>
      </trkpt>
      <trkpt lat="43.30124" lon="17.82113">
        <ele>88.591221</ele>
        <time>2022-06-12T12:33:55.110Z</time>
      </trkpt>
      <trkpt lat="43.30133" lon="17.82114">
        <ele>88.552399</ele>
        <time>2022-06-12T12:34:02.075Z</time>
      </trkpt>
      <trkpt lat="43.30143" lon="17.82117">
        <ele>88.510829</ele>
        <time>2022-06-12T12:34:10.087Z</time>
      </trkpt>
      <trkpt lat="43.30152" lon="17.82121">
        <ele>88.468973</ele>
        <time>2022-06-12T12:34:19.070Z</time>
      </trkpt>
      <trkpt lat="43.30162" lon="17.82123">
        <ele>88.42825</ele>
        <time>2022-06-12T12:34:28.056Z</time>
      </trkpt>
      <trkpt lat="43.30171" lon="17.82124">
        <ele>88.388238</ele>
        <time>2022-06-12T12:34:36.104Z</time>
      </trkpt>
      <trkpt lat="43.30181" lon="17.82127">
        <ele>88.346954</ele>
        <time>2022-06-12T12:34:44.088Z</time>
      </trkpt>
      <trkpt lat="43.30191" lon="17.82129">
        <ele>88.30468</ele>
        <time>2022-06-12T12:34:52.079Z</time>
      </trkpt>
      <trkpt lat="43.30201" lon="17.82132">
        <ele>88.226567</ele>
        <time>2022-06-12T12:35:00.086Z</time>
      </trkpt>
      <trkpt lat="43.3021" lon="17.82134">
        <ele>88.113061</ele>
        <time>2022-06-12T12:35:07.093Z</time>
      </trkpt>
      <trkpt lat="43.30219" lon="17.82138">
        <ele>87.995742</ele>
        <time>2022-06-12T12:35:14.077Z</time>
      </trkpt>
      <trkpt lat="43.30228" lon="17.8214">
        <ele>87.882128</ele>
        <time>2022-06-12T12:35:21.076Z</time>
      </trkpt>
      <trkpt lat="43.30237" lon="17.82143">
        <ele>87.765046</ele>
        <time>2022-06-12T12:35:29.078Z</time>
      </trkpt>
      <trkpt lat="43.30246" lon="17.82144">
        <ele>87.645738</ele>
        <time>2022-06-12T12:35:36.202Z</time>
      </trkpt>
      <trkpt lat="43.30256" lon="17.82146">
        <ele>87.52137</ele>
        <time>2022-06-12T12:35:44.084Z</time>
      </trkpt>
      <trkpt lat="43.30266" lon="17.82149">
        <ele>87.398347</ele>
        <time>2022-06-12T12:35:52.087Z</time>
      </trkpt>
      <trkpt lat="43.30275" lon="17.82151">
        <ele>87.282377</ele>
        <time>2022-06-12T12:35:59.086Z</time>
      </trkpt>
      <trkpt lat="43.30284" lon="17.82153">
        <ele>87.165294</ele>
        <time>2022-06-12T12:36:07.086Z</time>
      </trkpt>
      <trkpt lat="43.30293" lon="17.82157">
        <ele>87.044449</ele>
        <time>2022-06-12T12:36:16.114Z</time>
      </trkpt>
      <trkpt lat="43.30303" lon="17.82161">
        <ele>86.92615</ele>
        <time>2022-06-12T12:36:26.086Z</time>
      </trkpt>
      <trkpt lat="43.30312" lon="17.82163">
        <ele>86.811868</ele>
        <time>2022-06-12T12:36:34.088Z</time>
      </trkpt>
      <trkpt lat="43.3032" lon="17.82166">
        <ele>86.699665</ele>
        <time>2022-06-12T12:36:41.093Z</time>
      </trkpt>
      <trkpt lat="43.30331" lon="17.82168">
        <ele>86.571895</ele>
        <time>2022-06-12T12:36:49.075Z</time>
      </trkpt>
      <trkpt lat="43.3034" lon="17.8217">
        <ele>86.447647</ele>
        <time>2022-06-12T12:36:57.096Z</time>
      </trkpt>
      <trkpt lat="43.3035" lon="17.82173">
        <ele>86.327939</ele>
        <time>2022-06-12T12:37:05.081Z</time>
      </trkpt>
      <trkpt lat="43.3036" lon="17.82175">
        <ele>86.203069</ele>
        <time>2022-06-12T12:37:13.079Z</time>
      </trkpt>
      <trkpt lat="43.30369" lon="17.82178">
        <ele>86.085203</ele>
        <time>2022-06-12T12:37:21.087Z</time>
      </trkpt>
      <trkpt lat="43.30378" lon="17.8218">
        <ele>86.273951</ele>
        <time>2022-06-12T12:37:29.086Z</time>
      </trkpt>
      <trkpt lat="43.30387" lon="17.82183">
        <ele>86.670946</ele>
        <time>2022-06-12T12:37:37.081Z</time>
      </trkpt>
      <trkpt lat="43.30396" lon="17.82186">
        <ele>87.066538</ele>
        <time>2022-06-12T12:37:45.100Z</time>
      </trkpt>
      <trkpt lat="43.30405" lon="17.82188">
        <ele>87.495485</ele>
        <time>2022-06-12T12:37:53.085Z</time>
      </trkpt>
      <trkpt lat="43.30415" lon="17.82188">
        <ele>87.901365</ele>
        <time>2022-06-12T12:38:00.097Z</time>
      </trkpt>
      <trkpt lat="43.30424" lon="17.82191">
        <ele>88.312498</ele>
        <time>2022-06-12T12:38:08.096Z</time>
      </trkpt>
      <trkpt lat="43.30433" lon="17.82192">
        <ele>88.715708</ele>
        <time>2022-06-12T12:38:15.101Z</time>
      </trkpt>
      <trkpt lat="43.30443" lon="17.82192">
        <ele>89.15203</ele>
        <time>2022-06-12T12:38:24.080Z</time>
      </trkpt>
      <trkpt lat="43.30456" lon="17.82192">
        <ele>89.723632</ele>
        <time>2022-06-12T12:39:00.071Z</time>
      </trkpt>
      <trkpt lat="43.30465" lon="17.82197">
        <ele>90.157939</ele>
        <time>2022-06-12T12:39:08.067Z</time>
      </trkpt>
      <trkpt lat="43.30474" lon="17.82203">
        <ele>90.572083</ele>
        <time>2022-06-12T12:39:17.087Z</time>
      </trkpt>
      <trkpt lat="43.30482" lon="17.82208">
        <ele>90.974733</ele>
        <time>2022-06-12T12:39:25.071Z</time>
      </trkpt>
      <trkpt lat="43.30492" lon="17.8221">
        <ele>91.420423</ele>
        <time>2022-06-12T12:39:35.069Z</time>
      </trkpt>
      <trkpt lat="43.30501" lon="17.82212">
        <ele>91.816794</ele>
        <time>2022-06-12T12:39:40.068Z</time>
      </trkpt>
      <trkpt lat="43.30511" lon="17.82214">
        <ele>92.246821</ele>
        <time>2022-06-12T12:39:47.093Z</time>
      </trkpt>
      <trkpt lat="43.3052" lon="17.82218">
        <ele>92.676167</ele>
        <time>2022-06-12T12:39:55.152Z</time>
      </trkpt>
      <trkpt lat="43.3053" lon="17.82222">
        <ele>93.098153</ele>
        <time>2022-06-12T12:40:04.096Z</time>
      </trkpt>
      <trkpt lat="43.30539" lon="17.82226">
        <ele>93.520683</ele>
        <time>2022-06-12T12:40:12.082Z</time>
      </trkpt>
      <trkpt lat="43.30548" lon="17.82229">
        <ele>93.866504</ele>
        <time>2022-06-12T12:40:19.098Z</time>
      </trkpt>
      <trkpt lat="43.30558" lon="17.82231">
        <ele>93.661952</ele>
        <time>2022-06-12T12:40:27.078Z</time>
      </trkpt>
      <trkpt lat="43.30567" lon="17.82233">
        <ele>93.47245</ele>
        <time>2022-06-12T12:40:34.094Z</time>
      </trkpt>
      <trkpt lat="43.30576" lon="17.82236">
        <ele>93.285371</ele>
        <time>2022-06-12T12:40:42.084Z</time>
      </trkpt>
      <trkpt lat="43.30585" lon="17.82238">
        <ele>93.103096</ele>
        <time>2022-06-12T12:40:50.075Z</time>
      </trkpt>
      <trkpt lat="43.30594" lon="17.8224">
        <ele>92.912398</ele>
        <time>2022-06-12T12:40:58.135Z</time>
      </trkpt>
      <trkpt lat="43.30604" lon="17.82243">
        <ele>92.711809</ele>
        <time>2022-06-12T12:41:07.071Z</time>
      </trkpt>
      <trkpt lat="43.30613" lon="17.82246">
        <ele>92.518815</ele>
        <time>2022-06-12T12:41:15.079Z</time>
      </trkpt>
      <trkpt lat="43.30623" lon="17.82251">
        <ele>92.321186</ele>
        <time>2022-06-12T12:41:24.090Z</time>
      </trkpt>
      <trkpt lat="43.30632" lon="17.82255">
        <ele>92.112764</ele>
        <time>2022-06-12T12:41:32.115Z</time>
      </trkpt>
      <trkpt lat="43.30642" lon="17.82259">
        <ele>91.90988</ele>
        <time>2022-06-12T12:41:39.098Z</time>
      </trkpt>
      <trkpt lat="43.30652" lon="17.82261">
        <ele>91.703369</ele>
        <time>2022-06-12T12:41:46.092Z</time>
      </trkpt>
      <trkpt lat="43.30662" lon="17.82263">
        <ele>91.507288</ele>
        <time>2022-06-12T12:41:54.104Z</time>
      </trkpt>
      <trkpt lat="43.30671" lon="17.82265">
        <ele>91.316787</ele>
        <time>2022-06-12T12:42:02.087Z</time>
      </trkpt>
      <trkpt lat="43.3068" lon="17.82266">
        <ele>91.133314</ele>
        <time>2022-06-12T12:42:10.086Z</time>
      </trkpt>
      <trkpt lat="43.3069" lon="17.82268">
        <ele>90.938092</ele>
        <time>2022-06-12T12:42:18.083Z</time>
      </trkpt>
      <trkpt lat="43.30698" lon="17.8227">
        <ele>90.75364</ele>
        <time>2022-06-12T12:42:27.104Z</time>
      </trkpt>
      <trkpt lat="43.30708" lon="17.82272">
        <ele>90.561766</ele>
        <time>2022-06-12T12:42:35.097Z</time>
      </trkpt>
      <trkpt lat="43.30718" lon="17.82274">
        <ele>90.356813</ele>
        <time>2022-06-12T12:42:44.082Z</time>
      </trkpt>
      <trkpt lat="43.30727" lon="17.82277">
        <ele>90.425156</ele>
        <time>2022-06-12T12:42:52.090Z</time>
      </trkpt>
      <trkpt lat="43.30736" lon="17.82282">
        <ele>90.846858</ele>
        <time>2022-06-12T12:43:01.083Z</time>
      </trkpt>
      <trkpt lat="43.30746" lon="17.82287">
        <ele>91.286705</ele>
        <time>2022-06-12T12:43:09.090Z</time>
      </trkpt>
      <trkpt lat="43.30755" lon="17.8229">
        <ele>91.702972</ele>
        <time>2022-06-12T12:43:17.095Z</time>
      </trkpt>
      <trkpt lat="43.30765" lon="17.82291">
        <ele>92.128066</ele>
        <time>2022-06-12T12:43:25.099Z</time>
      </trkpt>
      <trkpt lat="43.30774" lon="17.82291">
        <ele>92.535723</ele>
        <time>2022-06-12T12:43:33.094Z</time>
      </trkpt>
      <trkpt lat="43.30784" lon="17.82293">
        <ele>92.970948</ele>
        <time>2022-06-12T12:43:41.064Z</time>
      </trkpt>
      <trkpt lat="43.30793" lon="17.82295">
        <ele>93.380004</ele>
        <time>2022-06-12T12:43:48.095Z</time>
      </trkpt>
      <trkpt lat="43.30802" lon="17.82297">
        <ele>93.776274</ele>
        <time>2022-06-12T12:43:56.068Z</time>
      </trkpt>
      <trkpt lat="43.30812" lon="17.82297">
        <ele>94.205977</ele>
        <time>2022-06-12T12:44:05.103Z</time>
      </trkpt>
      <trkpt lat="43.30821" lon="17.82298">
        <ele>94.596304</ele>
        <time>2022-06-12T12:44:12.089Z</time>
      </trkpt>
      <trkpt lat="43.30831" lon="17.82301">
        <ele>95.026032</ele>
        <time>2022-06-12T12:44:21.124Z</time>
      </trkpt>
      <trkpt lat="43.30841" lon="17.82303">
        <ele>95.457434</ele>
        <time>2022-06-12T12:44:29.076Z</time>
      </trkpt>
      <trkpt lat="43.3085" lon="17.82303">
        <ele>95.848588</ele>
        <time>2022-06-12T12:44:37.084Z</time>
      </trkpt>
      <trkpt lat="43.3086" lon="17.82304">
        <ele>96.282621</ele>
        <time>2022-06-12T12:44:45.091Z</time>
      </trkpt>
      <trkpt lat="43.30869" lon="17.82305">
        <ele>96.700196</ele>
        <time>2022-06-12T12:44:53.085Z</time>
      </trkpt>
      <trkpt lat="43.30879" lon="17.82307">
        <ele>97.097481</ele>
        <time>2022-06-12T12:45:01.086Z</time>
      </trkpt>
      <trkpt lat="43.30888" lon="17.82307">
        <ele>97.518373</ele>
        <time>2022-06-12T12:45:08.098Z</time>
      </trkpt>
      <trkpt lat="43.30898" lon="17.82308">
        <ele>97.926274</ele>
        <time>2022-06-12T12:45:14.093Z</time>
      </trkpt>
      <trkpt lat="43.30908" lon="17.82306">
        <ele>98.175301</ele>
        <time>2022-06-12T12:45:23.140Z</time>
      </trkpt>
      <trkpt lat="43.30917" lon="17.82305">
        <ele>98.349552</ele>
        <time>2022-06-12T12:45:32.099Z</time>
      </trkpt>
      <trkpt lat="43.30927" lon="17.82305">
        <ele>98.516752</ele>
        <time>2022-06-12T12:45:40.083Z</time>
      </trkpt>
      <trkpt lat="43.30936" lon="17.82305">
        <ele>98.685649</ele>
        <time>2022-06-12T12:45:48.095Z</time>
      </trkpt>
      <trkpt lat="43.30946" lon="17.82304">
        <ele>98.865884</ele>
        <time>2022-06-12T12:45:56.085Z</time>
      </trkpt>
      <trkpt lat="43.30955" lon="17.82303">
        <ele>99.026415</ele>
        <time>2022-06-12T12:46:04.074Z</time>
      </trkpt>
      <trkpt lat="43.30965" lon="17.82303">
        <ele>99.204221</ele>
        <time>2022-06-12T12:46:13.081Z</time>
      </trkpt>
      <trkpt lat="43.30974" lon="17.82304">
        <ele>99.364751</ele>
        <time>2022-06-12T12:46:21.086Z</time>
      </trkpt>
      <trkpt lat="43.30985" lon="17.82304">
        <ele>99.544358</ele>
        <time>2022-06-12T12:46:29.096Z</time>
      </trkpt>
      <trkpt lat="43.30995" lon="17.82303">
        <ele>99.726258</ele>
        <time>2022-06-12T12:46:38.080Z</time>
      </trkpt>
      <trkpt lat="43.31004" lon="17.82299">
        <ele>99.896118</ele>
        <time>2022-06-12T12:46:47.071Z</time>
      </trkpt>
      <trkpt lat="43.31013" lon="17.82297">
        <ele>100.063092</ele>
        <time>2022-06-12T12:46:55.108Z</time>
      </trkpt>
      <trkpt lat="43.31022" lon="17.82297">
        <ele>100.223357</ele>
        <time>2022-06-12T12:47:03.084Z</time>
      </trkpt>
      <trkpt lat="43.31033" lon="17.82297">
        <ele>100.40826</ele>
        <time>2022-06-12T12:47:11.092Z</time>
      </trkpt>
      <trkpt lat="43.31042" lon="17.82298">
        <ele>100.577558</ele>
        <time>2022-06-12T12:47:19.090Z</time>
      </trkpt>
      <trkpt lat="43.31051" lon="17.82297">
        <ele>100.74292</ele>
        <time>2022-06-12T12:47:26.111Z</time>
      </trkpt>
      <trkpt lat="43.31061" lon="17.82296">
        <ele>100.91677</ele>
        <time>2022-06-12T12:47:34.072Z</time>
      </trkpt>
      <trkpt lat="43.31071" lon="17.82293">
        <ele>101.088269</ele>
        <time>2022-06-12T12:47:42.096Z</time>
      </trkpt>
      <trkpt lat="43.3108" lon="17.82292">
        <ele>101.229158</ele>
        <time>2022-06-12T12:47:51.133Z</time>
      </trkpt>
      <trkpt lat="43.3109" lon="17.82291">
        <ele>101.081363</ele>
        <time>2022-06-12T12:48:00.093Z</time>
      </trkpt>
      <trkpt lat="43.31099" lon="17.82289">
        <ele>100.945362</ele>
        <time>2022-06-12T12:48:09.128Z</time>
      </trkpt>
      <trkpt lat="43.31108" lon="17.82288">
        <ele>100.806753</ele>
        <time>2022-06-12T12:48:17.091Z</time>
      </trkpt>
      <trkpt lat="43.31118" lon="17.82286">
        <ele>100.662831</ele>
        <time>2022-06-12T12:48:25.090Z</time>
      </trkpt>
      <trkpt lat="43.31127" lon="17.82286">
        <ele>100.523308</ele>
        <time>2022-06-12T12:48:33.079Z</time>
      </trkpt>
      <trkpt lat="43.31137" lon="17.82286">
        <ele>100.379334</ele>
        <time>2022-06-12T12:48:41.082Z</time>
      </trkpt>
      <trkpt lat="43.31146" lon="17.82286">
        <ele>100.245715</ele>
        <time>2022-06-12T12:48:48.088Z</time>
      </trkpt>
      <trkpt lat="43.31156" lon="17.82286">
        <ele>100.101774</ele>
        <time>2022-06-12T12:48:56.094Z</time>
      </trkpt>
      <trkpt lat="43.31165" lon="17.82287">
        <ele>99.966464</ele>
        <time>2022-06-12T12:49:03.097Z</time>
      </trkpt>
      <trkpt lat="43.31174" lon="17.82287">
        <ele>99.822511</ele>
        <time>2022-06-12T12:49:11.085Z</time>
      </trkpt>
      <trkpt lat="43.31185" lon="17.82287">
        <ele>99.668126</ele>
        <time>2022-06-12T12:49:19.091Z</time>
      </trkpt>
      <trkpt lat="43.31195" lon="17.82286">
        <ele>99.51942</ele>
        <time>2022-06-12T12:49:26.099Z</time>
      </trkpt>
      <trkpt lat="43.31204" lon="17.82285">
        <ele>99.378186</ele>
        <time>2022-06-12T12:49:35.082Z</time>
      </trkpt>
      <trkpt lat="43.31214" lon="17.82284">
        <ele>99.235145</ele>
        <time>2022-06-12T12:49:44.103Z</time>
      </trkpt>
      <trkpt lat="43.31223" lon="17.82281">
        <ele>99.091193</ele>
        <time>2022-06-12T12:49:53.082Z</time>
      </trkpt>
      <trkpt lat="43.31232" lon="17.82276">
        <ele>98.954417</ele>
        <time>2022-06-12T12:50:12.086Z</time>
      </trkpt>
      <trkpt lat="43.31241" lon="17.82277">
        <ele>98.817895</ele>
        <time>2022-06-12T12:50:20.096Z</time>
      </trkpt>
      <trkpt lat="43.31252" lon="17.82276">
        <ele>98.658987</ele>
        <time>2022-06-12T12:50:28.088Z</time>
      </trkpt>
      <trkpt lat="43.31262" lon="17.82276">
        <ele>98.598645</ele>
        <time>2022-06-12T12:50:35.099Z</time>
      </trkpt>
      <trkpt lat="43.31272" lon="17.82274">
        <ele>98.668911</ele>
        <time>2022-06-12T12:50:43.099Z</time>
      </trkpt>
      <trkpt lat="43.31281" lon="17.82271">
        <ele>98.735943</ele>
        <time>2022-06-12T12:50:51.090Z</time>
      </trkpt>
      <trkpt lat="43.31291" lon="17.82268">
        <ele>98.805133</ele>
        <time>2022-06-12T12:50:59.089Z</time>
      </trkpt>
      <trkpt lat="43.313" lon="17.82265">
        <ele>98.868797</ele>
        <time>2022-06-12T12:51:06.080Z</time>
      </trkpt>
      <trkpt lat="43.31309" lon="17.82262">
        <ele>98.933311</ele>
        <time>2022-06-12T12:51:14.095Z</time>
      </trkpt>
      <trkpt lat="43.31318" lon="17.82259">
        <ele>98.996113</ele>
        <time>2022-06-12T12:51:22.088Z</time>
      </trkpt>
      <trkpt lat="43.31328" lon="17.82258">
        <ele>99.06663</ele>
        <time>2022-06-12T12:51:31.089Z</time>
      </trkpt>
      <trkpt lat="43.31337" lon="17.82255">
        <ele>99.132247</ele>
        <time>2022-06-12T12:51:39.084Z</time>
      </trkpt>
      <trkpt lat="43.31346" lon="17.82251">
        <ele>99.199185</ele>
        <time>2022-06-12T12:51:47.095Z</time>
      </trkpt>
      <trkpt lat="43.31355" lon="17.82246">
        <ele>99.263621</ele>
        <time>2022-06-12T12:51:55.102Z</time>
      </trkpt>
      <trkpt lat="43.31364" lon="17.82242">
        <ele>99.329691</ele>
        <time>2022-06-12T12:52:02.094Z</time>
      </trkpt>
      <trkpt lat="43.31374" lon="17.82239">
        <ele>99.398881</ele>
        <time>2022-06-12T12:52:10.094Z</time>
      </trkpt>
      <trkpt lat="43.31383" lon="17.82236">
        <ele>99.461986</ele>
        <time>2022-06-12T12:52:18.079Z</time>
      </trkpt>
      <trkpt lat="43.31392" lon="17.82232">
        <ele>99.527602</ele>
        <time>2022-06-12T12:52:25.118Z</time>
      </trkpt>
      <trkpt lat="43.31401" lon="17.82227">
        <ele>99.593882</ele>
        <time>2022-06-12T12:52:33.095Z</time>
      </trkpt>
      <trkpt lat="43.31409" lon="17.82221">
        <ele>99.656187</ele>
        <time>2022-06-12T12:52:40.084Z</time>
      </trkpt>
      <trkpt lat="43.31418" lon="17.82216">
        <ele>99.723512</ele>
        <time>2022-06-12T12:52:48.095Z</time>
      </trkpt>
      <trkpt lat="43.31426" lon="17.82211">
        <ele>99.786444</ele>
        <time>2022-06-12T12:52:56.085Z</time>
      </trkpt>
      <trkpt lat="43.31435" lon="17.82206">
        <ele>99.751879</ele>
        <time>2022-06-12T12:53:04.085Z</time>
      </trkpt>
      <trkpt lat="43.31444" lon="17.82201">
        <ele>99.652547</ele>
        <time>2022-06-12T12:53:12.086Z</time>
      </trkpt>
      <trkpt lat="43.31453" lon="17.82198">
        <ele>99.55488</ele>
        <time>2022-06-12T12:53:19.085Z</time>
      </trkpt>
      <trkpt lat="43.31462" lon="17.82194">
        <ele>99.448588</ele>
        <time>2022-06-12T12:53:27.087Z</time>
      </trkpt>
      <trkpt lat="43.31472" lon="17.8219">
        <ele>99.34176</ele>
        <time>2022-06-12T12:53:35.103Z</time>
      </trkpt>
      <trkpt lat="43.31481" lon="17.82187">
        <ele>99.241853</ele>
        <time>2022-06-12T12:53:43.096Z</time>
      </trkpt>
      <trkpt lat="43.31491" lon="17.82182">
        <ele>99.137804</ele>
        <time>2022-06-12T12:53:52.093Z</time>
      </trkpt>
      <trkpt lat="43.315" lon="17.82178">
        <ele>99.036027</ele>
        <time>2022-06-12T12:54:00.093Z</time>
      </trkpt>
      <trkpt lat="43.31509" lon="17.82174">
        <ele>98.931744</ele>
        <time>2022-06-12T12:54:08.092Z</time>
      </trkpt>
      <trkpt lat="43.31518" lon="17.8217">
        <ele>98.835956</ele>
        <time>2022-06-12T12:54:16.112Z</time>
      </trkpt>
      <trkpt lat="43.31527" lon="17.82165">
        <ele>98.729431</ele>
        <time>2022-06-12T12:54:25.095Z</time>
      </trkpt>
      <trkpt lat="43.31536" lon="17.82161">
        <ele>98.628124</ele>
        <time>2022-06-12T12:54:33.084Z</time>
      </trkpt>
      <trkpt lat="43.31545" lon="17.82159">
        <ele>98.531013</ele>
        <time>2022-06-12T12:54:40.090Z</time>
      </trkpt>
      <trkpt lat="43.31554" lon="17.82156">
        <ele>98.435469</ele>
        <time>2022-06-12T12:54:48.091Z</time>
      </trkpt>
      <trkpt lat="43.31564" lon="17.82156">
        <ele>98.330839</ele>
        <time>2022-06-12T12:54:56.097Z</time>
      </trkpt>
      <trkpt lat="43.31574" lon="17.82155">
        <ele>98.229369</ele>
        <time>2022-06-12T12:55:04.088Z</time>
      </trkpt>
      <trkpt lat="43.31583" lon="17.82152">
        <ele>98.130426</ele>
        <time>2022-06-12T12:55:12.091Z</time>
      </trkpt>
      <trkpt lat="43.31592" lon="17.82148">
        <ele>98.024411</ele>
        <time>2022-06-12T12:55:20.090Z</time>
      </trkpt>
      <trkpt lat="43.31601" lon="17.82144">
        <ele>97.927864</ele>
        <time>2022-06-12T12:55:28.093Z</time>
      </trkpt>
      <trkpt lat="43.31611" lon="17.82141">
        <ele>97.931301</ele>
        <time>2022-06-12T12:55:37.102Z</time>
      </trkpt>
      <trkpt lat="43.3162" lon="17.8214">
        <ele>97.949101</ele>
        <time>2022-06-12T12:55:45.104Z</time>
      </trkpt>
      <trkpt lat="43.31631" lon="17.8214">
        <ele>97.968269</ele>
        <time>2022-06-12T12:55:53.084Z</time>
      </trkpt>
      <trkpt lat="43.3164" lon="17.82138">
        <ele>97.985795</ele>
        <time>2022-06-12T12:56:01.092Z</time>
      </trkpt>
      <trkpt lat="43.31649" lon="17.82136">
        <ele>98.00285</ele>
        <time>2022-06-12T12:56:08.102Z</time>
      </trkpt>
      <trkpt lat="43.31658" lon="17.82134">
        <ele>98.021139</ele>
        <time>2022-06-12T12:56:16.072Z</time>
      </trkpt>
      <trkpt lat="43.31667" lon="17.82131">
        <ele>98.038267</ele>
        <time>2022-06-12T12:56:23.089Z</time>
      </trkpt>
      <trkpt lat="43.31677" lon="17.82129">
        <ele>98.056122</ele>
        <time>2022-06-12T12:56:30.087Z</time>
      </trkpt>
      <trkpt lat="43.31686" lon="17.82128">
        <ele>98.073863</ele>
        <time>2022-06-12T12:56:38.101Z</time>
      </trkpt>
      <trkpt lat="43.31696" lon="17.82128">
        <ele>98.092094</ele>
        <time>2022-06-12T12:56:47.102Z</time>
      </trkpt>
      <trkpt lat="43.31706" lon="17.82126">
        <ele>98.110899</ele>
        <time>2022-06-12T12:56:57.088Z</time>
      </trkpt>
      <trkpt lat="43.31716" lon="17.82123">
        <ele>98.129815</ele>
        <time>2022-06-12T12:57:04.089Z</time>
      </trkpt>
      <trkpt lat="43.31725" lon="17.8212">
        <ele>98.148878</ele>
        <time>2022-06-12T12:57:12.090Z</time>
      </trkpt>
      <trkpt lat="43.31735" lon="17.82116">
        <ele>98.168129</ele>
        <time>2022-06-12T12:57:20.091Z</time>
      </trkpt>
      <trkpt lat="43.31744" lon="17.82114">
        <ele>98.185493</ele>
        <time>2022-06-12T12:57:28.093Z</time>
      </trkpt>
      <trkpt lat="43.31754" lon="17.82112">
        <ele>98.204278</ele>
        <time>2022-06-12T12:57:36.076Z</time>
      </trkpt>
      <trkpt lat="43.31764" lon="17.82111">
        <ele>98.221948</ele>
        <time>2022-06-12T12:57:44.089Z</time>
      </trkpt>
      <trkpt lat="43.31773" lon="17.82112">
        <ele>98.240377</ele>
        <time>2022-06-12T12:57:52.073Z</time>
      </trkpt>
      <trkpt lat="43.31782" lon="17.82114">
        <ele>98.260367</ele>
        <time>2022-06-12T12:58:00.069Z</time>
      </trkpt>
      <trkpt lat="43.31792" lon="17.8211">
        <ele>98.291281</ele>
        <time>2022-06-12T12:58:15.127Z</time>
      </trkpt>
      <trkpt lat="43.31801" lon="17.82108">
        <ele>98.323044</ele>
        <time>2022-06-12T12:58:24.073Z</time>
      </trkpt>
      <trkpt lat="43.3182" lon="17.82106">
        <ele>98.383818</ele>
        <time>2022-06-12T12:58:56.113Z</time>
      </trkpt>
      <trkpt lat="43.3183" lon="17.82104">
        <ele>98.415264</ele>
        <time>2022-06-12T12:59:05.120Z</time>
      </trkpt>
      <trkpt lat="43.3184" lon="17.82102">
        <ele>98.44728</ele>
        <time>2022-06-12T12:59:10.075Z</time>
      </trkpt>
      <trkpt lat="43.3185" lon="17.82101">
        <ele>98.479557</ele>
        <time>2022-06-12T12:59:19.074Z</time>
      </trkpt>
      <trkpt lat="43.31859" lon="17.821">
        <ele>98.510407</ele>
        <time>2022-06-12T12:59:28.069Z</time>
      </trkpt>
      <trkpt lat="43.31869" lon="17.82098">
        <ele>98.542205</ele>
        <time>2022-06-12T12:59:36.081Z</time>
      </trkpt>
      <trkpt lat="43.31878" lon="17.82093">
        <ele>98.573156</ele>
        <time>2022-06-12T12:59:44.063Z</time>
      </trkpt>
      <trkpt lat="43.31887" lon="17.82089">
        <ele>98.602037</ele>
        <time>2022-06-12T12:59:52.078Z</time>
      </trkpt>
      <trkpt lat="43.31897" lon="17.82089">
        <ele>98.63378</ele>
        <time>2022-06-12T13:00:00.089Z</time>
      </trkpt>
      <trkpt lat="43.31905" lon="17.82082">
        <ele>98.665122</ele>
        <time>2022-06-12T13:00:08.089Z</time>
      </trkpt>
      <trkpt lat="43.31913" lon="17.82075">
        <ele>98.694861</ele>
        <time>2022-06-12T13:00:16.078Z</time>
      </trkpt>
      <trkpt lat="43.31922" lon="17.82072">
        <ele>98.726545</ele>
        <time>2022-06-12T13:00:26.085Z</time>
      </trkpt>
      <trkpt lat="43.31932" lon="17.82078">
        <ele>98.759094</ele>
        <time>2022-06-12T13:00:35.085Z</time>
      </trkpt>
      <trkpt lat="43.31942" lon="17.8208">
        <ele>98.791689</ele>
        <time>2022-06-12T13:00:44.097Z</time>
      </trkpt>
      <trkpt lat="43.31952" lon="17.8208">
        <ele>98.824711</ele>
        <time>2022-06-12T13:00:52.108Z</time>
      </trkpt>
      <trkpt lat="43.31961" lon="17.82078">
        <ele>98.831371</ele>
        <time>2022-06-12T13:01:01.078Z</time>
      </trkpt>
      <trkpt lat="43.31971" lon="17.82078">
        <ele>98.83364</ele>
        <time>2022-06-12T13:01:10.092Z</time>
      </trkpt>
      <trkpt lat="43.3198" lon="17.82077">
        <ele>98.835744</ele>
        <time>2022-06-12T13:01:17.094Z</time>
      </trkpt>
      <trkpt lat="43.31989" lon="17.82073">
        <ele>98.837898</ele>
        <time>2022-06-12T13:01:25.071Z</time>
      </trkpt>
      <trkpt lat="43.31998" lon="17.82071">
        <ele>98.840115</ele>
        <time>2022-06-12T13:01:33.068Z</time>
      </trkpt>
      <trkpt lat="43.32008" lon="17.82071">
        <ele>98.842428</ele>
        <time>2022-06-12T13:01:42.063Z</time>
      </trkpt>
      <trkpt lat="43.32018" lon="17.82068">
        <ele>98.844759</ele>
        <time>2022-06-12T13:01:52.063Z</time>
      </trkpt>
      <trkpt lat="43.32027" lon="17.82067">
        <ele>98.846968</ele>
        <time>2022-06-12T13:02:03.087Z</time>
      </trkpt>
      <trkpt lat="43.32037" lon="17.82066">
        <ele>98.849217</ele>
        <time>2022-06-12T13:02:10.124Z</time>
      </trkpt>
      <trkpt lat="43.32047" lon="17.82064">
        <ele>98.851544</ele>
        <time>2022-06-12T13:02:18.094Z</time>
      </trkpt>
      <trkpt lat="43.32057" lon="17.82063">
        <ele>98.853913</ele>
        <time>2022-06-12T13:02:25.116Z</time>
      </trkpt>
      <trkpt lat="43.32066" lon="17.82061">
        <ele>98.856124</ele>
        <time>2022-06-12T13:02:35.096Z</time>
      </trkpt>
      <trkpt lat="43.32076" lon="17.8206">
        <ele>98.858374</ele>
        <time>2022-06-12T13:02:44.116Z</time>
      </trkpt>
      <trkpt lat="43.32085" lon="17.82059">
        <ele>98.860603</ele>
        <time>2022-06-12T13:02:53.088Z</time>
      </trkpt>
      <trkpt lat="43.32094" lon="17.82058">
        <ele>98.862791</ele>
        <time>2022-06-12T13:02:58.086Z</time>
      </trkpt>
      <trkpt lat="43.32104" lon="17.82056">
        <ele>98.864993</ele>
        <time>2022-06-12T13:03:04.088Z</time>
      </trkpt>
      <trkpt lat="43.32113" lon="17.82053">
        <ele>98.867112</ele>
        <time>2022-06-12T13:03:10.082Z</time>
      </trkpt>
      <trkpt lat="43.32122" lon="17.82051">
        <ele>98.869391</ele>
        <time>2022-06-12T13:03:17.083Z</time>
      </trkpt>
      <trkpt lat="43.32132" lon="17.82049">
        <ele>98.87509</ele>
        <time>2022-06-12T13:03:25.160Z</time>
      </trkpt>
      <trkpt lat="43.32141" lon="17.82047">
        <ele>98.965935</ele>
        <time>2022-06-12T13:03:32.095Z</time>
      </trkpt>
      <trkpt lat="43.3215" lon="17.82044">
        <ele>99.05225</ele>
        <time>2022-06-12T13:03:39.076Z</time>
      </trkpt>
      <trkpt lat="43.32159" lon="17.8204">
        <ele>99.140803</ele>
        <time>2022-06-12T13:03:48.108Z</time>
      </trkpt>
      <trkpt lat="43.32169" lon="17.8204">
        <ele>99.230338</ele>
        <time>2022-06-12T13:03:56.088Z</time>
      </trkpt>
      <trkpt lat="43.32178" lon="17.82037">
        <ele>99.320941</ele>
        <time>2022-06-12T13:04:04.085Z</time>
      </trkpt>
      <trkpt lat="43.32187" lon="17.82035">
        <ele>99.4078</ele>
        <time>2022-06-12T13:04:11.092Z</time>
      </trkpt>
      <trkpt lat="43.32196" lon="17.82033">
        <ele>99.496305</ele>
        <time>2022-06-12T13:04:19.089Z</time>
      </trkpt>
      <trkpt lat="43.32205" lon="17.8203">
        <ele>99.585066</ele>
        <time>2022-06-12T13:04:28.108Z</time>
      </trkpt>
      <trkpt lat="43.3223" lon="17.8203">
        <ele>99.821663</ele>
        <time>2022-06-12T13:05:46.090Z</time>
      </trkpt>
      <trkpt lat="43.3224" lon="17.82028">
        <ele>99.917892</ele>
        <time>2022-06-12T13:05:53.087Z</time>
      </trkpt>
      <trkpt lat="43.32251" lon="17.82026">
        <ele>100.017674</ele>
        <time>2022-06-12T13:05:58.090Z</time>
      </trkpt>
      <trkpt lat="43.32261" lon="17.82025">
        <ele>100.114131</ele>
        <time>2022-06-12T13:06:04.140Z</time>
      </trkpt>
      <trkpt lat="43.3227" lon="17.82024">
        <ele>100.201647</ele>
        <time>2022-06-12T13:06:11.081Z</time>
      </trkpt>
      <trkpt lat="43.32279" lon="17.82024">
        <ele>100.289064</ele>
        <time>2022-06-12T13:06:18.093Z</time>
      </trkpt>
      <trkpt lat="43.32289" lon="17.82023">
        <ele>100.382616</ele>
        <time>2022-06-12T13:06:25.092Z</time>
      </trkpt>
      <trkpt lat="43.32298" lon="17.82021">
        <ele>100.473937</ele>
        <time>2022-06-12T13:06:33.096Z</time>
      </trkpt>
      <trkpt lat="43.32308" lon="17.82019">
        <ele>100.565909</ele>
        <time>2022-06-12T13:06:42.094Z</time>
      </trkpt>
      <trkpt lat="43.32318" lon="17.82016">
        <ele>100.31332</ele>
        <time>2022-06-12T13:06:50.172Z</time>
      </trkpt>
      <trkpt lat="43.32327" lon="17.82014">
        <ele>99.998908</ele>
        <time>2022-06-12T13:06:58.087Z</time>
      </trkpt>
      <trkpt lat="43.32336" lon="17.82011">
        <ele>99.689039</ele>
        <time>2022-06-12T13:07:05.111Z</time>
      </trkpt>
      <trkpt lat="43.32346" lon="17.82009">
        <ele>99.385092</ele>
        <time>2022-06-12T13:07:12.171Z</time>
      </trkpt>
      <trkpt lat="43.32356" lon="17.82006">
        <ele>99.056523</ele>
        <time>2022-06-12T13:07:21.083Z</time>
      </trkpt>
      <trkpt lat="43.32365" lon="17.82002">
        <ele>98.732656</ele>
        <time>2022-06-12T13:07:29.088Z</time>
      </trkpt>
      <trkpt lat="43.32374" lon="17.81999">
        <ele>98.433893</ele>
        <time>2022-06-12T13:07:37.093Z</time>
      </trkpt>
      <trkpt lat="43.32383" lon="17.81994">
        <ele>98.133303</ele>
        <time>2022-06-12T13:07:44.087Z</time>
      </trkpt>
      <trkpt lat="43.32389" lon="17.81984">
        <ele>97.80883</ele>
        <time>2022-06-12T13:07:53.078Z</time>
      </trkpt>
      <trkpt lat="43.32399" lon="17.8198">
        <ele>97.477501</ele>
        <time>2022-06-12T13:08:01.080Z</time>
      </trkpt>
      <trkpt lat="43.32408" lon="17.81977">
        <ele>97.175607</ele>
        <time>2022-06-12T13:08:09.111Z</time>
      </trkpt>
      <trkpt lat="43.32418" lon="17.81973">
        <ele>96.849795</ele>
        <time>2022-06-12T13:08:16.081Z</time>
      </trkpt>
      <trkpt lat="43.32427" lon="17.81968">
        <ele>96.532506</ele>
        <time>2022-06-12T13:08:24.081Z</time>
      </trkpt>
      <trkpt lat="43.32435" lon="17.81962">
        <ele>96.236789</ele>
        <time>2022-06-12T13:08:32.077Z</time>
      </trkpt>
      <trkpt lat="43.32444" lon="17.81956">
        <ele>95.916405</ele>
        <time>2022-06-12T13:08:40.094Z</time>
      </trkpt>
      <trkpt lat="43.32452" lon="17.81949">
        <ele>95.623193</ele>
        <time>2022-06-12T13:08:47.081Z</time>
      </trkpt>
      <trkpt lat="43.32459" lon="17.81942">
        <ele>95.330711</ele>
        <time>2022-06-12T13:08:54.122Z</time>
      </trkpt>
      <trkpt lat="43.32467" lon="17.81935">
        <ele>95.014078</ele>
        <time>2022-06-12T13:09:02.088Z</time>
      </trkpt>
      <trkpt lat="43.32475" lon="17.81928">
        <ele>94.770132</ele>
        <time>2022-06-12T13:09:09.093Z</time>
      </trkpt>
      <trkpt lat="43.32483" lon="17.8192">
        <ele>94.89386</ele>
        <time>2022-06-12T13:09:16.075Z</time>
      </trkpt>
      <trkpt lat="43.3249" lon="17.81913">
        <ele>95.015744</ele>
        <time>2022-06-12T13:09:23.091Z</time>
      </trkpt>
      <trkpt lat="43.32497" lon="17.81904">
        <ele>95.150741</ele>
        <time>2022-06-12T13:09:31.075Z</time>
      </trkpt>
      <trkpt lat="43.32505" lon="17.81894">
        <ele>95.28998</ele>
        <time>2022-06-12T13:09:39.078Z</time>
      </trkpt>
      <trkpt lat="43.32512" lon="17.81885">
        <ele>95.419342</ele>
        <time>2022-06-12T13:09:46.084Z</time>
      </trkpt>
      <trkpt lat="43.32519" lon="17.81877">
        <ele>95.54477</ele>
        <time>2022-06-12T13:09:53.143Z</time>
      </trkpt>
      <trkpt lat="43.32526" lon="17.81868">
        <ele>95.673089</ele>
        <time>2022-06-12T13:10:00.122Z</time>
      </trkpt>
      <trkpt lat="43.32532" lon="17.81858">
        <ele>95.795517</ele>
        <time>2022-06-12T13:10:07.085Z</time>
      </trkpt>
      <trkpt lat="43.32538" lon="17.81848">
        <ele>95.931989</ele>
        <time>2022-06-12T13:10:15.095Z</time>
      </trkpt>
      <trkpt lat="43.32545" lon="17.81837">
        <ele>96.065632</ele>
        <time>2022-06-12T13:10:23.083Z</time>
      </trkpt>
      <trkpt lat="43.32552" lon="17.81827">
        <ele>96.200173</ele>
        <time>2022-06-12T13:10:32.078Z</time>
      </trkpt>
      <trkpt lat="43.32558" lon="17.81818">
        <ele>96.322459</ele>
        <time>2022-06-12T13:10:39.089Z</time>
      </trkpt>
      <trkpt lat="43.32564" lon="17.81808">
        <ele>96.453016</ele>
        <time>2022-06-12T13:10:47.080Z</time>
      </trkpt>
      <trkpt lat="43.32571" lon="17.81797">
        <ele>96.58863</ele>
        <time>2022-06-12T13:10:55.093Z</time>
      </trkpt>
      <trkpt lat="43.32577" lon="17.81787">
        <ele>96.721024</ele>
        <time>2022-06-12T13:11:02.086Z</time>
      </trkpt>
      <trkpt lat="43.32584" lon="17.81778">
        <ele>96.850009</ele>
        <time>2022-06-12T13:11:09.099Z</time>
      </trkpt>
      <trkpt lat="43.32591" lon="17.81769">
        <ele>96.977732</ele>
        <time>2022-06-12T13:11:16.121Z</time>
      </trkpt>
      <trkpt lat="43.32599" lon="17.81761">
        <ele>97.11002</ele>
        <time>2022-06-12T13:11:23.090Z</time>
      </trkpt>
      <trkpt lat="43.32606" lon="17.81753">
        <ele>97.165909</ele>
        <time>2022-06-12T13:11:30.093Z</time>
      </trkpt>
      <trkpt lat="43.32613" lon="17.81744">
        <ele>97.153771</ele>
        <time>2022-06-12T13:11:38.082Z</time>
      </trkpt>
      <trkpt lat="43.3262" lon="17.81735">
        <ele>97.142389</ele>
        <time>2022-06-12T13:11:45.125Z</time>
      </trkpt>
      <trkpt lat="43.32628" lon="17.81727">
        <ele>97.130751</ele>
        <time>2022-06-12T13:11:53.084Z</time>
      </trkpt>
      <trkpt lat="43.32635" lon="17.81719">
        <ele>97.119429</ele>
        <time>2022-06-12T13:12:00.093Z</time>
      </trkpt>
      <trkpt lat="43.32642" lon="17.81709">
        <ele>97.10687</ele>
        <time>2022-06-12T13:12:07.121Z</time>
      </trkpt>
      <trkpt lat="43.32649" lon="17.81701">
        <ele>97.095217</ele>
        <time>2022-06-12T13:12:14.091Z</time>
      </trkpt>
      <trkpt lat="43.32656" lon="17.81692">
        <ele>97.083861</ele>
        <time>2022-06-12T13:12:21.105Z</time>
      </trkpt>
      <trkpt lat="43.32664" lon="17.81684">
        <ele>97.072101</ele>
        <time>2022-06-12T13:12:29.073Z</time>
      </trkpt>
      <trkpt lat="43.32672" lon="17.81677">
        <ele>97.060403</ele>
        <time>2022-06-12T13:12:36.092Z</time>
      </trkpt>
      <trkpt lat="43.3268" lon="17.81669">
        <ele>97.048091</ele>
        <time>2022-06-12T13:12:44.095Z</time>
      </trkpt>
      <trkpt lat="43.32684" lon="17.81657">
        <ele>97.036376</ele>
        <time>2022-06-12T13:12:53.103Z</time>
      </trkpt>
      <trkpt lat="43.32691" lon="17.81649">
        <ele>97.025082</ele>
        <time>2022-06-12T13:13:02.085Z</time>
      </trkpt>
      <trkpt lat="43.32699" lon="17.81642">
        <ele>97.013536</ele>
        <time>2022-06-12T13:13:12.085Z</time>
      </trkpt>
      <trkpt lat="43.32707" lon="17.81636">
        <ele>97.002435</ele>
        <time>2022-06-12T13:13:20.080Z</time>
      </trkpt>
      <trkpt lat="43.32715" lon="17.8163">
        <ele>96.991002</ele>
        <time>2022-06-12T13:13:26.139Z</time>
      </trkpt>
      <trkpt lat="43.32724" lon="17.81625">
        <ele>96.979175</ele>
        <time>2022-06-12T13:13:34.091Z</time>
      </trkpt>
      <trkpt lat="43.32733" lon="17.81621">
        <ele>96.966943</ele>
        <time>2022-06-12T13:13:43.084Z</time>
      </trkpt>
      <trkpt lat="43.32741" lon="17.81614">
        <ele>96.955299</ele>
        <time>2022-06-12T13:13:52.089Z</time>
      </trkpt>
      <trkpt lat="43.3275" lon="17.81608">
        <ele>97.06429</ele>
        <time>2022-06-12T13:14:00.068Z</time>
      </trkpt>
      <trkpt lat="43.32759" lon="17.81605">
        <ele>97.256851</ele>
        <time>2022-06-12T13:14:08.087Z</time>
      </trkpt>
      <trkpt lat="43.32767" lon="17.816">
        <ele>97.444919</ele>
        <time>2022-06-12T13:14:16.148Z</time>
      </trkpt>
      <trkpt lat="43.32775" lon="17.81595">
        <ele>97.639861</ele>
        <time>2022-06-12T13:14:25.092Z</time>
      </trkpt>
      <trkpt lat="43.32802" lon="17.81605">
        <ele>98.202693</ele>
        <time>2022-06-12T13:15:02.089Z</time>
      </trkpt>
      <trkpt lat="43.3281" lon="17.816">
        <ele>98.395832</ele>
        <time>2022-06-12T13:15:09.096Z</time>
      </trkpt>
      <trkpt lat="43.32819" lon="17.81596">
        <ele>98.589511</ele>
        <time>2022-06-12T13:15:16.084Z</time>
      </trkpt>
      <trkpt lat="43.32828" lon="17.81593">
        <ele>98.77601</ele>
        <time>2022-06-12T13:15:23.122Z</time>
      </trkpt>
      <trkpt lat="43.32838" lon="17.81591">
        <ele>98.979871</ele>
        <time>2022-06-12T13:15:31.077Z</time>
      </trkpt>
      <trkpt lat="43.32847" lon="17.81587">
        <ele>99.187691</ele>
        <time>2022-06-12T13:15:39.088Z</time>
      </trkpt>
      <trkpt lat="43.32856" lon="17.81583">
        <ele>99.375559</ele>
        <time>2022-06-12T13:15:46.089Z</time>
      </trkpt>
      <trkpt lat="43.32865" lon="17.8158">
        <ele>99.565466</ele>
        <time>2022-06-12T13:15:54.091Z</time>
      </trkpt>
      <trkpt lat="43.32874" lon="17.81577">
        <ele>99.762389</ele>
        <time>2022-06-12T13:16:02.091Z</time>
      </trkpt>
      <trkpt lat="43.32901" lon="17.81562">
        <ele>100.364744</ele>
        <time>2022-06-12T13:17:41.088Z</time>
      </trkpt>
      <trkpt lat="43.3291" lon="17.81561">
        <ele>100.553264</ele>
        <time>2022-06-12T13:17:50.100Z</time>
      </trkpt>
      <trkpt lat="43.3292" lon="17.81561">
        <ele>100.623678</ele>
        <time>2022-06-12T13:17:58.088Z</time>
      </trkpt>
      <trkpt lat="43.32929" lon="17.81558">
        <ele>100.493943</ele>
        <time>2022-06-12T13:18:07.118Z</time>
      </trkpt>
      <trkpt lat="43.32939" lon="17.81554">
        <ele>100.363637</ele>
        <time>2022-06-12T13:18:15.106Z</time>
      </trkpt>
      <trkpt lat="43.32948" lon="17.81551">
        <ele>100.241721</ele>
        <time>2022-06-12T13:18:23.076Z</time>
      </trkpt>
      <trkpt lat="43.32959" lon="17.81548">
        <ele>100.108612</ele>
        <time>2022-06-12T13:18:31.087Z</time>
      </trkpt>
      <trkpt lat="43.32968" lon="17.81546">
        <ele>99.993622</ele>
        <time>2022-06-12T13:18:37.089Z</time>
      </trkpt>
      <trkpt lat="43.32978" lon="17.81546">
        <ele>99.864155</ele>
        <time>2022-06-12T13:18:43.088Z</time>
      </trkpt>
      <trkpt lat="43.32987" lon="17.81544">
        <ele>99.737627</ele>
        <time>2022-06-12T13:18:49.075Z</time>
      </trkpt>
      <trkpt lat="43.32997" lon="17.81543">
        <ele>99.609083</ele>
        <time>2022-06-12T13:18:55.097Z</time>
      </trkpt>
      <trkpt lat="43.33006" lon="17.81541">
        <ele>99.493064</ele>
        <time>2022-06-12T13:19:00.080Z</time>
      </trkpt>
      <trkpt lat="43.33016" lon="17.8154">
        <ele>99.364874</ele>
        <time>2022-06-12T13:19:07.094Z</time>
      </trkpt>
      <trkpt lat="43.33026" lon="17.81539">
        <ele>99.241331</ele>
        <time>2022-06-12T13:19:18.091Z</time>
      </trkpt>
      <trkpt lat="43.33036" lon="17.81537">
        <ele>99.116192</ele>
        <time>2022-06-12T13:19:28.095Z</time>
      </trkpt>
      <trkpt lat="43.33046" lon="17.81535">
        <ele>98.987003</ele>
        <time>2022-06-12T13:19:34.081Z</time>
      </trkpt>
      <trkpt lat="43.33055" lon="17.81535">
        <ele>98.870532</ele>
        <time>2022-06-12T13:19:40.083Z</time>
      </trkpt>
      <trkpt lat="43.33065" lon="17.81535">
        <ele>98.746385</ele>
        <time>2022-06-12T13:19:48.080Z</time>
      </trkpt>
      <trkpt lat="43.33074" lon="17.81535">
        <ele>98.624796</ele>
        <time>2022-06-12T13:19:58.089Z</time>
      </trkpt>
      <trkpt lat="43.33083" lon="17.81535">
        <ele>98.507028</ele>
        <time>2022-06-12T13:20:07.089Z</time>
      </trkpt>
      <trkpt lat="43.33093" lon="17.81534">
        <ele>98.375935</ele>
        <time>2022-06-12T13:20:15.147Z</time>
      </trkpt>
      <trkpt lat="43.33104" lon="17.81532">
        <ele>99.347217</ele>
        <time>2022-06-12T13:20:24.080Z</time>
      </trkpt>
      <trkpt lat="43.33113" lon="17.8153">
        <ele>100.296311</ele>
        <time>2022-06-12T13:20:33.082Z</time>
      </trkpt>
      <trkpt lat="43.33121" lon="17.81526">
        <ele>101.230877</ele>
        <time>2022-06-12T13:20:47.090Z</time>
      </trkpt>
      <trkpt lat="43.3313" lon="17.81519">
        <ele>102.202701</ele>
        <time>2022-06-12T13:20:56.089Z</time>
      </trkpt>
      <trkpt lat="43.3314" lon="17.81516">
        <ele>103.243334</ele>
        <time>2022-06-12T13:21:04.084Z</time>
      </trkpt>
      <trkpt lat="43.33149" lon="17.81514">
        <ele>104.186252</ele>
        <time>2022-06-12T13:21:11.078Z</time>
      </trkpt>
      <trkpt lat="43.33159" lon="17.8151">
        <ele>105.202956</ele>
        <time>2022-06-12T13:21:20.078Z</time>
      </trkpt>
      <trkpt lat="43.33168" lon="17.81508">
        <ele>106.152012</ele>
        <time>2022-06-12T13:21:28.116Z</time>
      </trkpt>
      <trkpt lat="43.33177" lon="17.81506">
        <ele>107.122402</ele>
        <time>2022-06-12T13:21:35.127Z</time>
      </trkpt>
      <trkpt lat="43.33186" lon="17.81501">
        <ele>108.065357</ele>
        <time>2022-06-12T13:21:43.086Z</time>
      </trkpt>
      <trkpt lat="43.33195" lon="17.81496">
        <ele>109.016973</ele>
        <time>2022-06-12T13:21:51.079Z</time>
      </trkpt>
      <trkpt lat="43.33204" lon="17.81492">
        <ele>110.038051</ele>
        <time>2022-06-12T13:21:59.076Z</time>
      </trkpt>
      <trkpt lat="43.33213" lon="17.81488">
        <ele>111.011681</ele>
        <time>2022-06-12T13:22:08.084Z</time>
      </trkpt>
      <trkpt lat="43.33223" lon="17.81484">
        <ele>111.985312</ele>
        <time>2022-06-12T13:22:18.076Z</time>
      </trkpt>
      <trkpt lat="43.33233" lon="17.81481">
        <ele>113.033024</ele>
        <time>2022-06-12T13:22:27.088Z</time>
      </trkpt>
      <trkpt lat="43.33242" lon="17.81479">
        <ele>113.961949</ele>
        <time>2022-06-12T13:22:32.120Z</time>
      </trkpt>
      <trkpt lat="43.33252" lon="17.81477">
        <ele>115.000802</ele>
        <time>2022-06-12T13:22:39.087Z</time>
      </trkpt>
      <trkpt lat="43.33261" lon="17.81472">
        <ele>115.961923</ele>
        <time>2022-06-12T13:22:54.092Z</time>
      </trkpt>
      <trkpt lat="43.33269" lon="17.81467">
        <ele>116.721086</ele>
        <time>2022-06-12T13:23:04.075Z</time>
      </trkpt>
      <trkpt lat="43.33271" lon="17.81453">
        <ele>117.112272</ele>
        <time>2022-06-12T13:23:14.087Z</time>
      </trkpt>
      <trkpt lat="43.33279" lon="17.81447">
        <ele>117.476496</ele>
        <time>2022-06-12T13:23:21.120Z</time>
      </trkpt>
      <trkpt lat="43.33289" lon="17.81443">
        <ele>117.858439</ele>
        <time>2022-06-12T13:23:28.071Z</time>
      </trkpt>
      <trkpt lat="43.33298" lon="17.81438">
        <ele>118.238663</ele>
        <time>2022-06-12T13:23:36.090Z</time>
      </trkpt>
      <trkpt lat="43.33305" lon="17.81431">
        <ele>118.592873</ele>
        <time>2022-06-12T13:23:44.092Z</time>
      </trkpt>
      <trkpt lat="43.33314" lon="17.81424">
        <ele>118.989118</ele>
        <time>2022-06-12T13:23:54.081Z</time>
      </trkpt>
      <trkpt lat="43.33323" lon="17.81417">
        <ele>119.374832</ele>
        <time>2022-06-12T13:24:03.085Z</time>
      </trkpt>
      <trkpt lat="43.33331" lon="17.8141">
        <ele>119.770646</ele>
        <time>2022-06-12T13:24:11.092Z</time>
      </trkpt>
      <trkpt lat="43.3334" lon="17.81404">
        <ele>120.148631</ele>
        <time>2022-06-12T13:24:21.089Z</time>
      </trkpt>
      <trkpt lat="43.33347" lon="17.81395">
        <ele>120.515964</ele>
        <time>2022-06-12T13:24:32.120Z</time>
      </trkpt>
      <trkpt lat="43.33357" lon="17.81391">
        <ele>120.899786</ele>
        <time>2022-06-12T13:24:40.100Z</time>
      </trkpt>
      <trkpt lat="43.33366" lon="17.81391">
        <ele>121.280405</ele>
        <time>2022-06-12T13:24:46.091Z</time>
      </trkpt>
      <trkpt lat="43.33376" lon="17.81393">
        <ele>121.647899</ele>
        <time>2022-06-12T13:24:51.088Z</time>
      </trkpt>
      <trkpt lat="43.33386" lon="17.81395">
        <ele>122.045941</ele>
        <time>2022-06-12T13:24:57.084Z</time>
      </trkpt>
      <trkpt lat="43.33396" lon="17.81397">
        <ele>122.449904</ele>
        <time>2022-06-12T13:25:03.073Z</time>
      </trkpt>
      <trkpt lat="43.33406" lon="17.81396">
        <ele>122.827454</ele>
        <time>2022-06-12T13:25:11.125Z</time>
      </trkpt>
      <trkpt lat="43.33415" lon="17.81392">
        <ele>123.193801</ele>
        <time>2022-06-12T13:25:20.083Z</time>
      </trkpt>
      <trkpt lat="43.33423" lon="17.81385">
        <ele>123.550736</ele>
        <time>2022-06-12T13:25:28.140Z</time>
      </trkpt>
      <trkpt lat="43.33432" lon="17.8138">
        <ele>122.913512</ele>
        <time>2022-06-12T13:25:36.087Z</time>
      </trkpt>
      <trkpt lat="43.33441" lon="17.81378">
        <ele>122.207476</ele>
        <time>2022-06-12T13:25:43.099Z</time>
      </trkpt>
      <trkpt lat="43.3345" lon="17.81375">
        <ele>121.51383</ele>
        <time>2022-06-12T13:25:51.080Z</time>
      </trkpt>
      <trkpt lat="43.33459" lon="17.81367">
        <ele>120.767955</ele>
        <time>2022-06-12T13:26:01.115Z</time>
      </trkpt>
      <trkpt lat="43.33467" lon="17.81365">
        <ele>120.086824</ele>
        <time>2022-06-12T13:26:11.097Z</time>
      </trkpt>
      <trkpt lat="43.33475" lon="17.81356">
        <ele>119.380101</ele>
        <time>2022-06-12T13:26:18.102Z</time>
      </trkpt>
      <trkpt lat="43.33481" lon="17.81347">
        <ele>118.671092</ele>
        <time>2022-06-12T13:26:24.089Z</time>
      </trkpt>
      <trkpt lat="43.33488" lon="17.81336">
        <ele>117.912619</ele>
        <time>2022-06-12T13:26:32.092Z</time>
      </trkpt>
      <trkpt lat="43.33496" lon="17.81328">
        <ele>117.177249</ele>
        <time>2022-06-12T13:26:41.074Z</time>
      </trkpt>
      <trkpt lat="43.33502" lon="17.81319">
        <ele>116.49161</ele>
        <time>2022-06-12T13:26:49.089Z</time>
      </trkpt>
      <trkpt lat="43.3351" lon="17.8131">
        <ele>115.732017</ele>
        <time>2022-06-12T13:26:58.138Z</time>
      </trkpt>
      <trkpt lat="43.33518" lon="17.81303">
        <ele>115.053416</ele>
        <time>2022-06-12T13:27:06.074Z</time>
      </trkpt>
      <trkpt lat="43.33525" lon="17.81294">
        <ele>114.333964</ele>
        <time>2022-06-12T13:27:15.089Z</time>
      </trkpt>
      <trkpt lat="43.33531" lon="17.81284">
        <ele>113.608147</ele>
        <time>2022-06-12T13:27:24.087Z</time>
      </trkpt>
      <trkpt lat="43.33537" lon="17.81273">
        <ele>112.859031</ele>
        <time>2022-06-12T13:27:33.089Z</time>
      </trkpt>
      <trkpt lat="43.33545" lon="17.81264">
        <ele>112.116832</ele>
        <time>2022-06-12T13:27:41.083Z</time>
      </trkpt>
      <trkpt lat="43.33553" lon="17.81256">
        <ele>111.413796</ele>
        <time>2022-06-12T13:27:49.083Z</time>
      </trkpt>
      <trkpt lat="43.33559" lon="17.81247">
        <ele>110.704438</ele>
        <time>2022-06-12T13:27:57.092Z</time>
      </trkpt>
      <trkpt lat="43.33566" lon="17.81238">
        <ele>110.188519</ele>
        <time>2022-06-12T13:28:05.129Z</time>
      </trkpt>
      <trkpt lat="43.33573" lon="17.81229">
        <ele>110.183643</ele>
        <time>2022-06-12T13:28:13.086Z</time>
      </trkpt>
      <trkpt lat="43.3358" lon="17.8122">
        <ele>110.178506</ele>
        <time>2022-06-12T13:28:21.091Z</time>
      </trkpt>
      <trkpt lat="43.33588" lon="17.81212">
        <ele>110.173156</ele>
        <time>2022-06-12T13:28:30.113Z</time>
      </trkpt>
      <trkpt lat="43.33595" lon="17.81204">
        <ele>110.168226</ele>
        <time>2022-06-12T13:28:38.116Z</time>
      </trkpt>
      <trkpt lat="43.33601" lon="17.81194">
        <ele>110.16302</ele>
        <time>2022-06-12T13:28:46.083Z</time>
      </trkpt>
      <trkpt lat="43.33604" lon="17.81181">
        <ele>110.1581</ele>
        <time>2022-06-12T13:28:56.105Z</time>
      </trkpt>
      <trkpt lat="43.33613" lon="17.81174">
        <ele>110.152844</ele>
        <time>2022-06-12T13:29:08.099Z</time>
      </trkpt>
      <trkpt lat="43.33619" lon="17.81164">
        <ele>110.147796</ele>
        <time>2022-06-12T13:29:16.058Z</time>
      </trkpt>
      <trkpt lat="43.33624" lon="17.81152">
        <ele>110.14242</ele>
        <time>2022-06-12T13:29:26.064Z</time>
      </trkpt>
      <trkpt lat="43.33629" lon="17.81141">
        <ele>110.137291</ele>
        <time>2022-06-12T13:29:34.064Z</time>
      </trkpt>
      <trkpt lat="43.33635" lon="17.81131">
        <ele>110.132458</ele>
        <time>2022-06-12T13:29:43.066Z</time>
      </trkpt>
      <trkpt lat="43.33642" lon="17.81123">
        <ele>110.127501</ele>
        <time>2022-06-12T13:29:50.093Z</time>
      </trkpt>
      <trkpt lat="43.3365" lon="17.81115">
        <ele>110.122135</ele>
        <time>2022-06-12T13:29:59.113Z</time>
      </trkpt>
      <trkpt lat="43.33658" lon="17.81107">
        <ele>110.117219</ele>
        <time>2022-06-12T13:30:04.084Z</time>
      </trkpt>
      <trkpt lat="43.33666" lon="17.81098">
        <ele>110.111773</ele>
        <time>2022-06-12T13:30:10.092Z</time>
      </trkpt>
      <trkpt lat="43.33672" lon="17.81089">
        <ele>110.1068</ele>
        <time>2022-06-12T13:30:16.103Z</time>
      </trkpt>
      <trkpt lat="43.33679" lon="17.8108">
        <ele>110.101803</ele>
        <time>2022-06-12T13:30:24.093Z</time>
      </trkpt>
      <trkpt lat="43.33687" lon="17.81072">
        <ele>110.096756</ele>
        <time>2022-06-12T13:30:32.089Z</time>
      </trkpt>
      <trkpt lat="43.33695" lon="17.81063">
        <ele>110.050565</ele>
        <time>2022-06-12T13:30:42.088Z</time>
      </trkpt>
      <trkpt lat="43.33702" lon="17.81055">
        <ele>109.989906</ele>
        <time>2022-06-12T13:30:49.085Z</time>
      </trkpt>
      <trkpt lat="43.33702" lon="17.81042">
        <ele>109.928805</ele>
        <time>2022-06-12T13:31:03.089Z</time>
      </trkpt>
      <trkpt lat="43.33695" lon="17.81033">
        <ele>109.865641</ele>
        <time>2022-06-12T13:31:09.087Z</time>
      </trkpt>
      <trkpt lat="43.33698" lon="17.81021">
        <ele>109.803388</ele>
        <time>2022-06-12T13:31:17.083Z</time>
      </trkpt>
      <trkpt lat="43.33708" lon="17.81021">
        <ele>109.738109</ele>
        <time>2022-06-12T13:31:29.082Z</time>
      </trkpt>
      <trkpt lat="43.33717" lon="17.81017">
        <ele>109.676458</ele>
        <time>2022-06-12T13:31:35.065Z</time>
      </trkpt>
      <trkpt lat="43.33725" lon="17.8101">
        <ele>109.611193</ele>
        <time>2022-06-12T13:31:43.060Z</time>
      </trkpt>
      <trkpt lat="43.3373" lon="17.80992">
        <ele>109.516522</ele>
        <time>2022-06-12T13:31:50.091Z</time>
      </trkpt>
      <trkpt lat="43.3373" lon="17.80978">
        <ele>109.448853</ele>
        <time>2022-06-12T13:31:58.059Z</time>
      </trkpt>
      <trkpt lat="43.33729" lon="17.80965">
        <ele>109.385851</ele>
        <time>2022-06-12T13:32:05.062Z</time>
      </trkpt>
      <trkpt lat="43.33729" lon="17.80953">
        <ele>109.325001</ele>
        <time>2022-06-12T13:32:13.071Z</time>
      </trkpt>
      <trkpt lat="43.33732" lon="17.8094">
        <ele>109.258968</ele>
        <time>2022-06-12T13:32:21.063Z</time>
      </trkpt>
      <trkpt lat="43.33734" lon="17.80927">
        <ele>109.196069</ele>
        <time>2022-06-12T13:32:29.068Z</time>
      </trkpt>
      <trkpt lat="43.33734" lon="17.80914">
        <ele>109.129425</ele>
        <time>2022-06-12T13:32:37.074Z</time>
      </trkpt>
      <trkpt lat="43.33735" lon="17.809">
        <ele>109.063582</ele>
        <time>2022-06-12T13:32:45.068Z</time>
      </trkpt>
      <trkpt lat="43.33735" lon="17.80888">
        <ele>109.001901</ele>
        <time>2022-06-12T13:32:52.057Z</time>
      </trkpt>
      <trkpt lat="43.33736" lon="17.80874">
        <ele>108.935636</ele>
        <time>2022-06-12T13:33:00.059Z</time>
      </trkpt>
      <trkpt lat="43.33738" lon="17.80861">
        <ele>108.982034</ele>
        <time>2022-06-12T13:33:08.060Z</time>
      </trkpt>
      <trkpt lat="43.3374" lon="17.80847">
        <ele>109.355053</ele>
        <time>2022-06-12T13:33:16.058Z</time>
      </trkpt>
      <trkpt lat="43.33744" lon="17.80834">
        <ele>109.727817</ele>
        <time>2022-06-12T13:33:24.064Z</time>
      </trkpt>
      <trkpt lat="43.33748" lon="17.80822">
        <ele>110.083177</ele>
        <time>2022-06-12T13:33:33.067Z</time>
      </trkpt>
      <trkpt lat="43.33747" lon="17.80809">
        <ele>110.447204</ele>
        <time>2022-06-12T13:33:42.063Z</time>
      </trkpt>
      <trkpt lat="43.33749" lon="17.80796">
        <ele>110.798366</ele>
        <time>2022-06-12T13:33:52.066Z</time>
      </trkpt>
      <trkpt lat="43.33748" lon="17.80784">
        <ele>111.130191</ele>
        <time>2022-06-12T13:34:00.060Z</time>
      </trkpt>
      <trkpt lat="43.33754" lon="17.80773">
        <ele>111.48392</ele>
        <time>2022-06-12T13:34:14.103Z</time>
      </trkpt>
      <trkpt lat="43.33757" lon="17.8076">
        <ele>111.836267</ele>
        <time>2022-06-12T13:34:32.059Z</time>
      </trkpt>
      <trkpt lat="43.33766" lon="17.8076">
        <ele>112.192974</ele>
        <time>2022-06-12T13:34:43.066Z</time>
      </trkpt>
      <trkpt lat="43.33778" lon="17.80762">
        <ele>112.625922</ele>
        <time>2022-06-12T13:34:47.065Z</time>
      </trkpt>
      <trkpt lat="43.33789" lon="17.80768">
        <ele>113.0819</ele>
        <time>2022-06-12T13:34:52.064Z</time>
      </trkpt>
      <trkpt lat="43.33799" lon="17.80774">
        <ele>113.470585</ele>
        <time>2022-06-12T13:34:56.058Z</time>
      </trkpt>
      <trkpt lat="43.33809" lon="17.80772">
        <ele>113.862935</ele>
        <time>2022-06-12T13:35:01.064Z</time>
      </trkpt>
      <trkpt lat="43.33818" lon="17.80775">
        <ele>114.199741</ele>
        <time>2022-06-12T13:35:10.060Z</time>
      </trkpt>
      <trkpt lat="43.33827" lon="17.80774">
        <ele>114.549707</ele>
        <time>2022-06-12T13:35:18.057Z</time>
      </trkpt>
      <trkpt lat="43.33835" lon="17.80768">
        <ele>114.890329</ele>
        <time>2022-06-12T13:35:25.065Z</time>
      </trkpt>
      <trkpt lat="43.33837" lon="17.80756">
        <ele>115.23015</ele>
        <time>2022-06-12T13:35:35.065Z</time>
      </trkpt>
      <trkpt lat="43.33835" lon="17.80743">
        <ele>115.553643</ele>
        <time>2022-06-12T13:35:42.059Z</time>
      </trkpt>
      <trkpt lat="43.33836" lon="17.8073">
        <ele>115.553643</ele>
        <time>2022-06-12T13:35:52.106Z</time>
      </trkpt>
      <trkpt lat="43.33835" lon="17.80717">
        <ele>115.553643</ele>
        <time>2022-06-12T13:35:59.058Z</time>
      </trkpt>
      <trkpt lat="43.33828" lon="17.80708">
        <ele>115.553643</ele>
        <time>2022-06-12T13:36:06.058Z</time>
      </trkpt>
      <trkpt lat="43.33827" lon="17.80695">
        <ele>115.553643</ele>
        <time>2022-06-12T13:36:13.061Z</time>
      </trkpt>
      <trkpt lat="43.33827" lon="17.80682">
        <ele>115.553643</ele>
        <time>2022-06-12T13:36:23.059Z</time>
      </trkpt>
      <trkpt lat="43.33832" lon="17.80673">
        <ele>115.553643</ele>
        <time>2022-06-12T13:36:35.061Z</time>
      </trkpt>
      <trkpt lat="43.33832" lon="17.80659">
        <ele>115.553643</ele>
        <time>2022-06-12T13:36:43.055Z</time>
      </trkpt>
      <trkpt lat="43.33841" lon="17.80658">
        <ele>115.553643</ele>
        <time>2022-06-12T13:37:09.072Z</time>
      </trkpt>
      <trkpt lat="43.33798" lon="17.80729">
        <ele>115.553643</ele>
        <time>2022-06-12T13:59:56.777Z</time>
      </trkpt>
    </trkseg>
  </trk>
</gpx>